<?xml version="1.0" encoding="UTF-8" standalone="no" ?>
<gpx xmlns="http://www.topografix.com/GPX/1/1" xmlns:xsi="http://www.w3.org/2001/XMLSchema-instance" xsi:schemaLocation="http://www.topografix.com/GPX/1/1 http://www.topografix.com/GPX/1/1/gpx.xsd" version="1.1" creator="VisuGPX - https://www.visugpx.com">
  <metadata>
    <name>Edirne-Mostar</name>
  </metadata>
  <trk>
    <name><![CDATA[Tour d'Europe: étape 713]]></name>
    <extensions>
      <line xmlns="http://www.topografix.com/GPX/gpx_style/0/2">
        <color>FF0000</color>
        <width>4</width>
      </line>
    </extensions>
    <trkseg>
      <trkpt lat="42.64141" lon="18.10949">
        <ele>52.612819</ele>
        <time>2022-06-10T07:51:07.575Z</time>
      </trkpt>
      <trkpt lat="42.6413" lon="18.10944">
        <ele>52.612819</ele>
        <time>2022-06-10T07:51:09.464Z</time>
      </trkpt>
      <trkpt lat="42.64117" lon="18.10933">
        <ele>52.612819</ele>
        <time>2022-06-10T07:51:11.723Z</time>
      </trkpt>
      <trkpt lat="42.64106" lon="18.10942">
        <ele>52.612819</ele>
        <time>2022-06-10T07:53:12.704Z</time>
      </trkpt>
      <trkpt lat="42.64104" lon="18.10958">
        <ele>52.612819</ele>
        <time>2022-06-10T07:54:57.703Z</time>
      </trkpt>
      <trkpt lat="42.64114" lon="18.10944">
        <ele>52.612819</ele>
        <time>2022-06-10T07:56:08.730Z</time>
      </trkpt>
      <trkpt lat="42.64117" lon="18.10979">
        <ele>52.692345</ele>
        <time>2022-06-10T07:56:57.692Z</time>
      </trkpt>
      <trkpt lat="42.64114" lon="18.10991">
        <ele>53.036753</ele>
        <time>2022-06-10T07:57:05.679Z</time>
      </trkpt>
      <trkpt lat="42.6411" lon="18.11002">
        <ele>53.395018</ele>
        <time>2022-06-10T07:57:14.758Z</time>
      </trkpt>
      <trkpt lat="42.64105" lon="18.11013">
        <ele>53.74846</ele>
        <time>2022-06-10T07:57:20.696Z</time>
      </trkpt>
      <trkpt lat="42.64101" lon="18.11025">
        <ele>54.107061</ele>
        <time>2022-06-10T07:57:26.713Z</time>
      </trkpt>
      <trkpt lat="42.64096" lon="18.11036">
        <ele>54.477479</ele>
        <time>2022-06-10T07:57:34.690Z</time>
      </trkpt>
      <trkpt lat="42.64095" lon="18.11049">
        <ele>54.845059</ele>
        <time>2022-06-10T07:57:41.696Z</time>
      </trkpt>
      <trkpt lat="42.64094" lon="18.11062">
        <ele>55.210427</ele>
        <time>2022-06-10T07:57:50.694Z</time>
      </trkpt>
      <trkpt lat="42.64094" lon="18.11075">
        <ele>55.570974</ele>
        <time>2022-06-10T07:58:00.699Z</time>
      </trkpt>
      <trkpt lat="42.64103" lon="18.11078">
        <ele>55.923246</ele>
        <time>2022-06-10T07:58:08.708Z</time>
      </trkpt>
      <trkpt lat="42.64113" lon="18.11081">
        <ele>56.29012</ele>
        <time>2022-06-10T07:58:15.694Z</time>
      </trkpt>
      <trkpt lat="42.64122" lon="18.11084">
        <ele>56.682189</ele>
        <time>2022-06-10T07:58:21.706Z</time>
      </trkpt>
      <trkpt lat="42.64132" lon="18.11089">
        <ele>57.079333</ele>
        <time>2022-06-10T07:58:27.689Z</time>
      </trkpt>
      <trkpt lat="42.64141" lon="18.11096">
        <ele>57.470576</ele>
        <time>2022-06-10T07:58:33.694Z</time>
      </trkpt>
      <trkpt lat="42.64147" lon="18.11107">
        <ele>57.859823</ele>
        <time>2022-06-10T07:58:40.699Z</time>
      </trkpt>
      <trkpt lat="42.64152" lon="18.11118">
        <ele>58.236271</ele>
        <time>2022-06-10T07:58:46.696Z</time>
      </trkpt>
      <trkpt lat="42.64159" lon="18.11129">
        <ele>58.633124</ele>
        <time>2022-06-10T07:58:53.687Z</time>
      </trkpt>
      <trkpt lat="42.64165" lon="18.11139">
        <ele>58.983926</ele>
        <time>2022-06-10T07:59:01.692Z</time>
      </trkpt>
      <trkpt lat="42.64171" lon="18.11148">
        <ele>59.344901</ele>
        <time>2022-06-10T07:59:12.724Z</time>
      </trkpt>
      <trkpt lat="42.6418" lon="18.11153">
        <ele>59.386626</ele>
        <time>2022-06-10T07:59:24.688Z</time>
      </trkpt>
      <trkpt lat="42.64189" lon="18.11158">
        <ele>59.244424</ele>
        <time>2022-06-10T07:59:37.698Z</time>
      </trkpt>
      <trkpt lat="42.64192" lon="18.1117">
        <ele>59.099268</ele>
        <time>2022-06-10T07:59:48.704Z</time>
      </trkpt>
      <trkpt lat="42.64193" lon="18.11184">
        <ele>58.940904</ele>
        <time>2022-06-10T07:59:53.696Z</time>
      </trkpt>
      <trkpt lat="42.64195" lon="18.11197">
        <ele>58.79829</ele>
        <time>2022-06-10T07:59:57.765Z</time>
      </trkpt>
      <trkpt lat="42.64196" lon="18.11209">
        <ele>58.649572</ele>
        <time>2022-06-10T08:00:02.704Z</time>
      </trkpt>
      <trkpt lat="42.64198" lon="18.11222">
        <ele>58.507837</ele>
        <time>2022-06-10T08:00:09.694Z</time>
      </trkpt>
      <trkpt lat="42.642" lon="18.11235">
        <ele>58.357641</ele>
        <time>2022-06-10T08:00:17.698Z</time>
      </trkpt>
      <trkpt lat="42.64203" lon="18.11247">
        <ele>58.212004</ele>
        <time>2022-06-10T08:00:24.737Z</time>
      </trkpt>
      <trkpt lat="42.64205" lon="18.11259">
        <ele>58.070552</ele>
        <time>2022-06-10T08:00:30.697Z</time>
      </trkpt>
      <trkpt lat="42.64205" lon="18.11271">
        <ele>57.930691</ele>
        <time>2022-06-10T08:00:39.691Z</time>
      </trkpt>
      <trkpt lat="42.64204" lon="18.11284">
        <ele>57.779839</ele>
        <time>2022-06-10T08:00:50.706Z</time>
      </trkpt>
      <trkpt lat="42.64203" lon="18.11296">
        <ele>57.64124</ele>
        <time>2022-06-10T08:00:56.702Z</time>
      </trkpt>
      <trkpt lat="42.64204" lon="18.1131">
        <ele>57.490673</ele>
        <time>2022-06-10T08:01:03.727Z</time>
      </trkpt>
      <trkpt lat="42.64213" lon="18.11311">
        <ele>57.34091</ele>
        <time>2022-06-10T08:05:05.693Z</time>
      </trkpt>
      <trkpt lat="42.64205" lon="18.11317">
        <ele>57.19827</ele>
        <time>2022-06-10T08:05:52.695Z</time>
      </trkpt>
      <trkpt lat="42.64204" lon="18.11329">
        <ele>57.052505</ele>
        <time>2022-06-10T08:05:59.725Z</time>
      </trkpt>
      <trkpt lat="42.64202" lon="18.11342">
        <ele>56.904641</ele>
        <time>2022-06-10T08:06:08.695Z</time>
      </trkpt>
      <trkpt lat="42.64201" lon="18.11354">
        <ele>56.765402</ele>
        <time>2022-06-10T08:06:16.695Z</time>
      </trkpt>
      <trkpt lat="42.642" lon="18.11368">
        <ele>56.502442</ele>
        <time>2022-06-10T08:06:22.690Z</time>
      </trkpt>
      <trkpt lat="42.642" lon="18.11381">
        <ele>56.196543</ele>
        <time>2022-06-10T08:06:30.721Z</time>
      </trkpt>
      <trkpt lat="42.64198" lon="18.11399">
        <ele>55.754584</ele>
        <time>2022-06-10T08:13:35.702Z</time>
      </trkpt>
      <trkpt lat="42.64209" lon="18.11296">
        <ele>53.211311</ele>
        <time>2022-06-10T08:16:56.706Z</time>
      </trkpt>
      <trkpt lat="42.64222" lon="18.11295">
        <ele>52.798673</ele>
        <time>2022-06-10T08:16:59.704Z</time>
      </trkpt>
      <trkpt lat="42.64231" lon="18.1129">
        <ele>52.470738</ele>
        <time>2022-06-10T08:17:01.711Z</time>
      </trkpt>
      <trkpt lat="42.6424" lon="18.11286">
        <ele>52.154643</ele>
        <time>2022-06-10T08:17:03.699Z</time>
      </trkpt>
      <trkpt lat="42.64249" lon="18.11279">
        <ele>51.819346</ele>
        <time>2022-06-10T08:17:05.685Z</time>
      </trkpt>
      <trkpt lat="42.64254" lon="18.11267">
        <ele>51.495021</ele>
        <time>2022-06-10T08:17:07.768Z</time>
      </trkpt>
      <trkpt lat="42.64252" lon="18.11248">
        <ele>51.025285</ele>
        <time>2022-06-10T08:17:10.700Z</time>
      </trkpt>
      <trkpt lat="42.64249" lon="18.11234">
        <ele>50.759919</ele>
        <time>2022-06-10T08:17:12.700Z</time>
      </trkpt>
      <trkpt lat="42.64245" lon="18.11218">
        <ele>50.94604</ele>
        <time>2022-06-10T08:17:14.706Z</time>
      </trkpt>
      <trkpt lat="42.6424" lon="18.11199">
        <ele>51.166789</ele>
        <time>2022-06-10T08:17:16.707Z</time>
      </trkpt>
      <trkpt lat="42.64236" lon="18.1118">
        <ele>51.383667</ele>
        <time>2022-06-10T08:17:18.698Z</time>
      </trkpt>
      <trkpt lat="42.64233" lon="18.11151">
        <ele>51.701714</ele>
        <time>2022-06-10T08:17:21.764Z</time>
      </trkpt>
      <trkpt lat="42.6423" lon="18.11118">
        <ele>52.064006</ele>
        <time>2022-06-10T08:17:24.703Z</time>
      </trkpt>
      <trkpt lat="42.6423" lon="18.11096">
        <ele>52.307341</ele>
        <time>2022-06-10T08:17:26.713Z</time>
      </trkpt>
      <trkpt lat="42.64237" lon="18.11056">
        <ele>52.760849</ele>
        <time>2022-06-10T08:17:31.747Z</time>
      </trkpt>
      <trkpt lat="42.64246" lon="18.11044">
        <ele>52.935885</ele>
        <time>2022-06-10T08:17:33.708Z</time>
      </trkpt>
      <trkpt lat="42.64256" lon="18.11041">
        <ele>53.098427</ele>
        <time>2022-06-10T08:17:35.699Z</time>
      </trkpt>
      <trkpt lat="42.64322" lon="18.11098">
        <ele>56.048726</ele>
        <time>2022-06-10T08:17:48.701Z</time>
      </trkpt>
      <trkpt lat="42.64328" lon="18.11117">
        <ele>56.774678</ele>
        <time>2022-06-10T08:17:50.700Z</time>
      </trkpt>
      <trkpt lat="42.64332" lon="18.11141">
        <ele>57.597423</ele>
        <time>2022-06-10T08:17:52.700Z</time>
      </trkpt>
      <trkpt lat="42.64332" lon="18.11154">
        <ele>58.022393</ele>
        <time>2022-06-10T08:17:53.698Z</time>
      </trkpt>
      <trkpt lat="42.64332" lon="18.11167">
        <ele>58.464459</ele>
        <time>2022-06-10T08:17:54.746Z</time>
      </trkpt>
      <trkpt lat="42.64331" lon="18.11179">
        <ele>58.88953</ele>
        <time>2022-06-10T08:17:55.745Z</time>
      </trkpt>
      <trkpt lat="42.64332" lon="18.11202">
        <ele>59.657933</ele>
        <time>2022-06-10T08:17:57.703Z</time>
      </trkpt>
      <trkpt lat="42.64333" lon="18.1122">
        <ele>60.291656</ele>
        <time>2022-06-10T08:17:59.706Z</time>
      </trkpt>
      <trkpt lat="42.64333" lon="18.1124">
        <ele>60.954674</ele>
        <time>2022-06-10T08:18:01.707Z</time>
      </trkpt>
      <trkpt lat="42.64334" lon="18.1126">
        <ele>61.632237</ele>
        <time>2022-06-10T08:18:03.707Z</time>
      </trkpt>
      <trkpt lat="42.64335" lon="18.11281">
        <ele>63.019014</ele>
        <time>2022-06-10T08:18:05.711Z</time>
      </trkpt>
      <trkpt lat="42.64337" lon="18.11303">
        <ele>64.460654</ele>
        <time>2022-06-10T08:18:07.701Z</time>
      </trkpt>
      <trkpt lat="42.64336" lon="18.11326">
        <ele>66.065618</ele>
        <time>2022-06-10T08:18:09.707Z</time>
      </trkpt>
      <trkpt lat="42.64335" lon="18.11339">
        <ele>66.894248</ele>
        <time>2022-06-10T08:18:10.747Z</time>
      </trkpt>
      <trkpt lat="42.64333" lon="18.11352">
        <ele>67.812484</ele>
        <time>2022-06-10T08:18:11.697Z</time>
      </trkpt>
      <trkpt lat="42.64331" lon="18.11374">
        <ele>69.303303</ele>
        <time>2022-06-10T08:18:13.699Z</time>
      </trkpt>
      <trkpt lat="42.6431" lon="18.11499">
        <ele>77.991859</ele>
        <time>2022-06-10T08:18:26.714Z</time>
      </trkpt>
      <trkpt lat="42.64312" lon="18.11521">
        <ele>78.87311</ele>
        <time>2022-06-10T08:18:28.706Z</time>
      </trkpt>
      <trkpt lat="42.64313" lon="18.11533">
        <ele>79.323555</ele>
        <time>2022-06-10T08:18:29.740Z</time>
      </trkpt>
      <trkpt lat="42.64313" lon="18.11547">
        <ele>79.823603</ele>
        <time>2022-06-10T08:18:30.767Z</time>
      </trkpt>
      <trkpt lat="42.64313" lon="18.11561">
        <ele>80.316268</ele>
        <time>2022-06-10T08:18:31.738Z</time>
      </trkpt>
      <trkpt lat="42.64311" lon="18.11576">
        <ele>80.867139</ele>
        <time>2022-06-10T08:18:32.694Z</time>
      </trkpt>
      <trkpt lat="42.64309" lon="18.11591">
        <ele>81.441261</ele>
        <time>2022-06-10T08:18:33.693Z</time>
      </trkpt>
      <trkpt lat="42.64308" lon="18.11605">
        <ele>81.921115</ele>
        <time>2022-06-10T08:18:34.710Z</time>
      </trkpt>
      <trkpt lat="42.64305" lon="18.1162">
        <ele>82.509633</ele>
        <time>2022-06-10T08:18:35.690Z</time>
      </trkpt>
      <trkpt lat="42.643" lon="18.11635">
        <ele>83.083417</ele>
        <time>2022-06-10T08:18:36.758Z</time>
      </trkpt>
      <trkpt lat="42.64296" lon="18.11649">
        <ele>83.623489</ele>
        <time>2022-06-10T08:18:37.709Z</time>
      </trkpt>
      <trkpt lat="42.64293" lon="18.11662">
        <ele>84.124732</ele>
        <time>2022-06-10T08:18:38.695Z</time>
      </trkpt>
      <trkpt lat="42.64286" lon="18.11688">
        <ele>85.105678</ele>
        <time>2022-06-10T08:18:40.696Z</time>
      </trkpt>
      <trkpt lat="42.64233" lon="18.11907">
        <ele>92.864874</ele>
        <time>2022-06-10T08:18:56.805Z</time>
      </trkpt>
      <trkpt lat="42.64229" lon="18.11922">
        <ele>93.401848</ele>
        <time>2022-06-10T08:18:57.705Z</time>
      </trkpt>
      <trkpt lat="42.64224" lon="18.11936">
        <ele>93.920559</ele>
        <time>2022-06-10T08:18:58.707Z</time>
      </trkpt>
      <trkpt lat="42.63369" lon="18.13697">
        <ele>220.648478</ele>
        <time>2022-06-10T08:21:10.812Z</time>
      </trkpt>
      <trkpt lat="42.6336" lon="18.13705">
        <ele>219.953882</ele>
        <time>2022-06-10T08:21:11.736Z</time>
      </trkpt>
      <trkpt lat="42.63176" lon="18.14597">
        <ele>86.208061</ele>
        <time>2022-06-10T08:22:12.769Z</time>
      </trkpt>
      <trkpt lat="42.63081" lon="18.15583">
        <ele>171.645113</ele>
        <time>2022-06-10T08:23:32.711Z</time>
      </trkpt>
      <trkpt lat="42.63086" lon="18.15598">
        <ele>171.885703</ele>
        <time>2022-06-10T08:23:33.710Z</time>
      </trkpt>
      <trkpt lat="42.63091" lon="18.15612">
        <ele>172.111231</ele>
        <time>2022-06-10T08:23:34.739Z</time>
      </trkpt>
      <trkpt lat="42.63097" lon="18.15626">
        <ele>172.342778</ele>
        <time>2022-06-10T08:23:35.705Z</time>
      </trkpt>
      <trkpt lat="42.63103" lon="18.15641">
        <ele>172.582669</ele>
        <time>2022-06-10T08:23:36.728Z</time>
      </trkpt>
      <trkpt lat="42.6311" lon="18.15657">
        <ele>172.850837</ele>
        <time>2022-06-10T08:23:37.702Z</time>
      </trkpt>
      <trkpt lat="42.63117" lon="18.15674">
        <ele>173.134629</ele>
        <time>2022-06-10T08:23:38.706Z</time>
      </trkpt>
      <trkpt lat="42.63123" lon="18.1569">
        <ele>173.392713</ele>
        <time>2022-06-10T08:23:39.699Z</time>
      </trkpt>
      <trkpt lat="42.63132" lon="18.15708">
        <ele>173.694618</ele>
        <time>2022-06-10T08:23:40.705Z</time>
      </trkpt>
      <trkpt lat="42.63254" lon="18.15896">
        <ele>173.683195</ele>
        <time>2022-06-10T08:23:54.794Z</time>
      </trkpt>
      <trkpt lat="42.63267" lon="18.15905">
        <ele>174.327304</ele>
        <time>2022-06-10T08:23:55.714Z</time>
      </trkpt>
      <trkpt lat="42.6328" lon="18.15916">
        <ele>175.008771</ele>
        <time>2022-06-10T08:23:56.700Z</time>
      </trkpt>
      <trkpt lat="42.63293" lon="18.15928">
        <ele>175.686556</ele>
        <time>2022-06-10T08:23:57.745Z</time>
      </trkpt>
      <trkpt lat="42.63305" lon="18.1594">
        <ele>176.366174</ele>
        <time>2022-06-10T08:23:58.699Z</time>
      </trkpt>
      <trkpt lat="42.63318" lon="18.15952">
        <ele>177.040885</ele>
        <time>2022-06-10T08:23:59.688Z</time>
      </trkpt>
      <trkpt lat="42.63341" lon="18.15982">
        <ele>178.450765</ele>
        <time>2022-06-10T08:24:01.713Z</time>
      </trkpt>
      <trkpt lat="42.63351" lon="18.15997">
        <ele>179.128975</ele>
        <time>2022-06-10T08:24:02.708Z</time>
      </trkpt>
      <trkpt lat="42.63362" lon="18.16013">
        <ele>179.82637</ele>
        <time>2022-06-10T08:24:03.710Z</time>
      </trkpt>
      <trkpt lat="42.63372" lon="18.1603">
        <ele>180.516056</ele>
        <time>2022-06-10T08:24:04.740Z</time>
      </trkpt>
      <trkpt lat="42.63381" lon="18.16048">
        <ele>181.218527</ele>
        <time>2022-06-10T08:24:05.702Z</time>
      </trkpt>
      <trkpt lat="42.6339" lon="18.16067">
        <ele>182.193758</ele>
        <time>2022-06-10T08:24:06.718Z</time>
      </trkpt>
      <trkpt lat="42.64199" lon="18.1648">
        <ele>239.48626</ele>
        <time>2022-06-10T08:25:41.771Z</time>
      </trkpt>
      <trkpt lat="42.64203" lon="18.16459">
        <ele>240.565747</ele>
        <time>2022-06-10T08:25:42.768Z</time>
      </trkpt>
      <trkpt lat="42.64208" lon="18.16437">
        <ele>241.605571</ele>
        <time>2022-06-10T08:25:43.803Z</time>
      </trkpt>
      <trkpt lat="42.64212" lon="18.16417">
        <ele>242.587573</ele>
        <time>2022-06-10T08:25:44.767Z</time>
      </trkpt>
      <trkpt lat="42.64217" lon="18.16397">
        <ele>243.592326</ele>
        <time>2022-06-10T08:25:45.714Z</time>
      </trkpt>
      <trkpt lat="42.64221" lon="18.16377">
        <ele>244.544583</ele>
        <time>2022-06-10T08:25:46.756Z</time>
      </trkpt>
      <trkpt lat="42.64225" lon="18.16357">
        <ele>245.502931</ele>
        <time>2022-06-10T08:25:47.716Z</time>
      </trkpt>
      <trkpt lat="42.64229" lon="18.16337">
        <ele>246.483854</ele>
        <time>2022-06-10T08:25:48.714Z</time>
      </trkpt>
      <trkpt lat="42.64234" lon="18.16319">
        <ele>247.376361</ele>
        <time>2022-06-10T08:25:49.711Z</time>
      </trkpt>
      <trkpt lat="42.64239" lon="18.16301">
        <ele>248.269111</ele>
        <time>2022-06-10T08:25:50.705Z</time>
      </trkpt>
      <trkpt lat="42.64245" lon="18.16283">
        <ele>249.17831</ele>
        <time>2022-06-10T08:25:51.703Z</time>
      </trkpt>
      <trkpt lat="42.6425" lon="18.16264">
        <ele>250.12764</ele>
        <time>2022-06-10T08:25:52.736Z</time>
      </trkpt>
      <trkpt lat="42.64254" lon="18.16246">
        <ele>251.026756</ele>
        <time>2022-06-10T08:25:53.702Z</time>
      </trkpt>
      <trkpt lat="42.6426" lon="18.16228">
        <ele>251.936858</ele>
        <time>2022-06-10T08:25:54.705Z</time>
      </trkpt>
      <trkpt lat="42.64265" lon="18.1621">
        <ele>252.765764</ele>
        <time>2022-06-10T08:25:55.695Z</time>
      </trkpt>
      <trkpt lat="42.6427" lon="18.16193">
        <ele>253.544693</ele>
        <time>2022-06-10T08:25:56.736Z</time>
      </trkpt>
      <trkpt lat="42.64277" lon="18.16173">
        <ele>254.430388</ele>
        <time>2022-06-10T08:25:57.700Z</time>
      </trkpt>
      <trkpt lat="42.64284" lon="18.16155">
        <ele>255.285441</ele>
        <time>2022-06-10T08:25:58.703Z</time>
      </trkpt>
      <trkpt lat="42.6429" lon="18.16137">
        <ele>256.096622</ele>
        <time>2022-06-10T08:25:59.707Z</time>
      </trkpt>
      <trkpt lat="42.64295" lon="18.16119">
        <ele>256.864272</ele>
        <time>2022-06-10T08:26:00.705Z</time>
      </trkpt>
      <trkpt lat="42.64301" lon="18.16102">
        <ele>257.648584</ele>
        <time>2022-06-10T08:26:01.709Z</time>
      </trkpt>
      <trkpt lat="42.64305" lon="18.16084">
        <ele>258.403512</ele>
        <time>2022-06-10T08:26:02.698Z</time>
      </trkpt>
      <trkpt lat="42.6431" lon="18.16066">
        <ele>259.208488</ele>
        <time>2022-06-10T08:26:03.832Z</time>
      </trkpt>
      <trkpt lat="42.64314" lon="18.16047">
        <ele>260.018233</ele>
        <time>2022-06-10T08:26:04.730Z</time>
      </trkpt>
      <trkpt lat="42.64317" lon="18.16027">
        <ele>260.825638</ele>
        <time>2022-06-10T08:26:05.722Z</time>
      </trkpt>
      <trkpt lat="42.64321" lon="18.16008">
        <ele>261.635501</ele>
        <time>2022-06-10T08:26:06.746Z</time>
      </trkpt>
      <trkpt lat="42.64325" lon="18.15989">
        <ele>262.46644</ele>
        <time>2022-06-10T08:26:07.690Z</time>
      </trkpt>
      <trkpt lat="42.64331" lon="18.15971">
        <ele>263.965731</ele>
        <time>2022-06-10T08:26:08.709Z</time>
      </trkpt>
      <trkpt lat="42.64337" lon="18.15952">
        <ele>265.589331</ele>
        <time>2022-06-10T08:26:09.702Z</time>
      </trkpt>
      <trkpt lat="42.64343" lon="18.15935">
        <ele>267.136886</ele>
        <time>2022-06-10T08:26:10.695Z</time>
      </trkpt>
      <trkpt lat="42.64348" lon="18.15919">
        <ele>268.463075</ele>
        <time>2022-06-10T08:26:11.717Z</time>
      </trkpt>
      <trkpt lat="42.64353" lon="18.15904">
        <ele>269.75844</ele>
        <time>2022-06-10T08:26:12.701Z</time>
      </trkpt>
      <trkpt lat="42.64357" lon="18.15887">
        <ele>271.236627</ele>
        <time>2022-06-10T08:26:13.707Z</time>
      </trkpt>
      <trkpt lat="42.64363" lon="18.15871">
        <ele>272.646905</ele>
        <time>2022-06-10T08:26:14.828Z</time>
      </trkpt>
      <trkpt lat="42.64367" lon="18.15855">
        <ele>274.005919</ele>
        <time>2022-06-10T08:26:15.699Z</time>
      </trkpt>
      <trkpt lat="42.64372" lon="18.15841">
        <ele>275.243817</ele>
        <time>2022-06-10T08:26:16.718Z</time>
      </trkpt>
      <trkpt lat="42.64502" lon="18.1588">
        <ele>292.079164</ele>
        <time>2022-06-10T08:26:39.731Z</time>
      </trkpt>
      <trkpt lat="42.64515" lon="18.15878">
        <ele>293.887086</ele>
        <time>2022-06-10T08:44:01.712Z</time>
      </trkpt>
      <trkpt lat="42.64524" lon="18.15875">
        <ele>295.170289</ele>
        <time>2022-06-10T08:44:06.739Z</time>
      </trkpt>
      <trkpt lat="42.64533" lon="18.15873">
        <ele>296.516285</ele>
        <time>2022-06-10T08:44:11.718Z</time>
      </trkpt>
      <trkpt lat="42.64542" lon="18.1587">
        <ele>297.812805</ele>
        <time>2022-06-10T08:44:16.704Z</time>
      </trkpt>
      <trkpt lat="42.64552" lon="18.15867">
        <ele>299.227569</ele>
        <time>2022-06-10T08:44:21.700Z</time>
      </trkpt>
      <trkpt lat="42.64561" lon="18.15866">
        <ele>300.55853</ele>
        <time>2022-06-10T08:44:26.717Z</time>
      </trkpt>
      <trkpt lat="42.64571" lon="18.15865">
        <ele>301.97973</ele>
        <time>2022-06-10T08:44:31.701Z</time>
      </trkpt>
      <trkpt lat="42.64581" lon="18.15866">
        <ele>303.431704</ele>
        <time>2022-06-10T08:44:37.706Z</time>
      </trkpt>
      <trkpt lat="42.64591" lon="18.15867">
        <ele>304.753167</ele>
        <time>2022-06-10T08:44:42.707Z</time>
      </trkpt>
      <trkpt lat="42.64599" lon="18.15871">
        <ele>306.053825</ele>
        <time>2022-06-10T08:44:47.727Z</time>
      </trkpt>
      <trkpt lat="42.64608" lon="18.15876">
        <ele>307.425021</ele>
        <time>2022-06-10T08:44:52.713Z</time>
      </trkpt>
      <trkpt lat="42.64617" lon="18.15883">
        <ele>307.947743</ele>
        <time>2022-06-10T08:44:57.721Z</time>
      </trkpt>
      <trkpt lat="42.64625" lon="18.1589">
        <ele>308.396028</ele>
        <time>2022-06-10T08:45:02.720Z</time>
      </trkpt>
      <trkpt lat="42.64633" lon="18.15899">
        <ele>308.888868</ele>
        <time>2022-06-10T08:45:08.708Z</time>
      </trkpt>
      <trkpt lat="42.64641" lon="18.15907">
        <ele>309.342856</ele>
        <time>2022-06-10T08:45:13.716Z</time>
      </trkpt>
      <trkpt lat="42.64649" lon="18.15915">
        <ele>309.786235</ele>
        <time>2022-06-10T08:45:18.738Z</time>
      </trkpt>
      <trkpt lat="42.64656" lon="18.15921">
        <ele>310.202232</ele>
        <time>2022-06-10T08:45:23.706Z</time>
      </trkpt>
      <trkpt lat="42.64665" lon="18.15927">
        <ele>310.635297</ele>
        <time>2022-06-10T08:45:28.715Z</time>
      </trkpt>
      <trkpt lat="42.64673" lon="18.15933">
        <ele>311.052723</ele>
        <time>2022-06-10T08:45:33.741Z</time>
      </trkpt>
      <trkpt lat="42.64682" lon="18.15938">
        <ele>311.508067</ele>
        <time>2022-06-10T08:45:38.730Z</time>
      </trkpt>
      <trkpt lat="42.64691" lon="18.15943">
        <ele>311.936256</ele>
        <time>2022-06-10T08:45:43.726Z</time>
      </trkpt>
      <trkpt lat="42.647" lon="18.15946">
        <ele>312.400393</ele>
        <time>2022-06-10T08:45:48.712Z</time>
      </trkpt>
      <trkpt lat="42.64711" lon="18.15946">
        <ele>312.885173</ele>
        <time>2022-06-10T08:45:53.717Z</time>
      </trkpt>
      <trkpt lat="42.6472" lon="18.15946">
        <ele>313.305165</ele>
        <time>2022-06-10T08:45:57.711Z</time>
      </trkpt>
      <trkpt lat="42.64729" lon="18.15944">
        <ele>313.728881</ele>
        <time>2022-06-10T08:46:01.693Z</time>
      </trkpt>
      <trkpt lat="42.64739" lon="18.15943">
        <ele>314.197553</ele>
        <time>2022-06-10T08:46:06.707Z</time>
      </trkpt>
      <trkpt lat="42.64749" lon="18.1594">
        <ele>314.679607</ele>
        <time>2022-06-10T08:46:11.700Z</time>
      </trkpt>
      <trkpt lat="42.6476" lon="18.15936">
        <ele>315.180781</ele>
        <time>2022-06-10T08:46:16.726Z</time>
      </trkpt>
      <trkpt lat="42.6477" lon="18.15932">
        <ele>315.677544</ele>
        <time>2022-06-10T08:46:21.694Z</time>
      </trkpt>
      <trkpt lat="42.6478" lon="18.15927">
        <ele>315.97062</ele>
        <time>2022-06-10T08:46:26.712Z</time>
      </trkpt>
      <trkpt lat="42.64791" lon="18.15924">
        <ele>316.194178</ele>
        <time>2022-06-10T08:46:31.703Z</time>
      </trkpt>
      <trkpt lat="42.64801" lon="18.15922">
        <ele>316.406031</ele>
        <time>2022-06-10T08:46:36.736Z</time>
      </trkpt>
      <trkpt lat="42.64812" lon="18.1592">
        <ele>316.638397</ele>
        <time>2022-06-10T08:46:41.686Z</time>
      </trkpt>
      <trkpt lat="42.64821" lon="18.1592">
        <ele>316.82693</ele>
        <time>2022-06-10T08:46:45.702Z</time>
      </trkpt>
      <trkpt lat="42.64831" lon="18.15919">
        <ele>317.019825</ele>
        <time>2022-06-10T08:46:49.688Z</time>
      </trkpt>
      <trkpt lat="42.64842" lon="18.15921">
        <ele>317.242121</ele>
        <time>2022-06-10T08:46:54.695Z</time>
      </trkpt>
      <trkpt lat="42.64852" lon="18.15923">
        <ele>317.460286</ele>
        <time>2022-06-10T08:46:59.685Z</time>
      </trkpt>
      <trkpt lat="42.64862" lon="18.15926">
        <ele>317.668116</ele>
        <time>2022-06-10T08:47:04.693Z</time>
      </trkpt>
      <trkpt lat="42.64872" lon="18.15928">
        <ele>317.868712</ele>
        <time>2022-06-10T08:47:10.690Z</time>
      </trkpt>
      <trkpt lat="42.64881" lon="18.15931">
        <ele>318.068018</ele>
        <time>2022-06-10T08:47:16.686Z</time>
      </trkpt>
      <trkpt lat="42.6489" lon="18.15932">
        <ele>318.259296</ele>
        <time>2022-06-10T08:47:21.685Z</time>
      </trkpt>
      <trkpt lat="42.649" lon="18.15934">
        <ele>318.453406</ele>
        <time>2022-06-10T08:47:26.694Z</time>
      </trkpt>
      <trkpt lat="42.64911" lon="18.15936">
        <ele>318.676544</ele>
        <time>2022-06-10T08:47:31.684Z</time>
      </trkpt>
      <trkpt lat="42.64921" lon="18.15938">
        <ele>318.887495</ele>
        <time>2022-06-10T08:47:36.685Z</time>
      </trkpt>
      <trkpt lat="42.6493" lon="18.1594">
        <ele>319.082218</ele>
        <time>2022-06-10T08:47:41.702Z</time>
      </trkpt>
      <trkpt lat="42.64942" lon="18.15942">
        <ele>319.317742</ele>
        <time>2022-06-10T08:47:46.693Z</time>
      </trkpt>
      <trkpt lat="42.64952" lon="18.15943">
        <ele>319.612995</ele>
        <time>2022-06-10T08:47:51.687Z</time>
      </trkpt>
      <trkpt lat="42.64963" lon="18.15943">
        <ele>320.247708</ele>
        <time>2022-06-10T08:47:56.689Z</time>
      </trkpt>
      <trkpt lat="42.64973" lon="18.15942">
        <ele>320.876027</ele>
        <time>2022-06-10T08:48:01.680Z</time>
      </trkpt>
      <trkpt lat="42.64983" lon="18.15942">
        <ele>321.535157</ele>
        <time>2022-06-10T08:48:06.698Z</time>
      </trkpt>
      <trkpt lat="42.64992" lon="18.15942">
        <ele>322.094694</ele>
        <time>2022-06-10T08:48:10.693Z</time>
      </trkpt>
      <trkpt lat="42.65003" lon="18.15942">
        <ele>322.760039</ele>
        <time>2022-06-10T08:48:15.693Z</time>
      </trkpt>
      <trkpt lat="42.65013" lon="18.15942">
        <ele>323.363698</ele>
        <time>2022-06-10T08:48:20.676Z</time>
      </trkpt>
      <trkpt lat="42.65022" lon="18.15942">
        <ele>323.930098</ele>
        <time>2022-06-10T08:48:24.723Z</time>
      </trkpt>
      <trkpt lat="42.65032" lon="18.15939">
        <ele>324.575266</ele>
        <time>2022-06-10T08:48:29.705Z</time>
      </trkpt>
      <trkpt lat="42.65042" lon="18.15937">
        <ele>325.201261</ele>
        <time>2022-06-10T08:48:34.711Z</time>
      </trkpt>
      <trkpt lat="42.65051" lon="18.15935">
        <ele>325.782476</ele>
        <time>2022-06-10T08:48:39.718Z</time>
      </trkpt>
      <trkpt lat="42.65061" lon="18.15934">
        <ele>326.409003</ele>
        <time>2022-06-10T08:48:45.708Z</time>
      </trkpt>
      <trkpt lat="42.65071" lon="18.15934">
        <ele>327.000242</ele>
        <time>2022-06-10T08:48:51.699Z</time>
      </trkpt>
      <trkpt lat="42.6508" lon="18.15935">
        <ele>327.585074</ele>
        <time>2022-06-10T08:48:57.780Z</time>
      </trkpt>
      <trkpt lat="42.6509" lon="18.15934">
        <ele>328.196399</ele>
        <time>2022-06-10T08:49:03.699Z</time>
      </trkpt>
      <trkpt lat="42.651" lon="18.15932">
        <ele>328.859955</ele>
        <time>2022-06-10T08:49:09.700Z</time>
      </trkpt>
      <trkpt lat="42.65111" lon="18.15931">
        <ele>329.51351</ele>
        <time>2022-06-10T08:49:15.693Z</time>
      </trkpt>
      <trkpt lat="42.65121" lon="18.15928">
        <ele>330.142154</ele>
        <time>2022-06-10T08:49:21.712Z</time>
      </trkpt>
      <trkpt lat="42.6513" lon="18.15924">
        <ele>330.699937</ele>
        <time>2022-06-10T08:49:28.687Z</time>
      </trkpt>
      <trkpt lat="42.6514" lon="18.15922">
        <ele>330.805123</ele>
        <time>2022-06-10T08:49:33.700Z</time>
      </trkpt>
      <trkpt lat="42.6515" lon="18.15921">
        <ele>330.902536</ele>
        <time>2022-06-10T08:49:37.719Z</time>
      </trkpt>
      <trkpt lat="42.6516" lon="18.15919">
        <ele>331.006496</ele>
        <time>2022-06-10T08:49:42.708Z</time>
      </trkpt>
      <trkpt lat="42.6517" lon="18.15916">
        <ele>331.119095</ele>
        <time>2022-06-10T08:49:47.710Z</time>
      </trkpt>
      <trkpt lat="42.65179" lon="18.15914">
        <ele>331.214882</ele>
        <time>2022-06-10T08:49:52.701Z</time>
      </trkpt>
      <trkpt lat="42.65189" lon="18.15913">
        <ele>331.32171</ele>
        <time>2022-06-10T08:49:58.716Z</time>
      </trkpt>
      <trkpt lat="42.65199" lon="18.15911">
        <ele>331.426462</ele>
        <time>2022-06-10T08:50:04.708Z</time>
      </trkpt>
      <trkpt lat="42.65235" lon="18.15904">
        <ele>331.799264</ele>
        <time>2022-06-10T08:52:47.781Z</time>
      </trkpt>
      <trkpt lat="42.65245" lon="18.15899">
        <ele>331.916055</ele>
        <time>2022-06-10T08:52:51.709Z</time>
      </trkpt>
      <trkpt lat="42.65256" lon="18.15902">
        <ele>332.027081</ele>
        <time>2022-06-10T08:52:58.742Z</time>
      </trkpt>
      <trkpt lat="42.65266" lon="18.15905">
        <ele>332.135149</ele>
        <time>2022-06-10T08:53:03.704Z</time>
      </trkpt>
      <trkpt lat="42.65275" lon="18.1591">
        <ele>332.233641</ele>
        <time>2022-06-10T08:53:08.712Z</time>
      </trkpt>
      <trkpt lat="42.65283" lon="18.15915">
        <ele>332.330979</ele>
        <time>2022-06-10T08:53:14.702Z</time>
      </trkpt>
      <trkpt lat="42.65292" lon="18.15919">
        <ele>332.431239</ele>
        <time>2022-06-10T08:53:21.701Z</time>
      </trkpt>
      <trkpt lat="42.65302" lon="18.15923">
        <ele>332.531273</ele>
        <time>2022-06-10T08:53:27.718Z</time>
      </trkpt>
      <trkpt lat="42.65311" lon="18.15924">
        <ele>332.936811</ele>
        <time>2022-06-10T08:53:33.699Z</time>
      </trkpt>
      <trkpt lat="42.6532" lon="18.15924">
        <ele>333.470925</ele>
        <time>2022-06-10T08:53:40.710Z</time>
      </trkpt>
      <trkpt lat="42.6533" lon="18.15924">
        <ele>334.045512</ele>
        <time>2022-06-10T08:53:47.707Z</time>
      </trkpt>
      <trkpt lat="42.6534" lon="18.15925">
        <ele>334.651289</ele>
        <time>2022-06-10T08:53:54.700Z</time>
      </trkpt>
      <trkpt lat="42.65351" lon="18.15927">
        <ele>335.245884</ele>
        <time>2022-06-10T08:54:01.739Z</time>
      </trkpt>
      <trkpt lat="42.6536" lon="18.15926">
        <ele>335.774109</ele>
        <time>2022-06-10T08:54:07.748Z</time>
      </trkpt>
      <trkpt lat="42.65369" lon="18.15926">
        <ele>336.343037</ele>
        <time>2022-06-10T08:54:13.743Z</time>
      </trkpt>
      <trkpt lat="42.65379" lon="18.15925">
        <ele>336.895745</ele>
        <time>2022-06-10T08:54:19.703Z</time>
      </trkpt>
      <trkpt lat="42.65388" lon="18.15925">
        <ele>337.44138</ele>
        <time>2022-06-10T08:54:25.721Z</time>
      </trkpt>
      <trkpt lat="42.65399" lon="18.15926">
        <ele>338.050851</ele>
        <time>2022-06-10T08:54:32.717Z</time>
      </trkpt>
      <trkpt lat="42.65408" lon="18.15926">
        <ele>338.590615</ele>
        <time>2022-06-10T08:54:38.706Z</time>
      </trkpt>
      <trkpt lat="42.65417" lon="18.15923">
        <ele>339.133084</ele>
        <time>2022-06-10T08:54:44.713Z</time>
      </trkpt>
      <trkpt lat="42.65426" lon="18.15924">
        <ele>339.662963</ele>
        <time>2022-06-10T08:54:50.708Z</time>
      </trkpt>
      <trkpt lat="42.65437" lon="18.15926">
        <ele>340.2835</ele>
        <time>2022-06-10T08:54:56.702Z</time>
      </trkpt>
      <trkpt lat="42.65446" lon="18.15924">
        <ele>340.815523</ele>
        <time>2022-06-10T08:55:02.704Z</time>
      </trkpt>
      <trkpt lat="42.65455" lon="18.1592">
        <ele>341.372073</ele>
        <time>2022-06-10T08:55:09.718Z</time>
      </trkpt>
      <trkpt lat="42.65465" lon="18.15918">
        <ele>341.926231</ele>
        <time>2022-06-10T08:55:15.704Z</time>
      </trkpt>
      <trkpt lat="42.65474" lon="18.15916">
        <ele>342.482972</ele>
        <time>2022-06-10T08:55:21.705Z</time>
      </trkpt>
      <trkpt lat="42.65484" lon="18.15915">
        <ele>343.052606</ele>
        <time>2022-06-10T08:55:28.697Z</time>
      </trkpt>
      <trkpt lat="42.65494" lon="18.15913">
        <ele>343.413972</ele>
        <time>2022-06-10T08:55:34.698Z</time>
      </trkpt>
      <trkpt lat="42.65503" lon="18.15913">
        <ele>343.760469</ele>
        <time>2022-06-10T08:55:40.709Z</time>
      </trkpt>
      <trkpt lat="42.65513" lon="18.15916">
        <ele>344.130867</ele>
        <time>2022-06-10T08:55:47.708Z</time>
      </trkpt>
      <trkpt lat="42.65522" lon="18.15918">
        <ele>344.466743</ele>
        <time>2022-06-10T08:55:53.742Z</time>
      </trkpt>
      <trkpt lat="42.65532" lon="18.15923">
        <ele>344.852978</ele>
        <time>2022-06-10T08:55:59.712Z</time>
      </trkpt>
      <trkpt lat="42.65541" lon="18.1593">
        <ele>345.220778</ele>
        <time>2022-06-10T08:56:05.715Z</time>
      </trkpt>
      <trkpt lat="42.65548" lon="18.15938">
        <ele>345.562745</ele>
        <time>2022-06-10T08:56:11.699Z</time>
      </trkpt>
      <trkpt lat="42.65555" lon="18.15947">
        <ele>345.919333</ele>
        <time>2022-06-10T08:56:17.707Z</time>
      </trkpt>
      <trkpt lat="42.65562" lon="18.15955">
        <ele>346.259806</ele>
        <time>2022-06-10T08:56:23.711Z</time>
      </trkpt>
      <trkpt lat="42.65569" lon="18.15966">
        <ele>346.640833</ele>
        <time>2022-06-10T08:56:30.693Z</time>
      </trkpt>
      <trkpt lat="42.65574" lon="18.15978">
        <ele>347.023047</ele>
        <time>2022-06-10T08:56:37.735Z</time>
      </trkpt>
      <trkpt lat="42.65581" lon="18.15987">
        <ele>347.371174</ele>
        <time>2022-06-10T08:56:43.740Z</time>
      </trkpt>
      <trkpt lat="42.65587" lon="18.15997">
        <ele>347.71568</ele>
        <time>2022-06-10T08:56:49.751Z</time>
      </trkpt>
      <trkpt lat="42.65593" lon="18.16008">
        <ele>348.086673</ele>
        <time>2022-06-10T08:56:56.714Z</time>
      </trkpt>
      <trkpt lat="42.656" lon="18.16018">
        <ele>348.464083</ele>
        <time>2022-06-10T08:57:03.700Z</time>
      </trkpt>
      <trkpt lat="42.65606" lon="18.16029">
        <ele>348.835112</ele>
        <time>2022-06-10T08:57:10.704Z</time>
      </trkpt>
      <trkpt lat="42.65612" lon="18.16039">
        <ele>349.190585</ele>
        <time>2022-06-10T08:57:17.708Z</time>
      </trkpt>
      <trkpt lat="42.65618" lon="18.16049">
        <ele>349.540183</ele>
        <time>2022-06-10T08:57:24.702Z</time>
      </trkpt>
      <trkpt lat="42.65625" lon="18.16057">
        <ele>350.256834</ele>
        <time>2022-06-10T08:57:30.710Z</time>
      </trkpt>
      <trkpt lat="42.65632" lon="18.16066">
        <ele>351.195893</ele>
        <time>2022-06-10T08:57:37.720Z</time>
      </trkpt>
      <trkpt lat="42.6564" lon="18.16075">
        <ele>352.147372</ele>
        <time>2022-06-10T08:57:45.710Z</time>
      </trkpt>
      <trkpt lat="42.65649" lon="18.16082">
        <ele>353.086005</ele>
        <time>2022-06-10T08:57:52.710Z</time>
      </trkpt>
      <trkpt lat="42.65656" lon="18.16092">
        <ele>354.049037</ele>
        <time>2022-06-10T08:57:59.724Z</time>
      </trkpt>
      <trkpt lat="42.65663" lon="18.16101">
        <ele>354.997632</ele>
        <time>2022-06-10T08:58:07.705Z</time>
      </trkpt>
      <trkpt lat="42.65668" lon="18.16114">
        <ele>355.989136</ele>
        <time>2022-06-10T08:58:13.714Z</time>
      </trkpt>
      <trkpt lat="42.65676" lon="18.16123">
        <ele>356.93773</ele>
        <time>2022-06-10T08:58:19.749Z</time>
      </trkpt>
      <trkpt lat="42.65681" lon="18.16136">
        <ele>357.917419</ele>
        <time>2022-06-10T08:58:26.713Z</time>
      </trkpt>
      <trkpt lat="42.65684" lon="18.16148">
        <ele>358.827846</ele>
        <time>2022-06-10T08:58:33.708Z</time>
      </trkpt>
      <trkpt lat="42.65683" lon="18.16163">
        <ele>359.818729</ele>
        <time>2022-06-10T08:58:40.703Z</time>
      </trkpt>
      <trkpt lat="42.65682" lon="18.16175">
        <ele>360.666234</ele>
        <time>2022-06-10T08:58:46.697Z</time>
      </trkpt>
      <trkpt lat="42.65681" lon="18.16188">
        <ele>361.613079</ele>
        <time>2022-06-10T08:58:53.704Z</time>
      </trkpt>
      <trkpt lat="42.65678" lon="18.162">
        <ele>362.455881</ele>
        <time>2022-06-10T08:58:59.714Z</time>
      </trkpt>
      <trkpt lat="42.65678" lon="18.16213">
        <ele>363.347736</ele>
        <time>2022-06-10T08:59:06.703Z</time>
      </trkpt>
      <trkpt lat="42.65677" lon="18.16227">
        <ele>364.297353</ele>
        <time>2022-06-10T08:59:13.728Z</time>
      </trkpt>
      <trkpt lat="42.65676" lon="18.1624">
        <ele>365.189751</ele>
        <time>2022-06-10T08:59:19.711Z</time>
      </trkpt>
      <trkpt lat="42.65678" lon="18.16253">
        <ele>366.090015</ele>
        <time>2022-06-10T08:59:25.704Z</time>
      </trkpt>
      <trkpt lat="42.6568" lon="18.16265">
        <ele>366.770372</ele>
        <time>2022-06-10T08:59:31.702Z</time>
      </trkpt>
      <trkpt lat="42.65684" lon="18.16276">
        <ele>367.327073</ele>
        <time>2022-06-10T08:59:38.699Z</time>
      </trkpt>
      <trkpt lat="42.65691" lon="18.16285">
        <ele>367.846996</ele>
        <time>2022-06-10T08:59:45.740Z</time>
      </trkpt>
      <trkpt lat="42.65699" lon="18.16291">
        <ele>368.361709</ele>
        <time>2022-06-10T08:59:51.706Z</time>
      </trkpt>
      <trkpt lat="42.65707" lon="18.16298">
        <ele>368.898147</ele>
        <time>2022-06-10T08:59:58.706Z</time>
      </trkpt>
      <trkpt lat="42.65715" lon="18.16303">
        <ele>369.435997</ele>
        <time>2022-06-10T09:00:04.700Z</time>
      </trkpt>
      <trkpt lat="42.65724" lon="18.16307">
        <ele>369.956123</ele>
        <time>2022-06-10T09:00:10.702Z</time>
      </trkpt>
      <trkpt lat="42.65733" lon="18.16309">
        <ele>370.486366</ele>
        <time>2022-06-10T09:00:17.717Z</time>
      </trkpt>
      <trkpt lat="42.65742" lon="18.1631">
        <ele>371.015148</ele>
        <time>2022-06-10T09:00:24.713Z</time>
      </trkpt>
      <trkpt lat="42.65752" lon="18.16312">
        <ele>371.616171</ele>
        <time>2022-06-10T09:00:31.700Z</time>
      </trkpt>
      <trkpt lat="42.65762" lon="18.16311">
        <ele>372.199102</ele>
        <time>2022-06-10T09:00:38.702Z</time>
      </trkpt>
      <trkpt lat="42.65772" lon="18.16309">
        <ele>372.723236</ele>
        <time>2022-06-10T09:00:44.719Z</time>
      </trkpt>
      <trkpt lat="42.65781" lon="18.16304">
        <ele>373.290642</ele>
        <time>2022-06-10T09:00:51.719Z</time>
      </trkpt>
      <trkpt lat="42.65789" lon="18.16299">
        <ele>373.825775</ele>
        <time>2022-06-10T09:00:58.697Z</time>
      </trkpt>
      <trkpt lat="42.65799" lon="18.16295">
        <ele>374.40937</ele>
        <time>2022-06-10T09:01:05.705Z</time>
      </trkpt>
      <trkpt lat="42.65809" lon="18.1629">
        <ele>374.998711</ele>
        <time>2022-06-10T09:01:12.703Z</time>
      </trkpt>
      <trkpt lat="42.65818" lon="18.16288">
        <ele>375.544152</ele>
        <time>2022-06-10T09:01:19.695Z</time>
      </trkpt>
      <trkpt lat="42.65826" lon="18.16282">
        <ele>376.074137</ele>
        <time>2022-06-10T09:01:25.695Z</time>
      </trkpt>
      <trkpt lat="42.65835" lon="18.16275">
        <ele>376.652525</ele>
        <time>2022-06-10T09:01:32.706Z</time>
      </trkpt>
      <trkpt lat="42.65844" lon="18.16269">
        <ele>377.376207</ele>
        <time>2022-06-10T09:01:39.695Z</time>
      </trkpt>
      <trkpt lat="42.65853" lon="18.16265">
        <ele>378.112311</ele>
        <time>2022-06-10T09:01:45.712Z</time>
      </trkpt>
      <trkpt lat="42.65862" lon="18.16262">
        <ele>378.84475</ele>
        <time>2022-06-10T09:01:51.774Z</time>
      </trkpt>
      <trkpt lat="42.65872" lon="18.16262">
        <ele>379.566423</ele>
        <time>2022-06-10T09:01:58.711Z</time>
      </trkpt>
      <trkpt lat="42.65882" lon="18.16263">
        <ele>380.324811</ele>
        <time>2022-06-10T09:02:05.718Z</time>
      </trkpt>
      <trkpt lat="42.65898" lon="18.16269">
        <ele>381.61964</ele>
        <time>2022-06-10T09:04:35.707Z</time>
      </trkpt>
      <trkpt lat="42.65915" lon="18.16309">
        <ele>384.181969</ele>
        <time>2022-06-10T09:10:12.710Z</time>
      </trkpt>
      <trkpt lat="42.65918" lon="18.16323">
        <ele>385.007351</ele>
        <time>2022-06-10T09:10:16.751Z</time>
      </trkpt>
      <trkpt lat="42.65919" lon="18.16338">
        <ele>385.893643</ele>
        <time>2022-06-10T09:10:20.706Z</time>
      </trkpt>
      <trkpt lat="42.6592" lon="18.16351">
        <ele>386.628683</ele>
        <time>2022-06-10T09:10:25.712Z</time>
      </trkpt>
      <trkpt lat="42.6592" lon="18.16365">
        <ele>387.425585</ele>
        <time>2022-06-10T09:10:30.711Z</time>
      </trkpt>
      <trkpt lat="42.65919" lon="18.16379">
        <ele>388.211622</ele>
        <time>2022-06-10T09:10:35.697Z</time>
      </trkpt>
      <trkpt lat="42.65919" lon="18.16394">
        <ele>389.030504</ele>
        <time>2022-06-10T09:10:40.710Z</time>
      </trkpt>
      <trkpt lat="42.6592" lon="18.16407">
        <ele>389.795081</ele>
        <time>2022-06-10T09:10:45.737Z</time>
      </trkpt>
      <trkpt lat="42.65919" lon="18.16423">
        <ele>390.652922</ele>
        <time>2022-06-10T09:10:50.735Z</time>
      </trkpt>
      <trkpt lat="42.65919" lon="18.16436">
        <ele>390.973192</ele>
        <time>2022-06-10T09:10:56.698Z</time>
      </trkpt>
      <trkpt lat="42.6592" lon="18.16457">
        <ele>391.458774</ele>
        <time>2022-06-10T09:12:10.736Z</time>
      </trkpt>
      <trkpt lat="42.65919" lon="18.16471">
        <ele>391.78975</ele>
        <time>2022-06-10T09:12:15.697Z</time>
      </trkpt>
      <trkpt lat="42.65919" lon="18.16483">
        <ele>392.07684</ele>
        <time>2022-06-10T09:12:19.710Z</time>
      </trkpt>
      <trkpt lat="42.6592" lon="18.16498">
        <ele>392.42092</ele>
        <time>2022-06-10T09:12:24.778Z</time>
      </trkpt>
      <trkpt lat="42.65921" lon="18.16512">
        <ele>392.75998</ele>
        <time>2022-06-10T09:12:29.705Z</time>
      </trkpt>
      <trkpt lat="42.65923" lon="18.16524">
        <ele>393.054471</ele>
        <time>2022-06-10T09:12:33.712Z</time>
      </trkpt>
      <trkpt lat="42.65925" lon="18.16537">
        <ele>393.362236</ele>
        <time>2022-06-10T09:12:37.701Z</time>
      </trkpt>
      <trkpt lat="42.65928" lon="18.16551">
        <ele>393.702078</ele>
        <time>2022-06-10T09:12:41.718Z</time>
      </trkpt>
      <trkpt lat="42.6593" lon="18.16565">
        <ele>394.038045</ele>
        <time>2022-06-10T09:12:45.742Z</time>
      </trkpt>
      <trkpt lat="42.65933" lon="18.16577">
        <ele>394.34145</ele>
        <time>2022-06-10T09:12:49.702Z</time>
      </trkpt>
      <trkpt lat="42.65934" lon="18.1659">
        <ele>394.643475</ele>
        <time>2022-06-10T09:12:53.742Z</time>
      </trkpt>
      <trkpt lat="42.65937" lon="18.16602">
        <ele>394.939217</ele>
        <time>2022-06-10T09:12:57.713Z</time>
      </trkpt>
      <trkpt lat="42.65939" lon="18.16614">
        <ele>395.237929</ele>
        <time>2022-06-10T09:13:01.719Z</time>
      </trkpt>
      <trkpt lat="42.65941" lon="18.16627">
        <ele>395.542885</ele>
        <time>2022-06-10T09:13:05.708Z</time>
      </trkpt>
      <trkpt lat="42.65943" lon="18.16641">
        <ele>395.880431</ele>
        <time>2022-06-10T09:13:10.735Z</time>
      </trkpt>
      <trkpt lat="42.65945" lon="18.16654">
        <ele>396.19</ele>
        <time>2022-06-10T09:13:14.702Z</time>
      </trkpt>
      <trkpt lat="42.65947" lon="18.16667">
        <ele>396.452717</ele>
        <time>2022-06-10T09:13:18.704Z</time>
      </trkpt>
      <trkpt lat="42.65947" lon="18.1668">
        <ele>396.657456</ele>
        <time>2022-06-10T09:13:22.706Z</time>
      </trkpt>
      <trkpt lat="42.65947" lon="18.16694">
        <ele>396.869482</ele>
        <time>2022-06-10T09:13:26.731Z</time>
      </trkpt>
      <trkpt lat="42.65947" lon="18.16707">
        <ele>397.072428</ele>
        <time>2022-06-10T09:13:30.712Z</time>
      </trkpt>
      <trkpt lat="42.65946" lon="18.16721">
        <ele>397.27854</ele>
        <time>2022-06-10T09:13:34.727Z</time>
      </trkpt>
      <trkpt lat="42.65946" lon="18.16734">
        <ele>397.483</ele>
        <time>2022-06-10T09:13:38.719Z</time>
      </trkpt>
      <trkpt lat="42.65945" lon="18.16749">
        <ele>397.70577</ele>
        <time>2022-06-10T09:13:42.713Z</time>
      </trkpt>
      <trkpt lat="42.65944" lon="18.16762">
        <ele>397.895546</ele>
        <time>2022-06-10T09:13:45.712Z</time>
      </trkpt>
      <trkpt lat="42.65942" lon="18.16777">
        <ele>398.137908</ele>
        <time>2022-06-10T09:13:49.699Z</time>
      </trkpt>
      <trkpt lat="42.65941" lon="18.16793">
        <ele>398.381829</ele>
        <time>2022-06-10T09:13:53.711Z</time>
      </trkpt>
      <trkpt lat="42.6594" lon="18.16806">
        <ele>398.57773</ele>
        <time>2022-06-10T09:13:56.719Z</time>
      </trkpt>
      <trkpt lat="42.65938" lon="18.16819">
        <ele>398.767644</ele>
        <time>2022-06-10T09:13:59.758Z</time>
      </trkpt>
      <trkpt lat="42.65937" lon="18.16831">
        <ele>398.953976</ele>
        <time>2022-06-10T09:14:02.744Z</time>
      </trkpt>
      <trkpt lat="42.65936" lon="18.16843">
        <ele>399.146587</ele>
        <time>2022-06-10T09:14:05.724Z</time>
      </trkpt>
      <trkpt lat="42.65935" lon="18.16856">
        <ele>399.344683</ele>
        <time>2022-06-10T09:14:08.742Z</time>
      </trkpt>
      <trkpt lat="42.65933" lon="18.1687">
        <ele>399.553544</ele>
        <time>2022-06-10T09:14:11.708Z</time>
      </trkpt>
      <trkpt lat="42.65933" lon="18.16884">
        <ele>399.758749</ele>
        <time>2022-06-10T09:14:14.710Z</time>
      </trkpt>
      <trkpt lat="42.65931" lon="18.16897">
        <ele>399.962764</ele>
        <time>2022-06-10T09:14:17.721Z</time>
      </trkpt>
      <trkpt lat="42.6593" lon="18.1691">
        <ele>400.1112</ele>
        <time>2022-06-10T09:14:20.699Z</time>
      </trkpt>
      <trkpt lat="42.65928" lon="18.16923">
        <ele>400.17318</ele>
        <time>2022-06-10T09:14:23.713Z</time>
      </trkpt>
      <trkpt lat="42.65927" lon="18.16935">
        <ele>400.235071</ele>
        <time>2022-06-10T09:14:26.704Z</time>
      </trkpt>
      <trkpt lat="42.65926" lon="18.16947">
        <ele>400.294845</ele>
        <time>2022-06-10T09:14:29.703Z</time>
      </trkpt>
      <trkpt lat="42.65924" lon="18.16959">
        <ele>400.354413</ele>
        <time>2022-06-10T09:14:32.735Z</time>
      </trkpt>
      <trkpt lat="42.65923" lon="18.16972">
        <ele>400.416304</ele>
        <time>2022-06-10T09:14:35.732Z</time>
      </trkpt>
      <trkpt lat="42.65922" lon="18.16988">
        <ele>400.495928</ele>
        <time>2022-06-10T09:14:39.725Z</time>
      </trkpt>
      <trkpt lat="42.6592" lon="18.17001">
        <ele>400.558221</ele>
        <time>2022-06-10T09:14:42.702Z</time>
      </trkpt>
      <trkpt lat="42.65919" lon="18.17013">
        <ele>400.618358</ele>
        <time>2022-06-10T09:14:45.722Z</time>
      </trkpt>
      <trkpt lat="42.65918" lon="18.17026">
        <ele>400.682515</ele>
        <time>2022-06-10T09:14:48.705Z</time>
      </trkpt>
      <trkpt lat="42.65916" lon="18.17039">
        <ele>400.744918</ele>
        <time>2022-06-10T09:14:51.708Z</time>
      </trkpt>
      <trkpt lat="42.65914" lon="18.17051">
        <ele>400.80469</ele>
        <time>2022-06-10T09:14:54.712Z</time>
      </trkpt>
      <trkpt lat="42.65912" lon="18.17064">
        <ele>400.868898</ele>
        <time>2022-06-10T09:14:57.722Z</time>
      </trkpt>
      <trkpt lat="42.65911" lon="18.17077">
        <ele>400.933865</ele>
        <time>2022-06-10T09:15:00.743Z</time>
      </trkpt>
      <trkpt lat="42.65909" lon="18.17089">
        <ele>400.995434</ele>
        <time>2022-06-10T09:15:03.704Z</time>
      </trkpt>
      <trkpt lat="42.65907" lon="18.17102">
        <ele>401.05775</ele>
        <time>2022-06-10T09:15:06.706Z</time>
      </trkpt>
      <trkpt lat="42.65905" lon="18.17114">
        <ele>401.119102</ele>
        <time>2022-06-10T09:15:09.705Z</time>
      </trkpt>
      <trkpt lat="42.65902" lon="18.17126">
        <ele>401.179767</ele>
        <time>2022-06-10T09:15:12.710Z</time>
      </trkpt>
      <trkpt lat="42.65899" lon="18.17138">
        <ele>401.241265</ele>
        <time>2022-06-10T09:15:15.718Z</time>
      </trkpt>
      <trkpt lat="42.65894" lon="18.17149">
        <ele>401.333284</ele>
        <time>2022-06-10T09:15:18.717Z</time>
      </trkpt>
      <trkpt lat="42.65888" lon="18.17159">
        <ele>401.463091</ele>
        <time>2022-06-10T09:15:21.713Z</time>
      </trkpt>
      <trkpt lat="42.65882" lon="18.17169">
        <ele>401.587679</ele>
        <time>2022-06-10T09:15:24.695Z</time>
      </trkpt>
      <trkpt lat="42.65875" lon="18.17177">
        <ele>401.71077</ele>
        <time>2022-06-10T09:15:27.703Z</time>
      </trkpt>
      <trkpt lat="42.65866" lon="18.17186">
        <ele>401.864637</ele>
        <time>2022-06-10T09:15:31.693Z</time>
      </trkpt>
      <trkpt lat="42.65856" lon="18.17192">
        <ele>402.006981</ele>
        <time>2022-06-10T09:15:35.707Z</time>
      </trkpt>
      <trkpt lat="42.65846" lon="18.17198">
        <ele>402.15778</ele>
        <time>2022-06-10T09:15:39.715Z</time>
      </trkpt>
      <trkpt lat="42.65835" lon="18.17203">
        <ele>402.304043</ele>
        <time>2022-06-10T09:15:43.710Z</time>
      </trkpt>
      <trkpt lat="42.65825" lon="18.17209">
        <ele>402.449643</ele>
        <time>2022-06-10T09:15:47.699Z</time>
      </trkpt>
      <trkpt lat="42.65816" lon="18.17216">
        <ele>402.595973</ele>
        <time>2022-06-10T09:15:51.729Z</time>
      </trkpt>
      <trkpt lat="42.65807" lon="18.17226">
        <ele>402.756213</ele>
        <time>2022-06-10T09:15:55.701Z</time>
      </trkpt>
      <trkpt lat="42.65801" lon="18.17237">
        <ele>402.883586</ele>
        <time>2022-06-10T09:15:58.737Z</time>
      </trkpt>
      <trkpt lat="42.65796" lon="18.17248">
        <ele>403.012045</ele>
        <time>2022-06-10T09:16:01.696Z</time>
      </trkpt>
      <trkpt lat="42.65794" lon="18.17261">
        <ele>403.145495</ele>
        <time>2022-06-10T09:16:04.722Z</time>
      </trkpt>
      <trkpt lat="42.65792" lon="18.17277">
        <ele>403.303538</ele>
        <time>2022-06-10T09:16:08.734Z</time>
      </trkpt>
      <trkpt lat="42.65791" lon="18.17292">
        <ele>403.457185</ele>
        <time>2022-06-10T09:16:12.693Z</time>
      </trkpt>
      <trkpt lat="42.6579" lon="18.17308">
        <ele>403.615085</ele>
        <time>2022-06-10T09:16:16.714Z</time>
      </trkpt>
      <trkpt lat="42.65787" lon="18.17323">
        <ele>403.955062</ele>
        <time>2022-06-10T09:16:20.725Z</time>
      </trkpt>
      <trkpt lat="42.65784" lon="18.17337">
        <ele>404.493277</ele>
        <time>2022-06-10T09:16:24.716Z</time>
      </trkpt>
      <trkpt lat="42.65782" lon="18.17352">
        <ele>405.021941</ele>
        <time>2022-06-10T09:16:28.717Z</time>
      </trkpt>
      <trkpt lat="42.65779" lon="18.17366">
        <ele>405.581671</ele>
        <time>2022-06-10T09:16:32.714Z</time>
      </trkpt>
      <trkpt lat="42.65775" lon="18.17381">
        <ele>406.158907</ele>
        <time>2022-06-10T09:16:36.750Z</time>
      </trkpt>
      <trkpt lat="42.65771" lon="18.17396">
        <ele>406.729527</ele>
        <time>2022-06-10T09:16:40.710Z</time>
      </trkpt>
      <trkpt lat="42.65769" lon="18.17411">
        <ele>407.29716</ele>
        <time>2022-06-10T09:16:44.698Z</time>
      </trkpt>
      <trkpt lat="42.65767" lon="18.17427">
        <ele>407.867321</ele>
        <time>2022-06-10T09:16:48.703Z</time>
      </trkpt>
      <trkpt lat="42.65767" lon="18.17441">
        <ele>408.386277</ele>
        <time>2022-06-10T09:16:52.694Z</time>
      </trkpt>
      <trkpt lat="42.65768" lon="18.17456">
        <ele>408.914703</ele>
        <time>2022-06-10T09:16:56.737Z</time>
      </trkpt>
      <trkpt lat="42.6577" lon="18.17469">
        <ele>409.424567</ele>
        <time>2022-06-10T09:17:00.715Z</time>
      </trkpt>
      <trkpt lat="42.65775" lon="18.17482">
        <ele>409.925283</ele>
        <time>2022-06-10T09:17:04.696Z</time>
      </trkpt>
      <trkpt lat="42.65781" lon="18.17492">
        <ele>410.398869</ele>
        <time>2022-06-10T09:17:08.711Z</time>
      </trkpt>
      <trkpt lat="42.65788" lon="18.17501">
        <ele>410.869305</ele>
        <time>2022-06-10T09:17:12.716Z</time>
      </trkpt>
      <trkpt lat="42.65796" lon="18.17509">
        <ele>411.381609</ele>
        <time>2022-06-10T09:17:16.692Z</time>
      </trkpt>
      <trkpt lat="42.65806" lon="18.17517">
        <ele>411.919331</ele>
        <time>2022-06-10T09:17:20.688Z</time>
      </trkpt>
      <trkpt lat="42.65815" lon="18.17523">
        <ele>412.45862</ele>
        <time>2022-06-10T09:17:24.738Z</time>
      </trkpt>
      <trkpt lat="42.65826" lon="18.17527">
        <ele>412.705753</ele>
        <time>2022-06-10T09:17:28.710Z</time>
      </trkpt>
      <trkpt lat="42.65835" lon="18.17532">
        <ele>412.868102</ele>
        <time>2022-06-10T09:17:32.726Z</time>
      </trkpt>
      <trkpt lat="42.65844" lon="18.17536">
        <ele>413.017112</ele>
        <time>2022-06-10T09:17:36.717Z</time>
      </trkpt>
      <trkpt lat="42.65853" lon="18.17541">
        <ele>413.174531</ele>
        <time>2022-06-10T09:17:40.715Z</time>
      </trkpt>
      <trkpt lat="42.65862" lon="18.17545">
        <ele>413.326214</ele>
        <time>2022-06-10T09:17:44.704Z</time>
      </trkpt>
      <trkpt lat="42.65871" lon="18.17549">
        <ele>413.477897</ele>
        <time>2022-06-10T09:17:48.700Z</time>
      </trkpt>
      <trkpt lat="42.6588" lon="18.17552">
        <ele>413.627998</ele>
        <time>2022-06-10T09:17:52.734Z</time>
      </trkpt>
      <trkpt lat="42.6589" lon="18.17554">
        <ele>413.785383</ele>
        <time>2022-06-10T09:17:56.716Z</time>
      </trkpt>
      <trkpt lat="42.659" lon="18.17556">
        <ele>413.945634</ele>
        <time>2022-06-10T09:18:00.702Z</time>
      </trkpt>
      <trkpt lat="42.6591" lon="18.17557">
        <ele>414.111871</ele>
        <time>2022-06-10T09:18:04.710Z</time>
      </trkpt>
      <trkpt lat="42.6592" lon="18.17559">
        <ele>414.270001</ele>
        <time>2022-06-10T09:18:08.698Z</time>
      </trkpt>
      <trkpt lat="42.6593" lon="18.17558">
        <ele>414.428994</ele>
        <time>2022-06-10T09:18:12.720Z</time>
      </trkpt>
      <trkpt lat="42.65939" lon="18.17559">
        <ele>414.580248</ele>
        <time>2022-06-10T09:18:16.696Z</time>
      </trkpt>
      <trkpt lat="42.65949" lon="18.17559">
        <ele>414.742659</ele>
        <time>2022-06-10T09:18:20.733Z</time>
      </trkpt>
      <trkpt lat="42.65959" lon="18.17559">
        <ele>414.906504</ele>
        <time>2022-06-10T09:18:24.702Z</time>
      </trkpt>
      <trkpt lat="42.65969" lon="18.1756">
        <ele>415.056155</ele>
        <time>2022-06-10T09:18:28.707Z</time>
      </trkpt>
      <trkpt lat="42.65979" lon="18.17561">
        <ele>415.223774</ele>
        <time>2022-06-10T09:18:32.713Z</time>
      </trkpt>
      <trkpt lat="42.6599" lon="18.17564">
        <ele>415.405294</ele>
        <time>2022-06-10T09:18:36.735Z</time>
      </trkpt>
      <trkpt lat="42.66001" lon="18.17568">
        <ele>415.367018</ele>
        <time>2022-06-10T09:18:40.696Z</time>
      </trkpt>
      <trkpt lat="42.66011" lon="18.17574">
        <ele>415.237824</ele>
        <time>2022-06-10T09:18:44.722Z</time>
      </trkpt>
      <trkpt lat="42.66021" lon="18.17579">
        <ele>415.116908</ele>
        <time>2022-06-10T09:18:48.716Z</time>
      </trkpt>
      <trkpt lat="42.6603" lon="18.17583">
        <ele>415.005711</ele>
        <time>2022-06-10T09:18:52.708Z</time>
      </trkpt>
      <trkpt lat="42.66039" lon="18.17588">
        <ele>414.886491</ele>
        <time>2022-06-10T09:18:56.696Z</time>
      </trkpt>
      <trkpt lat="42.66049" lon="18.17594">
        <ele>414.763869</ele>
        <time>2022-06-10T09:19:00.699Z</time>
      </trkpt>
      <trkpt lat="42.66058" lon="18.17599">
        <ele>414.649838</ele>
        <time>2022-06-10T09:19:04.722Z</time>
      </trkpt>
      <trkpt lat="42.66068" lon="18.17606">
        <ele>414.522969</ele>
        <time>2022-06-10T09:19:08.708Z</time>
      </trkpt>
      <trkpt lat="42.66077" lon="18.17613">
        <ele>414.399125</ele>
        <time>2022-06-10T09:19:12.714Z</time>
      </trkpt>
      <trkpt lat="42.66085" lon="18.17622">
        <ele>414.278901</ele>
        <time>2022-06-10T09:19:16.714Z</time>
      </trkpt>
      <trkpt lat="42.66093" lon="18.1763">
        <ele>414.161957</ele>
        <time>2022-06-10T09:19:20.715Z</time>
      </trkpt>
      <trkpt lat="42.661" lon="18.1764">
        <ele>414.041934</ele>
        <time>2022-06-10T09:19:24.705Z</time>
      </trkpt>
      <trkpt lat="42.66107" lon="18.17651">
        <ele>413.922427</ele>
        <time>2022-06-10T09:19:28.705Z</time>
      </trkpt>
      <trkpt lat="42.66113" lon="18.17661">
        <ele>413.811527</ele>
        <time>2022-06-10T09:19:32.754Z</time>
      </trkpt>
      <trkpt lat="42.66119" lon="18.17672">
        <ele>413.693733</ele>
        <time>2022-06-10T09:19:36.716Z</time>
      </trkpt>
      <trkpt lat="42.66124" lon="18.17683">
        <ele>413.584844</ele>
        <time>2022-06-10T09:19:40.711Z</time>
      </trkpt>
      <trkpt lat="42.66129" lon="18.17693">
        <ele>413.478061</ele>
        <time>2022-06-10T09:19:44.719Z</time>
      </trkpt>
      <trkpt lat="42.66136" lon="18.17703">
        <ele>413.387001</ele>
        <time>2022-06-10T09:19:48.697Z</time>
      </trkpt>
      <trkpt lat="42.66142" lon="18.17715">
        <ele>413.877855</ele>
        <time>2022-06-10T09:19:52.726Z</time>
      </trkpt>
      <trkpt lat="42.66148" lon="18.17727">
        <ele>414.374387</ele>
        <time>2022-06-10T09:19:56.734Z</time>
      </trkpt>
      <trkpt lat="42.66154" lon="18.17739">
        <ele>414.85704</ele>
        <time>2022-06-10T09:20:00.712Z</time>
      </trkpt>
      <trkpt lat="42.6616" lon="18.1775">
        <ele>415.342598</ele>
        <time>2022-06-10T09:20:04.741Z</time>
      </trkpt>
      <trkpt lat="42.66166" lon="18.17761">
        <ele>415.78559</ele>
        <time>2022-06-10T09:20:08.708Z</time>
      </trkpt>
      <trkpt lat="42.66171" lon="18.17774">
        <ele>416.276265</ele>
        <time>2022-06-10T09:20:12.683Z</time>
      </trkpt>
      <trkpt lat="42.66176" lon="18.17786">
        <ele>416.753532</ele>
        <time>2022-06-10T09:20:16.739Z</time>
      </trkpt>
      <trkpt lat="42.66179" lon="18.178">
        <ele>417.227998</ele>
        <time>2022-06-10T09:20:20.724Z</time>
      </trkpt>
      <trkpt lat="42.66179" lon="18.17814">
        <ele>417.726574</ele>
        <time>2022-06-10T09:20:24.716Z</time>
      </trkpt>
      <trkpt lat="42.66177" lon="18.17828">
        <ele>418.196915</ele>
        <time>2022-06-10T09:20:28.714Z</time>
      </trkpt>
      <trkpt lat="42.66173" lon="18.1784">
        <ele>418.640808</ele>
        <time>2022-06-10T09:20:32.714Z</time>
      </trkpt>
      <trkpt lat="42.66167" lon="18.1785">
        <ele>419.082581</ele>
        <time>2022-06-10T09:20:36.732Z</time>
      </trkpt>
      <trkpt lat="42.6616" lon="18.17859">
        <ele>419.530414</ele>
        <time>2022-06-10T09:20:40.718Z</time>
      </trkpt>
      <trkpt lat="42.66152" lon="18.17866">
        <ele>419.970094</ele>
        <time>2022-06-10T09:20:44.722Z</time>
      </trkpt>
      <trkpt lat="42.66143" lon="18.17871">
        <ele>420.421247</ele>
        <time>2022-06-10T09:20:49.745Z</time>
      </trkpt>
      <trkpt lat="42.66133" lon="18.17875">
        <ele>420.904998</ele>
        <time>2022-06-10T09:20:54.713Z</time>
      </trkpt>
      <trkpt lat="42.66123" lon="18.17879">
        <ele>421.393592</ele>
        <time>2022-06-10T09:20:59.700Z</time>
      </trkpt>
      <trkpt lat="42.66113" lon="18.17884">
        <ele>421.833972</ele>
        <time>2022-06-10T09:21:04.713Z</time>
      </trkpt>
      <trkpt lat="42.66103" lon="18.1789">
        <ele>422.264359</ele>
        <time>2022-06-10T09:21:09.715Z</time>
      </trkpt>
      <trkpt lat="42.66093" lon="18.17894">
        <ele>422.704046</ele>
        <time>2022-06-10T09:21:14.714Z</time>
      </trkpt>
      <trkpt lat="42.66083" lon="18.17899">
        <ele>423.155149</ele>
        <time>2022-06-10T09:21:19.703Z</time>
      </trkpt>
      <trkpt lat="42.66073" lon="18.17903">
        <ele>423.577254</ele>
        <time>2022-06-10T09:21:24.707Z</time>
      </trkpt>
      <trkpt lat="42.66064" lon="18.17908">
        <ele>423.947926</ele>
        <time>2022-06-10T09:21:28.760Z</time>
      </trkpt>
      <trkpt lat="42.66056" lon="18.17914">
        <ele>424.345881</ele>
        <time>2022-06-10T09:21:33.718Z</time>
      </trkpt>
      <trkpt lat="42.66047" lon="18.17922">
        <ele>424.78125</ele>
        <time>2022-06-10T09:21:38.737Z</time>
      </trkpt>
      <trkpt lat="42.66039" lon="18.17931">
        <ele>425.196949</ele>
        <time>2022-06-10T09:21:43.721Z</time>
      </trkpt>
      <trkpt lat="42.66033" lon="18.17942">
        <ele>425.61773</ele>
        <time>2022-06-10T09:21:48.746Z</time>
      </trkpt>
      <trkpt lat="42.66029" lon="18.17954">
        <ele>425.996591</ele>
        <time>2022-06-10T09:21:52.707Z</time>
      </trkpt>
      <trkpt lat="42.66034" lon="18.17966">
        <ele>426.390003</ele>
        <time>2022-06-10T09:21:57.748Z</time>
      </trkpt>
      <trkpt lat="42.66043" lon="18.17963">
        <ele>426.776864</ele>
        <time>2022-06-10T09:22:03.739Z</time>
      </trkpt>
      <trkpt lat="42.66049" lon="18.17953">
        <ele>427.164461</ele>
        <time>2022-06-10T09:22:11.713Z</time>
      </trkpt>
      <trkpt lat="42.66052" lon="18.17924">
        <ele>428.040917</ele>
        <time>2022-06-10T09:31:04.717Z</time>
      </trkpt>
      <trkpt lat="42.66056" lon="18.17914">
        <ele>428.407549</ele>
        <time>2022-06-10T09:31:07.720Z</time>
      </trkpt>
      <trkpt lat="42.66066" lon="18.17908">
        <ele>428.850032</ele>
        <time>2022-06-10T09:31:10.704Z</time>
      </trkpt>
      <trkpt lat="42.66079" lon="18.17902">
        <ele>428.806617</ele>
        <time>2022-06-10T09:31:13.726Z</time>
      </trkpt>
      <trkpt lat="42.66091" lon="18.17895">
        <ele>428.564198</ele>
        <time>2022-06-10T09:31:16.745Z</time>
      </trkpt>
      <trkpt lat="42.66101" lon="18.17892">
        <ele>428.382118</ele>
        <time>2022-06-10T09:31:18.709Z</time>
      </trkpt>
      <trkpt lat="42.66112" lon="18.17889">
        <ele>428.185139</ele>
        <time>2022-06-10T09:31:20.717Z</time>
      </trkpt>
      <trkpt lat="42.66123" lon="18.17885">
        <ele>427.986631</ele>
        <time>2022-06-10T09:31:22.717Z</time>
      </trkpt>
      <trkpt lat="42.66133" lon="18.1788">
        <ele>427.792119</ele>
        <time>2022-06-10T09:31:24.711Z</time>
      </trkpt>
      <trkpt lat="42.66142" lon="18.17876">
        <ele>427.621855</ele>
        <time>2022-06-10T09:31:26.708Z</time>
      </trkpt>
      <trkpt lat="42.6615" lon="18.17872">
        <ele>427.454965</ele>
        <time>2022-06-10T09:31:28.706Z</time>
      </trkpt>
      <trkpt lat="42.6616" lon="18.17866">
        <ele>427.273151</ele>
        <time>2022-06-10T09:31:30.748Z</time>
      </trkpt>
      <trkpt lat="42.66169" lon="18.17859">
        <ele>427.083368</ele>
        <time>2022-06-10T09:31:32.705Z</time>
      </trkpt>
      <trkpt lat="42.66176" lon="18.17847">
        <ele>426.876543</ele>
        <time>2022-06-10T09:31:34.717Z</time>
      </trkpt>
      <trkpt lat="42.6618" lon="18.17831">
        <ele>426.65814</ele>
        <time>2022-06-10T09:31:36.712Z</time>
      </trkpt>
      <trkpt lat="42.66182" lon="18.17814">
        <ele>426.432201</ele>
        <time>2022-06-10T09:31:38.727Z</time>
      </trkpt>
      <trkpt lat="42.66182" lon="18.17797">
        <ele>426.202897</ele>
        <time>2022-06-10T09:31:40.710Z</time>
      </trkpt>
      <trkpt lat="42.66178" lon="18.1778">
        <ele>425.975342</ele>
        <time>2022-06-10T09:31:42.728Z</time>
      </trkpt>
      <trkpt lat="42.66172" lon="18.17765">
        <ele>425.737953</ele>
        <time>2022-06-10T09:31:44.737Z</time>
      </trkpt>
      <trkpt lat="42.66164" lon="18.1775">
        <ele>425.100174</ele>
        <time>2022-06-10T09:31:46.705Z</time>
      </trkpt>
      <trkpt lat="42.66156" lon="18.17735">
        <ele>424.442822</ele>
        <time>2022-06-10T09:31:48.729Z</time>
      </trkpt>
      <trkpt lat="42.66148" lon="18.1772">
        <ele>423.782701</ele>
        <time>2022-06-10T09:31:50.692Z</time>
      </trkpt>
      <trkpt lat="42.6614" lon="18.17705">
        <ele>423.11138</ele>
        <time>2022-06-10T09:31:52.706Z</time>
      </trkpt>
      <trkpt lat="42.66132" lon="18.17689">
        <ele>422.428408</ele>
        <time>2022-06-10T09:31:54.733Z</time>
      </trkpt>
      <trkpt lat="42.66124" lon="18.17671">
        <ele>421.687657</ele>
        <time>2022-06-10T09:31:56.725Z</time>
      </trkpt>
      <trkpt lat="42.66115" lon="18.17654">
        <ele>420.947943</ele>
        <time>2022-06-10T09:31:58.742Z</time>
      </trkpt>
      <trkpt lat="42.66106" lon="18.17638">
        <ele>420.227825</ele>
        <time>2022-06-10T09:32:00.745Z</time>
      </trkpt>
      <trkpt lat="42.66095" lon="18.17622">
        <ele>419.493391</ele>
        <time>2022-06-10T09:32:02.710Z</time>
      </trkpt>
      <trkpt lat="42.66083" lon="18.17608">
        <ele>418.731907</ele>
        <time>2022-06-10T09:32:04.704Z</time>
      </trkpt>
      <trkpt lat="42.6607" lon="18.17597">
        <ele>417.980355</ele>
        <time>2022-06-10T09:32:06.729Z</time>
      </trkpt>
      <trkpt lat="42.66055" lon="18.17589">
        <ele>417.214742</ele>
        <time>2022-06-10T09:32:08.706Z</time>
      </trkpt>
      <trkpt lat="42.6604" lon="18.17581">
        <ele>416.281775</ele>
        <time>2022-06-10T09:32:10.702Z</time>
      </trkpt>
      <trkpt lat="42.66025" lon="18.17573">
        <ele>415.276186</ele>
        <time>2022-06-10T09:32:12.707Z</time>
      </trkpt>
      <trkpt lat="42.66009" lon="18.17564">
        <ele>414.248893</ele>
        <time>2022-06-10T09:32:14.706Z</time>
      </trkpt>
      <trkpt lat="42.65992" lon="18.17557">
        <ele>413.195926</ele>
        <time>2022-06-10T09:32:16.687Z</time>
      </trkpt>
      <trkpt lat="42.65975" lon="18.17553">
        <ele>412.152398</ele>
        <time>2022-06-10T09:32:18.697Z</time>
      </trkpt>
      <trkpt lat="42.65958" lon="18.17552">
        <ele>411.127219</ele>
        <time>2022-06-10T09:32:20.702Z</time>
      </trkpt>
      <trkpt lat="42.65941" lon="18.17553">
        <ele>410.125967</ele>
        <time>2022-06-10T09:32:22.703Z</time>
      </trkpt>
      <trkpt lat="42.65924" lon="18.17554">
        <ele>409.113565</ele>
        <time>2022-06-10T09:32:24.710Z</time>
      </trkpt>
      <trkpt lat="42.65907" lon="18.17553">
        <ele>408.083393</ele>
        <time>2022-06-10T09:32:26.723Z</time>
      </trkpt>
      <trkpt lat="42.6589" lon="18.17549">
        <ele>407.041187</ele>
        <time>2022-06-10T09:32:28.691Z</time>
      </trkpt>
      <trkpt lat="42.65873" lon="18.17541">
        <ele>406.137109</ele>
        <time>2022-06-10T09:32:30.721Z</time>
      </trkpt>
      <trkpt lat="42.65856" lon="18.17533">
        <ele>405.545876</ele>
        <time>2022-06-10T09:32:32.719Z</time>
      </trkpt>
      <trkpt lat="42.6584" lon="18.17525">
        <ele>404.965447</ele>
        <time>2022-06-10T09:32:34.695Z</time>
      </trkpt>
      <trkpt lat="42.65824" lon="18.17518">
        <ele>404.416648</ele>
        <time>2022-06-10T09:32:36.746Z</time>
      </trkpt>
      <trkpt lat="42.65808" lon="18.17509">
        <ele>403.857615</ele>
        <time>2022-06-10T09:32:38.711Z</time>
      </trkpt>
      <trkpt lat="42.65794" lon="18.17497">
        <ele>403.298961</ele>
        <time>2022-06-10T09:32:40.716Z</time>
      </trkpt>
      <trkpt lat="42.65783" lon="18.17481">
        <ele>402.759521</ele>
        <time>2022-06-10T09:32:42.711Z</time>
      </trkpt>
      <trkpt lat="42.65774" lon="18.17463">
        <ele>402.219756</ele>
        <time>2022-06-10T09:32:44.706Z</time>
      </trkpt>
      <trkpt lat="42.6577" lon="18.1744">
        <ele>401.651946</ele>
        <time>2022-06-10T09:32:46.732Z</time>
      </trkpt>
      <trkpt lat="42.6577" lon="18.17417">
        <ele>401.100413</ele>
        <time>2022-06-10T09:32:48.764Z</time>
      </trkpt>
      <trkpt lat="42.65776" lon="18.17395">
        <ele>400.533605</ele>
        <time>2022-06-10T09:32:50.711Z</time>
      </trkpt>
      <trkpt lat="42.65783" lon="18.17374">
        <ele>400.325577</ele>
        <time>2022-06-10T09:32:52.704Z</time>
      </trkpt>
      <trkpt lat="42.65788" lon="18.17352">
        <ele>400.257666</ele>
        <time>2022-06-10T09:32:54.714Z</time>
      </trkpt>
      <trkpt lat="42.65792" lon="18.1733">
        <ele>400.191382</ele>
        <time>2022-06-10T09:32:56.728Z</time>
      </trkpt>
      <trkpt lat="42.65796" lon="18.17308">
        <ele>400.124872</ele>
        <time>2022-06-10T09:32:58.708Z</time>
      </trkpt>
      <trkpt lat="42.65798" lon="18.17288">
        <ele>400.062295</ele>
        <time>2022-06-10T09:33:00.721Z</time>
      </trkpt>
      <trkpt lat="42.65799" lon="18.17267">
        <ele>400.002301</ele>
        <time>2022-06-10T09:33:02.724Z</time>
      </trkpt>
      <trkpt lat="42.65802" lon="18.17248">
        <ele>399.942061</ele>
        <time>2022-06-10T09:33:04.711Z</time>
      </trkpt>
      <trkpt lat="42.65809" lon="18.1723">
        <ele>399.882458</ele>
        <time>2022-06-10T09:33:06.725Z</time>
      </trkpt>
      <trkpt lat="42.6582" lon="18.17217">
        <ele>399.822342</ele>
        <time>2022-06-10T09:33:08.717Z</time>
      </trkpt>
      <trkpt lat="42.65835" lon="18.17209">
        <ele>399.759634</ele>
        <time>2022-06-10T09:33:10.707Z</time>
      </trkpt>
      <trkpt lat="42.65848" lon="18.17202">
        <ele>399.701866</ele>
        <time>2022-06-10T09:33:12.708Z</time>
      </trkpt>
      <trkpt lat="42.6586" lon="18.17195">
        <ele>399.643368</ele>
        <time>2022-06-10T09:33:14.718Z</time>
      </trkpt>
      <trkpt lat="42.65872" lon="18.17187">
        <ele>399.481171</ele>
        <time>2022-06-10T09:33:16.690Z</time>
      </trkpt>
      <trkpt lat="42.65882" lon="18.17177">
        <ele>399.320138</ele>
        <time>2022-06-10T09:33:18.705Z</time>
      </trkpt>
      <trkpt lat="42.65891" lon="18.17164">
        <ele>399.163175</ele>
        <time>2022-06-10T09:33:20.714Z</time>
      </trkpt>
      <trkpt lat="42.65898" lon="18.17151">
        <ele>399.011162</ele>
        <time>2022-06-10T09:33:22.727Z</time>
      </trkpt>
      <trkpt lat="42.65905" lon="18.17135">
        <ele>398.848921</ele>
        <time>2022-06-10T09:33:24.709Z</time>
      </trkpt>
      <trkpt lat="42.65908" lon="18.17119">
        <ele>398.691451</ele>
        <time>2022-06-10T09:33:26.710Z</time>
      </trkpt>
      <trkpt lat="42.65912" lon="18.17102">
        <ele>398.529699</ele>
        <time>2022-06-10T09:33:28.764Z</time>
      </trkpt>
      <trkpt lat="42.65914" lon="18.17084">
        <ele>398.364945</ele>
        <time>2022-06-10T09:33:30.707Z</time>
      </trkpt>
      <trkpt lat="42.65917" lon="18.17066">
        <ele>398.200698</ele>
        <time>2022-06-10T09:33:32.764Z</time>
      </trkpt>
      <trkpt lat="42.6592" lon="18.17049">
        <ele>398.037098</ele>
        <time>2022-06-10T09:33:34.716Z</time>
      </trkpt>
      <trkpt lat="42.65922" lon="18.17031">
        <ele>397.874447</ele>
        <time>2022-06-10T09:33:36.730Z</time>
      </trkpt>
      <trkpt lat="42.65924" lon="18.17014">
        <ele>397.711108</ele>
        <time>2022-06-10T09:33:38.710Z</time>
      </trkpt>
      <trkpt lat="42.65926" lon="18.16997">
        <ele>397.550474</ele>
        <time>2022-06-10T09:33:40.714Z</time>
      </trkpt>
      <trkpt lat="42.65928" lon="18.16979">
        <ele>397.368642</ele>
        <time>2022-06-10T09:33:42.714Z</time>
      </trkpt>
      <trkpt lat="42.6593" lon="18.16962">
        <ele>397.041871</ele>
        <time>2022-06-10T09:33:44.716Z</time>
      </trkpt>
      <trkpt lat="42.65932" lon="18.16945">
        <ele>396.722056</ele>
        <time>2022-06-10T09:33:46.719Z</time>
      </trkpt>
      <trkpt lat="42.65934" lon="18.16928">
        <ele>396.40988</ele>
        <time>2022-06-10T09:33:48.708Z</time>
      </trkpt>
      <trkpt lat="42.65936" lon="18.16911">
        <ele>396.094368</ele>
        <time>2022-06-10T09:33:50.710Z</time>
      </trkpt>
      <trkpt lat="42.65938" lon="18.16894">
        <ele>395.785484</ele>
        <time>2022-06-10T09:33:52.723Z</time>
      </trkpt>
      <trkpt lat="42.65939" lon="18.16878">
        <ele>395.490063</ele>
        <time>2022-06-10T09:33:54.703Z</time>
      </trkpt>
      <trkpt lat="42.65941" lon="18.16863">
        <ele>395.204097</ele>
        <time>2022-06-10T09:33:56.741Z</time>
      </trkpt>
      <trkpt lat="42.65942" lon="18.16848">
        <ele>394.927254</ele>
        <time>2022-06-10T09:33:58.714Z</time>
      </trkpt>
      <trkpt lat="42.65944" lon="18.16834">
        <ele>394.659867</ele>
        <time>2022-06-10T09:34:00.751Z</time>
      </trkpt>
      <trkpt lat="42.65945" lon="18.1682">
        <ele>394.402291</ele>
        <time>2022-06-10T09:34:02.718Z</time>
      </trkpt>
      <trkpt lat="42.65947" lon="18.16807">
        <ele>394.160054</ele>
        <time>2022-06-10T09:34:04.715Z</time>
      </trkpt>
      <trkpt lat="42.65948" lon="18.16794">
        <ele>393.928723</ele>
        <time>2022-06-10T09:34:06.741Z</time>
      </trkpt>
      <trkpt lat="42.6595" lon="18.16782">
        <ele>393.697391</ele>
        <time>2022-06-10T09:34:08.683Z</time>
      </trkpt>
      <trkpt lat="42.65951" lon="18.1677">
        <ele>393.463827</ele>
        <time>2022-06-10T09:34:10.723Z</time>
      </trkpt>
      <trkpt lat="42.65953" lon="18.16757">
        <ele>393.232496</ele>
        <time>2022-06-10T09:34:12.726Z</time>
      </trkpt>
      <trkpt lat="42.65954" lon="18.16745">
        <ele>393.006786</ele>
        <time>2022-06-10T09:34:14.802Z</time>
      </trkpt>
      <trkpt lat="42.65955" lon="18.16727">
        <ele>392.838888</ele>
        <time>2022-06-10T09:34:17.734Z</time>
      </trkpt>
      <trkpt lat="42.65955" lon="18.16711">
        <ele>392.741987</ele>
        <time>2022-06-10T09:34:20.715Z</time>
      </trkpt>
      <trkpt lat="42.65955" lon="18.16695">
        <ele>392.649269</ele>
        <time>2022-06-10T09:34:23.718Z</time>
      </trkpt>
      <trkpt lat="42.65954" lon="18.16679">
        <ele>392.555539</ele>
        <time>2022-06-10T09:34:26.711Z</time>
      </trkpt>
      <trkpt lat="42.65953" lon="18.16663">
        <ele>392.461887</ele>
        <time>2022-06-10T09:34:29.699Z</time>
      </trkpt>
      <trkpt lat="42.65951" lon="18.16647">
        <ele>392.369719</ele>
        <time>2022-06-10T09:34:32.705Z</time>
      </trkpt>
      <trkpt lat="42.65949" lon="18.16631">
        <ele>392.273278</ele>
        <time>2022-06-10T09:34:35.669Z</time>
      </trkpt>
      <trkpt lat="42.65946" lon="18.16614">
        <ele>392.173843</ele>
        <time>2022-06-10T09:34:38.693Z</time>
      </trkpt>
      <trkpt lat="42.65943" lon="18.16597">
        <ele>392.073054</ele>
        <time>2022-06-10T09:34:41.688Z</time>
      </trkpt>
      <trkpt lat="42.6594" lon="18.16581">
        <ele>391.970943</ele>
        <time>2022-06-10T09:34:44.733Z</time>
      </trkpt>
      <trkpt lat="42.65937" lon="18.16569">
        <ele>391.898683</ele>
        <time>2022-06-10T09:34:46.685Z</time>
      </trkpt>
      <trkpt lat="42.65935" lon="18.16556">
        <ele>391.82491</ele>
        <time>2022-06-10T09:34:48.707Z</time>
      </trkpt>
      <trkpt lat="42.65933" lon="18.16544">
        <ele>391.74968</ele>
        <time>2022-06-10T09:34:50.712Z</time>
      </trkpt>
      <trkpt lat="42.65932" lon="18.16531">
        <ele>391.673731</ele>
        <time>2022-06-10T09:34:52.816Z</time>
      </trkpt>
      <trkpt lat="42.6593" lon="18.16518">
        <ele>391.59889</ele>
        <time>2022-06-10T09:34:54.701Z</time>
      </trkpt>
      <trkpt lat="42.65929" lon="18.16505">
        <ele>391.519198</ele>
        <time>2022-06-10T09:34:56.749Z</time>
      </trkpt>
      <trkpt lat="42.65928" lon="18.16491">
        <ele>391.471502</ele>
        <time>2022-06-10T09:34:58.708Z</time>
      </trkpt>
      <trkpt lat="42.65927" lon="18.16478">
        <ele>391.450602</ele>
        <time>2022-06-10T09:35:00.707Z</time>
      </trkpt>
      <trkpt lat="42.65925" lon="18.16462">
        <ele>391.42383</ele>
        <time>2022-06-10T09:35:03.696Z</time>
      </trkpt>
      <trkpt lat="42.65925" lon="18.16449">
        <ele>391.401419</ele>
        <time>2022-06-10T09:35:07.736Z</time>
      </trkpt>
      <trkpt lat="42.65926" lon="18.16425">
        <ele>391.361536</ele>
        <time>2022-06-10T09:36:27.689Z</time>
      </trkpt>
      <trkpt lat="42.65927" lon="18.16411">
        <ele>391.339263</ele>
        <time>2022-06-10T09:36:31.688Z</time>
      </trkpt>
      <trkpt lat="42.65926" lon="18.16399">
        <ele>391.319024</ele>
        <time>2022-06-10T09:36:34.688Z</time>
      </trkpt>
      <trkpt lat="42.65926" lon="18.16385">
        <ele>391.296292</ele>
        <time>2022-06-10T09:36:37.702Z</time>
      </trkpt>
      <trkpt lat="42.65926" lon="18.16371">
        <ele>391.272897</ele>
        <time>2022-06-10T09:36:40.685Z</time>
      </trkpt>
      <trkpt lat="42.6593" lon="18.16359">
        <ele>391.250232</ele>
        <time>2022-06-10T09:36:43.708Z</time>
      </trkpt>
      <trkpt lat="42.6594" lon="18.16352">
        <ele>391.225099</ele>
        <time>2022-06-10T09:36:46.700Z</time>
      </trkpt>
      <trkpt lat="42.65951" lon="18.16357">
        <ele>391.198675</ele>
        <time>2022-06-10T09:36:49.699Z</time>
      </trkpt>
      <trkpt lat="42.65961" lon="18.16363">
        <ele>391.172853</ele>
        <time>2022-06-10T09:36:52.698Z</time>
      </trkpt>
      <trkpt lat="42.65972" lon="18.1637">
        <ele>391.146154</ele>
        <time>2022-06-10T09:36:55.682Z</time>
      </trkpt>
      <trkpt lat="42.65984" lon="18.16377">
        <ele>391.117269</ele>
        <time>2022-06-10T09:36:58.689Z</time>
      </trkpt>
      <trkpt lat="42.65996" lon="18.16384">
        <ele>391.087765</ele>
        <time>2022-06-10T09:37:01.681Z</time>
      </trkpt>
      <trkpt lat="42.66006" lon="18.16392">
        <ele>390.903026</ele>
        <time>2022-06-10T09:37:04.738Z</time>
      </trkpt>
      <trkpt lat="42.66014" lon="18.16401">
        <ele>390.684375</ele>
        <time>2022-06-10T09:37:07.685Z</time>
      </trkpt>
      <trkpt lat="42.6602" lon="18.16412">
        <ele>390.470447</ele>
        <time>2022-06-10T09:37:10.686Z</time>
      </trkpt>
      <trkpt lat="42.66027" lon="18.16421">
        <ele>390.267169</ele>
        <time>2022-06-10T09:37:13.682Z</time>
      </trkpt>
      <trkpt lat="42.66034" lon="18.1643">
        <ele>390.06389</ele>
        <time>2022-06-10T09:37:16.685Z</time>
      </trkpt>
      <trkpt lat="42.66041" lon="18.16439">
        <ele>389.860357</ele>
        <time>2022-06-10T09:37:19.697Z</time>
      </trkpt>
      <trkpt lat="42.66047" lon="18.16449">
        <ele>389.667427</ele>
        <time>2022-06-10T09:37:22.714Z</time>
      </trkpt>
      <trkpt lat="42.66055" lon="18.16459">
        <ele>389.443005</ele>
        <time>2022-06-10T09:37:26.735Z</time>
      </trkpt>
      <trkpt lat="42.66074" lon="18.16472">
        <ele>388.994166</ele>
        <time>2022-06-10T09:38:22.707Z</time>
      </trkpt>
      <trkpt lat="42.66083" lon="18.16478">
        <ele>388.775296</ele>
        <time>2022-06-10T09:38:26.691Z</time>
      </trkpt>
      <trkpt lat="42.66093" lon="18.16484">
        <ele>388.538502</ele>
        <time>2022-06-10T09:38:30.722Z</time>
      </trkpt>
      <trkpt lat="42.66102" lon="18.16488">
        <ele>388.344064</ele>
        <time>2022-06-10T09:38:33.689Z</time>
      </trkpt>
      <trkpt lat="42.66112" lon="18.16491">
        <ele>388.131989</ele>
        <time>2022-06-10T09:38:36.732Z</time>
      </trkpt>
      <trkpt lat="42.66122" lon="18.16493">
        <ele>387.927936</ele>
        <time>2022-06-10T09:38:39.674Z</time>
      </trkpt>
      <trkpt lat="42.66132" lon="18.16494">
        <ele>387.707806</ele>
        <time>2022-06-10T09:38:42.675Z</time>
      </trkpt>
      <trkpt lat="42.66145" lon="18.16496">
        <ele>387.442519</ele>
        <time>2022-06-10T09:38:45.682Z</time>
      </trkpt>
      <trkpt lat="42.66154" lon="18.16497">
        <ele>387.180934</ele>
        <time>2022-06-10T09:38:47.696Z</time>
      </trkpt>
      <trkpt lat="42.66164" lon="18.16499">
        <ele>386.635756</ele>
        <time>2022-06-10T09:38:49.679Z</time>
      </trkpt>
      <trkpt lat="42.66175" lon="18.165">
        <ele>386.080128</ele>
        <time>2022-06-10T09:38:51.690Z</time>
      </trkpt>
      <trkpt lat="42.66185" lon="18.16502">
        <ele>385.524499</ele>
        <time>2022-06-10T09:38:53.707Z</time>
      </trkpt>
      <trkpt lat="42.66196" lon="18.16502">
        <ele>384.961596</ele>
        <time>2022-06-10T09:38:55.679Z</time>
      </trkpt>
      <trkpt lat="42.66207" lon="18.16503">
        <ele>384.383013</ele>
        <time>2022-06-10T09:38:57.685Z</time>
      </trkpt>
      <trkpt lat="42.66217" lon="18.16502">
        <ele>383.846115</ele>
        <time>2022-06-10T09:38:59.726Z</time>
      </trkpt>
      <trkpt lat="42.66226" lon="18.165">
        <ele>383.364539</ele>
        <time>2022-06-10T09:39:01.704Z</time>
      </trkpt>
      <trkpt lat="42.66237" lon="18.16496">
        <ele>382.745403</ele>
        <time>2022-06-10T09:39:04.692Z</time>
      </trkpt>
      <trkpt lat="42.66249" lon="18.16489">
        <ele>382.111377</ele>
        <time>2022-06-10T09:39:07.697Z</time>
      </trkpt>
      <trkpt lat="42.66257" lon="18.16485">
        <ele>381.609292</ele>
        <time>2022-06-10T09:39:09.706Z</time>
      </trkpt>
      <trkpt lat="42.66269" lon="18.16483">
        <ele>381.022297</ele>
        <time>2022-06-10T09:39:11.706Z</time>
      </trkpt>
      <trkpt lat="42.66281" lon="18.16486">
        <ele>380.379224</ele>
        <time>2022-06-10T09:39:13.701Z</time>
      </trkpt>
      <trkpt lat="42.66291" lon="18.16491">
        <ele>379.809106</ele>
        <time>2022-06-10T09:39:15.703Z</time>
      </trkpt>
      <trkpt lat="42.66301" lon="18.16494">
        <ele>379.266089</ele>
        <time>2022-06-10T09:39:17.735Z</time>
      </trkpt>
      <trkpt lat="42.66311" lon="18.16498">
        <ele>378.730965</ele>
        <time>2022-06-10T09:39:19.698Z</time>
      </trkpt>
      <trkpt lat="42.66321" lon="18.165">
        <ele>378.204352</ele>
        <time>2022-06-10T09:39:21.712Z</time>
      </trkpt>
      <trkpt lat="42.6633" lon="18.16502">
        <ele>377.73788</ele>
        <time>2022-06-10T09:39:23.715Z</time>
      </trkpt>
      <trkpt lat="42.66341" lon="18.16504">
        <ele>377.404042</ele>
        <time>2022-06-10T09:39:25.703Z</time>
      </trkpt>
      <trkpt lat="42.66352" lon="18.16505">
        <ele>377.052393</ele>
        <time>2022-06-10T09:39:27.703Z</time>
      </trkpt>
      <trkpt lat="42.66362" lon="18.16505">
        <ele>376.710977</ele>
        <time>2022-06-10T09:39:29.699Z</time>
      </trkpt>
      <trkpt lat="42.66372" lon="18.16505">
        <ele>376.392141</ele>
        <time>2022-06-10T09:39:31.705Z</time>
      </trkpt>
      <trkpt lat="42.66385" lon="18.16503">
        <ele>375.969172</ele>
        <time>2022-06-10T09:39:34.700Z</time>
      </trkpt>
      <trkpt lat="42.66397" lon="18.16501">
        <ele>375.573171</ele>
        <time>2022-06-10T09:39:37.709Z</time>
      </trkpt>
      <trkpt lat="42.66411" lon="18.165">
        <ele>375.13397</ele>
        <time>2022-06-10T09:39:40.705Z</time>
      </trkpt>
      <trkpt lat="42.66421" lon="18.16498">
        <ele>374.81201</ele>
        <time>2022-06-10T09:39:42.703Z</time>
      </trkpt>
      <trkpt lat="42.66431" lon="18.16497">
        <ele>374.502137</ele>
        <time>2022-06-10T09:39:44.727Z</time>
      </trkpt>
      <trkpt lat="42.66444" lon="18.16498">
        <ele>374.079168</ele>
        <time>2022-06-10T09:39:47.697Z</time>
      </trkpt>
      <trkpt lat="42.66455" lon="18.16503">
        <ele>373.688018</ele>
        <time>2022-06-10T09:39:50.754Z</time>
      </trkpt>
      <trkpt lat="42.66465" lon="18.16509">
        <ele>373.351638</ele>
        <time>2022-06-10T09:39:53.703Z</time>
      </trkpt>
      <trkpt lat="42.66475" lon="18.16511">
        <ele>373.03415</ele>
        <time>2022-06-10T09:39:56.704Z</time>
      </trkpt>
      <trkpt lat="42.66484" lon="18.16513">
        <ele>372.734494</ele>
        <time>2022-06-10T09:39:59.712Z</time>
      </trkpt>
      <trkpt lat="42.66493" lon="18.16517">
        <ele>372.411326</ele>
        <time>2022-06-10T09:40:02.704Z</time>
      </trkpt>
      <trkpt lat="42.66503" lon="18.1652">
        <ele>372.090011</ele>
        <time>2022-06-10T09:40:05.715Z</time>
      </trkpt>
      <trkpt lat="42.66513" lon="18.16524">
        <ele>372.140967</ele>
        <time>2022-06-10T09:40:08.703Z</time>
      </trkpt>
      <trkpt lat="42.66523" lon="18.16527">
        <ele>372.261396</ele>
        <time>2022-06-10T09:40:11.698Z</time>
      </trkpt>
      <trkpt lat="42.66532" lon="18.1653">
        <ele>372.379167</ele>
        <time>2022-06-10T09:40:14.712Z</time>
      </trkpt>
      <trkpt lat="42.66542" lon="18.16534">
        <ele>372.497166</ele>
        <time>2022-06-10T09:40:17.717Z</time>
      </trkpt>
      <trkpt lat="42.66551" lon="18.16536">
        <ele>372.606794</ele>
        <time>2022-06-10T09:40:20.699Z</time>
      </trkpt>
      <trkpt lat="42.6656" lon="18.16537">
        <ele>372.71897</ele>
        <time>2022-06-10T09:40:23.706Z</time>
      </trkpt>
      <trkpt lat="42.6657" lon="18.16539">
        <ele>372.833733</ele>
        <time>2022-06-10T09:40:26.732Z</time>
      </trkpt>
      <trkpt lat="42.6658" lon="18.1654">
        <ele>372.955281</ele>
        <time>2022-06-10T09:40:29.720Z</time>
      </trkpt>
      <trkpt lat="42.6659" lon="18.1654">
        <ele>373.081166</ele>
        <time>2022-06-10T09:40:32.706Z</time>
      </trkpt>
      <trkpt lat="42.66601" lon="18.16539">
        <ele>373.206458</ele>
        <time>2022-06-10T09:40:35.705Z</time>
      </trkpt>
      <trkpt lat="42.66611" lon="18.16536">
        <ele>373.33501</ele>
        <time>2022-06-10T09:40:38.723Z</time>
      </trkpt>
      <trkpt lat="42.66621" lon="18.16533">
        <ele>373.459339</ele>
        <time>2022-06-10T09:40:41.717Z</time>
      </trkpt>
      <trkpt lat="42.66632" lon="18.16529">
        <ele>373.5917</ele>
        <time>2022-06-10T09:40:44.703Z</time>
      </trkpt>
      <trkpt lat="42.66642" lon="18.16526">
        <ele>373.720144</ele>
        <time>2022-06-10T09:40:47.725Z</time>
      </trkpt>
      <trkpt lat="42.66653" lon="18.16523">
        <ele>373.847421</ele>
        <time>2022-06-10T09:40:50.733Z</time>
      </trkpt>
      <trkpt lat="42.66663" lon="18.1652">
        <ele>373.970788</ele>
        <time>2022-06-10T09:40:53.732Z</time>
      </trkpt>
      <trkpt lat="42.66672" lon="18.16516">
        <ele>374.085559</ele>
        <time>2022-06-10T09:40:56.720Z</time>
      </trkpt>
      <trkpt lat="42.66681" lon="18.16513">
        <ele>374.200481</ele>
        <time>2022-06-10T09:40:59.757Z</time>
      </trkpt>
      <trkpt lat="42.66692" lon="18.16508">
        <ele>374.432687</ele>
        <time>2022-06-10T09:41:03.702Z</time>
      </trkpt>
      <trkpt lat="42.66703" lon="18.16503">
        <ele>374.662435</ele>
        <time>2022-06-10T09:41:07.704Z</time>
      </trkpt>
      <trkpt lat="42.66712" lon="18.16494">
        <ele>374.886477</ele>
        <time>2022-06-10T09:41:11.699Z</time>
      </trkpt>
      <trkpt lat="42.66721" lon="18.16485">
        <ele>375.105731</ele>
        <time>2022-06-10T09:41:15.704Z</time>
      </trkpt>
      <trkpt lat="42.6673" lon="18.16477">
        <ele>375.315818</ele>
        <time>2022-06-10T09:41:19.711Z</time>
      </trkpt>
      <trkpt lat="42.66739" lon="18.16468">
        <ele>375.527681</ele>
        <time>2022-06-10T09:41:23.705Z</time>
      </trkpt>
      <trkpt lat="42.66747" lon="18.16458">
        <ele>375.74692</ele>
        <time>2022-06-10T09:41:27.737Z</time>
      </trkpt>
      <trkpt lat="42.66754" lon="18.16447">
        <ele>375.964947</ele>
        <time>2022-06-10T09:41:31.703Z</time>
      </trkpt>
      <trkpt lat="42.66762" lon="18.16435">
        <ele>376.199844</ele>
        <time>2022-06-10T09:41:35.710Z</time>
      </trkpt>
      <trkpt lat="42.66768" lon="18.16426">
        <ele>376.380893</ele>
        <time>2022-06-10T09:41:38.706Z</time>
      </trkpt>
      <trkpt lat="42.66775" lon="18.16417">
        <ele>376.566267</ele>
        <time>2022-06-10T09:41:41.717Z</time>
      </trkpt>
      <trkpt lat="42.66781" lon="18.16407">
        <ele>376.75405</ele>
        <time>2022-06-10T09:41:44.721Z</time>
      </trkpt>
      <trkpt lat="42.66787" lon="18.16398">
        <ele>376.938154</ele>
        <time>2022-06-10T09:41:47.699Z</time>
      </trkpt>
      <trkpt lat="42.66793" lon="18.16388">
        <ele>377.128898</ele>
        <time>2022-06-10T09:41:50.716Z</time>
      </trkpt>
      <trkpt lat="42.668" lon="18.16378">
        <ele>377.318676</ele>
        <time>2022-06-10T09:41:53.710Z</time>
      </trkpt>
      <trkpt lat="42.66806" lon="18.16369">
        <ele>377.51078</ele>
        <time>2022-06-10T09:41:56.703Z</time>
      </trkpt>
      <trkpt lat="42.66814" lon="18.1636">
        <ele>377.711751</ele>
        <time>2022-06-10T09:41:59.701Z</time>
      </trkpt>
      <trkpt lat="42.66822" lon="18.16352">
        <ele>377.878203</ele>
        <time>2022-06-10T09:42:02.704Z</time>
      </trkpt>
      <trkpt lat="42.6683" lon="18.16346">
        <ele>378.030688</ele>
        <time>2022-06-10T09:42:05.697Z</time>
      </trkpt>
      <trkpt lat="42.6684" lon="18.16337">
        <ele>378.224149</ele>
        <time>2022-06-10T09:42:09.711Z</time>
      </trkpt>
      <trkpt lat="42.6685" lon="18.16331">
        <ele>378.413412</ele>
        <time>2022-06-10T09:42:13.775Z</time>
      </trkpt>
      <trkpt lat="42.6686" lon="18.16329">
        <ele>378.570318</ele>
        <time>2022-06-10T09:42:17.725Z</time>
      </trkpt>
      <trkpt lat="42.66869" lon="18.16328">
        <ele>378.728106</ele>
        <time>2022-06-10T09:42:21.715Z</time>
      </trkpt>
      <trkpt lat="42.6688" lon="18.16327">
        <ele>378.902272</ele>
        <time>2022-06-10T09:42:25.744Z</time>
      </trkpt>
      <trkpt lat="42.66892" lon="18.16325">
        <ele>379.096817</ele>
        <time>2022-06-10T09:42:29.733Z</time>
      </trkpt>
      <trkpt lat="42.669" lon="18.16321">
        <ele>379.243985</ele>
        <time>2022-06-10T09:42:32.713Z</time>
      </trkpt>
      <trkpt lat="42.66909" lon="18.16316">
        <ele>379.402368</ele>
        <time>2022-06-10T09:42:35.699Z</time>
      </trkpt>
      <trkpt lat="42.66917" lon="18.16309">
        <ele>379.556501</ele>
        <time>2022-06-10T09:42:38.699Z</time>
      </trkpt>
      <trkpt lat="42.66924" lon="18.16302">
        <ele>379.707322</ele>
        <time>2022-06-10T09:42:41.707Z</time>
      </trkpt>
      <trkpt lat="42.66932" lon="18.16295">
        <ele>379.859266</ele>
        <time>2022-06-10T09:42:44.715Z</time>
      </trkpt>
      <trkpt lat="42.6694" lon="18.16287">
        <ele>380.01606</ele>
        <time>2022-06-10T09:42:47.699Z</time>
      </trkpt>
      <trkpt lat="42.66947" lon="18.16279">
        <ele>380.172655</ele>
        <time>2022-06-10T09:42:50.708Z</time>
      </trkpt>
      <trkpt lat="42.66955" lon="18.16269">
        <ele>380.345655</ele>
        <time>2022-06-10T09:42:53.715Z</time>
      </trkpt>
      <trkpt lat="42.66963" lon="18.16261">
        <ele>380.508351</ele>
        <time>2022-06-10T09:42:56.707Z</time>
      </trkpt>
      <trkpt lat="42.66973" lon="18.16256">
        <ele>380.678106</ele>
        <time>2022-06-10T09:42:59.725Z</time>
      </trkpt>
      <trkpt lat="42.66983" lon="18.16259">
        <ele>381.19363</ele>
        <time>2022-06-10T09:43:02.709Z</time>
      </trkpt>
      <trkpt lat="42.66991" lon="18.16269">
        <ele>381.783466</ele>
        <time>2022-06-10T09:43:05.702Z</time>
      </trkpt>
      <trkpt lat="42.66997" lon="18.16279">
        <ele>382.321391</ele>
        <time>2022-06-10T09:43:09.725Z</time>
      </trkpt>
      <trkpt lat="42.67006" lon="18.16286">
        <ele>382.904207</ele>
        <time>2022-06-10T09:43:15.702Z</time>
      </trkpt>
      <trkpt lat="42.67015" lon="18.16292">
        <ele>383.428606</ele>
        <time>2022-06-10T09:43:22.712Z</time>
      </trkpt>
      <trkpt lat="42.67025" lon="18.16294">
        <ele>383.995635</ele>
        <time>2022-06-10T09:43:29.692Z</time>
      </trkpt>
      <trkpt lat="42.67034" lon="18.16291">
        <ele>384.517839</ele>
        <time>2022-06-10T09:43:35.699Z</time>
      </trkpt>
      <trkpt lat="42.67043" lon="18.16289">
        <ele>385.041961</ele>
        <time>2022-06-10T09:43:41.720Z</time>
      </trkpt>
      <trkpt lat="42.67052" lon="18.16286">
        <ele>385.561319</ele>
        <time>2022-06-10T09:43:47.703Z</time>
      </trkpt>
      <trkpt lat="42.67061" lon="18.16281">
        <ele>386.109197</ele>
        <time>2022-06-10T09:43:54.707Z</time>
      </trkpt>
      <trkpt lat="42.67071" lon="18.16276">
        <ele>386.655529</ele>
        <time>2022-06-10T09:44:00.705Z</time>
      </trkpt>
      <trkpt lat="42.67079" lon="18.16271">
        <ele>387.174563</ele>
        <time>2022-06-10T09:44:05.698Z</time>
      </trkpt>
      <trkpt lat="42.67088" lon="18.16267">
        <ele>387.688518</ele>
        <time>2022-06-10T09:44:10.729Z</time>
      </trkpt>
      <trkpt lat="42.67097" lon="18.16265">
        <ele>388.203015</ele>
        <time>2022-06-10T09:44:15.712Z</time>
      </trkpt>
      <trkpt lat="42.67106" lon="18.16262">
        <ele>388.741434</ele>
        <time>2022-06-10T09:44:20.722Z</time>
      </trkpt>
      <trkpt lat="42.67115" lon="18.16258">
        <ele>389.246466</ele>
        <time>2022-06-10T09:44:25.728Z</time>
      </trkpt>
      <trkpt lat="42.67124" lon="18.1625">
        <ele>389.838335</ele>
        <time>2022-06-10T09:44:31.704Z</time>
      </trkpt>
      <trkpt lat="42.6713" lon="18.16241">
        <ele>390.354553</ele>
        <time>2022-06-10T09:44:36.752Z</time>
      </trkpt>
      <trkpt lat="42.67136" lon="18.1623">
        <ele>390.89156</ele>
        <time>2022-06-10T09:44:41.713Z</time>
      </trkpt>
      <trkpt lat="42.67138" lon="18.16217">
        <ele>391.37938</ele>
        <time>2022-06-10T09:44:46.760Z</time>
      </trkpt>
      <trkpt lat="42.67139" lon="18.16205">
        <ele>391.849031</ele>
        <time>2022-06-10T09:44:52.698Z</time>
      </trkpt>
      <trkpt lat="42.67141" lon="18.16191">
        <ele>392.370047</ele>
        <time>2022-06-10T09:44:59.714Z</time>
      </trkpt>
      <trkpt lat="42.67145" lon="18.1618">
        <ele>392.841535</ele>
        <time>2022-06-10T09:45:05.717Z</time>
      </trkpt>
      <trkpt lat="42.67152" lon="18.16171">
        <ele>393.348851</ele>
        <time>2022-06-10T09:45:13.699Z</time>
      </trkpt>
      <trkpt lat="42.67161" lon="18.16169">
        <ele>393.831226</ele>
        <time>2022-06-10T09:45:21.816Z</time>
      </trkpt>
      <trkpt lat="42.6717" lon="18.16165">
        <ele>394.298888</ele>
        <time>2022-06-10T09:45:28.705Z</time>
      </trkpt>
      <trkpt lat="42.67179" lon="18.16161">
        <ele>394.779101</ele>
        <time>2022-06-10T09:45:35.713Z</time>
      </trkpt>
      <trkpt lat="42.67188" lon="18.16157">
        <ele>395.25535</ele>
        <time>2022-06-10T09:45:43.719Z</time>
      </trkpt>
      <trkpt lat="42.67196" lon="18.16149">
        <ele>395.779063</ele>
        <time>2022-06-10T09:45:51.716Z</time>
      </trkpt>
      <trkpt lat="42.67204" lon="18.16142">
        <ele>396.268457</ele>
        <time>2022-06-10T09:45:58.736Z</time>
      </trkpt>
      <trkpt lat="42.67212" lon="18.16135">
        <ele>396.756119</ele>
        <time>2022-06-10T09:46:05.709Z</time>
      </trkpt>
      <trkpt lat="42.67221" lon="18.16128">
        <ele>397.266815</ele>
        <time>2022-06-10T09:46:12.716Z</time>
      </trkpt>
      <trkpt lat="42.6723" lon="18.16123">
        <ele>397.770774</ele>
        <time>2022-06-10T09:46:19.705Z</time>
      </trkpt>
      <trkpt lat="42.67238" lon="18.16116">
        <ele>398.282315</ele>
        <time>2022-06-10T09:46:25.717Z</time>
      </trkpt>
      <trkpt lat="42.67245" lon="18.16107">
        <ele>398.759257</ele>
        <time>2022-06-10T09:46:30.745Z</time>
      </trkpt>
      <trkpt lat="42.67252" lon="18.16098">
        <ele>399.24343</ele>
        <time>2022-06-10T09:46:35.708Z</time>
      </trkpt>
      <trkpt lat="42.67258" lon="18.16086">
        <ele>399.81428</ele>
        <time>2022-06-10T09:46:40.709Z</time>
      </trkpt>
      <trkpt lat="42.67263" lon="18.16074">
        <ele>399.756084</ele>
        <time>2022-06-10T09:46:44.764Z</time>
      </trkpt>
      <trkpt lat="42.67268" lon="18.1606">
        <ele>399.465606</ele>
        <time>2022-06-10T09:46:48.723Z</time>
      </trkpt>
      <trkpt lat="42.67273" lon="18.16048">
        <ele>399.217989</ele>
        <time>2022-06-10T09:46:51.711Z</time>
      </trkpt>
      <trkpt lat="42.67277" lon="18.16035">
        <ele>398.950245</ele>
        <time>2022-06-10T09:46:54.699Z</time>
      </trkpt>
      <trkpt lat="42.67282" lon="18.16019">
        <ele>398.627934</ele>
        <time>2022-06-10T09:46:57.711Z</time>
      </trkpt>
      <trkpt lat="42.67285" lon="18.16007">
        <ele>398.385801</ele>
        <time>2022-06-10T09:46:59.707Z</time>
      </trkpt>
      <trkpt lat="42.67289" lon="18.15994">
        <ele>398.117619</ele>
        <time>2022-06-10T09:47:01.699Z</time>
      </trkpt>
      <trkpt lat="42.67294" lon="18.15979">
        <ele>397.821175</ele>
        <time>2022-06-10T09:47:03.716Z</time>
      </trkpt>
      <trkpt lat="42.67298" lon="18.15965">
        <ele>397.537376</ele>
        <time>2022-06-10T09:47:05.700Z</time>
      </trkpt>
      <trkpt lat="42.67302" lon="18.15951">
        <ele>397.259594</ele>
        <time>2022-06-10T09:47:07.701Z</time>
      </trkpt>
      <trkpt lat="42.67305" lon="18.15939">
        <ele>397.013479</ele>
        <time>2022-06-10T09:47:09.703Z</time>
      </trkpt>
      <trkpt lat="42.67311" lon="18.15923">
        <ele>396.683582</ele>
        <time>2022-06-10T09:47:12.715Z</time>
      </trkpt>
      <trkpt lat="42.67315" lon="18.15912">
        <ele>396.445782</ele>
        <time>2022-06-10T09:47:14.724Z</time>
      </trkpt>
      <trkpt lat="42.67322" lon="18.15902">
        <ele>396.181459</ele>
        <time>2022-06-10T09:47:16.715Z</time>
      </trkpt>
      <trkpt lat="42.67332" lon="18.15891">
        <ele>395.871905</ele>
        <time>2022-06-10T09:47:18.708Z</time>
      </trkpt>
      <trkpt lat="42.67343" lon="18.15881">
        <ele>395.539042</ele>
        <time>2022-06-10T09:47:20.701Z</time>
      </trkpt>
      <trkpt lat="42.67354" lon="18.1587">
        <ele>395.202538</ele>
        <time>2022-06-10T09:47:22.703Z</time>
      </trkpt>
      <trkpt lat="42.67367" lon="18.15858">
        <ele>394.861409</ele>
        <time>2022-06-10T09:47:24.770Z</time>
      </trkpt>
      <trkpt lat="42.67378" lon="18.15845">
        <ele>394.533846</ele>
        <time>2022-06-10T09:47:26.715Z</time>
      </trkpt>
      <trkpt lat="42.67388" lon="18.15832">
        <ele>394.222654</ele>
        <time>2022-06-10T09:47:28.714Z</time>
      </trkpt>
      <trkpt lat="42.67397" lon="18.1582">
        <ele>393.93383</ele>
        <time>2022-06-10T09:47:30.700Z</time>
      </trkpt>
      <trkpt lat="42.67405" lon="18.15808">
        <ele>393.659975</ele>
        <time>2022-06-10T09:47:32.707Z</time>
      </trkpt>
      <trkpt lat="42.67414" lon="18.15796">
        <ele>393.386962</ele>
        <time>2022-06-10T09:47:34.706Z</time>
      </trkpt>
      <trkpt lat="42.67422" lon="18.15786">
        <ele>393.134942</ele>
        <time>2022-06-10T09:47:36.706Z</time>
      </trkpt>
      <trkpt lat="42.67431" lon="18.15777">
        <ele>392.886943</ele>
        <time>2022-06-10T09:47:38.711Z</time>
      </trkpt>
      <trkpt lat="42.67438" lon="18.15767">
        <ele>392.651294</ele>
        <time>2022-06-10T09:47:40.695Z</time>
      </trkpt>
      <trkpt lat="42.67445" lon="18.15758">
        <ele>392.441932</ele>
        <time>2022-06-10T09:47:42.702Z</time>
      </trkpt>
      <trkpt lat="42.67452" lon="18.15749">
        <ele>392.228314</ele>
        <time>2022-06-10T09:47:44.709Z</time>
      </trkpt>
      <trkpt lat="42.6746" lon="18.15735">
        <ele>391.93261</ele>
        <time>2022-06-10T09:47:47.694Z</time>
      </trkpt>
      <trkpt lat="42.67468" lon="18.15723">
        <ele>391.663676</ele>
        <time>2022-06-10T09:47:50.719Z</time>
      </trkpt>
      <trkpt lat="42.67476" lon="18.15711">
        <ele>391.402661</ele>
        <time>2022-06-10T09:47:53.703Z</time>
      </trkpt>
      <trkpt lat="42.67484" lon="18.15701">
        <ele>391.361559</ele>
        <time>2022-06-10T09:47:56.738Z</time>
      </trkpt>
      <trkpt lat="42.67492" lon="18.1569">
        <ele>391.402898</ele>
        <time>2022-06-10T09:47:59.710Z</time>
      </trkpt>
      <trkpt lat="42.67499" lon="18.15677">
        <ele>391.445807</ele>
        <time>2022-06-10T09:48:02.703Z</time>
      </trkpt>
      <trkpt lat="42.67507" lon="18.15665">
        <ele>391.488488</ele>
        <time>2022-06-10T09:48:05.714Z</time>
      </trkpt>
      <trkpt lat="42.67514" lon="18.15653">
        <ele>391.529972</ele>
        <time>2022-06-10T09:48:08.706Z</time>
      </trkpt>
      <trkpt lat="42.67522" lon="18.15642">
        <ele>391.569413</ele>
        <time>2022-06-10T09:48:11.689Z</time>
      </trkpt>
      <trkpt lat="42.67529" lon="18.15631">
        <ele>391.60922</ele>
        <time>2022-06-10T09:48:14.718Z</time>
      </trkpt>
      <trkpt lat="42.67536" lon="18.15619">
        <ele>391.650412</ele>
        <time>2022-06-10T09:48:17.703Z</time>
      </trkpt>
      <trkpt lat="42.67544" lon="18.15607">
        <ele>391.693093</ele>
        <time>2022-06-10T09:48:20.698Z</time>
      </trkpt>
      <trkpt lat="42.67551" lon="18.15595">
        <ele>391.733977</ele>
        <time>2022-06-10T09:48:23.711Z</time>
      </trkpt>
      <trkpt lat="42.67559" lon="18.15583">
        <ele>391.776275</ele>
        <time>2022-06-10T09:48:26.736Z</time>
      </trkpt>
      <trkpt lat="42.67567" lon="18.15572">
        <ele>391.817523</ele>
        <time>2022-06-10T09:48:29.722Z</time>
      </trkpt>
      <trkpt lat="42.67575" lon="18.15559">
        <ele>391.861438</ele>
        <time>2022-06-10T09:48:32.718Z</time>
      </trkpt>
      <trkpt lat="42.67583" lon="18.15547">
        <ele>391.905552</ele>
        <time>2022-06-10T09:48:35.704Z</time>
      </trkpt>
      <trkpt lat="42.67591" lon="18.15535">
        <ele>391.948788</ele>
        <time>2022-06-10T09:48:38.697Z</time>
      </trkpt>
      <trkpt lat="42.67599" lon="18.15523">
        <ele>392.022333</ele>
        <time>2022-06-10T09:48:41.731Z</time>
      </trkpt>
      <trkpt lat="42.67607" lon="18.15511">
        <ele>392.262887</ele>
        <time>2022-06-10T09:48:44.722Z</time>
      </trkpt>
      <trkpt lat="42.67615" lon="18.15498">
        <ele>392.501854</ele>
        <time>2022-06-10T09:48:47.713Z</time>
      </trkpt>
      <trkpt lat="42.67623" lon="18.15486">
        <ele>392.732065</ele>
        <time>2022-06-10T09:48:50.686Z</time>
      </trkpt>
      <trkpt lat="42.67631" lon="18.15473">
        <ele>392.972926</ele>
        <time>2022-06-10T09:48:53.705Z</time>
      </trkpt>
      <trkpt lat="42.6764" lon="18.15461">
        <ele>393.22123</ele>
        <time>2022-06-10T09:48:56.697Z</time>
      </trkpt>
      <trkpt lat="42.67649" lon="18.15448">
        <ele>393.478055</ele>
        <time>2022-06-10T09:48:59.704Z</time>
      </trkpt>
      <trkpt lat="42.67658" lon="18.15435">
        <ele>393.717642</ele>
        <time>2022-06-10T09:49:02.704Z</time>
      </trkpt>
      <trkpt lat="42.67666" lon="18.15424">
        <ele>393.943561</ele>
        <time>2022-06-10T09:49:05.708Z</time>
      </trkpt>
      <trkpt lat="42.67674" lon="18.15411">
        <ele>394.176303</ele>
        <time>2022-06-10T09:49:08.727Z</time>
      </trkpt>
      <trkpt lat="42.67683" lon="18.15399">
        <ele>394.430037</ele>
        <time>2022-06-10T09:49:11.705Z</time>
      </trkpt>
      <trkpt lat="42.6769" lon="18.15385">
        <ele>394.669998</ele>
        <time>2022-06-10T09:49:14.715Z</time>
      </trkpt>
      <trkpt lat="42.67697" lon="18.15372">
        <ele>394.908817</ele>
        <time>2022-06-10T09:49:17.711Z</time>
      </trkpt>
      <trkpt lat="42.67705" lon="18.15358">
        <ele>395.151079</ele>
        <time>2022-06-10T09:49:20.704Z</time>
      </trkpt>
      <trkpt lat="42.67713" lon="18.15345">
        <ele>395.396091</ele>
        <time>2022-06-10T09:49:23.715Z</time>
      </trkpt>
      <trkpt lat="42.67721" lon="18.15333">
        <ele>395.375895</ele>
        <time>2022-06-10T09:49:26.709Z</time>
      </trkpt>
      <trkpt lat="42.6773" lon="18.1532">
        <ele>395.221407</ele>
        <time>2022-06-10T09:49:29.707Z</time>
      </trkpt>
      <trkpt lat="42.67738" lon="18.15308">
        <ele>395.071496</ele>
        <time>2022-06-10T09:49:32.720Z</time>
      </trkpt>
      <trkpt lat="42.67745" lon="18.15296">
        <ele>394.933874</ele>
        <time>2022-06-10T09:49:35.719Z</time>
      </trkpt>
      <trkpt lat="42.67753" lon="18.15284">
        <ele>394.790184</ele>
        <time>2022-06-10T09:49:38.747Z</time>
      </trkpt>
      <trkpt lat="42.67762" lon="18.15272">
        <ele>394.645346</ele>
        <time>2022-06-10T09:49:41.719Z</time>
      </trkpt>
      <trkpt lat="42.6777" lon="18.1526">
        <ele>394.498844</ele>
        <time>2022-06-10T09:49:44.703Z</time>
      </trkpt>
      <trkpt lat="42.67778" lon="18.15247">
        <ele>394.353491</ele>
        <time>2022-06-10T09:49:47.695Z</time>
      </trkpt>
      <trkpt lat="42.67785" lon="18.15235">
        <ele>394.219535</ele>
        <time>2022-06-10T09:49:50.723Z</time>
      </trkpt>
      <trkpt lat="42.67793" lon="18.15223">
        <ele>394.075039</ele>
        <time>2022-06-10T09:49:53.701Z</time>
      </trkpt>
      <trkpt lat="42.67801" lon="18.15211">
        <ele>393.924853</ele>
        <time>2022-06-10T09:49:56.733Z</time>
      </trkpt>
      <trkpt lat="42.67809" lon="18.15197">
        <ele>393.774629</ele>
        <time>2022-06-10T09:49:59.711Z</time>
      </trkpt>
      <trkpt lat="42.67817" lon="18.15185">
        <ele>393.625384</ele>
        <time>2022-06-10T09:50:02.746Z</time>
      </trkpt>
      <trkpt lat="42.67826" lon="18.15172">
        <ele>393.475474</ele>
        <time>2022-06-10T09:50:05.714Z</time>
      </trkpt>
      <trkpt lat="42.67833" lon="18.15159">
        <ele>393.329925</ele>
        <time>2022-06-10T09:50:08.740Z</time>
      </trkpt>
      <trkpt lat="42.67841" lon="18.15147">
        <ele>393.30069</ele>
        <time>2022-06-10T09:50:11.714Z</time>
      </trkpt>
      <trkpt lat="42.6785" lon="18.15136">
        <ele>393.289863</ele>
        <time>2022-06-10T09:50:14.743Z</time>
      </trkpt>
      <trkpt lat="42.67859" lon="18.15125">
        <ele>393.279544</ele>
        <time>2022-06-10T09:50:17.716Z</time>
      </trkpt>
      <trkpt lat="42.67869" lon="18.15116">
        <ele>393.268589</ele>
        <time>2022-06-10T09:50:20.712Z</time>
      </trkpt>
      <trkpt lat="42.67878" lon="18.15108">
        <ele>393.259292</ele>
        <time>2022-06-10T09:50:23.706Z</time>
      </trkpt>
      <trkpt lat="42.67888" lon="18.15101">
        <ele>393.249517</ele>
        <time>2022-06-10T09:50:26.695Z</time>
      </trkpt>
      <trkpt lat="42.67899" lon="18.15097">
        <ele>393.238625</ele>
        <time>2022-06-10T09:50:29.741Z</time>
      </trkpt>
      <trkpt lat="42.67911" lon="18.15093">
        <ele>393.227818</ele>
        <time>2022-06-10T09:50:32.706Z</time>
      </trkpt>
      <trkpt lat="42.67922" lon="18.1509">
        <ele>393.218034</ele>
        <time>2022-06-10T09:50:35.724Z</time>
      </trkpt>
      <trkpt lat="42.67933" lon="18.1509">
        <ele>393.208169</ele>
        <time>2022-06-10T09:50:38.715Z</time>
      </trkpt>
      <trkpt lat="42.67946" lon="18.15094">
        <ele>393.196639</ele>
        <time>2022-06-10T09:50:41.696Z</time>
      </trkpt>
      <trkpt lat="42.67958" lon="18.15098">
        <ele>393.18547</ele>
        <time>2022-06-10T09:50:44.700Z</time>
      </trkpt>
      <trkpt lat="42.6797" lon="18.151">
        <ele>393.174716</ele>
        <time>2022-06-10T09:50:47.701Z</time>
      </trkpt>
      <trkpt lat="42.67982" lon="18.15103">
        <ele>393.163574</ele>
        <time>2022-06-10T09:50:50.719Z</time>
      </trkpt>
      <trkpt lat="42.67995" lon="18.15107">
        <ele>393.151901</ele>
        <time>2022-06-10T09:50:53.729Z</time>
      </trkpt>
      <trkpt lat="42.68007" lon="18.15111">
        <ele>393.240722</ele>
        <time>2022-06-10T09:50:56.729Z</time>
      </trkpt>
      <trkpt lat="42.68018" lon="18.15114">
        <ele>393.345852</ele>
        <time>2022-06-10T09:50:59.764Z</time>
      </trkpt>
      <trkpt lat="42.68029" lon="18.15117">
        <ele>393.455532</ele>
        <time>2022-06-10T09:51:02.756Z</time>
      </trkpt>
      <trkpt lat="42.68041" lon="18.15121">
        <ele>393.565707</ele>
        <time>2022-06-10T09:51:05.702Z</time>
      </trkpt>
      <trkpt lat="42.68051" lon="18.15123">
        <ele>393.659549</ele>
        <time>2022-06-10T09:51:08.703Z</time>
      </trkpt>
      <trkpt lat="42.68061" lon="18.15127">
        <ele>393.760089</ele>
        <time>2022-06-10T09:51:12.700Z</time>
      </trkpt>
      <trkpt lat="42.68071" lon="18.1513">
        <ele>393.857205</ele>
        <time>2022-06-10T09:51:15.718Z</time>
      </trkpt>
      <trkpt lat="42.68082" lon="18.15134">
        <ele>393.957354</ele>
        <time>2022-06-10T09:51:18.706Z</time>
      </trkpt>
      <trkpt lat="42.68092" lon="18.15138">
        <ele>394.052859</ele>
        <time>2022-06-10T09:51:21.708Z</time>
      </trkpt>
      <trkpt lat="42.681" lon="18.15142">
        <ele>394.138701</ele>
        <time>2022-06-10T09:51:24.720Z</time>
      </trkpt>
      <trkpt lat="42.68112" lon="18.15146">
        <ele>394.249853</ele>
        <time>2022-06-10T09:51:27.733Z</time>
      </trkpt>
      <trkpt lat="42.68121" lon="18.15149">
        <ele>394.337451</ele>
        <time>2022-06-10T09:51:29.688Z</time>
      </trkpt>
      <trkpt lat="42.68133" lon="18.15152">
        <ele>394.452874</ele>
        <time>2022-06-10T09:51:32.686Z</time>
      </trkpt>
      <trkpt lat="42.68146" lon="18.15155">
        <ele>394.573375</ele>
        <time>2022-06-10T09:51:35.704Z</time>
      </trkpt>
      <trkpt lat="42.68159" lon="18.15158">
        <ele>394.693616</ele>
        <time>2022-06-10T09:51:38.708Z</time>
      </trkpt>
      <trkpt lat="42.68169" lon="18.15159">
        <ele>394.790313</ele>
        <time>2022-06-10T09:51:40.716Z</time>
      </trkpt>
      <trkpt lat="42.68182" lon="18.1516">
        <ele>394.645845</ele>
        <time>2022-06-10T09:51:42.716Z</time>
      </trkpt>
      <trkpt lat="42.68194" lon="18.15159">
        <ele>394.412788</ele>
        <time>2022-06-10T09:51:44.731Z</time>
      </trkpt>
      <trkpt lat="42.68204" lon="18.15158">
        <ele>394.206767</ele>
        <time>2022-06-10T09:51:46.724Z</time>
      </trkpt>
      <trkpt lat="42.68213" lon="18.15156">
        <ele>394.028112</ele>
        <time>2022-06-10T09:51:48.715Z</time>
      </trkpt>
      <trkpt lat="42.68226" lon="18.15151">
        <ele>393.767201</ele>
        <time>2022-06-10T09:51:51.725Z</time>
      </trkpt>
      <trkpt lat="42.68238" lon="18.15145">
        <ele>393.50628</ele>
        <time>2022-06-10T09:51:54.702Z</time>
      </trkpt>
      <trkpt lat="42.6825" lon="18.15138">
        <ele>393.247155</ele>
        <time>2022-06-10T09:51:57.690Z</time>
      </trkpt>
      <trkpt lat="42.6826" lon="18.15129">
        <ele>393.011451</ele>
        <time>2022-06-10T09:52:00.729Z</time>
      </trkpt>
      <trkpt lat="42.6827" lon="18.15119">
        <ele>392.768419</ele>
        <time>2022-06-10T09:52:03.710Z</time>
      </trkpt>
      <trkpt lat="42.68279" lon="18.15108">
        <ele>392.523105</ele>
        <time>2022-06-10T09:52:06.716Z</time>
      </trkpt>
      <trkpt lat="42.68289" lon="18.15096">
        <ele>392.264627</ele>
        <time>2022-06-10T09:52:09.710Z</time>
      </trkpt>
      <trkpt lat="42.68297" lon="18.15082">
        <ele>392.004629</ele>
        <time>2022-06-10T09:52:12.740Z</time>
      </trkpt>
      <trkpt lat="42.68302" lon="18.15071">
        <ele>391.824664</ele>
        <time>2022-06-10T09:52:14.714Z</time>
      </trkpt>
      <trkpt lat="42.68307" lon="18.1506">
        <ele>391.643911</ele>
        <time>2022-06-10T09:52:16.739Z</time>
      </trkpt>
      <trkpt lat="42.68311" lon="18.15043">
        <ele>391.37474</ele>
        <time>2022-06-10T09:52:19.718Z</time>
      </trkpt>
      <trkpt lat="42.68314" lon="18.15031">
        <ele>391.225996</ele>
        <time>2022-06-10T09:52:21.704Z</time>
      </trkpt>
      <trkpt lat="42.68317" lon="18.15018">
        <ele>391.123443</ele>
        <time>2022-06-10T09:52:23.705Z</time>
      </trkpt>
      <trkpt lat="42.68319" lon="18.15005">
        <ele>391.018913</ele>
        <time>2022-06-10T09:52:25.721Z</time>
      </trkpt>
      <trkpt lat="42.68322" lon="18.14992">
        <ele>390.912628</ele>
        <time>2022-06-10T09:52:27.702Z</time>
      </trkpt>
      <trkpt lat="42.68324" lon="18.14978">
        <ele>390.806664</ele>
        <time>2022-06-10T09:52:29.706Z</time>
      </trkpt>
      <trkpt lat="42.68325" lon="18.14965">
        <ele>390.701655</ele>
        <time>2022-06-10T09:52:31.726Z</time>
      </trkpt>
      <trkpt lat="42.68326" lon="18.14951">
        <ele>390.595101</ele>
        <time>2022-06-10T09:52:33.693Z</time>
      </trkpt>
      <trkpt lat="42.68327" lon="18.14937">
        <ele>390.487775</ele>
        <time>2022-06-10T09:52:35.730Z</time>
      </trkpt>
      <trkpt lat="42.68328" lon="18.14924">
        <ele>390.381222</ele>
        <time>2022-06-10T09:52:37.718Z</time>
      </trkpt>
      <trkpt lat="42.6833" lon="18.1491">
        <ele>390.269711</ele>
        <time>2022-06-10T09:52:39.718Z</time>
      </trkpt>
      <trkpt lat="42.68332" lon="18.14896">
        <ele>390.160085</ele>
        <time>2022-06-10T09:52:41.707Z</time>
      </trkpt>
      <trkpt lat="42.68334" lon="18.14882">
        <ele>390.048574</ele>
        <time>2022-06-10T09:52:43.718Z</time>
      </trkpt>
      <trkpt lat="42.68336" lon="18.14868">
        <ele>389.938665</ele>
        <time>2022-06-10T09:52:45.718Z</time>
      </trkpt>
      <trkpt lat="42.68337" lon="18.14855">
        <ele>389.836607</ele>
        <time>2022-06-10T09:52:47.712Z</time>
      </trkpt>
      <trkpt lat="42.68339" lon="18.14841">
        <ele>389.728699</ele>
        <time>2022-06-10T09:52:49.726Z</time>
      </trkpt>
      <trkpt lat="42.6834" lon="18.14827">
        <ele>389.621373</ele>
        <time>2022-06-10T09:52:51.700Z</time>
      </trkpt>
      <trkpt lat="42.68341" lon="18.14814">
        <ele>389.515241</ele>
        <time>2022-06-10T09:52:53.722Z</time>
      </trkpt>
      <trkpt lat="42.68342" lon="18.14801">
        <ele>389.413183</ele>
        <time>2022-06-10T09:52:55.717Z</time>
      </trkpt>
      <trkpt lat="42.68343" lon="18.14788">
        <ele>389.334178</ele>
        <time>2022-06-10T09:52:57.715Z</time>
      </trkpt>
      <trkpt lat="42.68345" lon="18.14775">
        <ele>389.270455</ele>
        <time>2022-06-10T09:52:59.719Z</time>
      </trkpt>
      <trkpt lat="42.68347" lon="18.14762">
        <ele>389.205357</ele>
        <time>2022-06-10T09:53:01.699Z</time>
      </trkpt>
      <trkpt lat="42.6835" lon="18.1475">
        <ele>389.141859</ele>
        <time>2022-06-10T09:53:03.684Z</time>
      </trkpt>
      <trkpt lat="42.68353" lon="18.14737">
        <ele>389.077268</ele>
        <time>2022-06-10T09:53:05.708Z</time>
      </trkpt>
      <trkpt lat="42.68357" lon="18.14725">
        <ele>389.014746</ele>
        <time>2022-06-10T09:53:07.720Z</time>
      </trkpt>
      <trkpt lat="42.68361" lon="18.14713">
        <ele>388.95072</ele>
        <time>2022-06-10T09:53:09.753Z</time>
      </trkpt>
      <trkpt lat="42.68364" lon="18.14702">
        <ele>388.889193</ele>
        <time>2022-06-10T09:53:11.700Z</time>
      </trkpt>
      <trkpt lat="42.68369" lon="18.14691">
        <ele>388.827336</ele>
        <time>2022-06-10T09:53:13.707Z</time>
      </trkpt>
      <trkpt lat="42.68376" lon="18.14676">
        <ele>388.739454</ele>
        <time>2022-06-10T09:53:16.721Z</time>
      </trkpt>
      <trkpt lat="42.68383" lon="18.14661">
        <ele>388.657884</ele>
        <time>2022-06-10T09:53:19.714Z</time>
      </trkpt>
      <trkpt lat="42.68389" lon="18.14652">
        <ele>388.596528</ele>
        <time>2022-06-10T09:53:23.701Z</time>
      </trkpt>
      <trkpt lat="42.68399" lon="18.14633">
        <ele>388.484825</ele>
        <time>2022-06-10T09:56:17.720Z</time>
      </trkpt>
      <trkpt lat="42.68406" lon="18.1462">
        <ele>388.404184</ele>
        <time>2022-06-10T09:56:21.709Z</time>
      </trkpt>
      <trkpt lat="42.68413" lon="18.14611">
        <ele>388.337938</ele>
        <time>2022-06-10T09:56:24.703Z</time>
      </trkpt>
      <trkpt lat="42.68421" lon="18.14601">
        <ele>388.265299</ele>
        <time>2022-06-10T09:56:27.702Z</time>
      </trkpt>
      <trkpt lat="42.6843" lon="18.14591">
        <ele>388.188466</ele>
        <time>2022-06-10T09:56:30.698Z</time>
      </trkpt>
      <trkpt lat="42.6844" lon="18.14581">
        <ele>387.924402</ele>
        <time>2022-06-10T09:56:33.746Z</time>
      </trkpt>
      <trkpt lat="42.6845" lon="18.14572">
        <ele>387.618757</ele>
        <time>2022-06-10T09:56:36.720Z</time>
      </trkpt>
      <trkpt lat="42.68461" lon="18.14564">
        <ele>387.307383</ele>
        <time>2022-06-10T09:56:39.723Z</time>
      </trkpt>
      <trkpt lat="42.68473" lon="18.14557">
        <ele>386.984565</ele>
        <time>2022-06-10T09:56:42.712Z</time>
      </trkpt>
      <trkpt lat="42.68485" lon="18.1455">
        <ele>386.659549</ele>
        <time>2022-06-10T09:56:45.719Z</time>
      </trkpt>
      <trkpt lat="42.68497" lon="18.14543">
        <ele>386.335569</ele>
        <time>2022-06-10T09:56:48.676Z</time>
      </trkpt>
      <trkpt lat="42.68509" lon="18.14537">
        <ele>386.004164</ele>
        <time>2022-06-10T09:56:51.682Z</time>
      </trkpt>
      <trkpt lat="42.68521" lon="18.1453">
        <ele>385.675146</ele>
        <time>2022-06-10T09:56:54.677Z</time>
      </trkpt>
      <trkpt lat="42.68533" lon="18.14524">
        <ele>385.352816</ele>
        <time>2022-06-10T09:56:57.698Z</time>
      </trkpt>
      <trkpt lat="42.68546" lon="18.14518">
        <ele>385.029696</ele>
        <time>2022-06-10T09:57:00.680Z</time>
      </trkpt>
      <trkpt lat="42.68558" lon="18.14514">
        <ele>384.705516</ele>
        <time>2022-06-10T09:57:03.691Z</time>
      </trkpt>
      <trkpt lat="42.68567" lon="18.14511">
        <ele>384.477639</ele>
        <time>2022-06-10T09:57:05.701Z</time>
      </trkpt>
      <trkpt lat="42.68577" lon="18.1451">
        <ele>384.239176</ele>
        <time>2022-06-10T09:57:07.689Z</time>
      </trkpt>
      <trkpt lat="42.68586" lon="18.14509">
        <ele>384.006629</ele>
        <time>2022-06-10T09:57:09.692Z</time>
      </trkpt>
      <trkpt lat="42.68595" lon="18.14509">
        <ele>383.771934</ele>
        <time>2022-06-10T09:57:11.688Z</time>
      </trkpt>
      <trkpt lat="42.68605" lon="18.14509">
        <ele>383.548295</ele>
        <time>2022-06-10T09:57:13.687Z</time>
      </trkpt>
      <trkpt lat="42.68615" lon="18.1451">
        <ele>383.32443</ele>
        <time>2022-06-10T09:57:15.681Z</time>
      </trkpt>
      <trkpt lat="42.68624" lon="18.14512">
        <ele>383.111223</ele>
        <time>2022-06-10T09:57:17.679Z</time>
      </trkpt>
      <trkpt lat="42.68633" lon="18.14513">
        <ele>382.897597</ele>
        <time>2022-06-10T09:57:19.696Z</time>
      </trkpt>
      <trkpt lat="42.68643" lon="18.14516">
        <ele>382.669623</ele>
        <time>2022-06-10T09:57:21.686Z</time>
      </trkpt>
      <trkpt lat="42.68653" lon="18.14519">
        <ele>382.442781</ele>
        <time>2022-06-10T09:57:23.721Z</time>
      </trkpt>
      <trkpt lat="42.68662" lon="18.14523">
        <ele>382.220217</ele>
        <time>2022-06-10T09:57:25.695Z</time>
      </trkpt>
      <trkpt lat="42.68671" lon="18.14529">
        <ele>381.992765</ele>
        <time>2022-06-10T09:57:27.686Z</time>
      </trkpt>
      <trkpt lat="42.6868" lon="18.14534">
        <ele>381.767407</ele>
        <time>2022-06-10T09:57:29.684Z</time>
      </trkpt>
      <trkpt lat="42.68689" lon="18.1454">
        <ele>381.546605</ele>
        <time>2022-06-10T09:57:31.698Z</time>
      </trkpt>
      <trkpt lat="42.68697" lon="18.14546">
        <ele>381.327422</ele>
        <time>2022-06-10T09:57:33.686Z</time>
      </trkpt>
      <trkpt lat="42.68706" lon="18.14553">
        <ele>381.10263</ele>
        <time>2022-06-10T09:57:35.691Z</time>
      </trkpt>
      <trkpt lat="42.68715" lon="18.14559">
        <ele>380.877782</ele>
        <time>2022-06-10T09:57:37.693Z</time>
      </trkpt>
      <trkpt lat="42.68723" lon="18.14565">
        <ele>380.654959</ele>
        <time>2022-06-10T09:57:39.678Z</time>
      </trkpt>
      <trkpt lat="42.68732" lon="18.14571">
        <ele>380.433379</ele>
        <time>2022-06-10T09:57:41.699Z</time>
      </trkpt>
      <trkpt lat="42.6874" lon="18.14577">
        <ele>380.221869</ele>
        <time>2022-06-10T09:57:43.674Z</time>
      </trkpt>
      <trkpt lat="42.68749" lon="18.14582">
        <ele>380.015215</ele>
        <time>2022-06-10T09:57:45.676Z</time>
      </trkpt>
      <trkpt lat="42.68757" lon="18.14586">
        <ele>379.807194</ele>
        <time>2022-06-10T09:57:47.680Z</time>
      </trkpt>
      <trkpt lat="42.68766" lon="18.1459">
        <ele>379.601849</ele>
        <time>2022-06-10T09:57:49.694Z</time>
      </trkpt>
      <trkpt lat="42.68775" lon="18.14593">
        <ele>379.527804</ele>
        <time>2022-06-10T09:57:51.684Z</time>
      </trkpt>
      <trkpt lat="42.68784" lon="18.14595">
        <ele>379.45721</ele>
        <time>2022-06-10T09:57:53.688Z</time>
      </trkpt>
      <trkpt lat="42.68794" lon="18.14595">
        <ele>379.385797</ele>
        <time>2022-06-10T09:57:55.698Z</time>
      </trkpt>
      <trkpt lat="42.68803" lon="18.14594">
        <ele>379.31573</ele>
        <time>2022-06-10T09:57:57.685Z</time>
      </trkpt>
      <trkpt lat="42.68812" lon="18.14592">
        <ele>379.243045</ele>
        <time>2022-06-10T09:57:59.677Z</time>
      </trkpt>
      <trkpt lat="42.68822" lon="18.1459">
        <ele>379.167909</ele>
        <time>2022-06-10T09:58:01.696Z</time>
      </trkpt>
      <trkpt lat="42.68833" lon="18.14587">
        <ele>379.087527</ele>
        <time>2022-06-10T09:58:03.691Z</time>
      </trkpt>
      <trkpt lat="42.68843" lon="18.14583">
        <ele>379.007596</ele>
        <time>2022-06-10T09:58:05.740Z</time>
      </trkpt>
      <trkpt lat="42.68853" lon="18.14578">
        <ele>378.930578</ele>
        <time>2022-06-10T09:58:07.691Z</time>
      </trkpt>
      <trkpt lat="42.68861" lon="18.14573">
        <ele>378.858029</ele>
        <time>2022-06-10T09:58:09.692Z</time>
      </trkpt>
      <trkpt lat="42.68873" lon="18.14565">
        <ele>378.757531</ele>
        <time>2022-06-10T09:58:12.690Z</time>
      </trkpt>
      <trkpt lat="42.68883" lon="18.14556">
        <ele>378.667693</ele>
        <time>2022-06-10T09:58:15.692Z</time>
      </trkpt>
      <trkpt lat="42.68894" lon="18.14546">
        <ele>378.573163</ele>
        <time>2022-06-10T09:58:18.672Z</time>
      </trkpt>
      <trkpt lat="42.68904" lon="18.14536">
        <ele>378.479645</ele>
        <time>2022-06-10T09:58:21.700Z</time>
      </trkpt>
      <trkpt lat="42.68912" lon="18.14531">
        <ele>378.410939</ele>
        <time>2022-06-10T09:58:23.679Z</time>
      </trkpt>
      <trkpt lat="42.68921" lon="18.14526">
        <ele>378.338174</ele>
        <time>2022-06-10T09:58:25.684Z</time>
      </trkpt>
      <trkpt lat="42.68931" lon="18.14523">
        <ele>378.262896</ele>
        <time>2022-06-10T09:58:27.750Z</time>
      </trkpt>
      <trkpt lat="42.6894" lon="18.14521">
        <ele>378.091266</ele>
        <time>2022-06-10T09:58:29.702Z</time>
      </trkpt>
      <trkpt lat="42.68953" lon="18.14518">
        <ele>377.775703</ele>
        <time>2022-06-10T09:58:32.700Z</time>
      </trkpt>
      <trkpt lat="42.68966" lon="18.14517">
        <ele>377.471049</ele>
        <time>2022-06-10T09:58:35.716Z</time>
      </trkpt>
      <trkpt lat="42.68978" lon="18.14518">
        <ele>377.183099</ele>
        <time>2022-06-10T09:58:38.742Z</time>
      </trkpt>
      <trkpt lat="42.68991" lon="18.14521">
        <ele>376.859979</ele>
        <time>2022-06-10T09:58:41.695Z</time>
      </trkpt>
      <trkpt lat="42.69" lon="18.14526">
        <ele>376.636458</ele>
        <time>2022-06-10T09:58:43.707Z</time>
      </trkpt>
      <trkpt lat="42.69009" lon="18.14531">
        <ele>376.400257</ele>
        <time>2022-06-10T09:58:45.703Z</time>
      </trkpt>
      <trkpt lat="42.69018" lon="18.14537">
        <ele>376.162791</ele>
        <time>2022-06-10T09:58:47.717Z</time>
      </trkpt>
      <trkpt lat="42.69027" lon="18.14544">
        <ele>375.927803</ele>
        <time>2022-06-10T09:58:49.747Z</time>
      </trkpt>
      <trkpt lat="42.69034" lon="18.14552">
        <ele>375.692043</ele>
        <time>2022-06-10T09:58:51.723Z</time>
      </trkpt>
      <trkpt lat="42.69042" lon="18.14561">
        <ele>375.458125</ele>
        <time>2022-06-10T09:58:53.713Z</time>
      </trkpt>
      <trkpt lat="42.69048" lon="18.1457">
        <ele>375.229678</ele>
        <time>2022-06-10T09:58:55.713Z</time>
      </trkpt>
      <trkpt lat="42.69054" lon="18.14581">
        <ele>374.997321</ele>
        <time>2022-06-10T09:58:57.740Z</time>
      </trkpt>
      <trkpt lat="42.6906" lon="18.14592">
        <ele>374.761925</ele>
        <time>2022-06-10T09:58:59.716Z</time>
      </trkpt>
      <trkpt lat="42.69065" lon="18.14604">
        <ele>374.529625</ele>
        <time>2022-06-10T09:59:01.715Z</time>
      </trkpt>
      <trkpt lat="42.6907" lon="18.14615">
        <ele>374.297889</ele>
        <time>2022-06-10T09:59:03.703Z</time>
      </trkpt>
      <trkpt lat="42.69075" lon="18.14627">
        <ele>374.058947</ele>
        <time>2022-06-10T09:59:05.732Z</time>
      </trkpt>
      <trkpt lat="42.6908" lon="18.14639">
        <ele>373.883679</ele>
        <time>2022-06-10T09:59:07.724Z</time>
      </trkpt>
      <trkpt lat="42.69085" lon="18.14651">
        <ele>373.747085</ele>
        <time>2022-06-10T09:59:09.714Z</time>
      </trkpt>
      <trkpt lat="42.6909" lon="18.14664">
        <ele>373.606427</ele>
        <time>2022-06-10T09:59:11.705Z</time>
      </trkpt>
      <trkpt lat="42.69095" lon="18.14676">
        <ele>373.468317</ele>
        <time>2022-06-10T09:59:13.707Z</time>
      </trkpt>
      <trkpt lat="42.69099" lon="18.14688">
        <ele>373.335781</ele>
        <time>2022-06-10T09:59:15.711Z</time>
      </trkpt>
      <trkpt lat="42.69104" lon="18.147">
        <ele>373.204727</ele>
        <time>2022-06-10T09:59:17.705Z</time>
      </trkpt>
      <trkpt lat="42.69109" lon="18.14717">
        <ele>373.023187</ele>
        <time>2022-06-10T09:59:20.711Z</time>
      </trkpt>
      <trkpt lat="42.69113" lon="18.1473">
        <ele>372.888975</ele>
        <time>2022-06-10T09:59:22.715Z</time>
      </trkpt>
      <trkpt lat="42.69115" lon="18.14743">
        <ele>372.751926</ele>
        <time>2022-06-10T09:59:24.689Z</time>
      </trkpt>
      <trkpt lat="42.69116" lon="18.14757">
        <ele>372.621975</ele>
        <time>2022-06-10T09:59:26.728Z</time>
      </trkpt>
      <trkpt lat="42.69117" lon="18.1477">
        <ele>372.488553</ele>
        <time>2022-06-10T09:59:28.694Z</time>
      </trkpt>
      <trkpt lat="42.69117" lon="18.14784">
        <ele>372.350062</ele>
        <time>2022-06-10T09:59:30.716Z</time>
      </trkpt>
      <trkpt lat="42.69117" lon="18.14798">
        <ele>372.215735</ele>
        <time>2022-06-10T09:59:32.704Z</time>
      </trkpt>
      <trkpt lat="42.69116" lon="18.14812">
        <ele>372.080272</ele>
        <time>2022-06-10T09:59:34.716Z</time>
      </trkpt>
      <trkpt lat="42.69116" lon="18.14825">
        <ele>371.947082</ele>
        <time>2022-06-10T09:59:36.706Z</time>
      </trkpt>
      <trkpt lat="42.69117" lon="18.14839">
        <ele>371.813792</ele>
        <time>2022-06-10T09:59:38.700Z</time>
      </trkpt>
      <trkpt lat="42.69117" lon="18.14853">
        <ele>371.681582</ele>
        <time>2022-06-10T09:59:40.699Z</time>
      </trkpt>
      <trkpt lat="42.69117" lon="18.14867">
        <ele>371.515867</ele>
        <time>2022-06-10T09:59:42.718Z</time>
      </trkpt>
      <trkpt lat="42.69117" lon="18.14881">
        <ele>371.25759</ele>
        <time>2022-06-10T09:59:44.705Z</time>
      </trkpt>
      <trkpt lat="42.69117" lon="18.14894">
        <ele>371.012238</ele>
        <time>2022-06-10T09:59:46.709Z</time>
      </trkpt>
      <trkpt lat="42.69116" lon="18.14907">
        <ele>370.776276</ele>
        <time>2022-06-10T09:59:48.704Z</time>
      </trkpt>
      <trkpt lat="42.69116" lon="18.1492">
        <ele>370.54922</ele>
        <time>2022-06-10T09:59:50.720Z</time>
      </trkpt>
      <trkpt lat="42.69123" lon="18.14935">
        <ele>370.223893</ele>
        <time>2022-06-10T09:59:53.701Z</time>
      </trkpt>
      <trkpt lat="42.6913" lon="18.14942">
        <ele>369.996884</ele>
        <time>2022-06-10T09:59:55.710Z</time>
      </trkpt>
      <trkpt lat="42.6914" lon="18.14943">
        <ele>369.739886</ele>
        <time>2022-06-10T09:59:57.818Z</time>
      </trkpt>
      <trkpt lat="42.69148" lon="18.14934">
        <ele>369.490091</ele>
        <time>2022-06-10T09:59:59.707Z</time>
      </trkpt>
      <trkpt lat="42.69151" lon="18.1492">
        <ele>369.228351</ele>
        <time>2022-06-10T10:00:01.706Z</time>
      </trkpt>
      <trkpt lat="42.69154" lon="18.14907">
        <ele>368.965329</ele>
        <time>2022-06-10T10:00:03.751Z</time>
      </trkpt>
      <trkpt lat="42.69165" lon="18.14898">
        <ele>368.641497</ele>
        <time>2022-06-10T10:00:06.696Z</time>
      </trkpt>
      <trkpt lat="42.69177" lon="18.14904">
        <ele>368.324717</ele>
        <time>2022-06-10T10:00:08.715Z</time>
      </trkpt>
      <trkpt lat="42.69188" lon="18.14912">
        <ele>368.034135</ele>
        <time>2022-06-10T10:00:10.706Z</time>
      </trkpt>
      <trkpt lat="42.69199" lon="18.1491">
        <ele>367.736922</ele>
        <time>2022-06-10T10:00:12.719Z</time>
      </trkpt>
      <trkpt lat="42.69209" lon="18.14899">
        <ele>367.42196</ele>
        <time>2022-06-10T10:00:14.716Z</time>
      </trkpt>
      <trkpt lat="42.69217" lon="18.14889">
        <ele>367.147587</ele>
        <time>2022-06-10T10:00:16.720Z</time>
      </trkpt>
      <trkpt lat="42.69225" lon="18.14879">
        <ele>366.748955</ele>
        <time>2022-06-10T10:00:18.718Z</time>
      </trkpt>
      <trkpt lat="42.69232" lon="18.1487">
        <ele>366.314448</ele>
        <time>2022-06-10T10:00:20.742Z</time>
      </trkpt>
      <trkpt lat="42.69239" lon="18.1486">
        <ele>365.888372</ele>
        <time>2022-06-10T10:00:22.704Z</time>
      </trkpt>
      <trkpt lat="42.69246" lon="18.1485">
        <ele>365.453338</ele>
        <time>2022-06-10T10:00:24.698Z</time>
      </trkpt>
      <trkpt lat="42.69254" lon="18.1484">
        <ele>364.985898</ele>
        <time>2022-06-10T10:00:26.712Z</time>
      </trkpt>
      <trkpt lat="42.69262" lon="18.14828">
        <ele>364.471642</ele>
        <time>2022-06-10T10:00:28.687Z</time>
      </trkpt>
      <trkpt lat="42.69272" lon="18.14818">
        <ele>363.938989</ele>
        <time>2022-06-10T10:00:30.707Z</time>
      </trkpt>
      <trkpt lat="42.69285" lon="18.1481">
        <ele>363.338337</ele>
        <time>2022-06-10T10:00:32.702Z</time>
      </trkpt>
      <trkpt lat="42.69299" lon="18.14804">
        <ele>362.704742</ele>
        <time>2022-06-10T10:00:34.712Z</time>
      </trkpt>
      <trkpt lat="42.69313" lon="18.14802">
        <ele>362.079925</ele>
        <time>2022-06-10T10:00:36.711Z</time>
      </trkpt>
      <trkpt lat="42.69328" lon="18.14801">
        <ele>361.460466</ele>
        <time>2022-06-10T10:00:38.751Z</time>
      </trkpt>
      <trkpt lat="42.69341" lon="18.14799">
        <ele>360.86245</ele>
        <time>2022-06-10T10:00:40.714Z</time>
      </trkpt>
      <trkpt lat="42.69354" lon="18.14792">
        <ele>360.273673</ele>
        <time>2022-06-10T10:00:42.750Z</time>
      </trkpt>
      <trkpt lat="42.69367" lon="18.14784">
        <ele>359.668748</ele>
        <time>2022-06-10T10:00:44.730Z</time>
      </trkpt>
      <trkpt lat="42.69379" lon="18.14774">
        <ele>358.975546</ele>
        <time>2022-06-10T10:00:46.700Z</time>
      </trkpt>
      <trkpt lat="42.69388" lon="18.14762">
        <ele>358.247645</ele>
        <time>2022-06-10T10:00:48.708Z</time>
      </trkpt>
      <trkpt lat="42.69397" lon="18.14747">
        <ele>357.455625</ele>
        <time>2022-06-10T10:00:50.709Z</time>
      </trkpt>
      <trkpt lat="42.69407" lon="18.14732">
        <ele>356.612005</ele>
        <time>2022-06-10T10:00:52.720Z</time>
      </trkpt>
      <trkpt lat="42.69417" lon="18.14717">
        <ele>355.827345</ele>
        <time>2022-06-10T10:00:54.762Z</time>
      </trkpt>
      <trkpt lat="42.69427" lon="18.14704">
        <ele>355.063433</ele>
        <time>2022-06-10T10:00:56.720Z</time>
      </trkpt>
      <trkpt lat="42.69438" lon="18.14693">
        <ele>354.310466</ele>
        <time>2022-06-10T10:00:58.723Z</time>
      </trkpt>
      <trkpt lat="42.69449" lon="18.14684">
        <ele>353.581075</ele>
        <time>2022-06-10T10:01:00.746Z</time>
      </trkpt>
      <trkpt lat="42.6946" lon="18.14676">
        <ele>352.879042</ele>
        <time>2022-06-10T10:01:02.705Z</time>
      </trkpt>
      <trkpt lat="42.6947" lon="18.14671">
        <ele>352.268204</ele>
        <time>2022-06-10T10:01:04.704Z</time>
      </trkpt>
      <trkpt lat="42.69481" lon="18.14669">
        <ele>351.64327</ele>
        <time>2022-06-10T10:01:06.714Z</time>
      </trkpt>
      <trkpt lat="42.69493" lon="18.14672">
        <ele>350.968526</ele>
        <time>2022-06-10T10:01:08.713Z</time>
      </trkpt>
      <trkpt lat="42.69505" lon="18.14679">
        <ele>350.222344</ele>
        <time>2022-06-10T10:01:10.713Z</time>
      </trkpt>
      <trkpt lat="42.69516" lon="18.14689">
        <ele>349.509194</ele>
        <time>2022-06-10T10:01:12.715Z</time>
      </trkpt>
      <trkpt lat="42.69524" lon="18.14701">
        <ele>349.138693</ele>
        <time>2022-06-10T10:01:14.699Z</time>
      </trkpt>
      <trkpt lat="42.6953" lon="18.14713">
        <ele>348.902356</ele>
        <time>2022-06-10T10:01:16.743Z</time>
      </trkpt>
      <trkpt lat="42.69537" lon="18.14725">
        <ele>348.68095</ele>
        <time>2022-06-10T10:01:18.705Z</time>
      </trkpt>
      <trkpt lat="42.69543" lon="18.14737">
        <ele>348.453206</ele>
        <time>2022-06-10T10:01:20.715Z</time>
      </trkpt>
      <trkpt lat="42.69549" lon="18.14749">
        <ele>348.220637</ele>
        <time>2022-06-10T10:01:22.737Z</time>
      </trkpt>
      <trkpt lat="42.69555" lon="18.14762">
        <ele>347.985317</ele>
        <time>2022-06-10T10:01:24.687Z</time>
      </trkpt>
      <trkpt lat="42.69561" lon="18.14774">
        <ele>347.762</ele>
        <time>2022-06-10T10:01:26.729Z</time>
      </trkpt>
      <trkpt lat="42.69567" lon="18.14786">
        <ele>347.545032</ele>
        <time>2022-06-10T10:01:28.711Z</time>
      </trkpt>
      <trkpt lat="42.69573" lon="18.14797">
        <ele>347.322997</ele>
        <time>2022-06-10T10:01:30.711Z</time>
      </trkpt>
      <trkpt lat="42.69583" lon="18.14808">
        <ele>347.069212</ele>
        <time>2022-06-10T10:01:32.716Z</time>
      </trkpt>
      <trkpt lat="42.69593" lon="18.14818">
        <ele>346.809358</ele>
        <time>2022-06-10T10:01:34.708Z</time>
      </trkpt>
      <trkpt lat="42.69603" lon="18.14829">
        <ele>346.540941</ele>
        <time>2022-06-10T10:01:36.710Z</time>
      </trkpt>
      <trkpt lat="42.6961" lon="18.14841">
        <ele>346.291366</ele>
        <time>2022-06-10T10:01:38.716Z</time>
      </trkpt>
      <trkpt lat="42.69616" lon="18.14855">
        <ele>346.049676</ele>
        <time>2022-06-10T10:01:40.754Z</time>
      </trkpt>
      <trkpt lat="42.6962" lon="18.14869">
        <ele>345.818331</ele>
        <time>2022-06-10T10:01:42.710Z</time>
      </trkpt>
      <trkpt lat="42.69624" lon="18.14881">
        <ele>345.612992</ele>
        <time>2022-06-10T10:01:44.724Z</time>
      </trkpt>
      <trkpt lat="42.69628" lon="18.14892">
        <ele>345.267346</ele>
        <time>2022-06-10T10:01:46.731Z</time>
      </trkpt>
      <trkpt lat="42.69633" lon="18.14907">
        <ele>344.660333</ele>
        <time>2022-06-10T10:01:49.704Z</time>
      </trkpt>
      <trkpt lat="42.69638" lon="18.1492">
        <ele>344.133087</ele>
        <time>2022-06-10T10:01:52.701Z</time>
      </trkpt>
      <trkpt lat="42.69642" lon="18.14933">
        <ele>343.639475</ele>
        <time>2022-06-10T10:01:55.727Z</time>
      </trkpt>
      <trkpt lat="42.69645" lon="18.14947">
        <ele>343.120542</ele>
        <time>2022-06-10T10:01:58.699Z</time>
      </trkpt>
      <trkpt lat="42.69649" lon="18.14962">
        <ele>342.549316</ele>
        <time>2022-06-10T10:02:01.725Z</time>
      </trkpt>
      <trkpt lat="42.69653" lon="18.14979">
        <ele>341.9185</ele>
        <time>2022-06-10T10:02:04.710Z</time>
      </trkpt>
      <trkpt lat="42.69656" lon="18.14991">
        <ele>341.465166</ele>
        <time>2022-06-10T10:02:06.719Z</time>
      </trkpt>
      <trkpt lat="42.69659" lon="18.15003">
        <ele>341.014788</ele>
        <time>2022-06-10T10:02:08.705Z</time>
      </trkpt>
      <trkpt lat="42.69662" lon="18.15014">
        <ele>340.550467</ele>
        <time>2022-06-10T10:02:10.697Z</time>
      </trkpt>
      <trkpt lat="42.69667" lon="18.15028">
        <ele>340.024368</ele>
        <time>2022-06-10T10:02:12.738Z</time>
      </trkpt>
      <trkpt lat="42.69671" lon="18.15044">
        <ele>339.409563</ele>
        <time>2022-06-10T10:02:14.732Z</time>
      </trkpt>
      <trkpt lat="42.69675" lon="18.15059">
        <ele>338.829615</ele>
        <time>2022-06-10T10:02:16.737Z</time>
      </trkpt>
      <trkpt lat="42.6968" lon="18.15073">
        <ele>338.275283</ele>
        <time>2022-06-10T10:02:18.741Z</time>
      </trkpt>
      <trkpt lat="42.69688" lon="18.15085">
        <ele>337.699797</ele>
        <time>2022-06-10T10:02:20.701Z</time>
      </trkpt>
      <trkpt lat="42.69697" lon="18.15096">
        <ele>337.108956</ele>
        <time>2022-06-10T10:02:22.714Z</time>
      </trkpt>
      <trkpt lat="42.69705" lon="18.15108">
        <ele>336.661329</ele>
        <time>2022-06-10T10:02:24.705Z</time>
      </trkpt>
      <trkpt lat="42.69713" lon="18.15118">
        <ele>336.459497</ele>
        <time>2022-06-10T10:02:26.713Z</time>
      </trkpt>
      <trkpt lat="42.69721" lon="18.15127">
        <ele>336.263659</ele>
        <time>2022-06-10T10:02:28.698Z</time>
      </trkpt>
      <trkpt lat="42.6973" lon="18.15136">
        <ele>336.058808</ele>
        <time>2022-06-10T10:02:30.722Z</time>
      </trkpt>
      <trkpt lat="42.69739" lon="18.15146">
        <ele>335.846558</ele>
        <time>2022-06-10T10:02:32.703Z</time>
      </trkpt>
      <trkpt lat="42.69747" lon="18.15154">
        <ele>335.659103</ele>
        <time>2022-06-10T10:02:34.704Z</time>
      </trkpt>
      <trkpt lat="42.69756" lon="18.15165">
        <ele>335.43322</ele>
        <time>2022-06-10T10:02:37.720Z</time>
      </trkpt>
      <trkpt lat="42.69764" lon="18.15174">
        <ele>335.224865</ele>
        <time>2022-06-10T10:02:40.730Z</time>
      </trkpt>
      <trkpt lat="42.69772" lon="18.15184">
        <ele>335.026346</ele>
        <time>2022-06-10T10:02:43.709Z</time>
      </trkpt>
      <trkpt lat="42.69781" lon="18.15193">
        <ele>334.808762</ele>
        <time>2022-06-10T10:02:46.704Z</time>
      </trkpt>
      <trkpt lat="42.6979" lon="18.15203">
        <ele>334.589658</ele>
        <time>2022-06-10T10:02:49.713Z</time>
      </trkpt>
      <trkpt lat="42.69799" lon="18.15213">
        <ele>334.375764</ele>
        <time>2022-06-10T10:02:52.704Z</time>
      </trkpt>
      <trkpt lat="42.69808" lon="18.15222">
        <ele>334.167974</ele>
        <time>2022-06-10T10:02:55.723Z</time>
      </trkpt>
      <trkpt lat="42.69816" lon="18.15231">
        <ele>333.979029</ele>
        <time>2022-06-10T10:02:58.731Z</time>
      </trkpt>
      <trkpt lat="42.69823" lon="18.1524">
        <ele>333.792621</ele>
        <time>2022-06-10T10:03:01.704Z</time>
      </trkpt>
      <trkpt lat="42.69831" lon="18.15249">
        <ele>333.603893</ele>
        <time>2022-06-10T10:03:04.714Z</time>
      </trkpt>
      <trkpt lat="42.69838" lon="18.15258">
        <ele>333.41736</ele>
        <time>2022-06-10T10:03:07.702Z</time>
      </trkpt>
      <trkpt lat="42.69846" lon="18.15264">
        <ele>333.397213</ele>
        <time>2022-06-10T10:03:10.720Z</time>
      </trkpt>
      <trkpt lat="42.69856" lon="18.15269">
        <ele>333.428179</ele>
        <time>2022-06-10T10:03:13.713Z</time>
      </trkpt>
      <trkpt lat="42.69867" lon="18.15273">
        <ele>333.463735</ele>
        <time>2022-06-10T10:03:16.740Z</time>
      </trkpt>
      <trkpt lat="42.6988" lon="18.15273">
        <ele>333.502112</ele>
        <time>2022-06-10T10:03:19.747Z</time>
      </trkpt>
      <trkpt lat="42.69893" lon="18.15275">
        <ele>333.542091</ele>
        <time>2022-06-10T10:03:22.755Z</time>
      </trkpt>
      <trkpt lat="42.69906" lon="18.15275">
        <ele>333.580122</ele>
        <time>2022-06-10T10:03:25.734Z</time>
      </trkpt>
      <trkpt lat="42.69918" lon="18.15273">
        <ele>333.617657</ele>
        <time>2022-06-10T10:03:28.695Z</time>
      </trkpt>
      <trkpt lat="42.6993" lon="18.15273">
        <ele>333.654808</ele>
        <time>2022-06-10T10:03:31.699Z</time>
      </trkpt>
      <trkpt lat="42.69943" lon="18.15272">
        <ele>333.692558</ele>
        <time>2022-06-10T10:03:34.717Z</time>
      </trkpt>
      <trkpt lat="42.69955" lon="18.15273">
        <ele>333.730631</ele>
        <time>2022-06-10T10:03:37.722Z</time>
      </trkpt>
      <trkpt lat="42.69967" lon="18.15274">
        <ele>333.765705</ele>
        <time>2022-06-10T10:03:40.706Z</time>
      </trkpt>
      <trkpt lat="42.69977" lon="18.15278">
        <ele>333.798356</ele>
        <time>2022-06-10T10:03:43.704Z</time>
      </trkpt>
      <trkpt lat="42.69984" lon="18.15288">
        <ele>333.828496</ele>
        <time>2022-06-10T10:03:46.713Z</time>
      </trkpt>
      <trkpt lat="42.69992" lon="18.15296">
        <ele>333.859994</ele>
        <time>2022-06-10T10:03:51.706Z</time>
      </trkpt>
      <trkpt lat="42.7" lon="18.15304">
        <ele>333.889578</ele>
        <time>2022-06-10T10:03:55.712Z</time>
      </trkpt>
      <trkpt lat="42.7001" lon="18.15314">
        <ele>333.91616</ele>
        <time>2022-06-10T10:03:59.711Z</time>
      </trkpt>
      <trkpt lat="42.70018" lon="18.15322">
        <ele>333.870764</ele>
        <time>2022-06-10T10:04:02.710Z</time>
      </trkpt>
      <trkpt lat="42.70027" lon="18.15332">
        <ele>333.822628</ele>
        <time>2022-06-10T10:04:05.699Z</time>
      </trkpt>
      <trkpt lat="42.70036" lon="18.15343">
        <ele>333.76636</ele>
        <time>2022-06-10T10:04:08.704Z</time>
      </trkpt>
      <trkpt lat="42.70043" lon="18.15352">
        <ele>333.725246</ele>
        <time>2022-06-10T10:04:10.740Z</time>
      </trkpt>
      <trkpt lat="42.7005" lon="18.15361">
        <ele>333.683685</ele>
        <time>2022-06-10T10:04:12.742Z</time>
      </trkpt>
      <trkpt lat="42.70057" lon="18.15371">
        <ele>333.639789</ele>
        <time>2022-06-10T10:04:14.719Z</time>
      </trkpt>
      <trkpt lat="42.70064" lon="18.1538">
        <ele>333.59648</ele>
        <time>2022-06-10T10:04:16.733Z</time>
      </trkpt>
      <trkpt lat="42.70071" lon="18.1539">
        <ele>333.554314</ele>
        <time>2022-06-10T10:04:18.712Z</time>
      </trkpt>
      <trkpt lat="42.70077" lon="18.154">
        <ele>333.512329</ele>
        <time>2022-06-10T10:04:20.721Z</time>
      </trkpt>
      <trkpt lat="42.70084" lon="18.15409">
        <ele>333.468564</ele>
        <time>2022-06-10T10:04:22.719Z</time>
      </trkpt>
      <trkpt lat="42.70092" lon="18.15419">
        <ele>333.423789</ele>
        <time>2022-06-10T10:04:24.720Z</time>
      </trkpt>
      <trkpt lat="42.70099" lon="18.15429">
        <ele>333.379412</ele>
        <time>2022-06-10T10:04:26.703Z</time>
      </trkpt>
      <trkpt lat="42.70106" lon="18.15439">
        <ele>333.337079</ele>
        <time>2022-06-10T10:04:28.703Z</time>
      </trkpt>
      <trkpt lat="42.70112" lon="18.15448">
        <ele>333.294149</ele>
        <time>2022-06-10T10:04:30.694Z</time>
      </trkpt>
      <trkpt lat="42.70119" lon="18.15458">
        <ele>333.252582</ele>
        <time>2022-06-10T10:04:32.746Z</time>
      </trkpt>
      <trkpt lat="42.70125" lon="18.15467">
        <ele>333.211015</ele>
        <time>2022-06-10T10:04:34.760Z</time>
      </trkpt>
      <trkpt lat="42.70132" lon="18.15477">
        <ele>333.168316</ele>
        <time>2022-06-10T10:04:36.714Z</time>
      </trkpt>
      <trkpt lat="42.70139" lon="18.15487">
        <ele>333.09797</ele>
        <time>2022-06-10T10:04:38.744Z</time>
      </trkpt>
      <trkpt lat="42.70146" lon="18.15496">
        <ele>332.983429</ele>
        <time>2022-06-10T10:04:40.708Z</time>
      </trkpt>
      <trkpt lat="42.70153" lon="18.15506">
        <ele>332.868888</ele>
        <time>2022-06-10T10:04:42.711Z</time>
      </trkpt>
      <trkpt lat="42.7016" lon="18.15515">
        <ele>332.751217</ele>
        <time>2022-06-10T10:04:44.714Z</time>
      </trkpt>
      <trkpt lat="42.70166" lon="18.15525">
        <ele>332.637041</ele>
        <time>2022-06-10T10:04:46.712Z</time>
      </trkpt>
      <trkpt lat="42.70173" lon="18.15534">
        <ele>332.517502</ele>
        <time>2022-06-10T10:04:48.719Z</time>
      </trkpt>
      <trkpt lat="42.7018" lon="18.15544">
        <ele>332.402332</ele>
        <time>2022-06-10T10:04:50.703Z</time>
      </trkpt>
      <trkpt lat="42.70187" lon="18.15553">
        <ele>332.291958</ele>
        <time>2022-06-10T10:04:52.704Z</time>
      </trkpt>
      <trkpt lat="42.70193" lon="18.15562">
        <ele>332.182605</ele>
        <time>2022-06-10T10:04:54.704Z</time>
      </trkpt>
      <trkpt lat="42.70199" lon="18.15571">
        <ele>332.072011</ele>
        <time>2022-06-10T10:04:56.698Z</time>
      </trkpt>
      <trkpt lat="42.70206" lon="18.1558">
        <ele>331.956014</ele>
        <time>2022-06-10T10:04:58.724Z</time>
      </trkpt>
      <trkpt lat="42.70213" lon="18.15591">
        <ele>331.832658</ele>
        <time>2022-06-10T10:05:00.760Z</time>
      </trkpt>
      <trkpt lat="42.7022" lon="18.15601">
        <ele>331.712039</ele>
        <time>2022-06-10T10:05:02.709Z</time>
      </trkpt>
      <trkpt lat="42.70227" lon="18.15611">
        <ele>331.588037</ele>
        <time>2022-06-10T10:05:04.709Z</time>
      </trkpt>
      <trkpt lat="42.70234" lon="18.15621">
        <ele>331.468868</ele>
        <time>2022-06-10T10:05:06.700Z</time>
      </trkpt>
      <trkpt lat="42.7024" lon="18.15631">
        <ele>331.356142</ele>
        <time>2022-06-10T10:05:08.723Z</time>
      </trkpt>
      <trkpt lat="42.70247" lon="18.1564">
        <ele>331.24615</ele>
        <time>2022-06-10T10:05:10.724Z</time>
      </trkpt>
      <trkpt lat="42.70252" lon="18.1565">
        <ele>331.134722</ele>
        <time>2022-06-10T10:05:12.717Z</time>
      </trkpt>
      <trkpt lat="42.70258" lon="18.15661">
        <ele>331.023973</ele>
        <time>2022-06-10T10:05:14.743Z</time>
      </trkpt>
      <trkpt lat="42.70263" lon="18.15672">
        <ele>330.941241</ele>
        <time>2022-06-10T10:05:16.709Z</time>
      </trkpt>
      <trkpt lat="42.70268" lon="18.15683">
        <ele>330.868118</ele>
        <time>2022-06-10T10:05:18.706Z</time>
      </trkpt>
      <trkpt lat="42.70273" lon="18.15695">
        <ele>330.794518</ele>
        <time>2022-06-10T10:05:20.709Z</time>
      </trkpt>
      <trkpt lat="42.70278" lon="18.15711">
        <ele>330.697636</ele>
        <time>2022-06-10T10:05:23.714Z</time>
      </trkpt>
      <trkpt lat="42.70282" lon="18.15722">
        <ele>330.62939</ele>
        <time>2022-06-10T10:05:25.695Z</time>
      </trkpt>
      <trkpt lat="42.70287" lon="18.15738">
        <ele>330.531702</ele>
        <time>2022-06-10T10:05:28.759Z</time>
      </trkpt>
      <trkpt lat="42.70291" lon="18.15755">
        <ele>330.436472</ele>
        <time>2022-06-10T10:05:31.707Z</time>
      </trkpt>
      <trkpt lat="42.70292" lon="18.15772">
        <ele>330.342121</ele>
        <time>2022-06-10T10:05:34.706Z</time>
      </trkpt>
      <trkpt lat="42.70293" lon="18.1579">
        <ele>330.240212</ele>
        <time>2022-06-10T10:05:37.708Z</time>
      </trkpt>
      <trkpt lat="42.70294" lon="18.15802">
        <ele>330.171498</ele>
        <time>2022-06-10T10:05:39.732Z</time>
      </trkpt>
      <trkpt lat="42.70294" lon="18.15815">
        <ele>330.102392</ele>
        <time>2022-06-10T10:05:41.700Z</time>
      </trkpt>
      <trkpt lat="42.70294" lon="18.15827">
        <ele>330.033925</ele>
        <time>2022-06-10T10:05:43.714Z</time>
      </trkpt>
      <trkpt lat="42.70293" lon="18.15841">
        <ele>329.960122</ele>
        <time>2022-06-10T10:05:45.733Z</time>
      </trkpt>
      <trkpt lat="42.70292" lon="18.15854">
        <ele>329.883411</ele>
        <time>2022-06-10T10:05:47.704Z</time>
      </trkpt>
      <trkpt lat="42.70291" lon="18.15868">
        <ele>329.8082</ele>
        <time>2022-06-10T10:05:49.696Z</time>
      </trkpt>
      <trkpt lat="42.70291" lon="18.15882">
        <ele>329.730683</ele>
        <time>2022-06-10T10:05:51.714Z</time>
      </trkpt>
      <trkpt lat="42.70289" lon="18.15896">
        <ele>329.654057</ele>
        <time>2022-06-10T10:05:53.710Z</time>
      </trkpt>
      <trkpt lat="42.70288" lon="18.1591">
        <ele>329.619273</ele>
        <time>2022-06-10T10:05:55.748Z</time>
      </trkpt>
      <trkpt lat="42.70288" lon="18.15923">
        <ele>329.589788</ele>
        <time>2022-06-10T10:05:57.716Z</time>
      </trkpt>
      <trkpt lat="42.70287" lon="18.15936">
        <ele>329.560283</ele>
        <time>2022-06-10T10:05:59.713Z</time>
      </trkpt>
      <trkpt lat="42.70286" lon="18.1595">
        <ele>329.530293</ele>
        <time>2022-06-10T10:06:01.724Z</time>
      </trkpt>
      <trkpt lat="42.70285" lon="18.15963">
        <ele>329.500493</ele>
        <time>2022-06-10T10:06:03.706Z</time>
      </trkpt>
      <trkpt lat="42.70284" lon="18.15977">
        <ele>329.469718</ele>
        <time>2022-06-10T10:06:05.716Z</time>
      </trkpt>
      <trkpt lat="42.70283" lon="18.15991">
        <ele>329.440468</ele>
        <time>2022-06-10T10:06:07.724Z</time>
      </trkpt>
      <trkpt lat="42.70281" lon="18.16004">
        <ele>329.410782</ele>
        <time>2022-06-10T10:06:09.762Z</time>
      </trkpt>
      <trkpt lat="42.7028" lon="18.16017">
        <ele>329.38157</ele>
        <time>2022-06-10T10:06:11.699Z</time>
      </trkpt>
      <trkpt lat="42.70279" lon="18.16031">
        <ele>329.350796</ele>
        <time>2022-06-10T10:06:13.699Z</time>
      </trkpt>
      <trkpt lat="42.70278" lon="18.16045">
        <ele>329.320493</ele>
        <time>2022-06-10T10:06:15.705Z</time>
      </trkpt>
      <trkpt lat="42.70276" lon="18.16058">
        <ele>329.290154</ele>
        <time>2022-06-10T10:06:17.705Z</time>
      </trkpt>
      <trkpt lat="42.70275" lon="18.16072">
        <ele>329.259341</ele>
        <time>2022-06-10T10:06:19.741Z</time>
      </trkpt>
      <trkpt lat="42.70274" lon="18.16087">
        <ele>329.227694</ele>
        <time>2022-06-10T10:06:21.705Z</time>
      </trkpt>
      <trkpt lat="42.70272" lon="18.16101">
        <ele>329.196738</ele>
        <time>2022-06-10T10:06:23.744Z</time>
      </trkpt>
      <trkpt lat="42.70272" lon="18.16115">
        <ele>329.165897</ele>
        <time>2022-06-10T10:06:25.710Z</time>
      </trkpt>
      <trkpt lat="42.70271" lon="18.16129">
        <ele>329.134877</ele>
        <time>2022-06-10T10:06:27.715Z</time>
      </trkpt>
      <trkpt lat="42.7027" lon="18.16143">
        <ele>329.102139</ele>
        <time>2022-06-10T10:06:29.708Z</time>
      </trkpt>
      <trkpt lat="42.70269" lon="18.16156">
        <ele>329.062516</ele>
        <time>2022-06-10T10:06:31.712Z</time>
      </trkpt>
      <trkpt lat="42.70268" lon="18.1617">
        <ele>329.023972</ele>
        <time>2022-06-10T10:06:33.700Z</time>
      </trkpt>
      <trkpt lat="42.70269" lon="18.16183">
        <ele>328.985756</ele>
        <time>2022-06-10T10:06:35.724Z</time>
      </trkpt>
      <trkpt lat="42.7027" lon="18.16197">
        <ele>328.94465</ele>
        <time>2022-06-10T10:06:37.712Z</time>
      </trkpt>
      <trkpt lat="42.70271" lon="18.16211">
        <ele>328.90297</ele>
        <time>2022-06-10T10:06:39.715Z</time>
      </trkpt>
      <trkpt lat="42.70272" lon="18.16225">
        <ele>328.862198</ele>
        <time>2022-06-10T10:06:41.717Z</time>
      </trkpt>
      <trkpt lat="42.70274" lon="18.16239">
        <ele>328.821559</ele>
        <time>2022-06-10T10:06:43.723Z</time>
      </trkpt>
      <trkpt lat="42.70276" lon="18.16253">
        <ele>328.782006</ele>
        <time>2022-06-10T10:06:45.704Z</time>
      </trkpt>
      <trkpt lat="42.70278" lon="18.16266">
        <ele>328.743504</ele>
        <time>2022-06-10T10:06:47.722Z</time>
      </trkpt>
      <trkpt lat="42.70281" lon="18.16278">
        <ele>328.705751</ele>
        <time>2022-06-10T10:06:49.739Z</time>
      </trkpt>
      <trkpt lat="42.70283" lon="18.16291">
        <ele>328.667674</ele>
        <time>2022-06-10T10:06:51.695Z</time>
      </trkpt>
      <trkpt lat="42.70287" lon="18.16303">
        <ele>328.630476</ele>
        <time>2022-06-10T10:06:53.709Z</time>
      </trkpt>
      <trkpt lat="42.7029" lon="18.16315">
        <ele>328.592832</ele>
        <time>2022-06-10T10:06:55.701Z</time>
      </trkpt>
      <trkpt lat="42.70294" lon="18.16327">
        <ele>328.555035</ele>
        <time>2022-06-10T10:06:57.693Z</time>
      </trkpt>
      <trkpt lat="42.70298" lon="18.16339">
        <ele>328.517392</ele>
        <time>2022-06-10T10:06:59.707Z</time>
      </trkpt>
      <trkpt lat="42.70302" lon="18.16351">
        <ele>328.480327</ele>
        <time>2022-06-10T10:07:01.702Z</time>
      </trkpt>
      <trkpt lat="42.70308" lon="18.16367">
        <ele>328.427508</ele>
        <time>2022-06-10T10:07:04.728Z</time>
      </trkpt>
      <trkpt lat="42.70314" lon="18.16383">
        <ele>328.278503</ele>
        <time>2022-06-10T10:07:07.776Z</time>
      </trkpt>
      <trkpt lat="42.70318" lon="18.16395">
        <ele>328.112498</ele>
        <time>2022-06-10T10:07:09.690Z</time>
      </trkpt>
      <trkpt lat="42.70322" lon="18.16406">
        <ele>327.950009</ele>
        <time>2022-06-10T10:07:11.719Z</time>
      </trkpt>
      <trkpt lat="42.70326" lon="18.16417">
        <ele>327.787135</ele>
        <time>2022-06-10T10:07:13.717Z</time>
      </trkpt>
      <trkpt lat="42.7033" lon="18.16428">
        <ele>327.625032</ele>
        <time>2022-06-10T10:07:15.706Z</time>
      </trkpt>
      <trkpt lat="42.70334" lon="18.16439">
        <ele>327.461746</ele>
        <time>2022-06-10T10:07:17.703Z</time>
      </trkpt>
      <trkpt lat="42.70338" lon="18.16451">
        <ele>327.297276</ele>
        <time>2022-06-10T10:07:19.717Z</time>
      </trkpt>
      <trkpt lat="42.70344" lon="18.16467">
        <ele>327.060302</ele>
        <time>2022-06-10T10:07:22.718Z</time>
      </trkpt>
      <trkpt lat="42.7035" lon="18.16483">
        <ele>326.826336</ele>
        <time>2022-06-10T10:07:25.711Z</time>
      </trkpt>
      <trkpt lat="42.70356" lon="18.16498">
        <ele>326.600429</ele>
        <time>2022-06-10T10:07:28.708Z</time>
      </trkpt>
      <trkpt lat="42.70361" lon="18.16514">
        <ele>326.370144</ele>
        <time>2022-06-10T10:07:31.693Z</time>
      </trkpt>
      <trkpt lat="42.70368" lon="18.16529">
        <ele>326.140556</ele>
        <time>2022-06-10T10:07:34.705Z</time>
      </trkpt>
      <trkpt lat="42.70374" lon="18.16545">
        <ele>325.90107</ele>
        <time>2022-06-10T10:07:37.757Z</time>
      </trkpt>
      <trkpt lat="42.70379" lon="18.16556">
        <ele>325.738933</ele>
        <time>2022-06-10T10:07:39.691Z</time>
      </trkpt>
      <trkpt lat="42.70384" lon="18.16566">
        <ele>325.578305</ele>
        <time>2022-06-10T10:07:41.714Z</time>
      </trkpt>
      <trkpt lat="42.70391" lon="18.16582">
        <ele>325.342737</ele>
        <time>2022-06-10T10:07:44.703Z</time>
      </trkpt>
      <trkpt lat="42.70398" lon="18.16596">
        <ele>325.201338</ele>
        <time>2022-06-10T10:07:47.701Z</time>
      </trkpt>
      <trkpt lat="42.70407" lon="18.1661">
        <ele>325.205543</ele>
        <time>2022-06-10T10:07:50.701Z</time>
      </trkpt>
      <trkpt lat="42.70415" lon="18.16624">
        <ele>325.209711</ele>
        <time>2022-06-10T10:07:53.695Z</time>
      </trkpt>
      <trkpt lat="42.70424" lon="18.16638">
        <ele>325.213846</ele>
        <time>2022-06-10T10:07:56.710Z</time>
      </trkpt>
      <trkpt lat="42.70432" lon="18.16651">
        <ele>325.217945</ele>
        <time>2022-06-10T10:07:59.722Z</time>
      </trkpt>
      <trkpt lat="42.70441" lon="18.16665">
        <ele>325.221989</ele>
        <time>2022-06-10T10:08:02.712Z</time>
      </trkpt>
      <trkpt lat="42.7045" lon="18.16678">
        <ele>325.226168</ele>
        <time>2022-06-10T10:08:05.734Z</time>
      </trkpt>
      <trkpt lat="42.70458" lon="18.16692">
        <ele>325.230318</ele>
        <time>2022-06-10T10:08:08.694Z</time>
      </trkpt>
      <trkpt lat="42.70466" lon="18.16706">
        <ele>325.234352</ele>
        <time>2022-06-10T10:08:11.731Z</time>
      </trkpt>
      <trkpt lat="42.70474" lon="18.16719">
        <ele>325.238348</ele>
        <time>2022-06-10T10:08:14.702Z</time>
      </trkpt>
      <trkpt lat="42.70482" lon="18.16734">
        <ele>325.242549</ele>
        <time>2022-06-10T10:08:17.702Z</time>
      </trkpt>
      <trkpt lat="42.7049" lon="18.16747">
        <ele>325.246585</ele>
        <time>2022-06-10T10:08:20.711Z</time>
      </trkpt>
      <trkpt lat="42.70496" lon="18.16757">
        <ele>325.249463</ele>
        <time>2022-06-10T10:08:22.710Z</time>
      </trkpt>
      <trkpt lat="42.70503" lon="18.16766">
        <ele>325.252401</ele>
        <time>2022-06-10T10:08:24.710Z</time>
      </trkpt>
      <trkpt lat="42.70509" lon="18.16775">
        <ele>325.255263</ele>
        <time>2022-06-10T10:08:26.703Z</time>
      </trkpt>
      <trkpt lat="42.70517" lon="18.16787">
        <ele>325.188785</ele>
        <time>2022-06-10T10:08:29.708Z</time>
      </trkpt>
      <trkpt lat="42.70527" lon="18.16799">
        <ele>325.097463</ele>
        <time>2022-06-10T10:08:32.714Z</time>
      </trkpt>
      <trkpt lat="42.70533" lon="18.16808">
        <ele>325.031672</ele>
        <time>2022-06-10T10:08:34.753Z</time>
      </trkpt>
      <trkpt lat="42.70539" lon="18.16818">
        <ele>324.966488</ele>
        <time>2022-06-10T10:08:36.717Z</time>
      </trkpt>
      <trkpt lat="42.70548" lon="18.16831">
        <ele>324.871552</ele>
        <time>2022-06-10T10:08:39.746Z</time>
      </trkpt>
      <trkpt lat="42.70553" lon="18.16842">
        <ele>324.80308</ele>
        <time>2022-06-10T10:08:41.731Z</time>
      </trkpt>
      <trkpt lat="42.70559" lon="18.16852">
        <ele>324.735884</ele>
        <time>2022-06-10T10:08:43.722Z</time>
      </trkpt>
      <trkpt lat="42.70564" lon="18.16862">
        <ele>324.670336</ele>
        <time>2022-06-10T10:08:45.722Z</time>
      </trkpt>
      <trkpt lat="42.70572" lon="18.16875">
        <ele>324.578888</ele>
        <time>2022-06-10T10:08:48.728Z</time>
      </trkpt>
      <trkpt lat="42.7058" lon="18.16889">
        <ele>324.487873</ele>
        <time>2022-06-10T10:08:51.752Z</time>
      </trkpt>
      <trkpt lat="42.70587" lon="18.16903">
        <ele>324.3977</ele>
        <time>2022-06-10T10:08:54.708Z</time>
      </trkpt>
      <trkpt lat="42.70595" lon="18.16917">
        <ele>324.304563</ele>
        <time>2022-06-10T10:08:57.714Z</time>
      </trkpt>
      <trkpt lat="42.70602" lon="18.16931">
        <ele>324.215245</ele>
        <time>2022-06-10T10:09:00.705Z</time>
      </trkpt>
      <trkpt lat="42.7061" lon="18.16944">
        <ele>324.124217</ele>
        <time>2022-06-10T10:09:03.713Z</time>
      </trkpt>
      <trkpt lat="42.70618" lon="18.16958">
        <ele>324.029693</ele>
        <time>2022-06-10T10:09:06.720Z</time>
      </trkpt>
      <trkpt lat="42.70627" lon="18.16972">
        <ele>323.942091</ele>
        <time>2022-06-10T10:09:09.717Z</time>
      </trkpt>
      <trkpt lat="42.70635" lon="18.16984">
        <ele>323.873976</ele>
        <time>2022-06-10T10:09:12.714Z</time>
      </trkpt>
      <trkpt lat="42.70643" lon="18.16996">
        <ele>323.806231</ele>
        <time>2022-06-10T10:09:15.713Z</time>
      </trkpt>
      <trkpt lat="42.70651" lon="18.17009">
        <ele>323.737126</ele>
        <time>2022-06-10T10:09:18.731Z</time>
      </trkpt>
      <trkpt lat="42.70659" lon="18.17022">
        <ele>323.667491</ele>
        <time>2022-06-10T10:09:21.710Z</time>
      </trkpt>
      <trkpt lat="42.70667" lon="18.17035">
        <ele>323.598531</ele>
        <time>2022-06-10T10:09:24.728Z</time>
      </trkpt>
      <trkpt lat="42.70675" lon="18.17048">
        <ele>323.52781</ele>
        <time>2022-06-10T10:09:27.708Z</time>
      </trkpt>
      <trkpt lat="42.70683" lon="18.17061">
        <ele>323.455362</ele>
        <time>2022-06-10T10:09:30.712Z</time>
      </trkpt>
      <trkpt lat="42.70691" lon="18.17074">
        <ele>323.385408</ele>
        <time>2022-06-10T10:09:33.704Z</time>
      </trkpt>
      <trkpt lat="42.70699" lon="18.17088">
        <ele>323.31417</ele>
        <time>2022-06-10T10:09:36.739Z</time>
      </trkpt>
      <trkpt lat="42.70707" lon="18.17101">
        <ele>323.242547</ele>
        <time>2022-06-10T10:09:39.707Z</time>
      </trkpt>
      <trkpt lat="42.70716" lon="18.17115">
        <ele>323.167804</ele>
        <time>2022-06-10T10:09:42.739Z</time>
      </trkpt>
      <trkpt lat="42.70725" lon="18.17128">
        <ele>323.095292</ele>
        <time>2022-06-10T10:09:45.722Z</time>
      </trkpt>
      <trkpt lat="42.70733" lon="18.17141">
        <ele>323.024572</ele>
        <time>2022-06-10T10:09:48.762Z</time>
      </trkpt>
      <trkpt lat="42.70741" lon="18.17154">
        <ele>322.954437</ele>
        <time>2022-06-10T10:09:51.713Z</time>
      </trkpt>
      <trkpt lat="42.70748" lon="18.17167">
        <ele>323.020332</ele>
        <time>2022-06-10T10:09:54.714Z</time>
      </trkpt>
      <trkpt lat="42.70756" lon="18.17181">
        <ele>323.089197</ele>
        <time>2022-06-10T10:09:57.713Z</time>
      </trkpt>
      <trkpt lat="42.70764" lon="18.17194">
        <ele>323.157068</ele>
        <time>2022-06-10T10:10:00.712Z</time>
      </trkpt>
      <trkpt lat="42.70773" lon="18.17206">
        <ele>323.223674</ele>
        <time>2022-06-10T10:10:03.699Z</time>
      </trkpt>
      <trkpt lat="42.70781" lon="18.17219">
        <ele>323.290215</ele>
        <time>2022-06-10T10:10:06.713Z</time>
      </trkpt>
      <trkpt lat="42.70788" lon="18.17232">
        <ele>323.356733</ele>
        <time>2022-06-10T10:10:09.707Z</time>
      </trkpt>
      <trkpt lat="42.70796" lon="18.17246">
        <ele>323.425865</ele>
        <time>2022-06-10T10:10:12.705Z</time>
      </trkpt>
      <trkpt lat="42.70804" lon="18.17259">
        <ele>323.492365</ele>
        <time>2022-06-10T10:10:15.700Z</time>
      </trkpt>
      <trkpt lat="42.70811" lon="18.17272">
        <ele>323.557369</ele>
        <time>2022-06-10T10:10:18.712Z</time>
      </trkpt>
      <trkpt lat="42.70819" lon="18.17284">
        <ele>323.621345</ele>
        <time>2022-06-10T10:10:21.711Z</time>
      </trkpt>
      <trkpt lat="42.70828" lon="18.17297">
        <ele>323.688703</ele>
        <time>2022-06-10T10:10:24.703Z</time>
      </trkpt>
      <trkpt lat="42.70835" lon="18.17309">
        <ele>323.754053</ele>
        <time>2022-06-10T10:10:27.721Z</time>
      </trkpt>
      <trkpt lat="42.70844" lon="18.17323">
        <ele>323.826671</ele>
        <time>2022-06-10T10:10:30.703Z</time>
      </trkpt>
      <trkpt lat="42.70852" lon="18.17338">
        <ele>323.89859</ele>
        <time>2022-06-10T10:10:33.713Z</time>
      </trkpt>
      <trkpt lat="42.70857" lon="18.17348">
        <ele>323.878965</ele>
        <time>2022-06-10T10:10:35.705Z</time>
      </trkpt>
      <trkpt lat="42.70863" lon="18.17358">
        <ele>323.77582</ele>
        <time>2022-06-10T10:10:37.698Z</time>
      </trkpt>
      <trkpt lat="42.70868" lon="18.17368">
        <ele>323.673989</ele>
        <time>2022-06-10T10:10:39.755Z</time>
      </trkpt>
      <trkpt lat="42.70876" lon="18.17383">
        <ele>323.525171</ele>
        <time>2022-06-10T10:10:42.708Z</time>
      </trkpt>
      <trkpt lat="42.70881" lon="18.17393">
        <ele>323.422584</ele>
        <time>2022-06-10T10:10:44.717Z</time>
      </trkpt>
      <trkpt lat="42.70886" lon="18.17404">
        <ele>323.316756</ele>
        <time>2022-06-10T10:10:46.713Z</time>
      </trkpt>
      <trkpt lat="42.70892" lon="18.17415">
        <ele>323.208895</ele>
        <time>2022-06-10T10:10:48.702Z</time>
      </trkpt>
      <trkpt lat="42.70897" lon="18.17425">
        <ele>323.101715</ele>
        <time>2022-06-10T10:10:50.723Z</time>
      </trkpt>
      <trkpt lat="42.70902" lon="18.17436">
        <ele>322.999181</ele>
        <time>2022-06-10T10:10:52.707Z</time>
      </trkpt>
      <trkpt lat="42.70909" lon="18.17451">
        <ele>322.854019</ele>
        <time>2022-06-10T10:10:55.730Z</time>
      </trkpt>
      <trkpt lat="42.70915" lon="18.17467">
        <ele>322.706324</ele>
        <time>2022-06-10T10:10:58.735Z</time>
      </trkpt>
      <trkpt lat="42.70922" lon="18.17483">
        <ele>322.552387</ele>
        <time>2022-06-10T10:11:01.721Z</time>
      </trkpt>
      <trkpt lat="42.70928" lon="18.17493">
        <ele>322.447869</ele>
        <time>2022-06-10T10:11:03.705Z</time>
      </trkpt>
      <trkpt lat="42.70933" lon="18.17504">
        <ele>322.343606</ele>
        <time>2022-06-10T10:11:05.719Z</time>
      </trkpt>
      <trkpt lat="42.70937" lon="18.17515">
        <ele>322.237783</ele>
        <time>2022-06-10T10:11:07.731Z</time>
      </trkpt>
      <trkpt lat="42.70942" lon="18.17526">
        <ele>322.133521</ele>
        <time>2022-06-10T10:11:09.716Z</time>
      </trkpt>
      <trkpt lat="42.70947" lon="18.17537">
        <ele>322.031099</ele>
        <time>2022-06-10T10:11:11.736Z</time>
      </trkpt>
      <trkpt lat="42.70954" lon="18.17553">
        <ele>321.842403</ele>
        <time>2022-06-10T10:11:14.724Z</time>
      </trkpt>
      <trkpt lat="42.70959" lon="18.17564">
        <ele>321.626726</ele>
        <time>2022-06-10T10:11:16.709Z</time>
      </trkpt>
      <trkpt lat="42.70963" lon="18.17574">
        <ele>321.417762</ele>
        <time>2022-06-10T10:11:18.706Z</time>
      </trkpt>
      <trkpt lat="42.70971" lon="18.17589">
        <ele>321.108596</ele>
        <time>2022-06-10T10:11:21.718Z</time>
      </trkpt>
      <trkpt lat="42.70977" lon="18.17605">
        <ele>320.80361</ele>
        <time>2022-06-10T10:11:24.715Z</time>
      </trkpt>
      <trkpt lat="42.70982" lon="18.17616">
        <ele>320.595824</ele>
        <time>2022-06-10T10:11:26.704Z</time>
      </trkpt>
      <trkpt lat="42.70989" lon="18.17631">
        <ele>320.290838</ele>
        <time>2022-06-10T10:11:29.718Z</time>
      </trkpt>
      <trkpt lat="42.70996" lon="18.17647">
        <ele>319.986396</ele>
        <time>2022-06-10T10:11:32.721Z</time>
      </trkpt>
      <trkpt lat="42.71003" lon="18.17661">
        <ele>319.688327</ele>
        <time>2022-06-10T10:11:35.718Z</time>
      </trkpt>
      <trkpt lat="42.71009" lon="18.17676">
        <ele>319.402828</ele>
        <time>2022-06-10T10:11:38.698Z</time>
      </trkpt>
      <trkpt lat="42.71017" lon="18.17689">
        <ele>319.110302</ele>
        <time>2022-06-10T10:11:41.720Z</time>
      </trkpt>
      <trkpt lat="42.71023" lon="18.17699">
        <ele>318.898353</ele>
        <time>2022-06-10T10:11:43.710Z</time>
      </trkpt>
      <trkpt lat="42.71032" lon="18.17712">
        <ele>318.597522</ele>
        <time>2022-06-10T10:11:46.753Z</time>
      </trkpt>
      <trkpt lat="42.71041" lon="18.17726">
        <ele>318.283987</ele>
        <time>2022-06-10T10:11:49.706Z</time>
      </trkpt>
      <trkpt lat="42.71047" lon="18.17736">
        <ele>318.07681</ele>
        <time>2022-06-10T10:11:51.709Z</time>
      </trkpt>
      <trkpt lat="42.71053" lon="18.17745">
        <ele>317.856141</ele>
        <time>2022-06-10T10:11:53.698Z</time>
      </trkpt>
      <trkpt lat="42.7106" lon="18.17755">
        <ele>317.789089</ele>
        <time>2022-06-10T10:11:55.721Z</time>
      </trkpt>
      <trkpt lat="42.71067" lon="18.17764">
        <ele>317.795067</ele>
        <time>2022-06-10T10:11:57.741Z</time>
      </trkpt>
      <trkpt lat="42.71073" lon="18.17773">
        <ele>317.801089</ele>
        <time>2022-06-10T10:11:59.715Z</time>
      </trkpt>
      <trkpt lat="42.7108" lon="18.17783">
        <ele>317.806991</ele>
        <time>2022-06-10T10:12:01.704Z</time>
      </trkpt>
      <trkpt lat="42.71087" lon="18.17792">
        <ele>317.812993</ele>
        <time>2022-06-10T10:12:03.708Z</time>
      </trkpt>
      <trkpt lat="42.71093" lon="18.17801">
        <ele>317.818549</ele>
        <time>2022-06-10T10:12:05.722Z</time>
      </trkpt>
      <trkpt lat="42.71099" lon="18.1781">
        <ele>317.824198</ele>
        <time>2022-06-10T10:12:07.707Z</time>
      </trkpt>
      <trkpt lat="42.71105" lon="18.17819">
        <ele>317.829992</ele>
        <time>2022-06-10T10:12:09.707Z</time>
      </trkpt>
      <trkpt lat="42.71112" lon="18.17829">
        <ele>317.835851</ele>
        <time>2022-06-10T10:12:11.719Z</time>
      </trkpt>
      <trkpt lat="42.71121" lon="18.17842">
        <ele>317.844038</ele>
        <time>2022-06-10T10:12:14.712Z</time>
      </trkpt>
      <trkpt lat="42.7113" lon="18.17855">
        <ele>317.852386</ele>
        <time>2022-06-10T10:12:17.716Z</time>
      </trkpt>
      <trkpt lat="42.7114" lon="18.17868">
        <ele>317.860767</ele>
        <time>2022-06-10T10:12:20.719Z</time>
      </trkpt>
      <trkpt lat="42.71146" lon="18.17877">
        <ele>317.866399</ele>
        <time>2022-06-10T10:12:22.707Z</time>
      </trkpt>
      <trkpt lat="42.71153" lon="18.17885">
        <ele>317.872108</ele>
        <time>2022-06-10T10:12:24.713Z</time>
      </trkpt>
      <trkpt lat="42.71162" lon="18.17899">
        <ele>317.880499</ele>
        <time>2022-06-10T10:12:27.710Z</time>
      </trkpt>
      <trkpt lat="42.71171" lon="18.17911">
        <ele>317.88876</ele>
        <time>2022-06-10T10:12:30.731Z</time>
      </trkpt>
      <trkpt lat="42.71181" lon="18.17924">
        <ele>317.894675</ele>
        <time>2022-06-10T10:12:33.714Z</time>
      </trkpt>
      <trkpt lat="42.7119" lon="18.17938">
        <ele>317.82544</ele>
        <time>2022-06-10T10:12:36.722Z</time>
      </trkpt>
      <trkpt lat="42.71197" lon="18.17947">
        <ele>317.777797</ele>
        <time>2022-06-10T10:12:38.702Z</time>
      </trkpt>
      <trkpt lat="42.71203" lon="18.17956">
        <ele>317.730431</ele>
        <time>2022-06-10T10:12:40.714Z</time>
      </trkpt>
      <trkpt lat="42.71209" lon="18.17965">
        <ele>317.682087</ele>
        <time>2022-06-10T10:12:42.712Z</time>
      </trkpt>
      <trkpt lat="42.71216" lon="18.17974">
        <ele>317.633928</ele>
        <time>2022-06-10T10:12:44.704Z</time>
      </trkpt>
      <trkpt lat="42.71222" lon="18.17984">
        <ele>317.586352</ele>
        <time>2022-06-10T10:12:46.748Z</time>
      </trkpt>
      <trkpt lat="42.71228" lon="18.17993">
        <ele>317.539886</ele>
        <time>2022-06-10T10:12:48.733Z</time>
      </trkpt>
      <trkpt lat="42.71237" lon="18.18006">
        <ele>317.471853</ele>
        <time>2022-06-10T10:12:51.714Z</time>
      </trkpt>
      <trkpt lat="42.71243" lon="18.18015">
        <ele>317.425522</ele>
        <time>2022-06-10T10:12:53.699Z</time>
      </trkpt>
      <trkpt lat="42.71252" lon="18.18029">
        <ele>317.357209</ele>
        <time>2022-06-10T10:12:56.720Z</time>
      </trkpt>
      <trkpt lat="42.71258" lon="18.18038">
        <ele>317.310814</ele>
        <time>2022-06-10T10:12:58.713Z</time>
      </trkpt>
      <trkpt lat="42.71264" lon="18.18047">
        <ele>317.264537</ele>
        <time>2022-06-10T10:13:00.702Z</time>
      </trkpt>
      <trkpt lat="42.71273" lon="18.18061">
        <ele>317.197526</ele>
        <time>2022-06-10T10:13:03.761Z</time>
      </trkpt>
      <trkpt lat="42.71279" lon="18.1807">
        <ele>317.151132</ele>
        <time>2022-06-10T10:13:05.698Z</time>
      </trkpt>
      <trkpt lat="42.71288" lon="18.18084">
        <ele>317.081496</ele>
        <time>2022-06-10T10:13:08.703Z</time>
      </trkpt>
      <trkpt lat="42.71294" lon="18.18094">
        <ele>317.033451</ele>
        <time>2022-06-10T10:13:10.744Z</time>
      </trkpt>
      <trkpt lat="42.71302" lon="18.18108">
        <ele>316.968405</ele>
        <time>2022-06-10T10:13:13.709Z</time>
      </trkpt>
      <trkpt lat="42.71311" lon="18.18122">
        <ele>316.925141</ele>
        <time>2022-06-10T10:13:16.718Z</time>
      </trkpt>
      <trkpt lat="42.71319" lon="18.18136">
        <ele>316.882677</ele>
        <time>2022-06-10T10:13:19.743Z</time>
      </trkpt>
      <trkpt lat="42.71327" lon="18.18149">
        <ele>316.839962</ele>
        <time>2022-06-10T10:13:22.735Z</time>
      </trkpt>
      <trkpt lat="42.71336" lon="18.18162">
        <ele>316.798329</ele>
        <time>2022-06-10T10:13:25.720Z</time>
      </trkpt>
      <trkpt lat="42.71345" lon="18.18175">
        <ele>316.755843</ele>
        <time>2022-06-10T10:13:28.721Z</time>
      </trkpt>
      <trkpt lat="42.71354" lon="18.18187">
        <ele>316.715514</ele>
        <time>2022-06-10T10:13:31.708Z</time>
      </trkpt>
      <trkpt lat="42.71363" lon="18.18198">
        <ele>316.676452</ele>
        <time>2022-06-10T10:13:34.711Z</time>
      </trkpt>
      <trkpt lat="42.71372" lon="18.1821">
        <ele>316.636028</ele>
        <time>2022-06-10T10:13:37.713Z</time>
      </trkpt>
      <trkpt lat="42.71381" lon="18.18221">
        <ele>316.594632</ele>
        <time>2022-06-10T10:13:40.748Z</time>
      </trkpt>
      <trkpt lat="42.71391" lon="18.18232">
        <ele>316.554402</ele>
        <time>2022-06-10T10:13:43.716Z</time>
      </trkpt>
      <trkpt lat="42.71401" lon="18.18243">
        <ele>316.512101</ele>
        <time>2022-06-10T10:13:46.714Z</time>
      </trkpt>
      <trkpt lat="42.71412" lon="18.18253">
        <ele>316.47078</ele>
        <time>2022-06-10T10:13:49.697Z</time>
      </trkpt>
      <trkpt lat="42.71421" lon="18.18264">
        <ele>316.431038</ele>
        <time>2022-06-10T10:13:52.716Z</time>
      </trkpt>
      <trkpt lat="42.71432" lon="18.18272">
        <ele>316.391734</ele>
        <time>2022-06-10T10:13:55.707Z</time>
      </trkpt>
      <trkpt lat="42.71442" lon="18.18281">
        <ele>316.399043</ele>
        <time>2022-06-10T10:13:58.735Z</time>
      </trkpt>
      <trkpt lat="42.71452" lon="18.18289">
        <ele>316.406441</ele>
        <time>2022-06-10T10:14:01.701Z</time>
      </trkpt>
      <trkpt lat="42.71463" lon="18.18297">
        <ele>316.414089</ele>
        <time>2022-06-10T10:14:04.743Z</time>
      </trkpt>
      <trkpt lat="42.71473" lon="18.18305">
        <ele>316.421419</ele>
        <time>2022-06-10T10:14:07.715Z</time>
      </trkpt>
      <trkpt lat="42.71483" lon="18.18313">
        <ele>316.428569</ele>
        <time>2022-06-10T10:14:10.714Z</time>
      </trkpt>
      <trkpt lat="42.71492" lon="18.18322">
        <ele>316.435592</ele>
        <time>2022-06-10T10:14:13.706Z</time>
      </trkpt>
      <trkpt lat="42.71501" lon="18.1833">
        <ele>316.442284</ele>
        <time>2022-06-10T10:14:16.707Z</time>
      </trkpt>
      <trkpt lat="42.71511" lon="18.18338">
        <ele>316.449003</ele>
        <time>2022-06-10T10:14:19.713Z</time>
      </trkpt>
      <trkpt lat="42.7152" lon="18.18346">
        <ele>316.455901</ele>
        <time>2022-06-10T10:14:22.720Z</time>
      </trkpt>
      <trkpt lat="42.71529" lon="18.18355">
        <ele>316.462949</ele>
        <time>2022-06-10T10:14:25.706Z</time>
      </trkpt>
      <trkpt lat="42.71539" lon="18.18364">
        <ele>316.470515</ele>
        <time>2022-06-10T10:14:28.711Z</time>
      </trkpt>
      <trkpt lat="42.71549" lon="18.18374">
        <ele>316.478102</ele>
        <time>2022-06-10T10:14:31.703Z</time>
      </trkpt>
      <trkpt lat="42.71558" lon="18.18383">
        <ele>316.485201</ele>
        <time>2022-06-10T10:14:34.709Z</time>
      </trkpt>
      <trkpt lat="42.71568" lon="18.18393">
        <ele>316.492481</ele>
        <time>2022-06-10T10:14:37.743Z</time>
      </trkpt>
      <trkpt lat="42.71577" lon="18.18404">
        <ele>316.499954</ele>
        <time>2022-06-10T10:14:40.698Z</time>
      </trkpt>
      <trkpt lat="42.71586" lon="18.18414">
        <ele>316.468502</ele>
        <time>2022-06-10T10:14:43.745Z</time>
      </trkpt>
      <trkpt lat="42.71595" lon="18.18425">
        <ele>316.401566</ele>
        <time>2022-06-10T10:14:46.717Z</time>
      </trkpt>
      <trkpt lat="42.71604" lon="18.18436">
        <ele>316.336435</ele>
        <time>2022-06-10T10:14:49.715Z</time>
      </trkpt>
      <trkpt lat="42.71614" lon="18.18446">
        <ele>316.269551</ele>
        <time>2022-06-10T10:14:52.713Z</time>
      </trkpt>
      <trkpt lat="42.71623" lon="18.18457">
        <ele>316.203835</ele>
        <time>2022-06-10T10:14:55.720Z</time>
      </trkpt>
      <trkpt lat="42.71633" lon="18.18467">
        <ele>316.138704</ele>
        <time>2022-06-10T10:14:58.714Z</time>
      </trkpt>
      <trkpt lat="42.71642" lon="18.18478">
        <ele>316.07229</ele>
        <time>2022-06-10T10:15:01.703Z</time>
      </trkpt>
      <trkpt lat="42.71651" lon="18.1849">
        <ele>316.003897</ele>
        <time>2022-06-10T10:15:04.717Z</time>
      </trkpt>
      <trkpt lat="42.7166" lon="18.18501">
        <ele>315.937626</ele>
        <time>2022-06-10T10:15:07.708Z</time>
      </trkpt>
      <trkpt lat="42.7167" lon="18.18511">
        <ele>315.872579</ele>
        <time>2022-06-10T10:15:10.712Z</time>
      </trkpt>
      <trkpt lat="42.71679" lon="18.18523">
        <ele>315.802986</ele>
        <time>2022-06-10T10:15:13.712Z</time>
      </trkpt>
      <trkpt lat="42.71689" lon="18.18535">
        <ele>315.732419</ele>
        <time>2022-06-10T10:15:16.706Z</time>
      </trkpt>
      <trkpt lat="42.71696" lon="18.18543">
        <ele>315.683851</ele>
        <time>2022-06-10T10:15:18.724Z</time>
      </trkpt>
      <trkpt lat="42.71705" lon="18.18556">
        <ele>315.614256</ele>
        <time>2022-06-10T10:15:21.742Z</time>
      </trkpt>
      <trkpt lat="42.71714" lon="18.18567">
        <ele>315.54625</ele>
        <time>2022-06-10T10:15:24.718Z</time>
      </trkpt>
      <trkpt lat="42.71724" lon="18.18577">
        <ele>315.605804</ele>
        <time>2022-06-10T10:15:27.713Z</time>
      </trkpt>
      <trkpt lat="42.71734" lon="18.18588">
        <ele>315.691907</ele>
        <time>2022-06-10T10:15:30.713Z</time>
      </trkpt>
      <trkpt lat="42.71743" lon="18.18598">
        <ele>315.775528</ele>
        <time>2022-06-10T10:15:33.715Z</time>
      </trkpt>
      <trkpt lat="42.71751" lon="18.18609">
        <ele>315.858089</ele>
        <time>2022-06-10T10:15:36.706Z</time>
      </trkpt>
      <trkpt lat="42.7176" lon="18.18619">
        <ele>315.942981</ele>
        <time>2022-06-10T10:15:39.721Z</time>
      </trkpt>
      <trkpt lat="42.7177" lon="18.18631">
        <ele>316.033297</ele>
        <time>2022-06-10T10:15:42.707Z</time>
      </trkpt>
      <trkpt lat="42.71779" lon="18.18641">
        <ele>316.117634</ele>
        <time>2022-06-10T10:15:45.704Z</time>
      </trkpt>
      <trkpt lat="42.71789" lon="18.18651">
        <ele>316.203507</ele>
        <time>2022-06-10T10:15:48.702Z</time>
      </trkpt>
      <trkpt lat="42.71797" lon="18.18662">
        <ele>316.288354</ele>
        <time>2022-06-10T10:15:51.705Z</time>
      </trkpt>
      <trkpt lat="42.71806" lon="18.18672">
        <ele>316.370036</ele>
        <time>2022-06-10T10:15:54.726Z</time>
      </trkpt>
      <trkpt lat="42.71815" lon="18.18684">
        <ele>316.458747</ele>
        <time>2022-06-10T10:15:57.708Z</time>
      </trkpt>
      <trkpt lat="42.71825" lon="18.18695">
        <ele>316.550096</ele>
        <time>2022-06-10T10:16:00.744Z</time>
      </trkpt>
      <trkpt lat="42.71834" lon="18.18707">
        <ele>316.640926</ele>
        <time>2022-06-10T10:16:03.698Z</time>
      </trkpt>
      <trkpt lat="42.71843" lon="18.18718">
        <ele>316.727892</ele>
        <time>2022-06-10T10:16:06.740Z</time>
      </trkpt>
      <trkpt lat="42.71852" lon="18.1873">
        <ele>316.813796</ele>
        <time>2022-06-10T10:16:09.740Z</time>
      </trkpt>
      <trkpt lat="42.71862" lon="18.18742">
        <ele>316.818608</ele>
        <time>2022-06-10T10:16:12.715Z</time>
      </trkpt>
      <trkpt lat="42.71871" lon="18.18753">
        <ele>316.823312</ele>
        <time>2022-06-10T10:16:15.721Z</time>
      </trkpt>
      <trkpt lat="42.71879" lon="18.18765">
        <ele>316.827878</ele>
        <time>2022-06-10T10:16:18.708Z</time>
      </trkpt>
      <trkpt lat="42.71888" lon="18.18779">
        <ele>316.832694</ele>
        <time>2022-06-10T10:16:21.708Z</time>
      </trkpt>
      <trkpt lat="42.71895" lon="18.18793">
        <ele>316.837584</ele>
        <time>2022-06-10T10:16:24.730Z</time>
      </trkpt>
      <trkpt lat="42.71903" lon="18.18807">
        <ele>316.842384</ele>
        <time>2022-06-10T10:16:27.711Z</time>
      </trkpt>
      <trkpt lat="42.71909" lon="18.18821">
        <ele>316.847133</ele>
        <time>2022-06-10T10:16:30.691Z</time>
      </trkpt>
      <trkpt lat="42.71915" lon="18.18836">
        <ele>316.851811</ele>
        <time>2022-06-10T10:16:33.704Z</time>
      </trkpt>
      <trkpt lat="42.71921" lon="18.18852">
        <ele>316.856671</ele>
        <time>2022-06-10T10:16:36.743Z</time>
      </trkpt>
      <trkpt lat="42.71926" lon="18.18869">
        <ele>316.861655</ele>
        <time>2022-06-10T10:16:39.713Z</time>
      </trkpt>
      <trkpt lat="42.71932" lon="18.18884">
        <ele>316.866607</ele>
        <time>2022-06-10T10:16:42.700Z</time>
      </trkpt>
      <trkpt lat="42.71937" lon="18.189">
        <ele>316.871368</ele>
        <time>2022-06-10T10:16:45.708Z</time>
      </trkpt>
      <trkpt lat="42.71943" lon="18.18915">
        <ele>316.876096</ele>
        <time>2022-06-10T10:16:48.703Z</time>
      </trkpt>
      <trkpt lat="42.71949" lon="18.18929">
        <ele>316.880548</ele>
        <time>2022-06-10T10:16:51.730Z</time>
      </trkpt>
      <trkpt lat="42.71955" lon="18.18943">
        <ele>316.665322</ele>
        <time>2022-06-10T10:16:54.698Z</time>
      </trkpt>
      <trkpt lat="42.71962" lon="18.18958">
        <ele>316.369574</ele>
        <time>2022-06-10T10:16:57.715Z</time>
      </trkpt>
      <trkpt lat="42.7197" lon="18.18971">
        <ele>316.092929</ele>
        <time>2022-06-10T10:17:00.718Z</time>
      </trkpt>
      <trkpt lat="42.71978" lon="18.18985">
        <ele>315.794164</ele>
        <time>2022-06-10T10:17:03.714Z</time>
      </trkpt>
      <trkpt lat="42.71985" lon="18.18994">
        <ele>315.580686</ele>
        <time>2022-06-10T10:17:05.712Z</time>
      </trkpt>
      <trkpt lat="42.71991" lon="18.19002">
        <ele>315.374771</ele>
        <time>2022-06-10T10:17:07.705Z</time>
      </trkpt>
      <trkpt lat="42.72" lon="18.19015">
        <ele>315.085459</ele>
        <time>2022-06-10T10:17:10.713Z</time>
      </trkpt>
      <trkpt lat="42.72009" lon="18.19027">
        <ele>314.798831</ele>
        <time>2022-06-10T10:17:13.719Z</time>
      </trkpt>
      <trkpt lat="42.7202" lon="18.19037">
        <ele>314.505994</ele>
        <time>2022-06-10T10:17:16.741Z</time>
      </trkpt>
      <trkpt lat="42.72031" lon="18.19047">
        <ele>314.212469</ele>
        <time>2022-06-10T10:17:19.713Z</time>
      </trkpt>
      <trkpt lat="42.72042" lon="18.19056">
        <ele>313.91494</ele>
        <time>2022-06-10T10:17:22.714Z</time>
      </trkpt>
      <trkpt lat="42.72052" lon="18.19065">
        <ele>313.626131</ele>
        <time>2022-06-10T10:17:25.709Z</time>
      </trkpt>
      <trkpt lat="42.72063" lon="18.19075">
        <ele>313.348657</ele>
        <time>2022-06-10T10:17:28.698Z</time>
      </trkpt>
      <trkpt lat="42.72074" lon="18.19084">
        <ele>313.053219</ele>
        <time>2022-06-10T10:17:31.695Z</time>
      </trkpt>
      <trkpt lat="42.72084" lon="18.19093">
        <ele>312.822453</ele>
        <time>2022-06-10T10:17:34.715Z</time>
      </trkpt>
      <trkpt lat="42.72095" lon="18.19101">
        <ele>312.986856</ele>
        <time>2022-06-10T10:17:37.745Z</time>
      </trkpt>
      <trkpt lat="42.72105" lon="18.19109">
        <ele>313.142924</ele>
        <time>2022-06-10T10:17:40.711Z</time>
      </trkpt>
      <trkpt lat="42.72115" lon="18.19117">
        <ele>313.301856</ele>
        <time>2022-06-10T10:17:43.714Z</time>
      </trkpt>
      <trkpt lat="42.72125" lon="18.19126">
        <ele>313.467775</ele>
        <time>2022-06-10T10:17:46.716Z</time>
      </trkpt>
      <trkpt lat="42.72136" lon="18.19134">
        <ele>313.633944</ele>
        <time>2022-06-10T10:17:49.704Z</time>
      </trkpt>
      <trkpt lat="42.72146" lon="18.19142">
        <ele>313.794395</ele>
        <time>2022-06-10T10:17:52.738Z</time>
      </trkpt>
      <trkpt lat="42.72156" lon="18.1915">
        <ele>313.949963</ele>
        <time>2022-06-10T10:17:55.700Z</time>
      </trkpt>
      <trkpt lat="42.72166" lon="18.19158">
        <ele>314.113443</ele>
        <time>2022-06-10T10:17:58.732Z</time>
      </trkpt>
      <trkpt lat="42.72176" lon="18.19166">
        <ele>314.272578</ele>
        <time>2022-06-10T10:18:01.702Z</time>
      </trkpt>
      <trkpt lat="42.72186" lon="18.19174">
        <ele>314.428487</ele>
        <time>2022-06-10T10:18:04.700Z</time>
      </trkpt>
      <trkpt lat="42.72196" lon="18.19182">
        <ele>314.590624</ele>
        <time>2022-06-10T10:18:07.742Z</time>
      </trkpt>
      <trkpt lat="42.72207" lon="18.1919">
        <ele>314.75697</ele>
        <time>2022-06-10T10:18:10.709Z</time>
      </trkpt>
      <trkpt lat="42.72217" lon="18.19198">
        <ele>314.919223</ele>
        <time>2022-06-10T10:18:13.718Z</time>
      </trkpt>
      <trkpt lat="42.72227" lon="18.19207">
        <ele>315.081689</ele>
        <time>2022-06-10T10:18:16.740Z</time>
      </trkpt>
      <trkpt lat="42.72238" lon="18.19215">
        <ele>315.246173</ele>
        <time>2022-06-10T10:18:19.706Z</time>
      </trkpt>
      <trkpt lat="42.72248" lon="18.19223">
        <ele>315.070329</ele>
        <time>2022-06-10T10:18:22.747Z</time>
      </trkpt>
      <trkpt lat="42.72259" lon="18.1923">
        <ele>314.872596</ele>
        <time>2022-06-10T10:18:25.720Z</time>
      </trkpt>
      <trkpt lat="42.72269" lon="18.19239">
        <ele>314.669542</ele>
        <time>2022-06-10T10:18:28.761Z</time>
      </trkpt>
      <trkpt lat="42.7228" lon="18.19247">
        <ele>314.463331</ele>
        <time>2022-06-10T10:18:31.716Z</time>
      </trkpt>
      <trkpt lat="42.7229" lon="18.19255">
        <ele>314.256966</ele>
        <time>2022-06-10T10:18:34.715Z</time>
      </trkpt>
      <trkpt lat="42.72301" lon="18.19263">
        <ele>314.053074</ele>
        <time>2022-06-10T10:18:37.734Z</time>
      </trkpt>
      <trkpt lat="42.72312" lon="18.19271">
        <ele>313.850463</ele>
        <time>2022-06-10T10:18:40.703Z</time>
      </trkpt>
      <trkpt lat="42.72322" lon="18.19279">
        <ele>313.653165</ele>
        <time>2022-06-10T10:18:43.714Z</time>
      </trkpt>
      <trkpt lat="42.72332" lon="18.19286">
        <ele>313.462819</ele>
        <time>2022-06-10T10:18:46.717Z</time>
      </trkpt>
      <trkpt lat="42.72342" lon="18.19293">
        <ele>313.269744</ele>
        <time>2022-06-10T10:18:49.717Z</time>
      </trkpt>
      <trkpt lat="42.72352" lon="18.19302">
        <ele>313.075944</ele>
        <time>2022-06-10T10:18:52.716Z</time>
      </trkpt>
      <trkpt lat="42.72362" lon="18.19309">
        <ele>312.890411</ele>
        <time>2022-06-10T10:18:55.703Z</time>
      </trkpt>
      <trkpt lat="42.72371" lon="18.19318">
        <ele>312.707226</ele>
        <time>2022-06-10T10:18:58.707Z</time>
      </trkpt>
      <trkpt lat="42.7238" lon="18.19325">
        <ele>312.529142</ele>
        <time>2022-06-10T10:19:01.709Z</time>
      </trkpt>
      <trkpt lat="42.72389" lon="18.19332">
        <ele>312.360939</ele>
        <time>2022-06-10T10:19:04.721Z</time>
      </trkpt>
      <trkpt lat="42.72398" lon="18.1934">
        <ele>312.232408</ele>
        <time>2022-06-10T10:19:07.738Z</time>
      </trkpt>
      <trkpt lat="42.72408" lon="18.19347">
        <ele>312.18438</ele>
        <time>2022-06-10T10:19:10.715Z</time>
      </trkpt>
      <trkpt lat="42.72417" lon="18.19354">
        <ele>312.140002</ele>
        <time>2022-06-10T10:19:13.715Z</time>
      </trkpt>
      <trkpt lat="42.72427" lon="18.19361">
        <ele>312.09373</ele>
        <time>2022-06-10T10:19:16.735Z</time>
      </trkpt>
      <trkpt lat="42.72436" lon="18.19369">
        <ele>312.048991</ele>
        <time>2022-06-10T10:19:19.720Z</time>
      </trkpt>
      <trkpt lat="42.72445" lon="18.19375">
        <ele>312.009044</ele>
        <time>2022-06-10T10:19:22.703Z</time>
      </trkpt>
      <trkpt lat="42.72453" lon="18.19381">
        <ele>311.971578</ele>
        <time>2022-06-10T10:19:25.714Z</time>
      </trkpt>
      <trkpt lat="42.72461" lon="18.19388">
        <ele>311.930528</ele>
        <time>2022-06-10T10:19:28.703Z</time>
      </trkpt>
      <trkpt lat="42.7247" lon="18.19394">
        <ele>311.888555</ele>
        <time>2022-06-10T10:19:31.708Z</time>
      </trkpt>
      <trkpt lat="42.72479" lon="18.19401">
        <ele>311.84786</ele>
        <time>2022-06-10T10:19:34.715Z</time>
      </trkpt>
      <trkpt lat="42.72487" lon="18.19408">
        <ele>311.807713</ele>
        <time>2022-06-10T10:19:37.707Z</time>
      </trkpt>
      <trkpt lat="42.72495" lon="18.19415">
        <ele>311.767916</ele>
        <time>2022-06-10T10:19:40.711Z</time>
      </trkpt>
      <trkpt lat="42.72503" lon="18.19422">
        <ele>311.72922</ele>
        <time>2022-06-10T10:19:43.716Z</time>
      </trkpt>
      <trkpt lat="42.72511" lon="18.19428">
        <ele>311.690095</ele>
        <time>2022-06-10T10:19:46.726Z</time>
      </trkpt>
      <trkpt lat="42.7252" lon="18.19434">
        <ele>311.649166</ele>
        <time>2022-06-10T10:19:49.709Z</time>
      </trkpt>
      <trkpt lat="42.72529" lon="18.19439">
        <ele>311.607111</ele>
        <time>2022-06-10T10:19:52.718Z</time>
      </trkpt>
      <trkpt lat="42.72538" lon="18.19445">
        <ele>311.567808</ele>
        <time>2022-06-10T10:19:55.706Z</time>
      </trkpt>
      <trkpt lat="42.72547" lon="18.1945">
        <ele>311.525488</ele>
        <time>2022-06-10T10:19:58.741Z</time>
      </trkpt>
      <trkpt lat="42.72556" lon="18.19454">
        <ele>311.575117</ele>
        <time>2022-06-10T10:20:01.699Z</time>
      </trkpt>
      <trkpt lat="42.72566" lon="18.19458">
        <ele>311.745332</ele>
        <time>2022-06-10T10:20:04.700Z</time>
      </trkpt>
      <trkpt lat="42.72575" lon="18.19461">
        <ele>311.919008</ele>
        <time>2022-06-10T10:20:07.703Z</time>
      </trkpt>
      <trkpt lat="42.72584" lon="18.19465">
        <ele>312.088286</ele>
        <time>2022-06-10T10:20:10.712Z</time>
      </trkpt>
      <trkpt lat="42.72594" lon="18.19467">
        <ele>312.259494</ele>
        <time>2022-06-10T10:20:13.698Z</time>
      </trkpt>
      <trkpt lat="42.72604" lon="18.19469">
        <ele>312.440068</ele>
        <time>2022-06-10T10:20:16.713Z</time>
      </trkpt>
      <trkpt lat="42.72614" lon="18.1947">
        <ele>312.625632</ele>
        <time>2022-06-10T10:20:19.709Z</time>
      </trkpt>
      <trkpt lat="42.72624" lon="18.19472">
        <ele>312.804445</ele>
        <time>2022-06-10T10:20:22.718Z</time>
      </trkpt>
      <trkpt lat="42.72635" lon="18.19473">
        <ele>312.987579</ele>
        <time>2022-06-10T10:20:25.703Z</time>
      </trkpt>
      <trkpt lat="42.72645" lon="18.19472">
        <ele>313.166958</ele>
        <time>2022-06-10T10:20:28.763Z</time>
      </trkpt>
      <trkpt lat="42.72654" lon="18.19471">
        <ele>313.337698</ele>
        <time>2022-06-10T10:20:31.696Z</time>
      </trkpt>
      <trkpt lat="42.72663" lon="18.19471">
        <ele>313.499185</ele>
        <time>2022-06-10T10:20:34.708Z</time>
      </trkpt>
      <trkpt lat="42.72674" lon="18.19478">
        <ele>313.700136</ele>
        <time>2022-06-10T10:20:38.716Z</time>
      </trkpt>
      <trkpt lat="42.72681" lon="18.19487">
        <ele>313.877079</ele>
        <time>2022-06-10T10:20:41.703Z</time>
      </trkpt>
      <trkpt lat="42.72689" lon="18.19497">
        <ele>314.065446</ele>
        <time>2022-06-10T10:20:44.708Z</time>
      </trkpt>
      <trkpt lat="42.72697" lon="18.19506">
        <ele>314.256188</ele>
        <time>2022-06-10T10:20:47.766Z</time>
      </trkpt>
      <trkpt lat="42.72706" lon="18.19516">
        <ele>314.452401</ele>
        <time>2022-06-10T10:20:50.704Z</time>
      </trkpt>
      <trkpt lat="42.72715" lon="18.19529">
        <ele>314.684653</ele>
        <time>2022-06-10T10:20:53.716Z</time>
      </trkpt>
      <trkpt lat="42.72724" lon="18.19539">
        <ele>315.016865</ele>
        <time>2022-06-10T10:20:56.717Z</time>
      </trkpt>
      <trkpt lat="42.72733" lon="18.19545">
        <ele>315.320748</ele>
        <time>2022-06-10T10:20:59.701Z</time>
      </trkpt>
      <trkpt lat="42.72744" lon="18.19547">
        <ele>315.624668</ele>
        <time>2022-06-10T10:21:02.698Z</time>
      </trkpt>
      <trkpt lat="42.72755" lon="18.1955">
        <ele>315.952431</ele>
        <time>2022-06-10T10:21:06.758Z</time>
      </trkpt>
      <trkpt lat="42.72764" lon="18.19551">
        <ele>316.220216</ele>
        <time>2022-06-10T10:21:10.708Z</time>
      </trkpt>
      <trkpt lat="42.72774" lon="18.19551">
        <ele>316.513271</ele>
        <time>2022-06-10T10:21:14.716Z</time>
      </trkpt>
      <trkpt lat="42.72785" lon="18.19549">
        <ele>316.835556</ele>
        <time>2022-06-10T10:21:18.709Z</time>
      </trkpt>
      <trkpt lat="42.72794" lon="18.19548">
        <ele>317.111599</ele>
        <time>2022-06-10T10:21:21.705Z</time>
      </trkpt>
      <trkpt lat="42.72804" lon="18.19548">
        <ele>317.387641</ele>
        <time>2022-06-10T10:21:24.716Z</time>
      </trkpt>
      <trkpt lat="42.72816" lon="18.19547">
        <ele>317.733711</ele>
        <time>2022-06-10T10:21:28.748Z</time>
      </trkpt>
      <trkpt lat="42.72827" lon="18.19546">
        <ele>318.056478</ele>
        <time>2022-06-10T10:21:32.714Z</time>
      </trkpt>
      <trkpt lat="42.72837" lon="18.19545">
        <ele>318.34972</ele>
        <time>2022-06-10T10:21:36.702Z</time>
      </trkpt>
      <trkpt lat="42.72847" lon="18.19541">
        <ele>318.643624</ele>
        <time>2022-06-10T10:21:40.721Z</time>
      </trkpt>
      <trkpt lat="42.72856" lon="18.19532">
        <ele>318.979636</ele>
        <time>2022-06-10T10:21:44.745Z</time>
      </trkpt>
      <trkpt lat="42.72864" lon="18.19525">
        <ele>319.245912</ele>
        <time>2022-06-10T10:21:47.708Z</time>
      </trkpt>
      <trkpt lat="42.72871" lon="18.19517">
        <ele>319.521057</ele>
        <time>2022-06-10T10:21:50.730Z</time>
      </trkpt>
      <trkpt lat="42.72879" lon="18.19508">
        <ele>319.811146</ele>
        <time>2022-06-10T10:21:53.704Z</time>
      </trkpt>
      <trkpt lat="42.72886" lon="18.19499">
        <ele>319.827657</ele>
        <time>2022-06-10T10:21:56.739Z</time>
      </trkpt>
      <trkpt lat="42.72893" lon="18.19491">
        <ele>319.707671</ele>
        <time>2022-06-10T10:21:59.725Z</time>
      </trkpt>
      <trkpt lat="42.72899" lon="18.19481">
        <ele>319.587391</ele>
        <time>2022-06-10T10:22:02.753Z</time>
      </trkpt>
      <trkpt lat="42.72907" lon="18.19472">
        <ele>319.456134</ele>
        <time>2022-06-10T10:22:07.696Z</time>
      </trkpt>
      <trkpt lat="42.72922" lon="18.19484">
        <ele>319.228053</ele>
        <time>2022-06-10T10:25:44.714Z</time>
      </trkpt>
      <trkpt lat="42.72932" lon="18.1949">
        <ele>319.082064</ele>
        <time>2022-06-10T10:25:47.722Z</time>
      </trkpt>
      <trkpt lat="42.72942" lon="18.19497">
        <ele>318.935035</ele>
        <time>2022-06-10T10:25:50.711Z</time>
      </trkpt>
      <trkpt lat="42.72951" lon="18.19504">
        <ele>318.807169</ele>
        <time>2022-06-10T10:25:53.710Z</time>
      </trkpt>
      <trkpt lat="42.72959" lon="18.19511">
        <ele>318.678856</ele>
        <time>2022-06-10T10:25:56.738Z</time>
      </trkpt>
      <trkpt lat="42.72968" lon="18.19516">
        <ele>318.549247</ele>
        <time>2022-06-10T10:25:59.716Z</time>
      </trkpt>
      <trkpt lat="42.7298" lon="18.1952">
        <ele>318.400717</ele>
        <time>2022-06-10T10:26:03.688Z</time>
      </trkpt>
      <trkpt lat="42.72989" lon="18.19517">
        <ele>318.272037</ele>
        <time>2022-06-10T10:26:07.707Z</time>
      </trkpt>
      <trkpt lat="42.72998" lon="18.19513">
        <ele>318.147752</ele>
        <time>2022-06-10T10:26:11.725Z</time>
      </trkpt>
      <trkpt lat="42.73008" lon="18.19506">
        <ele>318.003726</ele>
        <time>2022-06-10T10:26:15.708Z</time>
      </trkpt>
      <trkpt lat="42.73019" lon="18.19498">
        <ele>317.85025</ele>
        <time>2022-06-10T10:26:19.703Z</time>
      </trkpt>
      <trkpt lat="42.73027" lon="18.19491">
        <ele>317.716178</ele>
        <time>2022-06-10T10:26:22.716Z</time>
      </trkpt>
      <trkpt lat="42.73037" lon="18.19485">
        <ele>317.575237</ele>
        <time>2022-06-10T10:26:25.709Z</time>
      </trkpt>
      <trkpt lat="42.73047" lon="18.19482">
        <ele>317.700531</ele>
        <time>2022-06-10T10:26:28.707Z</time>
      </trkpt>
      <trkpt lat="42.73057" lon="18.19483">
        <ele>317.819844</ele>
        <time>2022-06-10T10:26:31.706Z</time>
      </trkpt>
      <trkpt lat="42.73069" lon="18.19486">
        <ele>317.966253</ele>
        <time>2022-06-10T10:26:35.703Z</time>
      </trkpt>
      <trkpt lat="42.7308" lon="18.19488">
        <ele>318.101349</ele>
        <time>2022-06-10T10:26:39.711Z</time>
      </trkpt>
      <trkpt lat="42.73089" lon="18.1949">
        <ele>318.217824</ele>
        <time>2022-06-10T10:26:42.699Z</time>
      </trkpt>
      <trkpt lat="42.73098" lon="18.19492">
        <ele>318.336345</ele>
        <time>2022-06-10T10:26:45.702Z</time>
      </trkpt>
      <trkpt lat="42.73109" lon="18.19493">
        <ele>318.460565</ele>
        <time>2022-06-10T10:26:50.714Z</time>
      </trkpt>
      <trkpt lat="42.73118" lon="18.19491">
        <ele>318.577755</ele>
        <time>2022-06-10T10:26:55.715Z</time>
      </trkpt>
      <trkpt lat="42.73129" lon="18.19489">
        <ele>318.708533</ele>
        <time>2022-06-10T10:26:59.716Z</time>
      </trkpt>
      <trkpt lat="42.73139" lon="18.19484">
        <ele>318.844298</ele>
        <time>2022-06-10T10:27:03.697Z</time>
      </trkpt>
      <trkpt lat="42.73149" lon="18.19479">
        <ele>318.978082</ele>
        <time>2022-06-10T10:27:07.714Z</time>
      </trkpt>
      <trkpt lat="42.73155" lon="18.19466">
        <ele>319.116504</ele>
        <time>2022-06-10T10:27:11.720Z</time>
      </trkpt>
      <trkpt lat="42.7315" lon="18.19453">
        <ele>319.249683</ele>
        <time>2022-06-10T10:27:15.711Z</time>
      </trkpt>
      <trkpt lat="42.73141" lon="18.19443">
        <ele>319.392493</ele>
        <time>2022-06-10T10:27:19.705Z</time>
      </trkpt>
      <trkpt lat="42.73132" lon="18.19433">
        <ele>319.53862</ele>
        <time>2022-06-10T10:27:23.704Z</time>
      </trkpt>
      <trkpt lat="42.73124" lon="18.19424">
        <ele>319.66535</ele>
        <time>2022-06-10T10:27:26.755Z</time>
      </trkpt>
      <trkpt lat="42.73115" lon="18.19412">
        <ele>319.785327</ele>
        <time>2022-06-10T10:27:29.700Z</time>
      </trkpt>
      <trkpt lat="42.73105" lon="18.194">
        <ele>319.791733</ele>
        <time>2022-06-10T10:27:32.753Z</time>
      </trkpt>
      <trkpt lat="42.73096" lon="18.19388">
        <ele>319.79796</ele>
        <time>2022-06-10T10:27:35.701Z</time>
      </trkpt>
      <trkpt lat="42.73086" lon="18.19375">
        <ele>319.804361</ele>
        <time>2022-06-10T10:27:38.707Z</time>
      </trkpt>
      <trkpt lat="42.73078" lon="18.19363">
        <ele>319.810227</ele>
        <time>2022-06-10T10:27:41.708Z</time>
      </trkpt>
      <trkpt lat="42.73069" lon="18.19352">
        <ele>319.816123</ele>
        <time>2022-06-10T10:27:44.737Z</time>
      </trkpt>
      <trkpt lat="42.7306" lon="18.1934">
        <ele>319.821974</ele>
        <time>2022-06-10T10:27:47.710Z</time>
      </trkpt>
      <trkpt lat="42.73055" lon="18.19327">
        <ele>319.827127</ele>
        <time>2022-06-10T10:27:50.713Z</time>
      </trkpt>
      <trkpt lat="42.73052" lon="18.19312">
        <ele>319.832583</ele>
        <time>2022-06-10T10:27:53.704Z</time>
      </trkpt>
      <trkpt lat="42.73051" lon="18.19296">
        <ele>319.838338</ele>
        <time>2022-06-10T10:27:56.705Z</time>
      </trkpt>
      <trkpt lat="42.73056" lon="18.19282">
        <ele>319.843696</ele>
        <time>2022-06-10T10:27:59.691Z</time>
      </trkpt>
      <trkpt lat="42.73064" lon="18.19273">
        <ele>319.848597</ele>
        <time>2022-06-10T10:28:02.701Z</time>
      </trkpt>
      <trkpt lat="42.73074" lon="18.19266">
        <ele>319.853873</ele>
        <time>2022-06-10T10:28:05.732Z</time>
      </trkpt>
      <trkpt lat="42.73084" lon="18.19262">
        <ele>319.858856</ele>
        <time>2022-06-10T10:28:08.685Z</time>
      </trkpt>
      <trkpt lat="42.73093" lon="18.19257">
        <ele>319.863873</ele>
        <time>2022-06-10T10:28:11.732Z</time>
      </trkpt>
      <trkpt lat="42.73105" lon="18.19251">
        <ele>319.869575</ele>
        <time>2022-06-10T10:28:14.712Z</time>
      </trkpt>
      <trkpt lat="42.73116" lon="18.19245">
        <ele>319.664026</ele>
        <time>2022-06-10T10:28:17.716Z</time>
      </trkpt>
      <trkpt lat="42.73127" lon="18.19241">
        <ele>319.431436</ele>
        <time>2022-06-10T10:28:20.702Z</time>
      </trkpt>
      <trkpt lat="42.73138" lon="18.19235">
        <ele>319.19406</ele>
        <time>2022-06-10T10:28:23.715Z</time>
      </trkpt>
      <trkpt lat="42.73149" lon="18.1923">
        <ele>318.948053</ele>
        <time>2022-06-10T10:28:26.700Z</time>
      </trkpt>
      <trkpt lat="42.73161" lon="18.19225">
        <ele>318.70491</ele>
        <time>2022-06-10T10:28:29.702Z</time>
      </trkpt>
      <trkpt lat="42.73172" lon="18.19219">
        <ele>318.451209</ele>
        <time>2022-06-10T10:28:32.707Z</time>
      </trkpt>
      <trkpt lat="42.73184" lon="18.19213">
        <ele>318.200298</ele>
        <time>2022-06-10T10:28:35.717Z</time>
      </trkpt>
      <trkpt lat="42.73195" lon="18.19208">
        <ele>317.961279</ele>
        <time>2022-06-10T10:28:38.698Z</time>
      </trkpt>
      <trkpt lat="42.73206" lon="18.19202">
        <ele>317.730054</ele>
        <time>2022-06-10T10:28:41.705Z</time>
      </trkpt>
      <trkpt lat="42.73217" lon="18.19197">
        <ele>317.480671</ele>
        <time>2022-06-10T10:28:44.736Z</time>
      </trkpt>
      <trkpt lat="42.73229" lon="18.19191">
        <ele>317.23024</ele>
        <time>2022-06-10T10:28:47.718Z</time>
      </trkpt>
      <trkpt lat="42.7324" lon="18.19185">
        <ele>316.979329</ele>
        <time>2022-06-10T10:28:50.754Z</time>
      </trkpt>
      <trkpt lat="42.73251" lon="18.19179">
        <ele>316.741653</ele>
        <time>2022-06-10T10:28:53.709Z</time>
      </trkpt>
      <trkpt lat="42.73263" lon="18.19173">
        <ele>316.49316</ele>
        <time>2022-06-10T10:28:56.782Z</time>
      </trkpt>
      <trkpt lat="42.73275" lon="18.19168">
        <ele>316.242304</ele>
        <time>2022-06-10T10:28:59.706Z</time>
      </trkpt>
      <trkpt lat="42.73286" lon="18.19161">
        <ele>316.162396</ele>
        <time>2022-06-10T10:29:02.708Z</time>
      </trkpt>
      <trkpt lat="42.73298" lon="18.19155">
        <ele>316.093386</ele>
        <time>2022-06-10T10:29:05.722Z</time>
      </trkpt>
      <trkpt lat="42.7331" lon="18.19148">
        <ele>316.024917</ele>
        <time>2022-06-10T10:29:08.714Z</time>
      </trkpt>
      <trkpt lat="42.73322" lon="18.19141">
        <ele>315.953524</ele>
        <time>2022-06-10T10:29:11.712Z</time>
      </trkpt>
      <trkpt lat="42.73334" lon="18.19135">
        <ele>315.886905</ele>
        <time>2022-06-10T10:29:14.703Z</time>
      </trkpt>
      <trkpt lat="42.73345" lon="18.1913">
        <ele>315.820664</ele>
        <time>2022-06-10T10:29:17.704Z</time>
      </trkpt>
      <trkpt lat="42.73357" lon="18.19124">
        <ele>315.751995</ele>
        <time>2022-06-10T10:29:20.720Z</time>
      </trkpt>
      <trkpt lat="42.73369" lon="18.19118">
        <ele>315.684738</ele>
        <time>2022-06-10T10:29:23.720Z</time>
      </trkpt>
      <trkpt lat="42.73381" lon="18.19112">
        <ele>315.61671</ele>
        <time>2022-06-10T10:29:26.711Z</time>
      </trkpt>
      <trkpt lat="42.73393" lon="18.19107">
        <ele>315.548436</ele>
        <time>2022-06-10T10:29:29.700Z</time>
      </trkpt>
      <trkpt lat="42.73405" lon="18.191">
        <ele>315.480073</ele>
        <time>2022-06-10T10:29:32.724Z</time>
      </trkpt>
      <trkpt lat="42.73416" lon="18.19094">
        <ele>315.411911</ele>
        <time>2022-06-10T10:29:35.711Z</time>
      </trkpt>
      <trkpt lat="42.73429" lon="18.19088">
        <ele>315.341961</ele>
        <time>2022-06-10T10:29:38.711Z</time>
      </trkpt>
      <trkpt lat="42.73441" lon="18.19081">
        <ele>315.273097</ele>
        <time>2022-06-10T10:29:41.697Z</time>
      </trkpt>
      <trkpt lat="42.73452" lon="18.19076">
        <ele>315.181969</ele>
        <time>2022-06-10T10:29:44.706Z</time>
      </trkpt>
      <trkpt lat="42.73464" lon="18.1907">
        <ele>315.078126</ele>
        <time>2022-06-10T10:29:47.743Z</time>
      </trkpt>
      <trkpt lat="42.73476" lon="18.19063">
        <ele>314.974061</ele>
        <time>2022-06-10T10:29:50.715Z</time>
      </trkpt>
      <trkpt lat="42.73487" lon="18.19057">
        <ele>314.869315</ele>
        <time>2022-06-10T10:29:53.726Z</time>
      </trkpt>
      <trkpt lat="42.73499" lon="18.1905">
        <ele>314.763375</ele>
        <time>2022-06-10T10:29:56.717Z</time>
      </trkpt>
      <trkpt lat="42.73508" lon="18.19045">
        <ele>314.688739</ele>
        <time>2022-06-10T10:29:58.757Z</time>
      </trkpt>
      <trkpt lat="42.73516" lon="18.1904">
        <ele>314.615001</ele>
        <time>2022-06-10T10:30:00.704Z</time>
      </trkpt>
      <trkpt lat="42.73528" lon="18.19035">
        <ele>314.508356</ele>
        <time>2022-06-10T10:30:03.706Z</time>
      </trkpt>
      <trkpt lat="42.7354" lon="18.19029">
        <ele>314.407319</ele>
        <time>2022-06-10T10:30:06.721Z</time>
      </trkpt>
      <trkpt lat="42.73552" lon="18.19022">
        <ele>314.301817</ele>
        <time>2022-06-10T10:30:09.707Z</time>
      </trkpt>
      <trkpt lat="42.73564" lon="18.19014">
        <ele>314.194819</ele>
        <time>2022-06-10T10:30:12.709Z</time>
      </trkpt>
      <trkpt lat="42.73575" lon="18.19009">
        <ele>314.096319</ele>
        <time>2022-06-10T10:30:15.704Z</time>
      </trkpt>
      <trkpt lat="42.73587" lon="18.19003">
        <ele>313.990838</ele>
        <time>2022-06-10T10:30:18.710Z</time>
      </trkpt>
      <trkpt lat="42.73599" lon="18.18998">
        <ele>313.886884</ele>
        <time>2022-06-10T10:30:21.746Z</time>
      </trkpt>
      <trkpt lat="42.73611" lon="18.18992">
        <ele>313.779597</ele>
        <time>2022-06-10T10:30:24.737Z</time>
      </trkpt>
      <trkpt lat="42.73623" lon="18.18986">
        <ele>313.619954</ele>
        <time>2022-06-10T10:30:27.765Z</time>
      </trkpt>
      <trkpt lat="42.73635" lon="18.18979">
        <ele>313.464102</ele>
        <time>2022-06-10T10:30:30.699Z</time>
      </trkpt>
      <trkpt lat="42.73647" lon="18.18973">
        <ele>313.309062</ele>
        <time>2022-06-10T10:30:33.713Z</time>
      </trkpt>
      <trkpt lat="42.73658" lon="18.18967">
        <ele>313.152387</ele>
        <time>2022-06-10T10:30:36.736Z</time>
      </trkpt>
      <trkpt lat="42.7367" lon="18.18961">
        <ele>313.000789</ele>
        <time>2022-06-10T10:30:39.702Z</time>
      </trkpt>
      <trkpt lat="42.73682" lon="18.18955">
        <ele>312.84444</ele>
        <time>2022-06-10T10:30:42.704Z</time>
      </trkpt>
      <trkpt lat="42.73694" lon="18.18948">
        <ele>312.684927</ele>
        <time>2022-06-10T10:30:45.717Z</time>
      </trkpt>
      <trkpt lat="42.73706" lon="18.18942">
        <ele>312.523921</ele>
        <time>2022-06-10T10:30:48.731Z</time>
      </trkpt>
      <trkpt lat="42.73718" lon="18.18936">
        <ele>312.363548</ele>
        <time>2022-06-10T10:30:51.733Z</time>
      </trkpt>
      <trkpt lat="42.7373" lon="18.18929">
        <ele>312.203078</ele>
        <time>2022-06-10T10:30:54.714Z</time>
      </trkpt>
      <trkpt lat="42.73742" lon="18.18923">
        <ele>312.049043</ele>
        <time>2022-06-10T10:30:57.703Z</time>
      </trkpt>
      <trkpt lat="42.73753" lon="18.18916">
        <ele>311.887733</ele>
        <time>2022-06-10T10:31:00.730Z</time>
      </trkpt>
      <trkpt lat="42.73765" lon="18.18909">
        <ele>311.726727</ele>
        <time>2022-06-10T10:31:03.722Z</time>
      </trkpt>
      <trkpt lat="42.73777" lon="18.18902">
        <ele>311.568006</ele>
        <time>2022-06-10T10:31:06.716Z</time>
      </trkpt>
      <trkpt lat="42.73789" lon="18.18894">
        <ele>311.538046</ele>
        <time>2022-06-10T10:31:09.703Z</time>
      </trkpt>
      <trkpt lat="42.738" lon="18.18887">
        <ele>311.519316</ele>
        <time>2022-06-10T10:31:12.708Z</time>
      </trkpt>
      <trkpt lat="42.73811" lon="18.18879">
        <ele>311.500414</ele>
        <time>2022-06-10T10:31:15.707Z</time>
      </trkpt>
      <trkpt lat="42.73822" lon="18.18871">
        <ele>311.481447</ele>
        <time>2022-06-10T10:31:18.729Z</time>
      </trkpt>
      <trkpt lat="42.73833" lon="18.18863">
        <ele>311.4625</ele>
        <time>2022-06-10T10:31:21.715Z</time>
      </trkpt>
      <trkpt lat="42.73844" lon="18.18854">
        <ele>311.4434</ele>
        <time>2022-06-10T10:31:24.704Z</time>
      </trkpt>
      <trkpt lat="42.73855" lon="18.18846">
        <ele>311.424584</ele>
        <time>2022-06-10T10:31:27.707Z</time>
      </trkpt>
      <trkpt lat="42.73865" lon="18.18837">
        <ele>311.406157</ele>
        <time>2022-06-10T10:31:30.744Z</time>
      </trkpt>
      <trkpt lat="42.73875" lon="18.18829">
        <ele>311.387975</ele>
        <time>2022-06-10T10:31:33.717Z</time>
      </trkpt>
      <trkpt lat="42.73885" lon="18.1882">
        <ele>311.369865</ele>
        <time>2022-06-10T10:31:36.715Z</time>
      </trkpt>
      <trkpt lat="42.73896" lon="18.18812">
        <ele>311.351553</ele>
        <time>2022-06-10T10:31:39.713Z</time>
      </trkpt>
      <trkpt lat="42.73906" lon="18.18802">
        <ele>311.332212</ele>
        <time>2022-06-10T10:31:42.728Z</time>
      </trkpt>
      <trkpt lat="42.73916" lon="18.18792">
        <ele>311.313806</ele>
        <time>2022-06-10T10:31:45.743Z</time>
      </trkpt>
      <trkpt lat="42.73926" lon="18.18783">
        <ele>311.295276</ele>
        <time>2022-06-10T10:31:48.743Z</time>
      </trkpt>
      <trkpt lat="42.73936" lon="18.18773">
        <ele>311.282551</ele>
        <time>2022-06-10T10:31:51.721Z</time>
      </trkpt>
      <trkpt lat="42.73946" lon="18.18763">
        <ele>311.278775</ele>
        <time>2022-06-10T10:31:54.705Z</time>
      </trkpt>
      <trkpt lat="42.73956" lon="18.18753">
        <ele>311.27505</ele>
        <time>2022-06-10T10:31:57.730Z</time>
      </trkpt>
      <trkpt lat="42.73966" lon="18.18743">
        <ele>311.271251</ele>
        <time>2022-06-10T10:32:00.709Z</time>
      </trkpt>
      <trkpt lat="42.73976" lon="18.18734">
        <ele>311.267563</ele>
        <time>2022-06-10T10:32:03.702Z</time>
      </trkpt>
      <trkpt lat="42.73986" lon="18.18724">
        <ele>311.263888</ele>
        <time>2022-06-10T10:32:06.724Z</time>
      </trkpt>
      <trkpt lat="42.73996" lon="18.18716">
        <ele>311.26031</ele>
        <time>2022-06-10T10:32:09.718Z</time>
      </trkpt>
      <trkpt lat="42.74006" lon="18.18707">
        <ele>311.256933</ele>
        <time>2022-06-10T10:32:12.725Z</time>
      </trkpt>
      <trkpt lat="42.74014" lon="18.18697">
        <ele>311.253525</ele>
        <time>2022-06-10T10:32:15.731Z</time>
      </trkpt>
      <trkpt lat="42.74023" lon="18.18688">
        <ele>311.250233</ele>
        <time>2022-06-10T10:32:18.752Z</time>
      </trkpt>
      <trkpt lat="42.74033" lon="18.18679">
        <ele>311.246769</ele>
        <time>2022-06-10T10:32:21.708Z</time>
      </trkpt>
      <trkpt lat="42.74042" lon="18.1867">
        <ele>311.243094</ele>
        <time>2022-06-10T10:32:24.733Z</time>
      </trkpt>
      <trkpt lat="42.7405" lon="18.18662">
        <ele>311.240344</ele>
        <time>2022-06-10T10:32:26.710Z</time>
      </trkpt>
      <trkpt lat="42.74057" lon="18.18654">
        <ele>311.237524</ele>
        <time>2022-06-10T10:32:28.707Z</time>
      </trkpt>
      <trkpt lat="42.74067" lon="18.18643">
        <ele>311.233657</ele>
        <time>2022-06-10T10:32:31.717Z</time>
      </trkpt>
      <trkpt lat="42.74078" lon="18.18633">
        <ele>311.229718</ele>
        <time>2022-06-10T10:32:34.716Z</time>
      </trkpt>
      <trkpt lat="42.74088" lon="18.18622">
        <ele>311.356243</ele>
        <time>2022-06-10T10:32:37.699Z</time>
      </trkpt>
      <trkpt lat="42.74096" lon="18.18616">
        <ele>311.447291</ele>
        <time>2022-06-10T10:32:39.725Z</time>
      </trkpt>
      <trkpt lat="42.74106" lon="18.18606">
        <ele>311.571016</ele>
        <time>2022-06-10T10:32:42.723Z</time>
      </trkpt>
      <trkpt lat="42.74116" lon="18.18597">
        <ele>311.697664</ele>
        <time>2022-06-10T10:32:45.703Z</time>
      </trkpt>
      <trkpt lat="42.74127" lon="18.18587">
        <ele>311.824289</ele>
        <time>2022-06-10T10:32:48.716Z</time>
      </trkpt>
      <trkpt lat="42.74137" lon="18.18577">
        <ele>311.951867</ele>
        <time>2022-06-10T10:32:51.700Z</time>
      </trkpt>
      <trkpt lat="42.74148" lon="18.18567">
        <ele>312.080559</ele>
        <time>2022-06-10T10:32:54.720Z</time>
      </trkpt>
      <trkpt lat="42.74158" lon="18.18557">
        <ele>312.205567</ele>
        <time>2022-06-10T10:32:57.721Z</time>
      </trkpt>
      <trkpt lat="42.74168" lon="18.18547">
        <ele>312.336171</ele>
        <time>2022-06-10T10:33:00.696Z</time>
      </trkpt>
      <trkpt lat="42.74179" lon="18.18536">
        <ele>312.465794</ele>
        <time>2022-06-10T10:33:03.743Z</time>
      </trkpt>
      <trkpt lat="42.7419" lon="18.18525">
        <ele>312.600385</ele>
        <time>2022-06-10T10:33:06.702Z</time>
      </trkpt>
      <trkpt lat="42.74197" lon="18.18518">
        <ele>312.690352</ele>
        <time>2022-06-10T10:33:08.728Z</time>
      </trkpt>
      <trkpt lat="42.74207" lon="18.18508">
        <ele>312.818638</ele>
        <time>2022-06-10T10:33:11.702Z</time>
      </trkpt>
      <trkpt lat="42.74217" lon="18.18498">
        <ele>312.940321</ele>
        <time>2022-06-10T10:33:14.727Z</time>
      </trkpt>
      <trkpt lat="42.74226" lon="18.18488">
        <ele>313.078888</ele>
        <time>2022-06-10T10:33:17.716Z</time>
      </trkpt>
      <trkpt lat="42.74236" lon="18.18478">
        <ele>313.301128</ele>
        <time>2022-06-10T10:33:20.743Z</time>
      </trkpt>
      <trkpt lat="42.74246" lon="18.18469">
        <ele>313.524641</ele>
        <time>2022-06-10T10:33:23.720Z</time>
      </trkpt>
      <trkpt lat="42.74256" lon="18.18459">
        <ele>313.743041</ele>
        <time>2022-06-10T10:33:26.713Z</time>
      </trkpt>
      <trkpt lat="42.74266" lon="18.1845">
        <ele>313.965158</ele>
        <time>2022-06-10T10:33:29.709Z</time>
      </trkpt>
      <trkpt lat="42.74276" lon="18.1844">
        <ele>314.181173</ele>
        <time>2022-06-10T10:33:32.718Z</time>
      </trkpt>
      <trkpt lat="42.74286" lon="18.18431">
        <ele>314.407684</ele>
        <time>2022-06-10T10:33:35.717Z</time>
      </trkpt>
      <trkpt lat="42.74296" lon="18.18421">
        <ele>314.626709</ele>
        <time>2022-06-10T10:33:38.704Z</time>
      </trkpt>
      <trkpt lat="42.74306" lon="18.18411">
        <ele>314.852808</ele>
        <time>2022-06-10T10:33:41.716Z</time>
      </trkpt>
      <trkpt lat="42.74316" lon="18.18401">
        <ele>315.085508</ele>
        <time>2022-06-10T10:33:44.708Z</time>
      </trkpt>
      <trkpt lat="42.74326" lon="18.1839">
        <ele>315.317555</ele>
        <time>2022-06-10T10:33:47.719Z</time>
      </trkpt>
      <trkpt lat="42.74336" lon="18.18381">
        <ele>315.534328</ele>
        <time>2022-06-10T10:33:50.710Z</time>
      </trkpt>
      <trkpt lat="42.74346" lon="18.18372">
        <ele>315.742837</ele>
        <time>2022-06-10T10:33:53.700Z</time>
      </trkpt>
      <trkpt lat="42.74355" lon="18.18363">
        <ele>315.94912</ele>
        <time>2022-06-10T10:33:56.711Z</time>
      </trkpt>
      <trkpt lat="42.74364" lon="18.18354">
        <ele>316.157629</ele>
        <time>2022-06-10T10:33:59.720Z</time>
      </trkpt>
      <trkpt lat="42.74374" lon="18.18346">
        <ele>316.338456</ele>
        <time>2022-06-10T10:34:02.705Z</time>
      </trkpt>
      <trkpt lat="42.74383" lon="18.18337">
        <ele>316.481166</ele>
        <time>2022-06-10T10:34:05.736Z</time>
      </trkpt>
      <trkpt lat="42.74393" lon="18.18327">
        <ele>316.630963</ele>
        <time>2022-06-10T10:34:08.723Z</time>
      </trkpt>
      <trkpt lat="42.74403" lon="18.18317">
        <ele>316.775799</ele>
        <time>2022-06-10T10:34:11.713Z</time>
      </trkpt>
      <trkpt lat="42.74413" lon="18.18308">
        <ele>316.921963</ele>
        <time>2022-06-10T10:34:14.707Z</time>
      </trkpt>
      <trkpt lat="42.74422" lon="18.18298">
        <ele>317.060232</ele>
        <time>2022-06-10T10:34:17.718Z</time>
      </trkpt>
      <trkpt lat="42.74431" lon="18.18289">
        <ele>317.194421</ele>
        <time>2022-06-10T10:34:20.705Z</time>
      </trkpt>
      <trkpt lat="42.7444" lon="18.18281">
        <ele>317.33105</ele>
        <time>2022-06-10T10:34:23.698Z</time>
      </trkpt>
      <trkpt lat="42.74449" lon="18.18272">
        <ele>317.46114</ele>
        <time>2022-06-10T10:34:26.700Z</time>
      </trkpt>
      <trkpt lat="42.74458" lon="18.18264">
        <ele>317.59428</ele>
        <time>2022-06-10T10:34:29.704Z</time>
      </trkpt>
      <trkpt lat="42.74466" lon="18.18254">
        <ele>317.728692</ele>
        <time>2022-06-10T10:34:32.703Z</time>
      </trkpt>
      <trkpt lat="42.74476" lon="18.18244">
        <ele>317.877581</ele>
        <time>2022-06-10T10:34:35.709Z</time>
      </trkpt>
      <trkpt lat="42.74486" lon="18.18233">
        <ele>318.034386</ele>
        <time>2022-06-10T10:34:38.720Z</time>
      </trkpt>
      <trkpt lat="42.74496" lon="18.18223">
        <ele>318.188633</ele>
        <time>2022-06-10T10:34:41.752Z</time>
      </trkpt>
      <trkpt lat="42.74507" lon="18.18214">
        <ele>318.340852</ele>
        <time>2022-06-10T10:34:44.734Z</time>
      </trkpt>
      <trkpt lat="42.74517" lon="18.18205">
        <ele>318.477774</ele>
        <time>2022-06-10T10:34:47.706Z</time>
      </trkpt>
      <trkpt lat="42.74527" lon="18.18195">
        <ele>318.407219</ele>
        <time>2022-06-10T10:34:50.692Z</time>
      </trkpt>
      <trkpt lat="42.74537" lon="18.18185">
        <ele>318.335022</ele>
        <time>2022-06-10T10:34:53.724Z</time>
      </trkpt>
      <trkpt lat="42.74547" lon="18.18175">
        <ele>318.262112</ele>
        <time>2022-06-10T10:34:56.727Z</time>
      </trkpt>
      <trkpt lat="42.74557" lon="18.18164">
        <ele>318.187993</ele>
        <time>2022-06-10T10:34:59.719Z</time>
      </trkpt>
      <trkpt lat="42.74567" lon="18.18155">
        <ele>318.121963</ele>
        <time>2022-06-10T10:35:02.705Z</time>
      </trkpt>
      <trkpt lat="42.74576" lon="18.18146">
        <ele>318.056676</ele>
        <time>2022-06-10T10:35:05.695Z</time>
      </trkpt>
      <trkpt lat="42.74586" lon="18.18137">
        <ele>317.988061</ele>
        <time>2022-06-10T10:35:08.706Z</time>
      </trkpt>
      <trkpt lat="42.74596" lon="18.18128">
        <ele>317.917783</ele>
        <time>2022-06-10T10:35:11.734Z</time>
      </trkpt>
      <trkpt lat="42.74607" lon="18.18118">
        <ele>317.845611</ele>
        <time>2022-06-10T10:35:14.716Z</time>
      </trkpt>
      <trkpt lat="42.74616" lon="18.18108">
        <ele>317.775469</ele>
        <time>2022-06-10T10:35:17.720Z</time>
      </trkpt>
      <trkpt lat="42.74626" lon="18.18098">
        <ele>317.704202</ele>
        <time>2022-06-10T10:35:20.706Z</time>
      </trkpt>
      <trkpt lat="42.74636" lon="18.18089">
        <ele>317.63721</ele>
        <time>2022-06-10T10:35:23.755Z</time>
      </trkpt>
      <trkpt lat="42.74644" lon="18.1808">
        <ele>317.574991</ele>
        <time>2022-06-10T10:35:26.737Z</time>
      </trkpt>
      <trkpt lat="42.74654" lon="18.18071">
        <ele>317.510137</ele>
        <time>2022-06-10T10:35:29.701Z</time>
      </trkpt>
      <trkpt lat="42.74663" lon="18.18062">
        <ele>317.442347</ele>
        <time>2022-06-10T10:35:32.699Z</time>
      </trkpt>
      <trkpt lat="42.74672" lon="18.18052">
        <ele>317.312708</ele>
        <time>2022-06-10T10:35:35.714Z</time>
      </trkpt>
      <trkpt lat="42.74682" lon="18.18043">
        <ele>317.184549</ele>
        <time>2022-06-10T10:35:38.702Z</time>
      </trkpt>
      <trkpt lat="42.74692" lon="18.18033">
        <ele>317.055513</ele>
        <time>2022-06-10T10:35:41.727Z</time>
      </trkpt>
      <trkpt lat="42.74702" lon="18.18023">
        <ele>316.927925</ele>
        <time>2022-06-10T10:35:44.705Z</time>
      </trkpt>
      <trkpt lat="42.74712" lon="18.18013">
        <ele>316.79432</ele>
        <time>2022-06-10T10:35:47.713Z</time>
      </trkpt>
      <trkpt lat="42.74722" lon="18.18003">
        <ele>316.663494</ele>
        <time>2022-06-10T10:35:50.738Z</time>
      </trkpt>
      <trkpt lat="42.74732" lon="18.17994">
        <ele>316.536213</ele>
        <time>2022-06-10T10:35:53.724Z</time>
      </trkpt>
      <trkpt lat="42.74742" lon="18.17984">
        <ele>316.404967</ele>
        <time>2022-06-10T10:35:56.740Z</time>
      </trkpt>
      <trkpt lat="42.74752" lon="18.17974">
        <ele>316.272765</ele>
        <time>2022-06-10T10:35:59.723Z</time>
      </trkpt>
      <trkpt lat="42.74762" lon="18.17964">
        <ele>316.134008</ele>
        <time>2022-06-10T10:36:02.707Z</time>
      </trkpt>
      <trkpt lat="42.74772" lon="18.17954">
        <ele>316.001618</ele>
        <time>2022-06-10T10:36:05.705Z</time>
      </trkpt>
      <trkpt lat="42.74782" lon="18.17944">
        <ele>315.875094</ele>
        <time>2022-06-10T10:36:08.702Z</time>
      </trkpt>
      <trkpt lat="42.74791" lon="18.17934">
        <ele>315.749892</ele>
        <time>2022-06-10T10:36:11.696Z</time>
      </trkpt>
      <trkpt lat="42.74801" lon="18.17925">
        <ele>315.621735</ele>
        <time>2022-06-10T10:36:14.705Z</time>
      </trkpt>
      <trkpt lat="42.74811" lon="18.17915">
        <ele>315.488095</ele>
        <time>2022-06-10T10:36:17.706Z</time>
      </trkpt>
      <trkpt lat="42.74821" lon="18.17904">
        <ele>315.359588</ele>
        <time>2022-06-10T10:36:20.713Z</time>
      </trkpt>
      <trkpt lat="42.74832" lon="18.17894">
        <ele>315.232882</ele>
        <time>2022-06-10T10:36:23.707Z</time>
      </trkpt>
      <trkpt lat="42.74842" lon="18.17885">
        <ele>315.115226</ele>
        <time>2022-06-10T10:36:26.744Z</time>
      </trkpt>
      <trkpt lat="42.74851" lon="18.17876">
        <ele>314.9988</ele>
        <time>2022-06-10T10:36:29.753Z</time>
      </trkpt>
      <trkpt lat="42.74861" lon="18.17867">
        <ele>314.880734</ele>
        <time>2022-06-10T10:36:32.704Z</time>
      </trkpt>
      <trkpt lat="42.74871" lon="18.17857">
        <ele>314.761378</ele>
        <time>2022-06-10T10:36:35.700Z</time>
      </trkpt>
      <trkpt lat="42.74882" lon="18.17847">
        <ele>314.628086</ele>
        <time>2022-06-10T10:36:38.718Z</time>
      </trkpt>
      <trkpt lat="42.74893" lon="18.17836">
        <ele>314.49681</ele>
        <time>2022-06-10T10:36:41.711Z</time>
      </trkpt>
      <trkpt lat="42.74903" lon="18.17826">
        <ele>314.365908</ele>
        <time>2022-06-10T10:36:44.792Z</time>
      </trkpt>
      <trkpt lat="42.74913" lon="18.17816">
        <ele>314.242042</ele>
        <time>2022-06-10T10:36:47.732Z</time>
      </trkpt>
      <trkpt lat="42.74923" lon="18.17806">
        <ele>314.120842</ele>
        <time>2022-06-10T10:36:50.707Z</time>
      </trkpt>
      <trkpt lat="42.74933" lon="18.17795">
        <ele>313.994363</ele>
        <time>2022-06-10T10:36:53.702Z</time>
      </trkpt>
      <trkpt lat="42.74943" lon="18.17785">
        <ele>313.864622</ele>
        <time>2022-06-10T10:36:56.721Z</time>
      </trkpt>
      <trkpt lat="42.74954" lon="18.17775">
        <ele>313.734983</ele>
        <time>2022-06-10T10:36:59.705Z</time>
      </trkpt>
      <trkpt lat="42.74964" lon="18.17764">
        <ele>313.519837</ele>
        <time>2022-06-10T10:37:02.701Z</time>
      </trkpt>
      <trkpt lat="42.74975" lon="18.17754">
        <ele>313.300427</ele>
        <time>2022-06-10T10:37:05.711Z</time>
      </trkpt>
      <trkpt lat="42.74985" lon="18.17743">
        <ele>313.085281</ele>
        <time>2022-06-10T10:37:08.710Z</time>
      </trkpt>
      <trkpt lat="42.74996" lon="18.17734">
        <ele>312.869506</ele>
        <time>2022-06-10T10:37:11.704Z</time>
      </trkpt>
      <trkpt lat="42.75004" lon="18.17727">
        <ele>312.715983</ele>
        <time>2022-06-10T10:37:13.706Z</time>
      </trkpt>
      <trkpt lat="42.75011" lon="18.1772">
        <ele>312.564535</ele>
        <time>2022-06-10T10:37:15.707Z</time>
      </trkpt>
      <trkpt lat="42.75022" lon="18.1771">
        <ele>312.350872</ele>
        <time>2022-06-10T10:37:18.719Z</time>
      </trkpt>
      <trkpt lat="42.75032" lon="18.177">
        <ele>312.141313</ele>
        <time>2022-06-10T10:37:21.702Z</time>
      </trkpt>
      <trkpt lat="42.75042" lon="18.1769">
        <ele>311.938691</ele>
        <time>2022-06-10T10:37:24.723Z</time>
      </trkpt>
      <trkpt lat="42.75052" lon="18.1768">
        <ele>311.726243</ele>
        <time>2022-06-10T10:37:27.712Z</time>
      </trkpt>
      <trkpt lat="42.75062" lon="18.1767">
        <ele>311.512449</ele>
        <time>2022-06-10T10:37:30.702Z</time>
      </trkpt>
      <trkpt lat="42.75073" lon="18.1766">
        <ele>311.297304</ele>
        <time>2022-06-10T10:37:33.726Z</time>
      </trkpt>
      <trkpt lat="42.75083" lon="18.17649">
        <ele>311.076554</ele>
        <time>2022-06-10T10:37:36.703Z</time>
      </trkpt>
      <trkpt lat="42.75093" lon="18.17638">
        <ele>310.865293</ele>
        <time>2022-06-10T10:37:39.696Z</time>
      </trkpt>
      <trkpt lat="42.75104" lon="18.17628">
        <ele>310.69044</ele>
        <time>2022-06-10T10:37:42.707Z</time>
      </trkpt>
      <trkpt lat="42.75114" lon="18.17618">
        <ele>310.579504</ele>
        <time>2022-06-10T10:37:45.703Z</time>
      </trkpt>
      <trkpt lat="42.75125" lon="18.17608">
        <ele>310.469976</ele>
        <time>2022-06-10T10:37:48.725Z</time>
      </trkpt>
      <trkpt lat="42.75135" lon="18.17598">
        <ele>310.365548</ele>
        <time>2022-06-10T10:37:51.714Z</time>
      </trkpt>
      <trkpt lat="42.75145" lon="18.17588">
        <ele>310.261977</ele>
        <time>2022-06-10T10:37:54.745Z</time>
      </trkpt>
      <trkpt lat="42.75154" lon="18.17578">
        <ele>310.1586</ele>
        <time>2022-06-10T10:37:57.721Z</time>
      </trkpt>
      <trkpt lat="42.75165" lon="18.17568">
        <ele>310.050042</ele>
        <time>2022-06-10T10:38:00.721Z</time>
      </trkpt>
      <trkpt lat="42.75175" lon="18.17558">
        <ele>309.944686</ele>
        <time>2022-06-10T10:38:03.716Z</time>
      </trkpt>
      <trkpt lat="42.75185" lon="18.17548">
        <ele>309.835851</ele>
        <time>2022-06-10T10:38:06.717Z</time>
      </trkpt>
      <trkpt lat="42.75196" lon="18.17538">
        <ele>309.72908</ele>
        <time>2022-06-10T10:38:09.714Z</time>
      </trkpt>
      <trkpt lat="42.75206" lon="18.17528">
        <ele>309.62236</ele>
        <time>2022-06-10T10:38:12.712Z</time>
      </trkpt>
      <trkpt lat="42.75216" lon="18.17518">
        <ele>309.516208</ele>
        <time>2022-06-10T10:38:15.717Z</time>
      </trkpt>
      <trkpt lat="42.75226" lon="18.17508">
        <ele>309.410852</ele>
        <time>2022-06-10T10:38:18.719Z</time>
      </trkpt>
      <trkpt lat="42.75236" lon="18.17498">
        <ele>309.306802</ele>
        <time>2022-06-10T10:38:21.716Z</time>
      </trkpt>
      <trkpt lat="42.75246" lon="18.17488">
        <ele>309.216646</ele>
        <time>2022-06-10T10:38:24.747Z</time>
      </trkpt>
      <trkpt lat="42.75256" lon="18.17477">
        <ele>309.426405</ele>
        <time>2022-06-10T10:38:27.737Z</time>
      </trkpt>
      <trkpt lat="42.75266" lon="18.17467">
        <ele>309.633032</ele>
        <time>2022-06-10T10:38:30.714Z</time>
      </trkpt>
      <trkpt lat="42.75276" lon="18.17458">
        <ele>309.835552</ele>
        <time>2022-06-10T10:38:33.745Z</time>
      </trkpt>
      <trkpt lat="42.75286" lon="18.17448">
        <ele>310.042882</ele>
        <time>2022-06-10T10:38:36.711Z</time>
      </trkpt>
      <trkpt lat="42.75296" lon="18.17438">
        <ele>310.248368</ele>
        <time>2022-06-10T10:38:39.716Z</time>
      </trkpt>
      <trkpt lat="42.75306" lon="18.17428">
        <ele>310.454994</ele>
        <time>2022-06-10T10:38:42.713Z</time>
      </trkpt>
      <trkpt lat="42.75316" lon="18.17419">
        <ele>310.651354</ele>
        <time>2022-06-10T10:38:45.704Z</time>
      </trkpt>
      <trkpt lat="42.75326" lon="18.17409">
        <ele>310.853943</ele>
        <time>2022-06-10T10:38:48.705Z</time>
      </trkpt>
      <trkpt lat="42.75335" lon="18.17399">
        <ele>311.051951</ele>
        <time>2022-06-10T10:38:51.702Z</time>
      </trkpt>
      <trkpt lat="42.75346" lon="18.17389">
        <ele>311.26063</ele>
        <time>2022-06-10T10:38:54.705Z</time>
      </trkpt>
      <trkpt lat="42.75356" lon="18.17379">
        <ele>311.476823</ele>
        <time>2022-06-10T10:38:57.704Z</time>
      </trkpt>
      <trkpt lat="42.75367" lon="18.17368">
        <ele>311.701928</ele>
        <time>2022-06-10T10:39:00.708Z</time>
      </trkpt>
      <trkpt lat="42.75374" lon="18.17361">
        <ele>311.850662</ele>
        <time>2022-06-10T10:39:02.704Z</time>
      </trkpt>
      <trkpt lat="42.75385" lon="18.17351">
        <ele>312.060001</ele>
        <time>2022-06-10T10:39:05.704Z</time>
      </trkpt>
      <trkpt lat="42.75395" lon="18.17342">
        <ele>312.249636</ele>
        <time>2022-06-10T10:39:08.701Z</time>
      </trkpt>
      <trkpt lat="42.75406" lon="18.17332">
        <ele>312.422393</ele>
        <time>2022-06-10T10:39:11.714Z</time>
      </trkpt>
      <trkpt lat="42.75417" lon="18.17322">
        <ele>312.602485</ele>
        <time>2022-06-10T10:39:14.708Z</time>
      </trkpt>
      <trkpt lat="42.75427" lon="18.17312">
        <ele>312.779209</ele>
        <time>2022-06-10T10:39:17.706Z</time>
      </trkpt>
      <trkpt lat="42.75438" lon="18.17303">
        <ele>312.952065</ele>
        <time>2022-06-10T10:39:20.704Z</time>
      </trkpt>
      <trkpt lat="42.75449" lon="18.17294">
        <ele>313.125404</ele>
        <time>2022-06-10T10:39:23.754Z</time>
      </trkpt>
      <trkpt lat="42.75458" lon="18.17284">
        <ele>313.290307</ele>
        <time>2022-06-10T10:39:26.715Z</time>
      </trkpt>
      <trkpt lat="42.75468" lon="18.17274">
        <ele>313.455211</ele>
        <time>2022-06-10T10:39:29.742Z</time>
      </trkpt>
      <trkpt lat="42.75478" lon="18.17264">
        <ele>313.625278</ele>
        <time>2022-06-10T10:39:32.706Z</time>
      </trkpt>
      <trkpt lat="42.75489" lon="18.17254">
        <ele>313.80043</ele>
        <time>2022-06-10T10:39:35.736Z</time>
      </trkpt>
      <trkpt lat="42.75498" lon="18.17244">
        <ele>313.965288</ele>
        <time>2022-06-10T10:39:38.743Z</time>
      </trkpt>
      <trkpt lat="42.75508" lon="18.17235">
        <ele>314.130871</ele>
        <time>2022-06-10T10:39:41.743Z</time>
      </trkpt>
      <trkpt lat="42.75518" lon="18.17224">
        <ele>314.299272</ele>
        <time>2022-06-10T10:39:44.724Z</time>
      </trkpt>
      <trkpt lat="42.75528" lon="18.17214">
        <ele>314.473154</ele>
        <time>2022-06-10T10:39:47.702Z</time>
      </trkpt>
      <trkpt lat="42.75538" lon="18.17204">
        <ele>314.641173</ele>
        <time>2022-06-10T10:39:50.699Z</time>
      </trkpt>
      <trkpt lat="42.75548" lon="18.17194">
        <ele>314.437873</ele>
        <time>2022-06-10T10:39:53.714Z</time>
      </trkpt>
      <trkpt lat="42.75558" lon="18.17184">
        <ele>314.23526</ele>
        <time>2022-06-10T10:39:56.718Z</time>
      </trkpt>
      <trkpt lat="42.75568" lon="18.17175">
        <ele>314.038136</ele>
        <time>2022-06-10T10:39:59.711Z</time>
      </trkpt>
      <trkpt lat="42.75578" lon="18.17165">
        <ele>313.835563</ele>
        <time>2022-06-10T10:40:02.724Z</time>
      </trkpt>
      <trkpt lat="42.75589" lon="18.17156">
        <ele>313.624103</ele>
        <time>2022-06-10T10:40:05.696Z</time>
      </trkpt>
      <trkpt lat="42.75599" lon="18.17145">
        <ele>313.412498</ele>
        <time>2022-06-10T10:40:08.707Z</time>
      </trkpt>
      <trkpt lat="42.75609" lon="18.17135">
        <ele>313.206715</ele>
        <time>2022-06-10T10:40:11.744Z</time>
      </trkpt>
      <trkpt lat="42.75619" lon="18.17125">
        <ele>312.997255</ele>
        <time>2022-06-10T10:40:14.700Z</time>
      </trkpt>
      <trkpt lat="42.75629" lon="18.17114">
        <ele>312.791068</ele>
        <time>2022-06-10T10:40:17.723Z</time>
      </trkpt>
      <trkpt lat="42.75639" lon="18.17104">
        <ele>312.588822</ele>
        <time>2022-06-10T10:40:20.704Z</time>
      </trkpt>
      <trkpt lat="42.75648" lon="18.17094">
        <ele>312.38788</ele>
        <time>2022-06-10T10:40:23.710Z</time>
      </trkpt>
      <trkpt lat="42.75658" lon="18.17084">
        <ele>312.184892</ele>
        <time>2022-06-10T10:40:26.722Z</time>
      </trkpt>
      <trkpt lat="42.75668" lon="18.17073">
        <ele>311.972413</ele>
        <time>2022-06-10T10:40:29.707Z</time>
      </trkpt>
      <trkpt lat="42.75678" lon="18.17063">
        <ele>311.769717</ele>
        <time>2022-06-10T10:40:32.718Z</time>
      </trkpt>
      <trkpt lat="42.75688" lon="18.17054">
        <ele>311.888357</ele>
        <time>2022-06-10T10:40:35.701Z</time>
      </trkpt>
      <trkpt lat="42.75698" lon="18.17045">
        <ele>312.297044</ele>
        <time>2022-06-10T10:40:38.696Z</time>
      </trkpt>
      <trkpt lat="42.75708" lon="18.17035">
        <ele>312.705518</ele>
        <time>2022-06-10T10:40:41.707Z</time>
      </trkpt>
      <trkpt lat="42.75719" lon="18.17027">
        <ele>313.105245</ele>
        <time>2022-06-10T10:40:44.758Z</time>
      </trkpt>
      <trkpt lat="42.7573" lon="18.17019">
        <ele>313.517147</ele>
        <time>2022-06-10T10:40:47.700Z</time>
      </trkpt>
      <trkpt lat="42.7574" lon="18.17013">
        <ele>313.910129</ele>
        <time>2022-06-10T10:40:50.711Z</time>
      </trkpt>
      <trkpt lat="42.75752" lon="18.17008">
        <ele>314.308196</ele>
        <time>2022-06-10T10:40:53.695Z</time>
      </trkpt>
      <trkpt lat="42.75763" lon="18.17003">
        <ele>314.709462</ele>
        <time>2022-06-10T10:40:56.704Z</time>
      </trkpt>
      <trkpt lat="42.75775" lon="18.16997">
        <ele>315.125786</ele>
        <time>2022-06-10T10:40:59.717Z</time>
      </trkpt>
      <trkpt lat="42.75786" lon="18.16992">
        <ele>315.53663</ele>
        <time>2022-06-10T10:41:02.711Z</time>
      </trkpt>
      <trkpt lat="42.75798" lon="18.16987">
        <ele>315.939431</ele>
        <time>2022-06-10T10:41:05.708Z</time>
      </trkpt>
      <trkpt lat="42.75809" lon="18.16982">
        <ele>316.346191</ele>
        <time>2022-06-10T10:41:08.725Z</time>
      </trkpt>
      <trkpt lat="42.75821" lon="18.16976">
        <ele>316.752952</ele>
        <time>2022-06-10T10:41:11.716Z</time>
      </trkpt>
      <trkpt lat="42.75831" lon="18.16971">
        <ele>317.134776</ele>
        <time>2022-06-10T10:41:14.703Z</time>
      </trkpt>
      <trkpt lat="42.75842" lon="18.16964">
        <ele>317.516719</ele>
        <time>2022-06-10T10:41:17.704Z</time>
      </trkpt>
      <trkpt lat="42.75852" lon="18.16956">
        <ele>317.684028</ele>
        <time>2022-06-10T10:41:20.704Z</time>
      </trkpt>
      <trkpt lat="42.75863" lon="18.16948">
        <ele>317.65026</ele>
        <time>2022-06-10T10:41:23.733Z</time>
      </trkpt>
      <trkpt lat="42.75873" lon="18.16938">
        <ele>317.617336</ele>
        <time>2022-06-10T10:41:26.699Z</time>
      </trkpt>
      <trkpt lat="42.75882" lon="18.16927">
        <ele>317.584522</ele>
        <time>2022-06-10T10:41:29.708Z</time>
      </trkpt>
      <trkpt lat="42.7589" lon="18.16915">
        <ele>317.551562</ele>
        <time>2022-06-10T10:41:32.721Z</time>
      </trkpt>
      <trkpt lat="42.75898" lon="18.16901">
        <ele>317.517294</ele>
        <time>2022-06-10T10:41:35.710Z</time>
      </trkpt>
      <trkpt lat="42.75905" lon="18.16887">
        <ele>317.483957</ele>
        <time>2022-06-10T10:41:38.707Z</time>
      </trkpt>
      <trkpt lat="42.75912" lon="18.16874">
        <ele>317.451886</ele>
        <time>2022-06-10T10:41:41.718Z</time>
      </trkpt>
      <trkpt lat="42.75918" lon="18.16859">
        <ele>317.418693</ele>
        <time>2022-06-10T10:41:44.702Z</time>
      </trkpt>
      <trkpt lat="42.75922" lon="18.16843">
        <ele>317.385805</ele>
        <time>2022-06-10T10:41:47.719Z</time>
      </trkpt>
      <trkpt lat="42.75926" lon="18.16828">
        <ele>317.353777</ele>
        <time>2022-06-10T10:41:50.715Z</time>
      </trkpt>
      <trkpt lat="42.75929" lon="18.16811">
        <ele>317.319873</ele>
        <time>2022-06-10T10:41:53.709Z</time>
      </trkpt>
      <trkpt lat="42.75931" lon="18.16794">
        <ele>317.286907</ele>
        <time>2022-06-10T10:41:56.692Z</time>
      </trkpt>
      <trkpt lat="42.75933" lon="18.16778">
        <ele>317.253918</ele>
        <time>2022-06-10T10:41:59.702Z</time>
      </trkpt>
      <trkpt lat="42.75934" lon="18.1676">
        <ele>317.219587</ele>
        <time>2022-06-10T10:42:02.697Z</time>
      </trkpt>
      <trkpt lat="42.75935" lon="18.16744">
        <ele>316.944289</ele>
        <time>2022-06-10T10:42:05.703Z</time>
      </trkpt>
      <trkpt lat="42.75936" lon="18.16726">
        <ele>316.649694</ele>
        <time>2022-06-10T10:42:08.734Z</time>
      </trkpt>
      <trkpt lat="42.75936" lon="18.1671">
        <ele>316.3702</ele>
        <time>2022-06-10T10:42:11.737Z</time>
      </trkpt>
      <trkpt lat="42.75937" lon="18.16693">
        <ele>316.08239</ele>
        <time>2022-06-10T10:42:14.717Z</time>
      </trkpt>
      <trkpt lat="42.75938" lon="18.16676">
        <ele>315.789628</ele>
        <time>2022-06-10T10:42:17.688Z</time>
      </trkpt>
      <trkpt lat="42.75938" lon="18.16658">
        <ele>315.488596</ele>
        <time>2022-06-10T10:42:20.709Z</time>
      </trkpt>
      <trkpt lat="42.7594" lon="18.16641">
        <ele>315.199714</ele>
        <time>2022-06-10T10:42:23.702Z</time>
      </trkpt>
      <trkpt lat="42.75942" lon="18.16625">
        <ele>314.921917</ele>
        <time>2022-06-10T10:42:26.708Z</time>
      </trkpt>
      <trkpt lat="42.75944" lon="18.16609">
        <ele>314.639066</ele>
        <time>2022-06-10T10:42:29.703Z</time>
      </trkpt>
      <trkpt lat="42.75945" lon="18.16592">
        <ele>314.355587</ele>
        <time>2022-06-10T10:42:32.703Z</time>
      </trkpt>
      <trkpt lat="42.75946" lon="18.16575">
        <ele>314.065341</ele>
        <time>2022-06-10T10:42:35.708Z</time>
      </trkpt>
      <trkpt lat="42.75949" lon="18.16559">
        <ele>313.782471</ele>
        <time>2022-06-10T10:42:38.715Z</time>
      </trkpt>
      <trkpt lat="42.75951" lon="18.16542">
        <ele>313.48855</ele>
        <time>2022-06-10T10:42:41.694Z</time>
      </trkpt>
      <trkpt lat="42.75954" lon="18.16525">
        <ele>313.189139</ele>
        <time>2022-06-10T10:42:44.701Z</time>
      </trkpt>
      <trkpt lat="42.75957" lon="18.16508">
        <ele>313.036886</ele>
        <time>2022-06-10T10:42:47.720Z</time>
      </trkpt>
      <trkpt lat="42.75959" lon="18.1649">
        <ele>313.002944</ele>
        <time>2022-06-10T10:42:50.709Z</time>
      </trkpt>
      <trkpt lat="42.75962" lon="18.16472">
        <ele>312.96853</ele>
        <time>2022-06-10T10:42:53.720Z</time>
      </trkpt>
      <trkpt lat="42.75964" lon="18.16456">
        <ele>312.936445</ele>
        <time>2022-06-10T10:42:56.783Z</time>
      </trkpt>
      <trkpt lat="42.75967" lon="18.1644">
        <ele>312.905241</ele>
        <time>2022-06-10T10:42:59.701Z</time>
      </trkpt>
      <trkpt lat="42.75971" lon="18.16424">
        <ele>312.874067</ele>
        <time>2022-06-10T10:43:02.712Z</time>
      </trkpt>
      <trkpt lat="42.75974" lon="18.16408">
        <ele>312.842486</ele>
        <time>2022-06-10T10:43:05.740Z</time>
      </trkpt>
      <trkpt lat="42.75977" lon="18.16391">
        <ele>312.809894</ele>
        <time>2022-06-10T10:43:08.710Z</time>
      </trkpt>
      <trkpt lat="42.75981" lon="18.16374">
        <ele>312.775666</ele>
        <time>2022-06-10T10:43:11.759Z</time>
      </trkpt>
      <trkpt lat="42.75986" lon="18.16357">
        <ele>312.741806</ele>
        <time>2022-06-10T10:43:14.710Z</time>
      </trkpt>
      <trkpt lat="42.7599" lon="18.16341">
        <ele>312.708746</ele>
        <time>2022-06-10T10:43:17.741Z</time>
      </trkpt>
      <trkpt lat="42.75994" lon="18.16324">
        <ele>312.675417</ele>
        <time>2022-06-10T10:43:20.738Z</time>
      </trkpt>
      <trkpt lat="42.75998" lon="18.16308">
        <ele>312.642973</ele>
        <time>2022-06-10T10:43:23.730Z</time>
      </trkpt>
      <trkpt lat="42.76002" lon="18.16291">
        <ele>312.61009</ele>
        <time>2022-06-10T10:43:26.712Z</time>
      </trkpt>
      <trkpt lat="42.76005" lon="18.16274">
        <ele>312.499662</ele>
        <time>2022-06-10T10:43:29.738Z</time>
      </trkpt>
      <trkpt lat="42.76008" lon="18.16257">
        <ele>312.297751</ele>
        <time>2022-06-10T10:43:32.716Z</time>
      </trkpt>
      <trkpt lat="42.76011" lon="18.1624">
        <ele>312.099922</ele>
        <time>2022-06-10T10:43:35.726Z</time>
      </trkpt>
      <trkpt lat="42.76014" lon="18.16223">
        <ele>311.899344</ele>
        <time>2022-06-10T10:43:38.699Z</time>
      </trkpt>
      <trkpt lat="42.76016" lon="18.16206">
        <ele>311.697362</ele>
        <time>2022-06-10T10:43:41.712Z</time>
      </trkpt>
      <trkpt lat="42.76018" lon="18.16188">
        <ele>311.488554</ele>
        <time>2022-06-10T10:43:44.724Z</time>
      </trkpt>
      <trkpt lat="42.76019" lon="18.16171">
        <ele>311.283914</ele>
        <time>2022-06-10T10:43:47.704Z</time>
      </trkpt>
      <trkpt lat="42.7602" lon="18.16153">
        <ele>311.081159</ele>
        <time>2022-06-10T10:43:50.699Z</time>
      </trkpt>
      <trkpt lat="42.76019" lon="18.16136">
        <ele>310.884482</ele>
        <time>2022-06-10T10:43:53.708Z</time>
      </trkpt>
      <trkpt lat="42.76019" lon="18.16119">
        <ele>310.684185</ele>
        <time>2022-06-10T10:43:56.718Z</time>
      </trkpt>
      <trkpt lat="42.76018" lon="18.16101">
        <ele>310.479198</ele>
        <time>2022-06-10T10:43:59.738Z</time>
      </trkpt>
      <trkpt lat="42.76018" lon="18.16084">
        <ele>310.280157</ele>
        <time>2022-06-10T10:44:02.695Z</time>
      </trkpt>
      <trkpt lat="42.76017" lon="18.16066">
        <ele>310.07235</ele>
        <time>2022-06-10T10:44:05.711Z</time>
      </trkpt>
      <trkpt lat="42.76015" lon="18.16049">
        <ele>309.869479</ele>
        <time>2022-06-10T10:44:08.730Z</time>
      </trkpt>
      <trkpt lat="42.76014" lon="18.16031">
        <ele>309.766422</ele>
        <time>2022-06-10T10:44:11.708Z</time>
      </trkpt>
      <trkpt lat="42.76012" lon="18.16014">
        <ele>309.787467</ele>
        <time>2022-06-10T10:44:14.730Z</time>
      </trkpt>
      <trkpt lat="42.76011" lon="18.15997">
        <ele>309.808794</ele>
        <time>2022-06-10T10:44:17.703Z</time>
      </trkpt>
      <trkpt lat="42.76009" lon="18.1598">
        <ele>309.830291</ele>
        <time>2022-06-10T10:44:20.731Z</time>
      </trkpt>
      <trkpt lat="42.76006" lon="18.15963">
        <ele>309.851848</ele>
        <time>2022-06-10T10:44:23.733Z</time>
      </trkpt>
      <trkpt lat="42.76004" lon="18.15946">
        <ele>309.872048</ele>
        <time>2022-06-10T10:44:26.719Z</time>
      </trkpt>
      <trkpt lat="42.76003" lon="18.15931">
        <ele>309.891443</ele>
        <time>2022-06-10T10:44:29.699Z</time>
      </trkpt>
      <trkpt lat="42.76002" lon="18.15916">
        <ele>309.910249</ele>
        <time>2022-06-10T10:44:32.714Z</time>
      </trkpt>
      <trkpt lat="42.76" lon="18.159">
        <ele>309.929262</ele>
        <time>2022-06-10T10:44:35.706Z</time>
      </trkpt>
      <trkpt lat="42.75998" lon="18.15886">
        <ele>309.947762</ele>
        <time>2022-06-10T10:44:38.707Z</time>
      </trkpt>
      <trkpt lat="42.75996" lon="18.15871">
        <ele>309.966113</ele>
        <time>2022-06-10T10:44:41.741Z</time>
      </trkpt>
      <trkpt lat="42.75994" lon="18.15857">
        <ele>309.983675</ele>
        <time>2022-06-10T10:44:44.703Z</time>
      </trkpt>
      <trkpt lat="42.75992" lon="18.15843">
        <ele>310.000683</ele>
        <time>2022-06-10T10:44:47.732Z</time>
      </trkpt>
      <trkpt lat="42.75991" lon="18.15831">
        <ele>310.016131</ele>
        <time>2022-06-10T10:44:50.699Z</time>
      </trkpt>
      <trkpt lat="42.7599" lon="18.15817">
        <ele>310.032715</ele>
        <time>2022-06-10T10:44:53.712Z</time>
      </trkpt>
      <trkpt lat="42.75988" lon="18.15804">
        <ele>310.04999</ele>
        <time>2022-06-10T10:44:56.716Z</time>
      </trkpt>
      <trkpt lat="42.75986" lon="18.15789">
        <ele>310.120641</ele>
        <time>2022-06-10T10:44:59.725Z</time>
      </trkpt>
      <trkpt lat="42.75985" lon="18.15774">
        <ele>310.241955</ele>
        <time>2022-06-10T10:45:02.710Z</time>
      </trkpt>
      <trkpt lat="42.75983" lon="18.15759">
        <ele>310.364863</ele>
        <time>2022-06-10T10:45:05.748Z</time>
      </trkpt>
      <trkpt lat="42.75981" lon="18.15744">
        <ele>310.490258</ele>
        <time>2022-06-10T10:45:08.708Z</time>
      </trkpt>
      <trkpt lat="42.75979" lon="18.15727">
        <ele>310.628343</ele>
        <time>2022-06-10T10:45:11.713Z</time>
      </trkpt>
      <trkpt lat="42.75977" lon="18.1571">
        <ele>310.765454</ele>
        <time>2022-06-10T10:45:14.713Z</time>
      </trkpt>
      <trkpt lat="42.75975" lon="18.15693">
        <ele>310.903361</ele>
        <time>2022-06-10T10:45:17.716Z</time>
      </trkpt>
      <trkpt lat="42.75973" lon="18.15676">
        <ele>311.042858</ele>
        <time>2022-06-10T10:45:20.756Z</time>
      </trkpt>
      <trkpt lat="42.75971" lon="18.15659">
        <ele>311.186507</ele>
        <time>2022-06-10T10:45:23.721Z</time>
      </trkpt>
      <trkpt lat="42.75969" lon="18.15642">
        <ele>311.322848</ele>
        <time>2022-06-10T10:45:26.742Z</time>
      </trkpt>
      <trkpt lat="42.75968" lon="18.15625">
        <ele>311.460242</ele>
        <time>2022-06-10T10:45:29.703Z</time>
      </trkpt>
      <trkpt lat="42.75967" lon="18.15609">
        <ele>311.589704</ele>
        <time>2022-06-10T10:45:32.742Z</time>
      </trkpt>
      <trkpt lat="42.75967" lon="18.15593">
        <ele>311.716997</ele>
        <time>2022-06-10T10:45:35.716Z</time>
      </trkpt>
      <trkpt lat="42.75968" lon="18.15581">
        <ele>311.816385</ele>
        <time>2022-06-10T10:45:37.706Z</time>
      </trkpt>
      <trkpt lat="42.75968" lon="18.15563">
        <ele>311.959936</ele>
        <time>2022-06-10T10:45:40.719Z</time>
      </trkpt>
      <trkpt lat="42.75968" lon="18.15546">
        <ele>312.037886</ele>
        <time>2022-06-10T10:45:43.698Z</time>
      </trkpt>
      <trkpt lat="42.75969" lon="18.15528">
        <ele>312.050491</ele>
        <time>2022-06-10T10:45:46.740Z</time>
      </trkpt>
      <trkpt lat="42.7597" lon="18.1551">
        <ele>312.063082</ele>
        <time>2022-06-10T10:45:49.728Z</time>
      </trkpt>
      <trkpt lat="42.7597" lon="18.15493">
        <ele>312.07552</ele>
        <time>2022-06-10T10:45:52.709Z</time>
      </trkpt>
      <trkpt lat="42.75971" lon="18.15481">
        <ele>312.084199</ele>
        <time>2022-06-10T10:45:54.716Z</time>
      </trkpt>
      <trkpt lat="42.75971" lon="18.15468">
        <ele>312.093086</ele>
        <time>2022-06-10T10:45:56.704Z</time>
      </trkpt>
      <trkpt lat="42.75971" lon="18.15456">
        <ele>312.101973</ele>
        <time>2022-06-10T10:45:58.724Z</time>
      </trkpt>
      <trkpt lat="42.75971" lon="18.15438">
        <ele>312.114696</ele>
        <time>2022-06-10T10:46:01.721Z</time>
      </trkpt>
      <trkpt lat="42.75971" lon="18.15425">
        <ele>312.123511</ele>
        <time>2022-06-10T10:46:03.728Z</time>
      </trkpt>
      <trkpt lat="42.75972" lon="18.15408">
        <ele>312.13575</ele>
        <time>2022-06-10T10:46:06.743Z</time>
      </trkpt>
      <trkpt lat="42.75973" lon="18.15391">
        <ele>312.147865</ele>
        <time>2022-06-10T10:46:09.707Z</time>
      </trkpt>
      <trkpt lat="42.75974" lon="18.15373">
        <ele>312.160783</ele>
        <time>2022-06-10T10:46:12.702Z</time>
      </trkpt>
      <trkpt lat="42.75975" lon="18.15356">
        <ele>312.172885</ele>
        <time>2022-06-10T10:46:15.704Z</time>
      </trkpt>
      <trkpt lat="42.75975" lon="18.1534">
        <ele>312.184349</ele>
        <time>2022-06-10T10:46:18.714Z</time>
      </trkpt>
      <trkpt lat="42.75976" lon="18.15323">
        <ele>312.196528</ele>
        <time>2022-06-10T10:46:21.712Z</time>
      </trkpt>
      <trkpt lat="42.75977" lon="18.15308">
        <ele>312.196949</ele>
        <time>2022-06-10T10:46:24.708Z</time>
      </trkpt>
      <trkpt lat="42.75979" lon="18.15291">
        <ele>312.118327</ele>
        <time>2022-06-10T10:46:27.712Z</time>
      </trkpt>
      <trkpt lat="42.7598" lon="18.15274">
        <ele>312.035839</ele>
        <time>2022-06-10T10:46:30.703Z</time>
      </trkpt>
      <trkpt lat="42.75981" lon="18.15256">
        <ele>311.951696</ele>
        <time>2022-06-10T10:46:33.707Z</time>
      </trkpt>
      <trkpt lat="42.75981" lon="18.15239">
        <ele>311.869509</ele>
        <time>2022-06-10T10:46:36.738Z</time>
      </trkpt>
      <trkpt lat="42.75982" lon="18.15222">
        <ele>311.78821</ele>
        <time>2022-06-10T10:46:39.708Z</time>
      </trkpt>
      <trkpt lat="42.75983" lon="18.15204">
        <ele>311.703675</ele>
        <time>2022-06-10T10:46:42.730Z</time>
      </trkpt>
      <trkpt lat="42.75983" lon="18.15191">
        <ele>311.643859</ele>
        <time>2022-06-10T10:46:44.699Z</time>
      </trkpt>
      <trkpt lat="42.75983" lon="18.15179">
        <ele>311.584466</ele>
        <time>2022-06-10T10:46:46.726Z</time>
      </trkpt>
      <trkpt lat="42.75984" lon="18.15161">
        <ele>311.500323</ele>
        <time>2022-06-10T10:46:49.708Z</time>
      </trkpt>
      <trkpt lat="42.75984" lon="18.15144">
        <ele>311.418159</ele>
        <time>2022-06-10T10:46:52.705Z</time>
      </trkpt>
      <trkpt lat="42.75985" lon="18.15126">
        <ele>311.334997</ele>
        <time>2022-06-10T10:46:55.697Z</time>
      </trkpt>
      <trkpt lat="42.75986" lon="18.15109">
        <ele>311.253247</ele>
        <time>2022-06-10T10:46:58.705Z</time>
      </trkpt>
      <trkpt lat="42.75988" lon="18.15092">
        <ele>311.172112</ele>
        <time>2022-06-10T10:47:01.716Z</time>
      </trkpt>
      <trkpt lat="42.75989" lon="18.15075">
        <ele>311.091379</ele>
        <time>2022-06-10T10:47:04.714Z</time>
      </trkpt>
      <trkpt lat="42.7599" lon="18.15059">
        <ele>311.216257</ele>
        <time>2022-06-10T10:47:07.701Z</time>
      </trkpt>
      <trkpt lat="42.7599" lon="18.15042">
        <ele>311.665293</ele>
        <time>2022-06-10T10:47:10.706Z</time>
      </trkpt>
      <trkpt lat="42.7599" lon="18.15026">
        <ele>312.11167</ele>
        <time>2022-06-10T10:47:13.731Z</time>
      </trkpt>
      <trkpt lat="42.75988" lon="18.15009">
        <ele>312.569974</ele>
        <time>2022-06-10T10:47:16.711Z</time>
      </trkpt>
      <trkpt lat="42.75984" lon="18.14993">
        <ele>313.00974</ele>
        <time>2022-06-10T10:47:19.721Z</time>
      </trkpt>
      <trkpt lat="42.75981" lon="18.14977">
        <ele>313.47398</ele>
        <time>2022-06-10T10:47:22.713Z</time>
      </trkpt>
      <trkpt lat="42.75977" lon="18.14961">
        <ele>313.934914</ele>
        <time>2022-06-10T10:47:25.706Z</time>
      </trkpt>
      <trkpt lat="42.75972" lon="18.14945">
        <ele>314.409216</ele>
        <time>2022-06-10T10:47:28.697Z</time>
      </trkpt>
      <trkpt lat="42.75966" lon="18.1493">
        <ele>314.861795</ele>
        <time>2022-06-10T10:47:31.705Z</time>
      </trkpt>
      <trkpt lat="42.75959" lon="18.14915">
        <ele>315.334055</ele>
        <time>2022-06-10T10:47:34.717Z</time>
      </trkpt>
      <trkpt lat="42.75952" lon="18.14901">
        <ele>315.796535</ele>
        <time>2022-06-10T10:47:37.718Z</time>
      </trkpt>
      <trkpt lat="42.75944" lon="18.14888">
        <ele>316.252415</ele>
        <time>2022-06-10T10:47:40.713Z</time>
      </trkpt>
      <trkpt lat="42.75936" lon="18.14876">
        <ele>316.713816</ele>
        <time>2022-06-10T10:47:43.712Z</time>
      </trkpt>
      <trkpt lat="42.75926" lon="18.14866">
        <ele>317.148681</ele>
        <time>2022-06-10T10:47:46.744Z</time>
      </trkpt>
      <trkpt lat="42.75917" lon="18.14857">
        <ele>317.543037</ele>
        <time>2022-06-10T10:47:49.703Z</time>
      </trkpt>
      <trkpt lat="42.75908" lon="18.14847">
        <ele>317.60927</ele>
        <time>2022-06-10T10:47:52.687Z</time>
      </trkpt>
      <trkpt lat="42.75898" lon="18.14836">
        <ele>317.519579</ele>
        <time>2022-06-10T10:47:55.700Z</time>
      </trkpt>
      <trkpt lat="42.75889" lon="18.14824">
        <ele>317.428664</ele>
        <time>2022-06-10T10:47:58.719Z</time>
      </trkpt>
      <trkpt lat="42.75882" lon="18.14814">
        <ele>317.357017</ele>
        <time>2022-06-10T10:48:00.711Z</time>
      </trkpt>
      <trkpt lat="42.75875" lon="18.14804">
        <ele>317.286903</ele>
        <time>2022-06-10T10:48:02.692Z</time>
      </trkpt>
      <trkpt lat="42.75869" lon="18.14794">
        <ele>317.219934</ele>
        <time>2022-06-10T10:48:04.712Z</time>
      </trkpt>
      <trkpt lat="42.75863" lon="18.14784">
        <ele>317.152515</ele>
        <time>2022-06-10T10:48:06.718Z</time>
      </trkpt>
      <trkpt lat="42.75858" lon="18.14772">
        <ele>317.080412</ele>
        <time>2022-06-10T10:48:08.715Z</time>
      </trkpt>
      <trkpt lat="42.75853" lon="18.14761">
        <ele>317.013065</ele>
        <time>2022-06-10T10:48:10.717Z</time>
      </trkpt>
      <trkpt lat="42.75849" lon="18.1475">
        <ele>316.948168</ele>
        <time>2022-06-10T10:48:12.714Z</time>
      </trkpt>
      <trkpt lat="42.75844" lon="18.14733">
        <ele>316.855809</ele>
        <time>2022-06-10T10:48:15.740Z</time>
      </trkpt>
      <trkpt lat="42.7584" lon="18.14716">
        <ele>316.76427</ele>
        <time>2022-06-10T10:48:18.693Z</time>
      </trkpt>
      <trkpt lat="42.75836" lon="18.147">
        <ele>316.673212</ele>
        <time>2022-06-10T10:48:21.704Z</time>
      </trkpt>
      <trkpt lat="42.75834" lon="18.14683">
        <ele>316.58483</ele>
        <time>2022-06-10T10:48:24.724Z</time>
      </trkpt>
      <trkpt lat="42.75832" lon="18.14666">
        <ele>316.496121</ele>
        <time>2022-06-10T10:48:27.739Z</time>
      </trkpt>
      <trkpt lat="42.75832" lon="18.14648">
        <ele>316.404332</ele>
        <time>2022-06-10T10:48:30.708Z</time>
      </trkpt>
      <trkpt lat="42.75832" lon="18.14631">
        <ele>315.991016</ele>
        <time>2022-06-10T10:48:33.717Z</time>
      </trkpt>
      <trkpt lat="42.75833" lon="18.14613">
        <ele>315.565956</ele>
        <time>2022-06-10T10:48:36.703Z</time>
      </trkpt>
      <trkpt lat="42.75835" lon="18.14596">
        <ele>315.147497</ele>
        <time>2022-06-10T10:48:39.713Z</time>
      </trkpt>
      <trkpt lat="42.75838" lon="18.14581">
        <ele>314.754432</ele>
        <time>2022-06-10T10:48:42.687Z</time>
      </trkpt>
      <trkpt lat="42.75842" lon="18.14565">
        <ele>314.332733</ele>
        <time>2022-06-10T10:48:45.703Z</time>
      </trkpt>
      <trkpt lat="42.75847" lon="18.14549">
        <ele>313.917587</ele>
        <time>2022-06-10T10:48:48.699Z</time>
      </trkpt>
      <trkpt lat="42.75854" lon="18.14534">
        <ele>313.490485</ele>
        <time>2022-06-10T10:48:51.713Z</time>
      </trkpt>
      <trkpt lat="42.75861" lon="18.14519">
        <ele>313.041568</ele>
        <time>2022-06-10T10:48:54.716Z</time>
      </trkpt>
      <trkpt lat="42.75868" lon="18.14503">
        <ele>312.601732</ele>
        <time>2022-06-10T10:48:57.704Z</time>
      </trkpt>
      <trkpt lat="42.75874" lon="18.14489">
        <ele>312.190275</ele>
        <time>2022-06-10T10:49:00.746Z</time>
      </trkpt>
      <trkpt lat="42.75879" lon="18.14478">
        <ele>311.886975</ele>
        <time>2022-06-10T10:49:02.715Z</time>
      </trkpt>
      <trkpt lat="42.75886" lon="18.14466">
        <ele>311.499447</ele>
        <time>2022-06-10T10:49:05.705Z</time>
      </trkpt>
      <trkpt lat="42.75892" lon="18.14451">
        <ele>311.082739</ele>
        <time>2022-06-10T10:49:08.718Z</time>
      </trkpt>
      <trkpt lat="42.75897" lon="18.14437">
        <ele>310.69578</ele>
        <time>2022-06-10T10:49:11.704Z</time>
      </trkpt>
      <trkpt lat="42.75902" lon="18.14422">
        <ele>310.292697</ele>
        <time>2022-06-10T10:49:14.712Z</time>
      </trkpt>
      <trkpt lat="42.75908" lon="18.14408">
        <ele>309.909568</ele>
        <time>2022-06-10T10:49:17.706Z</time>
      </trkpt>
      <trkpt lat="42.75913" lon="18.14392">
        <ele>309.497429</ele>
        <time>2022-06-10T10:49:20.695Z</time>
      </trkpt>
      <trkpt lat="42.75919" lon="18.14377">
        <ele>309.098341</ele>
        <time>2022-06-10T10:49:23.713Z</time>
      </trkpt>
      <trkpt lat="42.75925" lon="18.14363">
        <ele>308.706303</ele>
        <time>2022-06-10T10:49:26.699Z</time>
      </trkpt>
      <trkpt lat="42.75931" lon="18.14348">
        <ele>308.313786</ele>
        <time>2022-06-10T10:49:29.756Z</time>
      </trkpt>
      <trkpt lat="42.75937" lon="18.14334">
        <ele>307.923813</ele>
        <time>2022-06-10T10:49:32.692Z</time>
      </trkpt>
      <trkpt lat="42.75943" lon="18.1432">
        <ele>307.52556</ele>
        <time>2022-06-10T10:49:35.717Z</time>
      </trkpt>
      <trkpt lat="42.75947" lon="18.14309">
        <ele>307.230442</ele>
        <time>2022-06-10T10:49:37.692Z</time>
      </trkpt>
      <trkpt lat="42.75953" lon="18.14294">
        <ele>306.81955</ele>
        <time>2022-06-10T10:49:40.750Z</time>
      </trkpt>
      <trkpt lat="42.7596" lon="18.1428">
        <ele>306.439048</ele>
        <time>2022-06-10T10:49:43.721Z</time>
      </trkpt>
      <trkpt lat="42.75965" lon="18.14265">
        <ele>306.02786</ele>
        <time>2022-06-10T10:49:46.692Z</time>
      </trkpt>
      <trkpt lat="42.75972" lon="18.1425">
        <ele>305.622329</ele>
        <time>2022-06-10T10:49:49.705Z</time>
      </trkpt>
      <trkpt lat="42.75979" lon="18.14236">
        <ele>305.222774</ele>
        <time>2022-06-10T10:49:52.713Z</time>
      </trkpt>
      <trkpt lat="42.75986" lon="18.14228">
        <ele>304.924996</ele>
        <time>2022-06-10T10:49:55.710Z</time>
      </trkpt>
      <trkpt lat="42.75995" lon="18.14199">
        <ele>304.447935</ele>
        <time>2022-06-10T10:53:30.723Z</time>
      </trkpt>
      <trkpt lat="42.76" lon="18.14186">
        <ele>304.344014</ele>
        <time>2022-06-10T10:53:36.707Z</time>
      </trkpt>
      <trkpt lat="42.76005" lon="18.14172">
        <ele>304.235052</ele>
        <time>2022-06-10T10:53:40.704Z</time>
      </trkpt>
      <trkpt lat="42.7601" lon="18.14159">
        <ele>304.137947</ele>
        <time>2022-06-10T10:53:43.705Z</time>
      </trkpt>
      <trkpt lat="42.76016" lon="18.14148">
        <ele>304.04167</ele>
        <time>2022-06-10T10:53:46.698Z</time>
      </trkpt>
      <trkpt lat="42.76021" lon="18.14134">
        <ele>303.936935</ele>
        <time>2022-06-10T10:53:49.686Z</time>
      </trkpt>
      <trkpt lat="42.76027" lon="18.14121">
        <ele>303.829704</ele>
        <time>2022-06-10T10:53:52.702Z</time>
      </trkpt>
      <trkpt lat="42.76033" lon="18.14109">
        <ele>303.729986</ele>
        <time>2022-06-10T10:53:55.732Z</time>
      </trkpt>
      <trkpt lat="42.76038" lon="18.14097">
        <ele>303.630498</ele>
        <time>2022-06-10T10:53:58.710Z</time>
      </trkpt>
      <trkpt lat="42.76044" lon="18.14083">
        <ele>303.524935</ele>
        <time>2022-06-10T10:54:01.700Z</time>
      </trkpt>
      <trkpt lat="42.76049" lon="18.1407">
        <ele>303.422004</ele>
        <time>2022-06-10T10:54:04.716Z</time>
      </trkpt>
      <trkpt lat="42.76055" lon="18.14056">
        <ele>303.30972</ele>
        <time>2022-06-10T10:54:07.698Z</time>
      </trkpt>
      <trkpt lat="42.76061" lon="18.14041">
        <ele>303.190284</ele>
        <time>2022-06-10T10:54:10.750Z</time>
      </trkpt>
      <trkpt lat="42.76066" lon="18.14029">
        <ele>303.098753</ele>
        <time>2022-06-10T10:54:12.707Z</time>
      </trkpt>
      <trkpt lat="42.76071" lon="18.14017">
        <ele>302.998782</ele>
        <time>2022-06-10T10:54:14.706Z</time>
      </trkpt>
      <trkpt lat="42.76077" lon="18.14005">
        <ele>302.903326</ele>
        <time>2022-06-10T10:54:16.737Z</time>
      </trkpt>
      <trkpt lat="42.76084" lon="18.1399">
        <ele>303.424425</ele>
        <time>2022-06-10T10:54:19.708Z</time>
      </trkpt>
      <trkpt lat="42.7609" lon="18.13977">
        <ele>304.07298</ele>
        <time>2022-06-10T10:54:22.711Z</time>
      </trkpt>
      <trkpt lat="42.76095" lon="18.13964">
        <ele>304.740808</ele>
        <time>2022-06-10T10:54:25.719Z</time>
      </trkpt>
      <trkpt lat="42.761" lon="18.1395">
        <ele>305.410854</ele>
        <time>2022-06-10T10:54:28.711Z</time>
      </trkpt>
      <trkpt lat="42.76106" lon="18.13936">
        <ele>306.084231</ele>
        <time>2022-06-10T10:54:31.715Z</time>
      </trkpt>
      <trkpt lat="42.76112" lon="18.13921">
        <ele>306.80446</ele>
        <time>2022-06-10T10:54:34.712Z</time>
      </trkpt>
      <trkpt lat="42.76118" lon="18.13907">
        <ele>307.510755</ele>
        <time>2022-06-10T10:54:37.707Z</time>
      </trkpt>
      <trkpt lat="42.76124" lon="18.13892">
        <ele>308.233283</ele>
        <time>2022-06-10T10:54:40.719Z</time>
      </trkpt>
      <trkpt lat="42.76132" lon="18.13878">
        <ele>308.98374</ele>
        <time>2022-06-10T10:54:43.715Z</time>
      </trkpt>
      <trkpt lat="42.76139" lon="18.13866">
        <ele>309.650275</ele>
        <time>2022-06-10T10:54:46.716Z</time>
      </trkpt>
      <trkpt lat="42.76148" lon="18.13856">
        <ele>310.322411</ele>
        <time>2022-06-10T10:54:49.750Z</time>
      </trkpt>
      <trkpt lat="42.76157" lon="18.13846">
        <ele>311.00839</ele>
        <time>2022-06-10T10:54:52.735Z</time>
      </trkpt>
      <trkpt lat="42.76168" lon="18.13837">
        <ele>311.737224</ele>
        <time>2022-06-10T10:54:55.711Z</time>
      </trkpt>
      <trkpt lat="42.7618" lon="18.13829">
        <ele>312.482609</ele>
        <time>2022-06-10T10:54:58.720Z</time>
      </trkpt>
      <trkpt lat="42.76191" lon="18.13821">
        <ele>313.257079</ele>
        <time>2022-06-10T10:55:01.711Z</time>
      </trkpt>
      <trkpt lat="42.76199" lon="18.13815">
        <ele>313.598332</ele>
        <time>2022-06-10T10:55:03.715Z</time>
      </trkpt>
      <trkpt lat="42.76211" lon="18.13806">
        <ele>314.044445</ele>
        <time>2022-06-10T10:55:06.705Z</time>
      </trkpt>
      <trkpt lat="42.76219" lon="18.138">
        <ele>314.351181</ele>
        <time>2022-06-10T10:55:08.702Z</time>
      </trkpt>
      <trkpt lat="42.7623" lon="18.13792">
        <ele>314.781297</ele>
        <time>2022-06-10T10:55:11.736Z</time>
      </trkpt>
      <trkpt lat="42.76241" lon="18.13783">
        <ele>315.222565</ele>
        <time>2022-06-10T10:55:14.728Z</time>
      </trkpt>
      <trkpt lat="42.76251" lon="18.13775">
        <ele>315.626765</ele>
        <time>2022-06-10T10:55:17.694Z</time>
      </trkpt>
      <trkpt lat="42.76261" lon="18.13766">
        <ele>316.030614</ele>
        <time>2022-06-10T10:55:20.710Z</time>
      </trkpt>
      <trkpt lat="42.76269" lon="18.13754">
        <ele>316.43548</ele>
        <time>2022-06-10T10:55:23.706Z</time>
      </trkpt>
      <trkpt lat="42.76276" lon="18.13741">
        <ele>316.836466</ele>
        <time>2022-06-10T10:55:26.714Z</time>
      </trkpt>
      <trkpt lat="42.76282" lon="18.13727">
        <ele>317.242993</ele>
        <time>2022-06-10T10:55:29.715Z</time>
      </trkpt>
      <trkpt lat="42.76289" lon="18.13713">
        <ele>317.657697</ele>
        <time>2022-06-10T10:55:32.709Z</time>
      </trkpt>
      <trkpt lat="42.76295" lon="18.13698">
        <ele>318.093502</ele>
        <time>2022-06-10T10:55:35.709Z</time>
      </trkpt>
      <trkpt lat="42.763" lon="18.13681">
        <ele>318.545592</ele>
        <time>2022-06-10T10:55:38.740Z</time>
      </trkpt>
      <trkpt lat="42.76304" lon="18.13664">
        <ele>318.988785</ele>
        <time>2022-06-10T10:55:41.711Z</time>
      </trkpt>
      <trkpt lat="42.76307" lon="18.13647">
        <ele>319.429891</ele>
        <time>2022-06-10T10:55:44.738Z</time>
      </trkpt>
      <trkpt lat="42.76309" lon="18.13631">
        <ele>319.145283</ele>
        <time>2022-06-10T10:55:47.707Z</time>
      </trkpt>
      <trkpt lat="42.7631" lon="18.13614">
        <ele>318.792041</ele>
        <time>2022-06-10T10:55:50.712Z</time>
      </trkpt>
      <trkpt lat="42.7631" lon="18.13596">
        <ele>318.438071</ele>
        <time>2022-06-10T10:55:53.738Z</time>
      </trkpt>
      <trkpt lat="42.7631" lon="18.13579">
        <ele>318.088137</ele>
        <time>2022-06-10T10:55:56.732Z</time>
      </trkpt>
      <trkpt lat="42.76308" lon="18.13564">
        <ele>317.770918</ele>
        <time>2022-06-10T10:55:59.695Z</time>
      </trkpt>
      <trkpt lat="42.76304" lon="18.13548">
        <ele>317.446861</ele>
        <time>2022-06-10T10:56:02.718Z</time>
      </trkpt>
      <trkpt lat="42.76301" lon="18.13532">
        <ele>317.095051</ele>
        <time>2022-06-10T10:56:05.712Z</time>
      </trkpt>
      <trkpt lat="42.76299" lon="18.13515">
        <ele>316.753745</ele>
        <time>2022-06-10T10:56:08.710Z</time>
      </trkpt>
      <trkpt lat="42.76296" lon="18.13498">
        <ele>316.389975</ele>
        <time>2022-06-10T10:56:11.705Z</time>
      </trkpt>
      <trkpt lat="42.76294" lon="18.13481">
        <ele>316.039305</ele>
        <time>2022-06-10T10:56:14.717Z</time>
      </trkpt>
      <trkpt lat="42.76293" lon="18.13463">
        <ele>315.677159</ele>
        <time>2022-06-10T10:56:17.713Z</time>
      </trkpt>
      <trkpt lat="42.76292" lon="18.13451">
        <ele>315.423939</ele>
        <time>2022-06-10T10:56:19.708Z</time>
      </trkpt>
      <trkpt lat="42.76293" lon="18.13433">
        <ele>315.073347</ele>
        <time>2022-06-10T10:56:22.704Z</time>
      </trkpt>
      <trkpt lat="42.76294" lon="18.13415">
        <ele>314.699833</ele>
        <time>2022-06-10T10:56:25.721Z</time>
      </trkpt>
      <trkpt lat="42.76295" lon="18.13398">
        <ele>314.269681</ele>
        <time>2022-06-10T10:56:28.699Z</time>
      </trkpt>
      <trkpt lat="42.76297" lon="18.13381">
        <ele>313.753164</ele>
        <time>2022-06-10T10:56:31.717Z</time>
      </trkpt>
      <trkpt lat="42.76299" lon="18.13365">
        <ele>313.253662</ele>
        <time>2022-06-10T10:56:34.691Z</time>
      </trkpt>
      <trkpt lat="42.76301" lon="18.13348">
        <ele>312.718265</ele>
        <time>2022-06-10T10:56:37.696Z</time>
      </trkpt>
      <trkpt lat="42.76301" lon="18.1333">
        <ele>312.173037</ele>
        <time>2022-06-10T10:56:40.706Z</time>
      </trkpt>
      <trkpt lat="42.76302" lon="18.13312">
        <ele>311.61067</ele>
        <time>2022-06-10T10:56:43.714Z</time>
      </trkpt>
      <trkpt lat="42.76304" lon="18.13295">
        <ele>311.064614</ele>
        <time>2022-06-10T10:56:46.731Z</time>
      </trkpt>
      <trkpt lat="42.76305" lon="18.13283">
        <ele>310.680873</ele>
        <time>2022-06-10T10:56:48.704Z</time>
      </trkpt>
      <trkpt lat="42.76308" lon="18.13265">
        <ele>310.128018</ele>
        <time>2022-06-10T10:56:51.693Z</time>
      </trkpt>
      <trkpt lat="42.76311" lon="18.13248">
        <ele>309.576616</ele>
        <time>2022-06-10T10:56:54.724Z</time>
      </trkpt>
      <trkpt lat="42.76315" lon="18.13231">
        <ele>309.038577</ele>
        <time>2022-06-10T10:56:57.702Z</time>
      </trkpt>
      <trkpt lat="42.7632" lon="18.13215">
        <ele>308.510714</ele>
        <time>2022-06-10T10:57:00.703Z</time>
      </trkpt>
      <trkpt lat="42.76325" lon="18.13201">
        <ele>308.001673</ele>
        <time>2022-06-10T10:57:03.764Z</time>
      </trkpt>
      <trkpt lat="42.7633" lon="18.13185">
        <ele>307.466766</ele>
        <time>2022-06-10T10:57:06.711Z</time>
      </trkpt>
      <trkpt lat="42.76336" lon="18.1317">
        <ele>306.936494</ele>
        <time>2022-06-10T10:57:09.718Z</time>
      </trkpt>
      <trkpt lat="42.76343" lon="18.13154">
        <ele>306.962724</ele>
        <time>2022-06-10T10:57:12.717Z</time>
      </trkpt>
      <trkpt lat="42.76348" lon="18.13143">
        <ele>307.018728</ele>
        <time>2022-06-10T10:57:14.740Z</time>
      </trkpt>
      <trkpt lat="42.76353" lon="18.13133">
        <ele>307.076329</ele>
        <time>2022-06-10T10:57:16.708Z</time>
      </trkpt>
      <trkpt lat="42.76361" lon="18.13119">
        <ele>307.15428</ele>
        <time>2022-06-10T10:57:19.713Z</time>
      </trkpt>
      <trkpt lat="42.7637" lon="18.13108">
        <ele>307.230056</ele>
        <time>2022-06-10T10:57:22.708Z</time>
      </trkpt>
      <trkpt lat="42.7638" lon="18.13097">
        <ele>307.304925</ele>
        <time>2022-06-10T10:57:25.704Z</time>
      </trkpt>
      <trkpt lat="42.76388" lon="18.13085">
        <ele>307.380432</ele>
        <time>2022-06-10T10:57:28.724Z</time>
      </trkpt>
      <trkpt lat="42.76398" lon="18.13074">
        <ele>307.456375</ele>
        <time>2022-06-10T10:57:31.740Z</time>
      </trkpt>
      <trkpt lat="42.76408" lon="18.13064">
        <ele>307.531881</ele>
        <time>2022-06-10T10:57:34.734Z</time>
      </trkpt>
      <trkpt lat="42.76418" lon="18.13055">
        <ele>307.606825</ele>
        <time>2022-06-10T10:57:37.749Z</time>
      </trkpt>
      <trkpt lat="42.76429" lon="18.13044">
        <ele>307.689863</ele>
        <time>2022-06-10T10:57:40.699Z</time>
      </trkpt>
      <trkpt lat="42.7644" lon="18.13035">
        <ele>307.769472</ele>
        <time>2022-06-10T10:57:43.694Z</time>
      </trkpt>
      <trkpt lat="42.76452" lon="18.13025">
        <ele>307.850821</ele>
        <time>2022-06-10T10:57:46.704Z</time>
      </trkpt>
      <trkpt lat="42.76463" lon="18.13017">
        <ele>307.929191</ele>
        <time>2022-06-10T10:57:49.707Z</time>
      </trkpt>
      <trkpt lat="42.76474" lon="18.13008">
        <ele>308.056776</ele>
        <time>2022-06-10T10:57:52.724Z</time>
      </trkpt>
      <trkpt lat="42.76485" lon="18.12999">
        <ele>308.295527</ele>
        <time>2022-06-10T10:57:55.715Z</time>
      </trkpt>
      <trkpt lat="42.76496" lon="18.12991">
        <ele>308.527399</ele>
        <time>2022-06-10T10:57:58.713Z</time>
      </trkpt>
      <trkpt lat="42.76506" lon="18.12981">
        <ele>308.755569</ele>
        <time>2022-06-10T10:58:01.713Z</time>
      </trkpt>
      <trkpt lat="42.76516" lon="18.12972">
        <ele>308.97683</ele>
        <time>2022-06-10T10:58:04.761Z</time>
      </trkpt>
      <trkpt lat="42.76526" lon="18.12964">
        <ele>309.201595</ele>
        <time>2022-06-10T10:58:07.702Z</time>
      </trkpt>
      <trkpt lat="42.76536" lon="18.12954">
        <ele>309.423686</ele>
        <time>2022-06-10T10:58:10.751Z</time>
      </trkpt>
      <trkpt lat="42.76545" lon="18.12944">
        <ele>309.638842</ele>
        <time>2022-06-10T10:58:13.713Z</time>
      </trkpt>
      <trkpt lat="42.76552" lon="18.12931">
        <ele>309.861394</ele>
        <time>2022-06-10T10:58:16.707Z</time>
      </trkpt>
      <trkpt lat="42.7656" lon="18.12918">
        <ele>310.095938</ele>
        <time>2022-06-10T10:58:19.742Z</time>
      </trkpt>
      <trkpt lat="42.76568" lon="18.12905">
        <ele>310.31849</ele>
        <time>2022-06-10T10:58:22.711Z</time>
      </trkpt>
      <trkpt lat="42.76575" lon="18.12892">
        <ele>310.540838</ele>
        <time>2022-06-10T10:58:25.720Z</time>
      </trkpt>
      <trkpt lat="42.76582" lon="18.12879">
        <ele>310.763061</ele>
        <time>2022-06-10T10:58:28.723Z</time>
      </trkpt>
      <trkpt lat="42.76589" lon="18.12866">
        <ele>310.977602</ele>
        <time>2022-06-10T10:58:31.698Z</time>
      </trkpt>
      <trkpt lat="42.76598" lon="18.12854">
        <ele>311.214942</ele>
        <time>2022-06-10T10:58:34.720Z</time>
      </trkpt>
      <trkpt lat="42.76606" lon="18.1284">
        <ele>311.327406</ele>
        <time>2022-06-10T10:58:37.708Z</time>
      </trkpt>
      <trkpt lat="42.76615" lon="18.12827">
        <ele>311.325163</ele>
        <time>2022-06-10T10:58:40.711Z</time>
      </trkpt>
      <trkpt lat="42.76622" lon="18.12813">
        <ele>311.322952</ele>
        <time>2022-06-10T10:58:43.711Z</time>
      </trkpt>
      <trkpt lat="42.7663" lon="18.128">
        <ele>311.32083</ele>
        <time>2022-06-10T10:58:46.732Z</time>
      </trkpt>
      <trkpt lat="42.76639" lon="18.12787">
        <ele>311.318681</ele>
        <time>2022-06-10T10:58:49.754Z</time>
      </trkpt>
      <trkpt lat="42.76647" lon="18.12775">
        <ele>311.316607</ele>
        <time>2022-06-10T10:58:52.718Z</time>
      </trkpt>
      <trkpt lat="42.76655" lon="18.12762">
        <ele>311.314483</ele>
        <time>2022-06-10T10:58:55.697Z</time>
      </trkpt>
      <trkpt lat="42.76662" lon="18.12749">
        <ele>311.312373</ele>
        <time>2022-06-10T10:58:58.706Z</time>
      </trkpt>
      <trkpt lat="42.7667" lon="18.12737">
        <ele>311.31024</ele>
        <time>2022-06-10T10:59:01.711Z</time>
      </trkpt>
      <trkpt lat="42.76676" lon="18.12727">
        <ele>311.308672</ele>
        <time>2022-06-10T10:59:03.716Z</time>
      </trkpt>
      <trkpt lat="42.76682" lon="18.12718">
        <ele>311.30711</ele>
        <time>2022-06-10T10:59:05.724Z</time>
      </trkpt>
      <trkpt lat="42.76687" lon="18.12708">
        <ele>311.305554</ele>
        <time>2022-06-10T10:59:07.716Z</time>
      </trkpt>
      <trkpt lat="42.76696" lon="18.12694">
        <ele>311.30331</ele>
        <time>2022-06-10T10:59:10.707Z</time>
      </trkpt>
      <trkpt lat="42.76703" lon="18.12681">
        <ele>311.301159</ele>
        <time>2022-06-10T10:59:13.704Z</time>
      </trkpt>
      <trkpt lat="42.76711" lon="18.12668">
        <ele>311.298995</ele>
        <time>2022-06-10T10:59:16.699Z</time>
      </trkpt>
      <trkpt lat="42.7672" lon="18.12656">
        <ele>311.17569</ele>
        <time>2022-06-10T10:59:19.716Z</time>
      </trkpt>
      <trkpt lat="42.76728" lon="18.12642">
        <ele>310.790788</ele>
        <time>2022-06-10T10:59:22.735Z</time>
      </trkpt>
      <trkpt lat="42.76736" lon="18.12628">
        <ele>310.40806</ele>
        <time>2022-06-10T10:59:25.710Z</time>
      </trkpt>
      <trkpt lat="42.76744" lon="18.12615">
        <ele>310.056958</ele>
        <time>2022-06-10T10:59:28.731Z</time>
      </trkpt>
      <trkpt lat="42.7675" lon="18.12602">
        <ele>309.702287</ele>
        <time>2022-06-10T10:59:31.718Z</time>
      </trkpt>
      <trkpt lat="42.76758" lon="18.12587">
        <ele>309.32641</ele>
        <time>2022-06-10T10:59:34.712Z</time>
      </trkpt>
      <trkpt lat="42.76765" lon="18.12573">
        <ele>308.961155</ele>
        <time>2022-06-10T10:59:37.716Z</time>
      </trkpt>
      <trkpt lat="42.76772" lon="18.1256">
        <ele>308.601327</ele>
        <time>2022-06-10T10:59:40.705Z</time>
      </trkpt>
      <trkpt lat="42.76779" lon="18.12548">
        <ele>308.256907</ele>
        <time>2022-06-10T10:59:43.694Z</time>
      </trkpt>
      <trkpt lat="42.76786" lon="18.12534">
        <ele>307.904009</ele>
        <time>2022-06-10T10:59:46.718Z</time>
      </trkpt>
      <trkpt lat="42.76792" lon="18.12521">
        <ele>307.554176</ele>
        <time>2022-06-10T10:59:49.715Z</time>
      </trkpt>
      <trkpt lat="42.76798" lon="18.12506">
        <ele>307.201862</ele>
        <time>2022-06-10T10:59:52.704Z</time>
      </trkpt>
      <trkpt lat="42.76803" lon="18.12492">
        <ele>306.853464</ele>
        <time>2022-06-10T10:59:55.696Z</time>
      </trkpt>
      <trkpt lat="42.76806" lon="18.12477">
        <ele>306.517431</ele>
        <time>2022-06-10T10:59:58.702Z</time>
      </trkpt>
      <trkpt lat="42.76811" lon="18.12462">
        <ele>306.169561</ele>
        <time>2022-06-10T11:00:01.719Z</time>
      </trkpt>
      <trkpt lat="42.76814" lon="18.12446">
        <ele>306.035711</ele>
        <time>2022-06-10T11:00:04.708Z</time>
      </trkpt>
      <trkpt lat="42.76816" lon="18.12429">
        <ele>306.12988</ele>
        <time>2022-06-10T11:00:07.740Z</time>
      </trkpt>
      <trkpt lat="42.76819" lon="18.12412">
        <ele>306.225496</ele>
        <time>2022-06-10T11:00:10.716Z</time>
      </trkpt>
      <trkpt lat="42.76821" lon="18.12397">
        <ele>306.313919</ele>
        <time>2022-06-10T11:00:13.749Z</time>
      </trkpt>
      <trkpt lat="42.76823" lon="18.1238">
        <ele>306.407411</ele>
        <time>2022-06-10T11:00:16.736Z</time>
      </trkpt>
      <trkpt lat="42.76826" lon="18.12363">
        <ele>306.506274</ele>
        <time>2022-06-10T11:00:19.695Z</time>
      </trkpt>
      <trkpt lat="42.76829" lon="18.12351">
        <ele>306.574874</ele>
        <time>2022-06-10T11:00:21.725Z</time>
      </trkpt>
      <trkpt lat="42.76832" lon="18.12334">
        <ele>306.675007</ele>
        <time>2022-06-10T11:00:24.727Z</time>
      </trkpt>
      <trkpt lat="42.76836" lon="18.12316">
        <ele>306.77545</ele>
        <time>2022-06-10T11:00:27.746Z</time>
      </trkpt>
      <trkpt lat="42.76841" lon="18.123">
        <ele>306.86976</ele>
        <time>2022-06-10T11:00:30.711Z</time>
      </trkpt>
      <trkpt lat="42.76845" lon="18.12285">
        <ele>306.960444</ele>
        <time>2022-06-10T11:00:33.709Z</time>
      </trkpt>
      <trkpt lat="42.76849" lon="18.12271">
        <ele>307.046796</ele>
        <time>2022-06-10T11:00:36.744Z</time>
      </trkpt>
      <trkpt lat="42.76856" lon="18.12258">
        <ele>307.135059</ele>
        <time>2022-06-10T11:00:39.725Z</time>
      </trkpt>
      <trkpt lat="42.76863" lon="18.12245">
        <ele>307.223242</ele>
        <time>2022-06-10T11:00:42.705Z</time>
      </trkpt>
      <trkpt lat="42.76871" lon="18.12234">
        <ele>307.308205</ele>
        <time>2022-06-10T11:00:45.711Z</time>
      </trkpt>
      <trkpt lat="42.76878" lon="18.12221">
        <ele>307.445804</ele>
        <time>2022-06-10T11:00:48.708Z</time>
      </trkpt>
      <trkpt lat="42.76886" lon="18.12208">
        <ele>307.632786</ele>
        <time>2022-06-10T11:00:51.695Z</time>
      </trkpt>
      <trkpt lat="42.76894" lon="18.12194">
        <ele>307.823056</ele>
        <time>2022-06-10T11:00:54.726Z</time>
      </trkpt>
      <trkpt lat="42.76901" lon="18.12182">
        <ele>308.00653</ele>
        <time>2022-06-10T11:00:57.699Z</time>
      </trkpt>
      <trkpt lat="42.76909" lon="18.12168">
        <ele>308.196875</ele>
        <time>2022-06-10T11:01:00.720Z</time>
      </trkpt>
      <trkpt lat="42.76917" lon="18.12154">
        <ele>308.391089</ele>
        <time>2022-06-10T11:01:03.718Z</time>
      </trkpt>
      <trkpt lat="42.76925" lon="18.12141">
        <ele>308.582264</ele>
        <time>2022-06-10T11:01:06.707Z</time>
      </trkpt>
      <trkpt lat="42.76932" lon="18.12127">
        <ele>308.765418</ele>
        <time>2022-06-10T11:01:09.712Z</time>
      </trkpt>
      <trkpt lat="42.76938" lon="18.12117">
        <ele>308.903244</ele>
        <time>2022-06-10T11:01:11.700Z</time>
      </trkpt>
      <trkpt lat="42.76947" lon="18.12104">
        <ele>309.104371</ele>
        <time>2022-06-10T11:01:14.704Z</time>
      </trkpt>
      <trkpt lat="42.76955" lon="18.1209">
        <ele>309.304019</ele>
        <time>2022-06-10T11:01:17.711Z</time>
      </trkpt>
      <trkpt lat="42.76963" lon="18.12077">
        <ele>309.492708</ele>
        <time>2022-06-10T11:01:20.696Z</time>
      </trkpt>
      <trkpt lat="42.76971" lon="18.12064">
        <ele>309.670994</ele>
        <time>2022-06-10T11:01:23.740Z</time>
      </trkpt>
      <trkpt lat="42.76978" lon="18.12051">
        <ele>309.855931</ele>
        <time>2022-06-10T11:01:26.716Z</time>
      </trkpt>
      <trkpt lat="42.76985" lon="18.12037">
        <ele>310.033069</ele>
        <time>2022-06-10T11:01:29.703Z</time>
      </trkpt>
      <trkpt lat="42.76991" lon="18.12023">
        <ele>309.948361</ele>
        <time>2022-06-10T11:01:32.712Z</time>
      </trkpt>
      <trkpt lat="42.76997" lon="18.12008">
        <ele>309.829519</ele>
        <time>2022-06-10T11:01:35.708Z</time>
      </trkpt>
      <trkpt lat="42.77003" lon="18.11994">
        <ele>309.713804</ele>
        <time>2022-06-10T11:01:38.712Z</time>
      </trkpt>
      <trkpt lat="42.77009" lon="18.1198">
        <ele>309.596502</ele>
        <time>2022-06-10T11:01:41.705Z</time>
      </trkpt>
      <trkpt lat="42.77016" lon="18.11965">
        <ele>309.473549</ele>
        <time>2022-06-10T11:01:44.711Z</time>
      </trkpt>
      <trkpt lat="42.77021" lon="18.11953">
        <ele>309.383703</ele>
        <time>2022-06-10T11:01:46.725Z</time>
      </trkpt>
      <trkpt lat="42.77025" lon="18.11942">
        <ele>309.293124</ele>
        <time>2022-06-10T11:01:48.704Z</time>
      </trkpt>
      <trkpt lat="42.7703" lon="18.11931">
        <ele>309.206043</ele>
        <time>2022-06-10T11:01:50.698Z</time>
      </trkpt>
      <trkpt lat="42.77035" lon="18.11921">
        <ele>309.120504</ele>
        <time>2022-06-10T11:01:52.713Z</time>
      </trkpt>
      <trkpt lat="42.77042" lon="18.11907">
        <ele>308.999991</ele>
        <time>2022-06-10T11:01:55.714Z</time>
      </trkpt>
      <trkpt lat="42.77049" lon="18.11893">
        <ele>308.884157</ele>
        <time>2022-06-10T11:01:58.708Z</time>
      </trkpt>
      <trkpt lat="42.77058" lon="18.1188">
        <ele>308.763027</ele>
        <time>2022-06-10T11:02:01.714Z</time>
      </trkpt>
      <trkpt lat="42.77066" lon="18.11867">
        <ele>308.637743</ele>
        <time>2022-06-10T11:02:04.711Z</time>
      </trkpt>
      <trkpt lat="42.77076" lon="18.11855">
        <ele>308.515116</ele>
        <time>2022-06-10T11:02:07.719Z</time>
      </trkpt>
      <trkpt lat="42.77086" lon="18.11844">
        <ele>308.392566</ele>
        <time>2022-06-10T11:02:10.705Z</time>
      </trkpt>
      <trkpt lat="42.77096" lon="18.11834">
        <ele>308.211913</ele>
        <time>2022-06-10T11:02:13.716Z</time>
      </trkpt>
      <trkpt lat="42.77106" lon="18.11823">
        <ele>307.987645</ele>
        <time>2022-06-10T11:02:16.711Z</time>
      </trkpt>
      <trkpt lat="42.77117" lon="18.11813">
        <ele>307.764912</ele>
        <time>2022-06-10T11:02:19.693Z</time>
      </trkpt>
      <trkpt lat="42.77126" lon="18.11804">
        <ele>307.55903</ele>
        <time>2022-06-10T11:02:22.708Z</time>
      </trkpt>
      <trkpt lat="42.77135" lon="18.11797">
        <ele>307.373203</ele>
        <time>2022-06-10T11:02:25.786Z</time>
      </trkpt>
      <trkpt lat="42.77145" lon="18.1179">
        <ele>307.173627</ele>
        <time>2022-06-10T11:02:28.717Z</time>
      </trkpt>
      <trkpt lat="42.77156" lon="18.11782">
        <ele>306.959581</ele>
        <time>2022-06-10T11:02:31.707Z</time>
      </trkpt>
      <trkpt lat="42.77167" lon="18.11773">
        <ele>306.736086</ele>
        <time>2022-06-10T11:02:34.713Z</time>
      </trkpt>
      <trkpt lat="42.77177" lon="18.11764">
        <ele>306.512592</ele>
        <time>2022-06-10T11:02:37.726Z</time>
      </trkpt>
      <trkpt lat="42.77189" lon="18.11755">
        <ele>306.282247</ele>
        <time>2022-06-10T11:02:40.727Z</time>
      </trkpt>
      <trkpt lat="42.772" lon="18.11747">
        <ele>306.060652</ele>
        <time>2022-06-10T11:02:43.709Z</time>
      </trkpt>
      <trkpt lat="42.77212" lon="18.11742">
        <ele>305.839375</ele>
        <time>2022-06-10T11:02:46.748Z</time>
      </trkpt>
      <trkpt lat="42.77224" lon="18.1174">
        <ele>305.614468</ele>
        <time>2022-06-10T11:02:49.734Z</time>
      </trkpt>
      <trkpt lat="42.77237" lon="18.1174">
        <ele>305.393672</ele>
        <time>2022-06-10T11:02:52.733Z</time>
      </trkpt>
      <trkpt lat="42.77249" lon="18.11741">
        <ele>305.173666</ele>
        <time>2022-06-10T11:02:55.715Z</time>
      </trkpt>
      <trkpt lat="42.77261" lon="18.11745">
        <ele>305.085055</ele>
        <time>2022-06-10T11:02:58.750Z</time>
      </trkpt>
      <trkpt lat="42.77272" lon="18.11749">
        <ele>305.000548</ele>
        <time>2022-06-10T11:03:01.724Z</time>
      </trkpt>
      <trkpt lat="42.77283" lon="18.11753">
        <ele>304.920689</ele>
        <time>2022-06-10T11:03:04.728Z</time>
      </trkpt>
      <trkpt lat="42.77295" lon="18.11756">
        <ele>304.838648</ele>
        <time>2022-06-10T11:03:07.700Z</time>
      </trkpt>
      <trkpt lat="42.77306" lon="18.11758">
        <ele>304.759315</ele>
        <time>2022-06-10T11:03:10.703Z</time>
      </trkpt>
      <trkpt lat="42.77317" lon="18.1176">
        <ele>304.678116</ele>
        <time>2022-06-10T11:03:13.711Z</time>
      </trkpt>
      <trkpt lat="42.77329" lon="18.1176">
        <ele>304.595057</ele>
        <time>2022-06-10T11:03:16.707Z</time>
      </trkpt>
      <trkpt lat="42.7734" lon="18.11759">
        <ele>304.513266</ele>
        <time>2022-06-10T11:03:19.700Z</time>
      </trkpt>
      <trkpt lat="42.77351" lon="18.11755">
        <ele>304.436286</ele>
        <time>2022-06-10T11:03:22.717Z</time>
      </trkpt>
      <trkpt lat="42.77362" lon="18.11751">
        <ele>304.349313</ele>
        <time>2022-06-10T11:03:25.723Z</time>
      </trkpt>
      <trkpt lat="42.77375" lon="18.11744">
        <ele>304.255948</ele>
        <time>2022-06-10T11:03:28.738Z</time>
      </trkpt>
      <trkpt lat="42.77386" lon="18.11736">
        <ele>304.16413</ele>
        <time>2022-06-10T11:03:31.709Z</time>
      </trkpt>
      <trkpt lat="42.77398" lon="18.11728">
        <ele>304.06924</ele>
        <time>2022-06-10T11:03:34.707Z</time>
      </trkpt>
      <trkpt lat="42.7741" lon="18.1172">
        <ele>303.97435</ele>
        <time>2022-06-10T11:03:37.694Z</time>
      </trkpt>
      <trkpt lat="42.77422" lon="18.11711">
        <ele>303.879524</ele>
        <time>2022-06-10T11:03:40.716Z</time>
      </trkpt>
      <trkpt lat="42.77433" lon="18.11703">
        <ele>303.784036</ele>
        <time>2022-06-10T11:03:43.750Z</time>
      </trkpt>
      <trkpt lat="42.77445" lon="18.11695">
        <ele>303.689023</ele>
        <time>2022-06-10T11:03:46.698Z</time>
      </trkpt>
      <trkpt lat="42.77456" lon="18.11688">
        <ele>303.59714</ele>
        <time>2022-06-10T11:03:49.707Z</time>
      </trkpt>
      <trkpt lat="42.77467" lon="18.1168">
        <ele>303.506004</ele>
        <time>2022-06-10T11:03:52.709Z</time>
      </trkpt>
      <trkpt lat="42.77478" lon="18.11673">
        <ele>303.413251</ele>
        <time>2022-06-10T11:03:55.706Z</time>
      </trkpt>
      <trkpt lat="42.77489" lon="18.11665">
        <ele>303.32464</ele>
        <time>2022-06-10T11:03:58.708Z</time>
      </trkpt>
      <trkpt lat="42.77499" lon="18.11656">
        <ele>303.233357</ele>
        <time>2022-06-10T11:04:01.724Z</time>
      </trkpt>
      <trkpt lat="42.7751" lon="18.11646">
        <ele>303.138463</ele>
        <time>2022-06-10T11:04:04.705Z</time>
      </trkpt>
      <trkpt lat="42.77521" lon="18.11636">
        <ele>303.042065</ele>
        <time>2022-06-10T11:04:07.710Z</time>
      </trkpt>
      <trkpt lat="42.77531" lon="18.11625">
        <ele>302.948106</ele>
        <time>2022-06-10T11:04:10.706Z</time>
      </trkpt>
      <trkpt lat="42.7754" lon="18.11614">
        <ele>302.854657</ele>
        <time>2022-06-10T11:04:13.704Z</time>
      </trkpt>
      <trkpt lat="42.77549" lon="18.11602">
        <ele>302.762607</ele>
        <time>2022-06-10T11:04:16.708Z</time>
      </trkpt>
      <trkpt lat="42.77559" lon="18.1159">
        <ele>302.666923</ele>
        <time>2022-06-10T11:04:19.724Z</time>
      </trkpt>
      <trkpt lat="42.77568" lon="18.11579">
        <ele>302.577856</ele>
        <time>2022-06-10T11:04:22.707Z</time>
      </trkpt>
      <trkpt lat="42.77575" lon="18.11569">
        <ele>302.713052</ele>
        <time>2022-06-10T11:04:25.717Z</time>
      </trkpt>
      <trkpt lat="42.77583" lon="18.11558">
        <ele>302.917728</ele>
        <time>2022-06-10T11:04:28.713Z</time>
      </trkpt>
      <trkpt lat="42.77591" lon="18.11547">
        <ele>303.11264</ele>
        <time>2022-06-10T11:04:31.721Z</time>
      </trkpt>
      <trkpt lat="42.77598" lon="18.11537">
        <ele>303.291823</ele>
        <time>2022-06-10T11:04:34.723Z</time>
      </trkpt>
      <trkpt lat="42.77606" lon="18.11525">
        <ele>303.511336</ele>
        <time>2022-06-10T11:04:38.709Z</time>
      </trkpt>
      <trkpt lat="42.77612" lon="18.11514">
        <ele>303.691211</ele>
        <time>2022-06-10T11:04:41.722Z</time>
      </trkpt>
      <trkpt lat="42.77618" lon="18.11502">
        <ele>303.885883</ele>
        <time>2022-06-10T11:04:44.719Z</time>
      </trkpt>
      <trkpt lat="42.77623" lon="18.11488">
        <ele>304.081844</ele>
        <time>2022-06-10T11:04:47.708Z</time>
      </trkpt>
      <trkpt lat="42.77628" lon="18.11474">
        <ele>304.292043</ele>
        <time>2022-06-10T11:04:50.705Z</time>
      </trkpt>
      <trkpt lat="42.77633" lon="18.11458">
        <ele>304.523681</ele>
        <time>2022-06-10T11:04:53.706Z</time>
      </trkpt>
      <trkpt lat="42.77636" lon="18.11442">
        <ele>304.74683</ele>
        <time>2022-06-10T11:04:56.700Z</time>
      </trkpt>
      <trkpt lat="42.7764" lon="18.11426">
        <ele>304.96671</ele>
        <time>2022-06-10T11:04:59.712Z</time>
      </trkpt>
      <trkpt lat="42.77643" lon="18.1141">
        <ele>305.181499</ele>
        <time>2022-06-10T11:05:02.733Z</time>
      </trkpt>
      <trkpt lat="42.77643" lon="18.11393">
        <ele>305.403638</ele>
        <time>2022-06-10T11:05:05.718Z</time>
      </trkpt>
      <trkpt lat="42.77643" lon="18.11376">
        <ele>305.630589</ele>
        <time>2022-06-10T11:05:08.726Z</time>
      </trkpt>
      <trkpt lat="42.77644" lon="18.11359">
        <ele>305.916636</ele>
        <time>2022-06-10T11:05:11.762Z</time>
      </trkpt>
      <trkpt lat="42.77644" lon="18.11341">
        <ele>306.353536</ele>
        <time>2022-06-10T11:05:14.717Z</time>
      </trkpt>
      <trkpt lat="42.77643" lon="18.11324">
        <ele>306.78611</ele>
        <time>2022-06-10T11:05:17.746Z</time>
      </trkpt>
      <trkpt lat="42.77641" lon="18.11307">
        <ele>307.203561</ele>
        <time>2022-06-10T11:05:20.707Z</time>
      </trkpt>
      <trkpt lat="42.7764" lon="18.1129">
        <ele>307.628818</ele>
        <time>2022-06-10T11:05:23.755Z</time>
      </trkpt>
      <trkpt lat="42.77638" lon="18.11272">
        <ele>308.067715</ele>
        <time>2022-06-10T11:05:26.709Z</time>
      </trkpt>
      <trkpt lat="42.77637" lon="18.11255">
        <ele>308.500357</ele>
        <time>2022-06-10T11:05:29.736Z</time>
      </trkpt>
      <trkpt lat="42.77636" lon="18.11238">
        <ele>308.924978</ele>
        <time>2022-06-10T11:05:32.720Z</time>
      </trkpt>
      <trkpt lat="42.77636" lon="18.1122">
        <ele>309.371799</ele>
        <time>2022-06-10T11:05:35.744Z</time>
      </trkpt>
      <trkpt lat="42.77636" lon="18.11202">
        <ele>309.810984</ele>
        <time>2022-06-10T11:05:38.716Z</time>
      </trkpt>
      <trkpt lat="42.77635" lon="18.11186">
        <ele>310.224249</ele>
        <time>2022-06-10T11:05:41.710Z</time>
      </trkpt>
      <trkpt lat="42.77634" lon="18.11169">
        <ele>310.632861</ele>
        <time>2022-06-10T11:05:44.712Z</time>
      </trkpt>
      <trkpt lat="42.77633" lon="18.11153">
        <ele>311.042761</ele>
        <time>2022-06-10T11:05:47.692Z</time>
      </trkpt>
      <trkpt lat="42.77632" lon="18.11137">
        <ele>311.438718</ele>
        <time>2022-06-10T11:05:50.696Z</time>
      </trkpt>
      <trkpt lat="42.77631" lon="18.11121">
        <ele>311.826729</ele>
        <time>2022-06-10T11:05:53.701Z</time>
      </trkpt>
      <trkpt lat="42.7763" lon="18.11105">
        <ele>311.529571</ele>
        <time>2022-06-10T11:05:56.708Z</time>
      </trkpt>
      <trkpt lat="42.7763" lon="18.11089">
        <ele>311.141116</ele>
        <time>2022-06-10T11:05:59.718Z</time>
      </trkpt>
      <trkpt lat="42.7763" lon="18.11073">
        <ele>310.754836</ele>
        <time>2022-06-10T11:06:02.704Z</time>
      </trkpt>
      <trkpt lat="42.77629" lon="18.11056">
        <ele>310.353667</ele>
        <time>2022-06-10T11:06:05.712Z</time>
      </trkpt>
      <trkpt lat="42.77629" lon="18.11038">
        <ele>309.928926</ele>
        <time>2022-06-10T11:06:08.708Z</time>
      </trkpt>
      <trkpt lat="42.77631" lon="18.1102">
        <ele>309.497415</ele>
        <time>2022-06-10T11:06:11.728Z</time>
      </trkpt>
      <trkpt lat="42.77633" lon="18.11003">
        <ele>309.0711</ele>
        <time>2022-06-10T11:06:14.723Z</time>
      </trkpt>
      <trkpt lat="42.77638" lon="18.10986">
        <ele>308.643398</ele>
        <time>2022-06-10T11:06:17.699Z</time>
      </trkpt>
      <trkpt lat="42.77643" lon="18.1097">
        <ele>308.226138</ele>
        <time>2022-06-10T11:06:20.747Z</time>
      </trkpt>
      <trkpt lat="42.7765" lon="18.10955">
        <ele>307.797388</ele>
        <time>2022-06-10T11:06:23.707Z</time>
      </trkpt>
      <trkpt lat="42.77658" lon="18.10941">
        <ele>307.377876</ele>
        <time>2022-06-10T11:06:26.757Z</time>
      </trkpt>
      <trkpt lat="42.77666" lon="18.10929">
        <ele>306.97063</ele>
        <time>2022-06-10T11:06:29.748Z</time>
      </trkpt>
      <trkpt lat="42.77676" lon="18.10919">
        <ele>306.561984</ele>
        <time>2022-06-10T11:06:32.706Z</time>
      </trkpt>
      <trkpt lat="42.77687" lon="18.1091">
        <ele>306.151315</ele>
        <time>2022-06-10T11:06:35.713Z</time>
      </trkpt>
      <trkpt lat="42.77698" lon="18.10901">
        <ele>305.890992</ele>
        <time>2022-06-10T11:06:38.716Z</time>
      </trkpt>
      <trkpt lat="42.7771" lon="18.10895">
        <ele>305.717309</ele>
        <time>2022-06-10T11:06:41.714Z</time>
      </trkpt>
      <trkpt lat="42.77722" lon="18.1089">
        <ele>305.53187</ele>
        <time>2022-06-10T11:06:44.726Z</time>
      </trkpt>
      <trkpt lat="42.77734" lon="18.10885">
        <ele>305.360654</ele>
        <time>2022-06-10T11:06:47.715Z</time>
      </trkpt>
      <trkpt lat="42.77746" lon="18.10881">
        <ele>305.19349</ele>
        <time>2022-06-10T11:06:50.720Z</time>
      </trkpt>
      <trkpt lat="42.77758" lon="18.10879">
        <ele>305.026462</ele>
        <time>2022-06-10T11:06:53.707Z</time>
      </trkpt>
      <trkpt lat="42.77769" lon="18.10874">
        <ele>304.860492</ele>
        <time>2022-06-10T11:06:56.710Z</time>
      </trkpt>
      <trkpt lat="42.77781" lon="18.10867">
        <ele>304.692884</ele>
        <time>2022-06-10T11:06:59.704Z</time>
      </trkpt>
      <trkpt lat="42.77791" lon="18.10857">
        <ele>304.514886</ele>
        <time>2022-06-10T11:07:02.712Z</time>
      </trkpt>
      <trkpt lat="42.778" lon="18.10846">
        <ele>304.344902</ele>
        <time>2022-06-10T11:07:05.739Z</time>
      </trkpt>
      <trkpt lat="42.77809" lon="18.10834">
        <ele>304.170341</ele>
        <time>2022-06-10T11:07:08.715Z</time>
      </trkpt>
      <trkpt lat="42.77817" lon="18.1082">
        <ele>303.993735</ele>
        <time>2022-06-10T11:07:11.761Z</time>
      </trkpt>
      <trkpt lat="42.77824" lon="18.10805">
        <ele>303.821415</ele>
        <time>2022-06-10T11:07:14.699Z</time>
      </trkpt>
      <trkpt lat="42.77829" lon="18.10789">
        <ele>303.640389</ele>
        <time>2022-06-10T11:07:17.760Z</time>
      </trkpt>
      <trkpt lat="42.77833" lon="18.10772">
        <ele>303.704773</ele>
        <time>2022-06-10T11:07:20.711Z</time>
      </trkpt>
      <trkpt lat="42.77836" lon="18.10754">
        <ele>304.266717</ele>
        <time>2022-06-10T11:07:23.720Z</time>
      </trkpt>
      <trkpt lat="42.77838" lon="18.10737">
        <ele>304.816232</ele>
        <time>2022-06-10T11:07:26.694Z</time>
      </trkpt>
      <trkpt lat="42.7784" lon="18.10721">
        <ele>305.343921</ele>
        <time>2022-06-10T11:07:29.711Z</time>
      </trkpt>
      <trkpt lat="42.77841" lon="18.10703">
        <ele>305.893616</ele>
        <time>2022-06-10T11:07:32.708Z</time>
      </trkpt>
      <trkpt lat="42.77843" lon="18.10686">
        <ele>306.450999</ele>
        <time>2022-06-10T11:07:35.715Z</time>
      </trkpt>
      <trkpt lat="42.77844" lon="18.10668">
        <ele>307.009713</ele>
        <time>2022-06-10T11:07:38.729Z</time>
      </trkpt>
      <trkpt lat="42.77846" lon="18.10651">
        <ele>307.55358</ele>
        <time>2022-06-10T11:07:41.704Z</time>
      </trkpt>
      <trkpt lat="42.77847" lon="18.10634">
        <ele>308.104218</ele>
        <time>2022-06-10T11:07:44.721Z</time>
      </trkpt>
      <trkpt lat="42.77847" lon="18.10617">
        <ele>308.644887</ele>
        <time>2022-06-10T11:07:47.715Z</time>
      </trkpt>
      <trkpt lat="42.77846" lon="18.106">
        <ele>309.184324</ele>
        <time>2022-06-10T11:07:50.738Z</time>
      </trkpt>
      <trkpt lat="42.77843" lon="18.10583">
        <ele>309.715592</ele>
        <time>2022-06-10T11:07:53.728Z</time>
      </trkpt>
      <trkpt lat="42.77839" lon="18.10568">
        <ele>310.246799</ele>
        <time>2022-06-10T11:07:56.711Z</time>
      </trkpt>
      <trkpt lat="42.77832" lon="18.10553">
        <ele>310.793702</ele>
        <time>2022-06-10T11:07:59.716Z</time>
      </trkpt>
      <trkpt lat="42.77827" lon="18.10543">
        <ele>311.181048</ele>
        <time>2022-06-10T11:08:01.749Z</time>
      </trkpt>
      <trkpt lat="42.77822" lon="18.10533">
        <ele>311.366893</ele>
        <time>2022-06-10T11:08:03.724Z</time>
      </trkpt>
      <trkpt lat="42.77813" lon="18.10519">
        <ele>311.560208</ele>
        <time>2022-06-10T11:08:06.732Z</time>
      </trkpt>
      <trkpt lat="42.77805" lon="18.10506">
        <ele>311.744394</ele>
        <time>2022-06-10T11:08:09.716Z</time>
      </trkpt>
      <trkpt lat="42.77795" lon="18.10496">
        <ele>311.919974</ele>
        <time>2022-06-10T11:08:12.710Z</time>
      </trkpt>
      <trkpt lat="42.77787" lon="18.10484">
        <ele>312.101114</ele>
        <time>2022-06-10T11:08:15.709Z</time>
      </trkpt>
      <trkpt lat="42.77778" lon="18.10471">
        <ele>312.278551</ele>
        <time>2022-06-10T11:08:18.709Z</time>
      </trkpt>
      <trkpt lat="42.77771" lon="18.10458">
        <ele>312.459386</ele>
        <time>2022-06-10T11:08:21.717Z</time>
      </trkpt>
      <trkpt lat="42.77764" lon="18.10444">
        <ele>312.640223</ele>
        <time>2022-06-10T11:08:24.715Z</time>
      </trkpt>
      <trkpt lat="42.77759" lon="18.10429">
        <ele>312.819665</ele>
        <time>2022-06-10T11:08:27.709Z</time>
      </trkpt>
      <trkpt lat="42.77755" lon="18.10412">
        <ele>313.00553</ele>
        <time>2022-06-10T11:08:30.713Z</time>
      </trkpt>
      <trkpt lat="42.77753" lon="18.10395">
        <ele>313.194327</ele>
        <time>2022-06-10T11:08:33.717Z</time>
      </trkpt>
      <trkpt lat="42.77752" lon="18.10378">
        <ele>313.376335</ele>
        <time>2022-06-10T11:08:36.704Z</time>
      </trkpt>
      <trkpt lat="42.77752" lon="18.1036">
        <ele>313.559033</ele>
        <time>2022-06-10T11:08:39.757Z</time>
      </trkpt>
      <trkpt lat="42.77754" lon="18.10344">
        <ele>313.733997</ele>
        <time>2022-06-10T11:08:42.708Z</time>
      </trkpt>
      <trkpt lat="42.77757" lon="18.10329">
        <ele>313.832422</ele>
        <time>2022-06-10T11:08:45.698Z</time>
      </trkpt>
      <trkpt lat="42.77761" lon="18.10315">
        <ele>313.487822</ele>
        <time>2022-06-10T11:08:48.704Z</time>
      </trkpt>
      <trkpt lat="42.77766" lon="18.103">
        <ele>313.138079</ele>
        <time>2022-06-10T11:08:51.724Z</time>
      </trkpt>
      <trkpt lat="42.77772" lon="18.10286">
        <ele>312.775129</ele>
        <time>2022-06-10T11:08:54.721Z</time>
      </trkpt>
      <trkpt lat="42.77779" lon="18.10271">
        <ele>312.397583</ele>
        <time>2022-06-10T11:08:57.711Z</time>
      </trkpt>
      <trkpt lat="42.77786" lon="18.10257">
        <ele>312.02723</ele>
        <time>2022-06-10T11:09:00.716Z</time>
      </trkpt>
      <trkpt lat="42.77793" lon="18.10242">
        <ele>311.637636</ele>
        <time>2022-06-10T11:09:03.703Z</time>
      </trkpt>
      <trkpt lat="42.77799" lon="18.10227">
        <ele>311.250723</ele>
        <time>2022-06-10T11:09:06.702Z</time>
      </trkpt>
      <trkpt lat="42.77806" lon="18.10213">
        <ele>310.87446</ele>
        <time>2022-06-10T11:09:09.716Z</time>
      </trkpt>
      <trkpt lat="42.77812" lon="18.10199">
        <ele>310.505968</ele>
        <time>2022-06-10T11:09:12.701Z</time>
      </trkpt>
      <trkpt lat="42.7782" lon="18.10184">
        <ele>310.118527</ele>
        <time>2022-06-10T11:09:15.712Z</time>
      </trkpt>
      <trkpt lat="42.77826" lon="18.1017">
        <ele>309.740983</ele>
        <time>2022-06-10T11:09:18.727Z</time>
      </trkpt>
      <trkpt lat="42.77833" lon="18.10154">
        <ele>309.338958</ele>
        <time>2022-06-10T11:09:21.717Z</time>
      </trkpt>
      <trkpt lat="42.77837" lon="18.10142">
        <ele>309.062522</ele>
        <time>2022-06-10T11:09:23.751Z</time>
      </trkpt>
      <trkpt lat="42.77842" lon="18.10126">
        <ele>308.666456</ele>
        <time>2022-06-10T11:09:26.704Z</time>
      </trkpt>
      <trkpt lat="42.77846" lon="18.10109">
        <ele>308.568118</ele>
        <time>2022-06-10T11:09:29.708Z</time>
      </trkpt>
      <trkpt lat="42.7785" lon="18.10092">
        <ele>308.740926</ele>
        <time>2022-06-10T11:09:32.720Z</time>
      </trkpt>
      <trkpt lat="42.77853" lon="18.10075">
        <ele>308.919333</ele>
        <time>2022-06-10T11:09:35.732Z</time>
      </trkpt>
      <trkpt lat="42.77855" lon="18.10058">
        <ele>309.092041</ele>
        <time>2022-06-10T11:09:38.724Z</time>
      </trkpt>
      <trkpt lat="42.77857" lon="18.1004">
        <ele>309.264386</ele>
        <time>2022-06-10T11:09:41.716Z</time>
      </trkpt>
      <trkpt lat="42.77858" lon="18.10023">
        <ele>309.436619</ele>
        <time>2022-06-10T11:09:44.701Z</time>
      </trkpt>
      <trkpt lat="42.77859" lon="18.10005">
        <ele>309.614966</ele>
        <time>2022-06-10T11:09:47.713Z</time>
      </trkpt>
      <trkpt lat="42.7786" lon="18.09987">
        <ele>309.789626</ele>
        <time>2022-06-10T11:09:50.747Z</time>
      </trkpt>
      <trkpt lat="42.77862" lon="18.09969">
        <ele>309.969</ele>
        <time>2022-06-10T11:09:53.713Z</time>
      </trkpt>
      <trkpt lat="42.77864" lon="18.09952">
        <ele>310.145064</ele>
        <time>2022-06-10T11:09:56.712Z</time>
      </trkpt>
      <trkpt lat="42.77866" lon="18.09934">
        <ele>310.319739</ele>
        <time>2022-06-10T11:09:59.711Z</time>
      </trkpt>
      <trkpt lat="42.77868" lon="18.09917">
        <ele>310.497344</ele>
        <time>2022-06-10T11:10:02.714Z</time>
      </trkpt>
      <trkpt lat="42.77871" lon="18.09899">
        <ele>310.679256</ele>
        <time>2022-06-10T11:10:05.707Z</time>
      </trkpt>
      <trkpt lat="42.77874" lon="18.09886">
        <ele>310.803628</ele>
        <time>2022-06-10T11:10:07.705Z</time>
      </trkpt>
      <trkpt lat="42.77876" lon="18.09875">
        <ele>310.865339</ele>
        <time>2022-06-10T11:10:09.739Z</time>
      </trkpt>
      <trkpt lat="42.77879" lon="18.09857">
        <ele>310.630773</ele>
        <time>2022-06-10T11:10:12.712Z</time>
      </trkpt>
      <trkpt lat="42.77883" lon="18.09846">
        <ele>310.468719</ele>
        <time>2022-06-10T11:10:14.704Z</time>
      </trkpt>
      <trkpt lat="42.77887" lon="18.09828">
        <ele>310.223281</ele>
        <time>2022-06-10T11:10:17.713Z</time>
      </trkpt>
      <trkpt lat="42.77889" lon="18.09816">
        <ele>310.056659</ele>
        <time>2022-06-10T11:10:19.716Z</time>
      </trkpt>
      <trkpt lat="42.77892" lon="18.09798">
        <ele>309.81684</ele>
        <time>2022-06-10T11:10:22.712Z</time>
      </trkpt>
      <trkpt lat="42.77895" lon="18.0978">
        <ele>309.572011</ele>
        <time>2022-06-10T11:10:25.710Z</time>
      </trkpt>
      <trkpt lat="42.77898" lon="18.09763">
        <ele>309.334014</ele>
        <time>2022-06-10T11:10:28.704Z</time>
      </trkpt>
      <trkpt lat="42.77901" lon="18.09745">
        <ele>309.099877</ele>
        <time>2022-06-10T11:10:31.720Z</time>
      </trkpt>
      <trkpt lat="42.77903" lon="18.09729">
        <ele>308.87643</ele>
        <time>2022-06-10T11:10:34.705Z</time>
      </trkpt>
      <trkpt lat="42.77907" lon="18.09712">
        <ele>308.642313</ele>
        <time>2022-06-10T11:10:37.741Z</time>
      </trkpt>
      <trkpt lat="42.7791" lon="18.09695">
        <ele>308.411621</ele>
        <time>2022-06-10T11:10:40.741Z</time>
      </trkpt>
      <trkpt lat="42.77913" lon="18.09678">
        <ele>308.182471</ele>
        <time>2022-06-10T11:10:43.729Z</time>
      </trkpt>
      <trkpt lat="42.77916" lon="18.09661">
        <ele>307.945353</ele>
        <time>2022-06-10T11:10:46.716Z</time>
      </trkpt>
      <trkpt lat="42.77919" lon="18.09643">
        <ele>307.71081</ele>
        <time>2022-06-10T11:10:49.708Z</time>
      </trkpt>
      <trkpt lat="42.77921" lon="18.09625">
        <ele>307.419953</ele>
        <time>2022-06-10T11:10:52.712Z</time>
      </trkpt>
      <trkpt lat="42.77924" lon="18.09608">
        <ele>307.127543</ele>
        <time>2022-06-10T11:10:55.716Z</time>
      </trkpt>
      <trkpt lat="42.77926" lon="18.09591">
        <ele>306.844171</ele>
        <time>2022-06-10T11:10:58.721Z</time>
      </trkpt>
      <trkpt lat="42.77929" lon="18.09574">
        <ele>306.551327</ele>
        <time>2022-06-10T11:11:01.718Z</time>
      </trkpt>
      <trkpt lat="42.77931" lon="18.09556">
        <ele>306.247006</ele>
        <time>2022-06-10T11:11:04.708Z</time>
      </trkpt>
      <trkpt lat="42.77933" lon="18.09539">
        <ele>305.947553</ele>
        <time>2022-06-10T11:11:07.702Z</time>
      </trkpt>
      <trkpt lat="42.77937" lon="18.09522">
        <ele>305.656498</ele>
        <time>2022-06-10T11:11:10.727Z</time>
      </trkpt>
      <trkpt lat="42.77942" lon="18.09507">
        <ele>305.376953</ele>
        <time>2022-06-10T11:11:13.706Z</time>
      </trkpt>
      <trkpt lat="42.77949" lon="18.09493">
        <ele>305.095017</ele>
        <time>2022-06-10T11:11:16.712Z</time>
      </trkpt>
      <trkpt lat="42.77957" lon="18.09478">
        <ele>304.792011</ele>
        <time>2022-06-10T11:11:19.717Z</time>
      </trkpt>
      <trkpt lat="42.77965" lon="18.09465">
        <ele>304.498734</ele>
        <time>2022-06-10T11:11:22.714Z</time>
      </trkpt>
      <trkpt lat="42.77972" lon="18.09457">
        <ele>304.28942</ele>
        <time>2022-06-10T11:11:24.710Z</time>
      </trkpt>
      <trkpt lat="42.77979" lon="18.09449">
        <ele>304.081519</ele>
        <time>2022-06-10T11:11:26.716Z</time>
      </trkpt>
      <trkpt lat="42.77989" lon="18.09438">
        <ele>303.785194</ele>
        <time>2022-06-10T11:11:29.748Z</time>
      </trkpt>
      <trkpt lat="42.77999" lon="18.09429">
        <ele>303.528997</ele>
        <time>2022-06-10T11:11:32.734Z</time>
      </trkpt>
      <trkpt lat="42.78009" lon="18.09421">
        <ele>303.339467</ele>
        <time>2022-06-10T11:11:35.713Z</time>
      </trkpt>
      <trkpt lat="42.7802" lon="18.09416">
        <ele>303.158254</ele>
        <time>2022-06-10T11:11:38.727Z</time>
      </trkpt>
      <trkpt lat="42.78032" lon="18.09412">
        <ele>302.946198</ele>
        <time>2022-06-10T11:11:41.711Z</time>
      </trkpt>
      <trkpt lat="42.78041" lon="18.09409">
        <ele>302.795838</ele>
        <time>2022-06-10T11:11:43.756Z</time>
      </trkpt>
      <trkpt lat="42.7805" lon="18.09408">
        <ele>302.641804</ele>
        <time>2022-06-10T11:11:45.720Z</time>
      </trkpt>
      <trkpt lat="42.78063" lon="18.09406">
        <ele>302.420527</ele>
        <time>2022-06-10T11:11:48.712Z</time>
      </trkpt>
      <trkpt lat="42.78076" lon="18.09404">
        <ele>302.202063</ele>
        <time>2022-06-10T11:11:51.733Z</time>
      </trkpt>
      <trkpt lat="42.78089" lon="18.09402">
        <ele>301.997171</ele>
        <time>2022-06-10T11:11:54.750Z</time>
      </trkpt>
      <trkpt lat="42.781" lon="18.09401">
        <ele>301.805823</ele>
        <time>2022-06-10T11:11:57.724Z</time>
      </trkpt>
      <trkpt lat="42.78112" lon="18.09399">
        <ele>301.606799</ele>
        <time>2022-06-10T11:12:00.714Z</time>
      </trkpt>
      <trkpt lat="42.78124" lon="18.09395">
        <ele>301.410155</ele>
        <time>2022-06-10T11:12:03.692Z</time>
      </trkpt>
      <trkpt lat="42.78135" lon="18.09391">
        <ele>301.223073</ele>
        <time>2022-06-10T11:12:06.740Z</time>
      </trkpt>
      <trkpt lat="42.78146" lon="18.09389">
        <ele>301.033538</ele>
        <time>2022-06-10T11:12:09.715Z</time>
      </trkpt>
      <trkpt lat="42.78157" lon="18.09386">
        <ele>300.846604</ele>
        <time>2022-06-10T11:12:12.711Z</time>
      </trkpt>
      <trkpt lat="42.78169" lon="18.09382">
        <ele>300.647208</ele>
        <time>2022-06-10T11:12:15.699Z</time>
      </trkpt>
      <trkpt lat="42.78181" lon="18.09378">
        <ele>300.461337</ele>
        <time>2022-06-10T11:12:18.715Z</time>
      </trkpt>
      <trkpt lat="42.7819" lon="18.09375">
        <ele>300.338471</ele>
        <time>2022-06-10T11:12:20.732Z</time>
      </trkpt>
      <trkpt lat="42.78199" lon="18.09372">
        <ele>300.217139</ele>
        <time>2022-06-10T11:12:22.708Z</time>
      </trkpt>
      <trkpt lat="42.78212" lon="18.09368">
        <ele>300.040444</ele>
        <time>2022-06-10T11:12:25.710Z</time>
      </trkpt>
      <trkpt lat="42.78224" lon="18.09362">
        <ele>299.870766</ele>
        <time>2022-06-10T11:12:28.724Z</time>
      </trkpt>
      <trkpt lat="42.78236" lon="18.09357">
        <ele>299.703565</ele>
        <time>2022-06-10T11:12:31.730Z</time>
      </trkpt>
      <trkpt lat="42.78247" lon="18.09354">
        <ele>299.543379</ele>
        <time>2022-06-10T11:12:34.712Z</time>
      </trkpt>
      <trkpt lat="42.7826" lon="18.09349">
        <ele>299.374428</ele>
        <time>2022-06-10T11:12:37.715Z</time>
      </trkpt>
      <trkpt lat="42.78272" lon="18.09345">
        <ele>299.19824</ele>
        <time>2022-06-10T11:12:40.715Z</time>
      </trkpt>
      <trkpt lat="42.78285" lon="18.09341">
        <ele>299.022772</ele>
        <time>2022-06-10T11:12:43.728Z</time>
      </trkpt>
      <trkpt lat="42.78297" lon="18.09337">
        <ele>298.851905</ele>
        <time>2022-06-10T11:12:46.715Z</time>
      </trkpt>
      <trkpt lat="42.78309" lon="18.09332">
        <ele>298.684532</ele>
        <time>2022-06-10T11:12:49.713Z</time>
      </trkpt>
      <trkpt lat="42.78321" lon="18.09326">
        <ele>298.521466</ele>
        <time>2022-06-10T11:12:52.711Z</time>
      </trkpt>
      <trkpt lat="42.78331" lon="18.09317">
        <ele>298.35848</ele>
        <time>2022-06-10T11:12:55.720Z</time>
      </trkpt>
      <trkpt lat="42.78342" lon="18.09308">
        <ele>298.189737</ele>
        <time>2022-06-10T11:12:58.700Z</time>
      </trkpt>
      <trkpt lat="42.78352" lon="18.09297">
        <ele>298.415848</ele>
        <time>2022-06-10T11:13:01.732Z</time>
      </trkpt>
      <trkpt lat="42.78361" lon="18.09284">
        <ele>298.678193</ele>
        <time>2022-06-10T11:13:04.737Z</time>
      </trkpt>
      <trkpt lat="42.78369" lon="18.09271">
        <ele>298.930005</ele>
        <time>2022-06-10T11:13:07.704Z</time>
      </trkpt>
      <trkpt lat="42.78376" lon="18.09257">
        <ele>299.175359</ele>
        <time>2022-06-10T11:13:10.716Z</time>
      </trkpt>
      <trkpt lat="42.78383" lon="18.09243">
        <ele>299.427142</ele>
        <time>2022-06-10T11:13:13.737Z</time>
      </trkpt>
      <trkpt lat="42.7839" lon="18.09228">
        <ele>299.675403</ele>
        <time>2022-06-10T11:13:16.738Z</time>
      </trkpt>
      <trkpt lat="42.78396" lon="18.09214">
        <ele>299.916812</ele>
        <time>2022-06-10T11:13:19.704Z</time>
      </trkpt>
      <trkpt lat="42.78402" lon="18.09198">
        <ele>300.17397</ele>
        <time>2022-06-10T11:13:22.716Z</time>
      </trkpt>
      <trkpt lat="42.78409" lon="18.09183">
        <ele>300.430395</ele>
        <time>2022-06-10T11:13:25.717Z</time>
      </trkpt>
      <trkpt lat="42.78415" lon="18.09168">
        <ele>300.685876</ele>
        <time>2022-06-10T11:13:28.703Z</time>
      </trkpt>
      <trkpt lat="42.78423" lon="18.09154">
        <ele>300.938383</ele>
        <time>2022-06-10T11:13:31.716Z</time>
      </trkpt>
      <trkpt lat="42.78432" lon="18.09141">
        <ele>301.204212</ele>
        <time>2022-06-10T11:13:34.707Z</time>
      </trkpt>
      <trkpt lat="42.78441" lon="18.09129">
        <ele>301.458326</ele>
        <time>2022-06-10T11:13:37.720Z</time>
      </trkpt>
      <trkpt lat="42.78451" lon="18.09118">
        <ele>301.70839</ele>
        <time>2022-06-10T11:13:40.715Z</time>
      </trkpt>
      <trkpt lat="42.78461" lon="18.09108">
        <ele>301.576354</ele>
        <time>2022-06-10T11:13:43.706Z</time>
      </trkpt>
      <trkpt lat="42.78473" lon="18.09099">
        <ele>301.370614</ele>
        <time>2022-06-10T11:13:46.725Z</time>
      </trkpt>
      <trkpt lat="42.78481" lon="18.09093">
        <ele>301.229715</ele>
        <time>2022-06-10T11:13:48.725Z</time>
      </trkpt>
      <trkpt lat="42.78493" lon="18.09087">
        <ele>301.028077</ele>
        <time>2022-06-10T11:13:51.734Z</time>
      </trkpt>
      <trkpt lat="42.78505" lon="18.0908">
        <ele>300.833863</ele>
        <time>2022-06-10T11:13:54.714Z</time>
      </trkpt>
      <trkpt lat="42.78517" lon="18.09075">
        <ele>300.627699</ele>
        <time>2022-06-10T11:13:57.721Z</time>
      </trkpt>
      <trkpt lat="42.7853" lon="18.09071">
        <ele>300.42604</ele>
        <time>2022-06-10T11:14:00.695Z</time>
      </trkpt>
      <trkpt lat="42.78543" lon="18.09068">
        <ele>300.222056</ele>
        <time>2022-06-10T11:14:03.718Z</time>
      </trkpt>
      <trkpt lat="42.78556" lon="18.09067">
        <ele>300.02665</ele>
        <time>2022-06-10T11:14:06.741Z</time>
      </trkpt>
      <trkpt lat="42.78568" lon="18.09067">
        <ele>299.836306</ele>
        <time>2022-06-10T11:14:09.712Z</time>
      </trkpt>
      <trkpt lat="42.7858" lon="18.09069">
        <ele>299.642849</ele>
        <time>2022-06-10T11:14:12.708Z</time>
      </trkpt>
      <trkpt lat="42.78593" lon="18.09072">
        <ele>299.44344</ele>
        <time>2022-06-10T11:14:15.691Z</time>
      </trkpt>
      <trkpt lat="42.78606" lon="18.09076">
        <ele>299.246241</ele>
        <time>2022-06-10T11:14:18.711Z</time>
      </trkpt>
      <trkpt lat="42.78618" lon="18.09079">
        <ele>299.04926</ele>
        <time>2022-06-10T11:14:21.708Z</time>
      </trkpt>
      <trkpt lat="42.7863" lon="18.09083">
        <ele>298.954222</ele>
        <time>2022-06-10T11:14:24.758Z</time>
      </trkpt>
      <trkpt lat="42.78643" lon="18.09087">
        <ele>298.936866</ele>
        <time>2022-06-10T11:14:27.723Z</time>
      </trkpt>
      <trkpt lat="42.78656" lon="18.0909">
        <ele>298.920404</ele>
        <time>2022-06-10T11:14:30.694Z</time>
      </trkpt>
      <trkpt lat="42.78668" lon="18.09093">
        <ele>298.904023</ele>
        <time>2022-06-10T11:14:33.704Z</time>
      </trkpt>
      <trkpt lat="42.78681" lon="18.09093">
        <ele>298.887486</ele>
        <time>2022-06-10T11:14:36.727Z</time>
      </trkpt>
      <trkpt lat="42.78694" lon="18.09094">
        <ele>298.870183</ele>
        <time>2022-06-10T11:14:39.721Z</time>
      </trkpt>
      <trkpt lat="42.78708" lon="18.09093">
        <ele>298.852732</ele>
        <time>2022-06-10T11:14:42.723Z</time>
      </trkpt>
      <trkpt lat="42.7872" lon="18.09092">
        <ele>298.836167</ele>
        <time>2022-06-10T11:14:45.716Z</time>
      </trkpt>
      <trkpt lat="42.78733" lon="18.0909">
        <ele>298.82012</ele>
        <time>2022-06-10T11:14:48.705Z</time>
      </trkpt>
      <trkpt lat="42.78745" lon="18.0909">
        <ele>298.804363</ele>
        <time>2022-06-10T11:14:51.714Z</time>
      </trkpt>
      <trkpt lat="42.78757" lon="18.09089">
        <ele>298.788991</ele>
        <time>2022-06-10T11:14:54.728Z</time>
      </trkpt>
      <trkpt lat="42.78768" lon="18.09086">
        <ele>298.773329</ele>
        <time>2022-06-10T11:14:57.711Z</time>
      </trkpt>
      <trkpt lat="42.7878" lon="18.09083">
        <ele>298.757495</ele>
        <time>2022-06-10T11:15:00.709Z</time>
      </trkpt>
      <trkpt lat="42.78792" lon="18.09078">
        <ele>298.741975</ele>
        <time>2022-06-10T11:15:03.708Z</time>
      </trkpt>
      <trkpt lat="42.78803" lon="18.09071">
        <ele>298.806107</ele>
        <time>2022-06-10T11:15:06.715Z</time>
      </trkpt>
      <trkpt lat="42.78813" lon="18.09062">
        <ele>299.166306</ele>
        <time>2022-06-10T11:15:09.741Z</time>
      </trkpt>
      <trkpt lat="42.78823" lon="18.09051">
        <ele>299.534834</ele>
        <time>2022-06-10T11:15:12.733Z</time>
      </trkpt>
      <trkpt lat="42.78832" lon="18.0904">
        <ele>299.891562</ele>
        <time>2022-06-10T11:15:15.693Z</time>
      </trkpt>
      <trkpt lat="42.7884" lon="18.09027">
        <ele>300.268426</ele>
        <time>2022-06-10T11:15:18.717Z</time>
      </trkpt>
      <trkpt lat="42.78847" lon="18.09014">
        <ele>300.624218</ele>
        <time>2022-06-10T11:15:21.732Z</time>
      </trkpt>
      <trkpt lat="42.78852" lon="18.09">
        <ele>300.960868</ele>
        <time>2022-06-10T11:15:24.724Z</time>
      </trkpt>
      <trkpt lat="42.78856" lon="18.08986">
        <ele>301.288549</ele>
        <time>2022-06-10T11:15:27.717Z</time>
      </trkpt>
      <trkpt lat="42.78859" lon="18.08972">
        <ele>301.615808</ele>
        <time>2022-06-10T11:15:30.710Z</time>
      </trkpt>
      <trkpt lat="42.78863" lon="18.08957">
        <ele>301.966895</ele>
        <time>2022-06-10T11:15:33.701Z</time>
      </trkpt>
      <trkpt lat="42.78864" lon="18.0894">
        <ele>302.326703</ele>
        <time>2022-06-10T11:15:36.704Z</time>
      </trkpt>
      <trkpt lat="42.78863" lon="18.08925">
        <ele>302.669919</ele>
        <time>2022-06-10T11:15:39.724Z</time>
      </trkpt>
      <trkpt lat="42.78861" lon="18.08908">
        <ele>303.037663</ele>
        <time>2022-06-10T11:15:42.717Z</time>
      </trkpt>
      <trkpt lat="42.78859" lon="18.0889">
        <ele>303.435105</ele>
        <time>2022-06-10T11:15:45.706Z</time>
      </trkpt>
      <trkpt lat="42.78856" lon="18.08872">
        <ele>303.835295</ele>
        <time>2022-06-10T11:15:48.728Z</time>
      </trkpt>
      <trkpt lat="42.78853" lon="18.08855">
        <ele>304.175018</ele>
        <time>2022-06-10T11:15:51.731Z</time>
      </trkpt>
      <trkpt lat="42.78849" lon="18.08838">
        <ele>304.429881</ele>
        <time>2022-06-10T11:15:54.742Z</time>
      </trkpt>
      <trkpt lat="42.78847" lon="18.08822">
        <ele>304.663176</ele>
        <time>2022-06-10T11:15:57.730Z</time>
      </trkpt>
      <trkpt lat="42.78845" lon="18.08806">
        <ele>304.892098</ele>
        <time>2022-06-10T11:16:00.706Z</time>
      </trkpt>
      <trkpt lat="42.78846" lon="18.0879">
        <ele>305.126798</ele>
        <time>2022-06-10T11:16:03.708Z</time>
      </trkpt>
      <trkpt lat="42.78847" lon="18.08773">
        <ele>305.361247</ele>
        <time>2022-06-10T11:16:06.716Z</time>
      </trkpt>
      <trkpt lat="42.7885" lon="18.08758">
        <ele>305.592525</ele>
        <time>2022-06-10T11:16:09.709Z</time>
      </trkpt>
      <trkpt lat="42.78853" lon="18.08742">
        <ele>305.818533</ele>
        <time>2022-06-10T11:16:12.724Z</time>
      </trkpt>
      <trkpt lat="42.78858" lon="18.08727">
        <ele>306.061685</ele>
        <time>2022-06-10T11:16:15.721Z</time>
      </trkpt>
      <trkpt lat="42.78862" lon="18.08711">
        <ele>306.30157</ele>
        <time>2022-06-10T11:16:18.735Z</time>
      </trkpt>
      <trkpt lat="42.78866" lon="18.08695">
        <ele>306.534667</ele>
        <time>2022-06-10T11:16:21.708Z</time>
      </trkpt>
      <trkpt lat="42.7887" lon="18.08681">
        <ele>306.759003</ele>
        <time>2022-06-10T11:16:24.719Z</time>
      </trkpt>
      <trkpt lat="42.78875" lon="18.08666">
        <ele>306.985821</ele>
        <time>2022-06-10T11:16:27.700Z</time>
      </trkpt>
      <trkpt lat="42.78881" lon="18.08652">
        <ele>307.228427</ele>
        <time>2022-06-10T11:16:30.718Z</time>
      </trkpt>
      <trkpt lat="42.78888" lon="18.08638">
        <ele>307.469528</ele>
        <time>2022-06-10T11:16:33.746Z</time>
      </trkpt>
      <trkpt lat="42.78896" lon="18.08625">
        <ele>307.369877</ele>
        <time>2022-06-10T11:16:36.698Z</time>
      </trkpt>
      <trkpt lat="42.78905" lon="18.08614">
        <ele>306.972718</ele>
        <time>2022-06-10T11:16:39.735Z</time>
      </trkpt>
      <trkpt lat="42.78914" lon="18.08605">
        <ele>306.570849</ele>
        <time>2022-06-10T11:16:42.710Z</time>
      </trkpt>
      <trkpt lat="42.78924" lon="18.08595">
        <ele>306.156538</ele>
        <time>2022-06-10T11:16:45.699Z</time>
      </trkpt>
      <trkpt lat="42.78934" lon="18.08586">
        <ele>305.74915</ele>
        <time>2022-06-10T11:16:48.707Z</time>
      </trkpt>
      <trkpt lat="42.78943" lon="18.08576">
        <ele>305.345797</ele>
        <time>2022-06-10T11:16:51.718Z</time>
      </trkpt>
      <trkpt lat="42.78953" lon="18.08567">
        <ele>304.950614</ele>
        <time>2022-06-10T11:16:54.718Z</time>
      </trkpt>
      <trkpt lat="42.78962" lon="18.08556">
        <ele>304.544182</ele>
        <time>2022-06-10T11:16:57.714Z</time>
      </trkpt>
      <trkpt lat="42.7897" lon="18.08546">
        <ele>304.159741</ele>
        <time>2022-06-10T11:17:00.744Z</time>
      </trkpt>
      <trkpt lat="42.78979" lon="18.08537">
        <ele>303.772633</ele>
        <time>2022-06-10T11:17:03.708Z</time>
      </trkpt>
      <trkpt lat="42.78989" lon="18.08527">
        <ele>303.372241</ele>
        <time>2022-06-10T11:17:06.713Z</time>
      </trkpt>
      <trkpt lat="42.78998" lon="18.08517">
        <ele>302.977781</ele>
        <time>2022-06-10T11:17:09.721Z</time>
      </trkpt>
      <trkpt lat="42.79007" lon="18.08508">
        <ele>302.581393</ele>
        <time>2022-06-10T11:17:12.732Z</time>
      </trkpt>
      <trkpt lat="42.79017" lon="18.08499">
        <ele>302.155783</ele>
        <time>2022-06-10T11:17:15.713Z</time>
      </trkpt>
      <trkpt lat="42.79027" lon="18.0849">
        <ele>301.7513</ele>
        <time>2022-06-10T11:17:18.697Z</time>
      </trkpt>
      <trkpt lat="42.79037" lon="18.08483">
        <ele>301.475971</ele>
        <time>2022-06-10T11:17:21.706Z</time>
      </trkpt>
      <trkpt lat="42.79047" lon="18.08478">
        <ele>301.571737</ele>
        <time>2022-06-10T11:17:24.728Z</time>
      </trkpt>
      <trkpt lat="42.79056" lon="18.08474">
        <ele>301.661273</ele>
        <time>2022-06-10T11:17:27.728Z</time>
      </trkpt>
      <trkpt lat="42.79065" lon="18.08471">
        <ele>301.748636</ele>
        <time>2022-06-10T11:17:30.712Z</time>
      </trkpt>
      <trkpt lat="42.79074" lon="18.08467">
        <ele>301.834987</ele>
        <time>2022-06-10T11:17:33.770Z</time>
      </trkpt>
      <trkpt lat="42.79084" lon="18.08465">
        <ele>301.927398</ele>
        <time>2022-06-10T11:17:36.714Z</time>
      </trkpt>
      <trkpt lat="42.79094" lon="18.08465">
        <ele>302.02659</ele>
        <time>2022-06-10T11:17:39.703Z</time>
      </trkpt>
      <trkpt lat="42.79105" lon="18.08465">
        <ele>302.124029</ele>
        <time>2022-06-10T11:17:42.719Z</time>
      </trkpt>
      <trkpt lat="42.79115" lon="18.08465">
        <ele>302.223205</ele>
        <time>2022-06-10T11:17:45.712Z</time>
      </trkpt>
      <trkpt lat="42.79126" lon="18.08465">
        <ele>302.319562</ele>
        <time>2022-06-10T11:17:48.720Z</time>
      </trkpt>
      <trkpt lat="42.79136" lon="18.08467">
        <ele>302.413597</ele>
        <time>2022-06-10T11:17:51.718Z</time>
      </trkpt>
      <trkpt lat="42.79146" lon="18.08468">
        <ele>302.508494</ele>
        <time>2022-06-10T11:17:54.712Z</time>
      </trkpt>
      <trkpt lat="42.79155" lon="18.0847">
        <ele>302.600821</ele>
        <time>2022-06-10T11:17:57.727Z</time>
      </trkpt>
      <trkpt lat="42.79165" lon="18.08472">
        <ele>302.694347</ele>
        <time>2022-06-10T11:18:00.692Z</time>
      </trkpt>
      <trkpt lat="42.79175" lon="18.08475">
        <ele>302.786821</ele>
        <time>2022-06-10T11:18:03.713Z</time>
      </trkpt>
      <trkpt lat="42.79184" lon="18.08477">
        <ele>302.875492</ele>
        <time>2022-06-10T11:18:06.708Z</time>
      </trkpt>
      <trkpt lat="42.79194" lon="18.08479">
        <ele>302.969846</ele>
        <time>2022-06-10T11:18:09.722Z</time>
      </trkpt>
      <trkpt lat="42.79204" lon="18.08481">
        <ele>303.063273</ele>
        <time>2022-06-10T11:18:12.720Z</time>
      </trkpt>
      <trkpt lat="42.79215" lon="18.08483">
        <ele>303.205244</ele>
        <time>2022-06-10T11:18:15.711Z</time>
      </trkpt>
      <trkpt lat="42.79225" lon="18.08485">
        <ele>303.471879</ele>
        <time>2022-06-10T11:18:18.693Z</time>
      </trkpt>
      <trkpt lat="42.79235" lon="18.08487">
        <ele>303.725308</ele>
        <time>2022-06-10T11:18:21.690Z</time>
      </trkpt>
      <trkpt lat="42.79245" lon="18.08488">
        <ele>303.975379</ele>
        <time>2022-06-10T11:18:24.700Z</time>
      </trkpt>
      <trkpt lat="42.79255" lon="18.08489">
        <ele>304.229305</ele>
        <time>2022-06-10T11:18:27.744Z</time>
      </trkpt>
      <trkpt lat="42.79265" lon="18.08487">
        <ele>304.474579</ele>
        <time>2022-06-10T11:18:30.717Z</time>
      </trkpt>
      <trkpt lat="42.79274" lon="18.08485">
        <ele>304.722273</ele>
        <time>2022-06-10T11:18:33.727Z</time>
      </trkpt>
      <trkpt lat="42.79283" lon="18.08481">
        <ele>304.957935</ele>
        <time>2022-06-10T11:18:36.708Z</time>
      </trkpt>
      <trkpt lat="42.79292" lon="18.08477">
        <ele>305.191598</ele>
        <time>2022-06-10T11:18:39.694Z</time>
      </trkpt>
      <trkpt lat="42.79301" lon="18.08472">
        <ele>305.435614</ele>
        <time>2022-06-10T11:18:42.728Z</time>
      </trkpt>
      <trkpt lat="42.7931" lon="18.08466">
        <ele>305.694867</ele>
        <time>2022-06-10T11:18:45.726Z</time>
      </trkpt>
      <trkpt lat="42.79319" lon="18.08459">
        <ele>305.944617</ele>
        <time>2022-06-10T11:18:48.719Z</time>
      </trkpt>
      <trkpt lat="42.79328" lon="18.08452">
        <ele>306.202286</ele>
        <time>2022-06-10T11:18:51.703Z</time>
      </trkpt>
      <trkpt lat="42.79336" lon="18.08445">
        <ele>306.447526</ele>
        <time>2022-06-10T11:18:54.757Z</time>
      </trkpt>
      <trkpt lat="42.79344" lon="18.08436">
        <ele>306.707497</ele>
        <time>2022-06-10T11:18:57.725Z</time>
      </trkpt>
      <trkpt lat="42.79352" lon="18.08427">
        <ele>306.956068</ele>
        <time>2022-06-10T11:19:00.707Z</time>
      </trkpt>
      <trkpt lat="42.7936" lon="18.08417">
        <ele>307.228953</ele>
        <time>2022-06-10T11:19:03.714Z</time>
      </trkpt>
      <trkpt lat="42.79367" lon="18.08406">
        <ele>307.496967</ele>
        <time>2022-06-10T11:19:06.747Z</time>
      </trkpt>
      <trkpt lat="42.79375" lon="18.08397">
        <ele>307.687386</ele>
        <time>2022-06-10T11:19:09.715Z</time>
      </trkpt>
      <trkpt lat="42.79383" lon="18.08388">
        <ele>307.768894</ele>
        <time>2022-06-10T11:19:12.758Z</time>
      </trkpt>
      <trkpt lat="42.79392" lon="18.08381">
        <ele>307.852278</ele>
        <time>2022-06-10T11:19:15.712Z</time>
      </trkpt>
      <trkpt lat="42.79401" lon="18.08374">
        <ele>307.935685</ele>
        <time>2022-06-10T11:19:18.704Z</time>
      </trkpt>
      <trkpt lat="42.7941" lon="18.08367">
        <ele>308.014855</ele>
        <time>2022-06-10T11:19:21.751Z</time>
      </trkpt>
      <trkpt lat="42.7942" lon="18.08362">
        <ele>308.096388</ele>
        <time>2022-06-10T11:19:24.709Z</time>
      </trkpt>
      <trkpt lat="42.79429" lon="18.08357">
        <ele>308.178431</ele>
        <time>2022-06-10T11:19:27.749Z</time>
      </trkpt>
      <trkpt lat="42.79438" lon="18.08351">
        <ele>308.254452</ele>
        <time>2022-06-10T11:19:30.704Z</time>
      </trkpt>
      <trkpt lat="42.79449" lon="18.08345">
        <ele>308.34526</ele>
        <time>2022-06-10T11:19:34.712Z</time>
      </trkpt>
      <trkpt lat="42.7946" lon="18.08338">
        <ele>308.437766</ele>
        <time>2022-06-10T11:19:38.757Z</time>
      </trkpt>
      <trkpt lat="42.79469" lon="18.08335">
        <ele>308.511734</ele>
        <time>2022-06-10T11:19:41.706Z</time>
      </trkpt>
      <trkpt lat="42.79479" lon="18.0833">
        <ele>308.595155</ele>
        <time>2022-06-10T11:19:44.735Z</time>
      </trkpt>
      <trkpt lat="42.79488" lon="18.08323">
        <ele>308.680528</ele>
        <time>2022-06-10T11:19:47.703Z</time>
      </trkpt>
      <trkpt lat="42.79498" lon="18.08317">
        <ele>308.765134</ele>
        <time>2022-06-10T11:19:50.714Z</time>
      </trkpt>
      <trkpt lat="42.79509" lon="18.08312">
        <ele>308.857658</ele>
        <time>2022-06-10T11:19:53.720Z</time>
      </trkpt>
      <trkpt lat="42.79521" lon="18.08308">
        <ele>308.949932</ele>
        <time>2022-06-10T11:19:56.703Z</time>
      </trkpt>
      <trkpt lat="42.79531" lon="18.08303">
        <ele>309.037836</ele>
        <time>2022-06-10T11:19:59.735Z</time>
      </trkpt>
      <trkpt lat="42.79541" lon="18.08297">
        <ele>309.282087</ele>
        <time>2022-06-10T11:20:02.705Z</time>
      </trkpt>
      <trkpt lat="42.7955" lon="18.08289">
        <ele>309.610819</ele>
        <time>2022-06-10T11:20:05.703Z</time>
      </trkpt>
      <trkpt lat="42.79558" lon="18.08281">
        <ele>309.941071</ele>
        <time>2022-06-10T11:20:08.716Z</time>
      </trkpt>
      <trkpt lat="42.79566" lon="18.08271">
        <ele>310.264378</ele>
        <time>2022-06-10T11:20:11.733Z</time>
      </trkpt>
      <trkpt lat="42.79572" lon="18.08261">
        <ele>310.574854</ele>
        <time>2022-06-10T11:20:14.716Z</time>
      </trkpt>
      <trkpt lat="42.79579" lon="18.08249">
        <ele>310.914899</ele>
        <time>2022-06-10T11:20:17.707Z</time>
      </trkpt>
      <trkpt lat="42.79585" lon="18.08237">
        <ele>311.260442</ele>
        <time>2022-06-10T11:20:20.707Z</time>
      </trkpt>
      <trkpt lat="42.7959" lon="18.08223">
        <ele>311.608702</ele>
        <time>2022-06-10T11:20:23.746Z</time>
      </trkpt>
      <trkpt lat="42.79595" lon="18.08208">
        <ele>311.985831</ele>
        <time>2022-06-10T11:20:26.721Z</time>
      </trkpt>
      <trkpt lat="42.79598" lon="18.08192">
        <ele>312.350498</ele>
        <time>2022-06-10T11:20:29.700Z</time>
      </trkpt>
      <trkpt lat="42.79599" lon="18.08177">
        <ele>312.707614</ele>
        <time>2022-06-10T11:20:32.704Z</time>
      </trkpt>
      <trkpt lat="42.79599" lon="18.08163">
        <ele>313.035085</ele>
        <time>2022-06-10T11:20:35.739Z</time>
      </trkpt>
      <trkpt lat="42.79597" lon="18.08148">
        <ele>313.374401</ele>
        <time>2022-06-10T11:20:38.748Z</time>
      </trkpt>
      <trkpt lat="42.79597" lon="18.08134">
        <ele>313.70416</ele>
        <time>2022-06-10T11:20:41.756Z</time>
      </trkpt>
      <trkpt lat="42.79597" lon="18.08118">
        <ele>314.052448</ele>
        <time>2022-06-10T11:20:44.709Z</time>
      </trkpt>
      <trkpt lat="42.79595" lon="18.08104">
        <ele>314.39365</ele>
        <time>2022-06-10T11:20:47.736Z</time>
      </trkpt>
      <trkpt lat="42.79594" lon="18.08089">
        <ele>314.649473</ele>
        <time>2022-06-10T11:20:50.731Z</time>
      </trkpt>
      <trkpt lat="42.79593" lon="18.08076">
        <ele>314.446225</ele>
        <time>2022-06-10T11:20:53.743Z</time>
      </trkpt>
      <trkpt lat="42.79593" lon="18.08061">
        <ele>314.229692</ele>
        <time>2022-06-10T11:20:56.730Z</time>
      </trkpt>
      <trkpt lat="42.79593" lon="18.08047">
        <ele>314.008757</ele>
        <time>2022-06-10T11:20:59.714Z</time>
      </trkpt>
      <trkpt lat="42.79593" lon="18.08033">
        <ele>313.803999</ele>
        <time>2022-06-10T11:21:02.708Z</time>
      </trkpt>
      <trkpt lat="42.79596" lon="18.08018">
        <ele>313.58357</ele>
        <time>2022-06-10T11:21:05.693Z</time>
      </trkpt>
      <trkpt lat="42.79599" lon="18.08003">
        <ele>313.344649</ele>
        <time>2022-06-10T11:21:08.672Z</time>
      </trkpt>
      <trkpt lat="42.79604" lon="18.07988">
        <ele>313.105833</ele>
        <time>2022-06-10T11:21:11.683Z</time>
      </trkpt>
      <trkpt lat="42.7961" lon="18.07974">
        <ele>312.859939</ele>
        <time>2022-06-10T11:21:14.673Z</time>
      </trkpt>
      <trkpt lat="42.79616" lon="18.07962">
        <ele>312.637092</ele>
        <time>2022-06-10T11:21:17.674Z</time>
      </trkpt>
      <trkpt lat="42.79624" lon="18.07949">
        <ele>312.381193</ele>
        <time>2022-06-10T11:21:20.708Z</time>
      </trkpt>
      <trkpt lat="42.79633" lon="18.07937">
        <ele>312.132247</ele>
        <time>2022-06-10T11:21:23.728Z</time>
      </trkpt>
      <trkpt lat="42.79642" lon="18.07928">
        <ele>311.896528</ele>
        <time>2022-06-10T11:21:26.742Z</time>
      </trkpt>
      <trkpt lat="42.79651" lon="18.0792">
        <ele>311.670283</ele>
        <time>2022-06-10T11:21:29.750Z</time>
      </trkpt>
      <trkpt lat="42.79661" lon="18.0791">
        <ele>311.435623</ele>
        <time>2022-06-10T11:21:32.799Z</time>
      </trkpt>
      <trkpt lat="42.7967" lon="18.07901">
        <ele>311.197671</ele>
        <time>2022-06-10T11:21:35.713Z</time>
      </trkpt>
      <trkpt lat="42.79679" lon="18.07892">
        <ele>310.95526</ele>
        <time>2022-06-10T11:21:38.707Z</time>
      </trkpt>
      <trkpt lat="42.79687" lon="18.07882">
        <ele>310.669304</ele>
        <time>2022-06-10T11:21:41.716Z</time>
      </trkpt>
      <trkpt lat="42.79694" lon="18.0787">
        <ele>310.378112</ele>
        <time>2022-06-10T11:21:44.705Z</time>
      </trkpt>
      <trkpt lat="42.797" lon="18.07858">
        <ele>310.084095</ele>
        <time>2022-06-10T11:21:47.724Z</time>
      </trkpt>
      <trkpt lat="42.79706" lon="18.07846">
        <ele>309.809512</ele>
        <time>2022-06-10T11:21:50.720Z</time>
      </trkpt>
      <trkpt lat="42.79712" lon="18.07833">
        <ele>309.519715</ele>
        <time>2022-06-10T11:21:53.723Z</time>
      </trkpt>
      <trkpt lat="42.79718" lon="18.0782">
        <ele>309.21536</ele>
        <time>2022-06-10T11:21:56.710Z</time>
      </trkpt>
      <trkpt lat="42.79723" lon="18.07806">
        <ele>308.910709</ele>
        <time>2022-06-10T11:21:59.724Z</time>
      </trkpt>
      <trkpt lat="42.7973" lon="18.07793">
        <ele>308.600717</ele>
        <time>2022-06-10T11:22:02.706Z</time>
      </trkpt>
      <trkpt lat="42.79738" lon="18.07781">
        <ele>308.29423</ele>
        <time>2022-06-10T11:22:05.713Z</time>
      </trkpt>
      <trkpt lat="42.79746" lon="18.0777">
        <ele>307.99174</ele>
        <time>2022-06-10T11:22:08.714Z</time>
      </trkpt>
      <trkpt lat="42.79755" lon="18.07761">
        <ele>307.693304</ele>
        <time>2022-06-10T11:22:11.707Z</time>
      </trkpt>
      <trkpt lat="42.79764" lon="18.07753">
        <ele>307.413711</ele>
        <time>2022-06-10T11:22:14.704Z</time>
      </trkpt>
      <trkpt lat="42.79774" lon="18.07747">
        <ele>307.118491</ele>
        <time>2022-06-10T11:22:17.709Z</time>
      </trkpt>
      <trkpt lat="42.79785" lon="18.07742">
        <ele>306.818098</ele>
        <time>2022-06-10T11:22:20.709Z</time>
      </trkpt>
      <trkpt lat="42.79796" lon="18.07735">
        <ele>306.508557</ele>
        <time>2022-06-10T11:22:23.737Z</time>
      </trkpt>
      <trkpt lat="42.79806" lon="18.07729">
        <ele>306.166347</ele>
        <time>2022-06-10T11:22:26.753Z</time>
      </trkpt>
      <trkpt lat="42.79818" lon="18.07723">
        <ele>305.675394</ele>
        <time>2022-06-10T11:22:29.738Z</time>
      </trkpt>
      <trkpt lat="42.79828" lon="18.07718">
        <ele>305.211213</ele>
        <time>2022-06-10T11:22:32.710Z</time>
      </trkpt>
      <trkpt lat="42.7984" lon="18.07711">
        <ele>304.72226</ele>
        <time>2022-06-10T11:22:35.770Z</time>
      </trkpt>
      <trkpt lat="42.79848" lon="18.07707">
        <ele>304.348651</ele>
        <time>2022-06-10T11:22:37.712Z</time>
      </trkpt>
      <trkpt lat="42.79861" lon="18.07702">
        <ele>303.830165</ele>
        <time>2022-06-10T11:22:40.711Z</time>
      </trkpt>
      <trkpt lat="42.7987" lon="18.07698">
        <ele>303.449482</ele>
        <time>2022-06-10T11:22:42.696Z</time>
      </trkpt>
      <trkpt lat="42.79879" lon="18.07694">
        <ele>303.072096</ele>
        <time>2022-06-10T11:22:44.724Z</time>
      </trkpt>
      <trkpt lat="42.79887" lon="18.07689">
        <ele>302.695664</ele>
        <time>2022-06-10T11:22:46.747Z</time>
      </trkpt>
      <trkpt lat="42.79896" lon="18.07684">
        <ele>302.317782</ele>
        <time>2022-06-10T11:22:48.723Z</time>
      </trkpt>
      <trkpt lat="42.79904" lon="18.07679">
        <ele>301.944739</ele>
        <time>2022-06-10T11:22:50.703Z</time>
      </trkpt>
      <trkpt lat="42.79913" lon="18.07674">
        <ele>301.579157</ele>
        <time>2022-06-10T11:22:52.722Z</time>
      </trkpt>
      <trkpt lat="42.79921" lon="18.07669">
        <ele>301.204045</ele>
        <time>2022-06-10T11:22:54.733Z</time>
      </trkpt>
      <trkpt lat="42.7993" lon="18.07663">
        <ele>300.824929</ele>
        <time>2022-06-10T11:22:56.722Z</time>
      </trkpt>
      <trkpt lat="42.79938" lon="18.07657">
        <ele>300.448428</ele>
        <time>2022-06-10T11:22:58.720Z</time>
      </trkpt>
      <trkpt lat="42.79946" lon="18.0765">
        <ele>300.067263</ele>
        <time>2022-06-10T11:23:00.748Z</time>
      </trkpt>
      <trkpt lat="42.79956" lon="18.07639">
        <ele>299.532653</ele>
        <time>2022-06-10T11:23:03.727Z</time>
      </trkpt>
      <trkpt lat="42.79966" lon="18.07627">
        <ele>299.024213</ele>
        <time>2022-06-10T11:23:06.718Z</time>
      </trkpt>
      <trkpt lat="42.79975" lon="18.07613">
        <ele>299.019825</ele>
        <time>2022-06-10T11:23:09.716Z</time>
      </trkpt>
      <trkpt lat="42.79983" lon="18.07598">
        <ele>299.015413</ele>
        <time>2022-06-10T11:23:12.711Z</time>
      </trkpt>
      <trkpt lat="42.79991" lon="18.07583">
        <ele>299.011019</ele>
        <time>2022-06-10T11:23:15.710Z</time>
      </trkpt>
      <trkpt lat="42.79999" lon="18.0757">
        <ele>299.006794</ele>
        <time>2022-06-10T11:23:18.724Z</time>
      </trkpt>
      <trkpt lat="42.80008" lon="18.07557">
        <ele>299.002487</ele>
        <time>2022-06-10T11:23:21.711Z</time>
      </trkpt>
      <trkpt lat="42.80018" lon="18.07544">
        <ele>298.998193</ele>
        <time>2022-06-10T11:23:24.728Z</time>
      </trkpt>
      <trkpt lat="42.80025" lon="18.07536">
        <ele>298.995169</ele>
        <time>2022-06-10T11:23:26.726Z</time>
      </trkpt>
      <trkpt lat="42.80032" lon="18.07529">
        <ele>298.992222</ele>
        <time>2022-06-10T11:23:28.702Z</time>
      </trkpt>
      <trkpt lat="42.80043" lon="18.07519">
        <ele>298.987815</ele>
        <time>2022-06-10T11:23:31.712Z</time>
      </trkpt>
      <trkpt lat="42.80054" lon="18.07508">
        <ele>298.983423</ele>
        <time>2022-06-10T11:23:34.725Z</time>
      </trkpt>
      <trkpt lat="42.80062" lon="18.07502">
        <ele>298.980366</ele>
        <time>2022-06-10T11:23:36.702Z</time>
      </trkpt>
      <trkpt lat="42.8007" lon="18.07495">
        <ele>298.977352</ele>
        <time>2022-06-10T11:23:38.723Z</time>
      </trkpt>
      <trkpt lat="42.80078" lon="18.07488">
        <ele>298.974321</ele>
        <time>2022-06-10T11:23:40.711Z</time>
      </trkpt>
      <trkpt lat="42.80086" lon="18.07482">
        <ele>298.971253</ele>
        <time>2022-06-10T11:23:42.728Z</time>
      </trkpt>
      <trkpt lat="42.80098" lon="18.07473">
        <ele>298.966945</ele>
        <time>2022-06-10T11:23:45.832Z</time>
      </trkpt>
      <trkpt lat="42.80109" lon="18.07465">
        <ele>298.962943</ele>
        <time>2022-06-10T11:23:48.719Z</time>
      </trkpt>
      <trkpt lat="42.80121" lon="18.07456">
        <ele>298.959096</ele>
        <time>2022-06-10T11:23:51.742Z</time>
      </trkpt>
      <trkpt lat="42.80132" lon="18.07447">
        <ele>298.955326</ele>
        <time>2022-06-10T11:23:54.717Z</time>
      </trkpt>
      <trkpt lat="42.80144" lon="18.07439">
        <ele>298.951457</ele>
        <time>2022-06-10T11:23:57.733Z</time>
      </trkpt>
      <trkpt lat="42.80155" lon="18.07431">
        <ele>298.947773</ele>
        <time>2022-06-10T11:24:00.716Z</time>
      </trkpt>
      <trkpt lat="42.80167" lon="18.07423">
        <ele>298.944048</ele>
        <time>2022-06-10T11:24:03.724Z</time>
      </trkpt>
      <trkpt lat="42.80179" lon="18.07417">
        <ele>298.940269</ele>
        <time>2022-06-10T11:24:06.805Z</time>
      </trkpt>
      <trkpt lat="42.80191" lon="18.0741">
        <ele>298.936592</ele>
        <time>2022-06-10T11:24:09.739Z</time>
      </trkpt>
      <trkpt lat="42.80202" lon="18.07405">
        <ele>298.933015</ele>
        <time>2022-06-10T11:24:12.713Z</time>
      </trkpt>
      <trkpt lat="42.80213" lon="18.07399">
        <ele>298.92967</ele>
        <time>2022-06-10T11:24:15.707Z</time>
      </trkpt>
      <trkpt lat="42.80224" lon="18.07395">
        <ele>298.926298</ele>
        <time>2022-06-10T11:24:18.711Z</time>
      </trkpt>
      <trkpt lat="42.80236" lon="18.07391">
        <ele>298.922793</ele>
        <time>2022-06-10T11:24:21.717Z</time>
      </trkpt>
      <trkpt lat="42.80248" lon="18.07386">
        <ele>298.919187</ele>
        <time>2022-06-10T11:24:24.810Z</time>
      </trkpt>
      <trkpt lat="42.8026" lon="18.07382">
        <ele>298.915495</ele>
        <time>2022-06-10T11:24:27.716Z</time>
      </trkpt>
      <trkpt lat="42.80272" lon="18.07379">
        <ele>299.01725</ele>
        <time>2022-06-10T11:24:30.721Z</time>
      </trkpt>
      <trkpt lat="42.80284" lon="18.07376">
        <ele>299.260701</ele>
        <time>2022-06-10T11:24:33.713Z</time>
      </trkpt>
      <trkpt lat="42.80296" lon="18.07373">
        <ele>299.519764</ele>
        <time>2022-06-10T11:24:36.705Z</time>
      </trkpt>
      <trkpt lat="42.80309" lon="18.07369">
        <ele>299.78347</ele>
        <time>2022-06-10T11:24:39.707Z</time>
      </trkpt>
      <trkpt lat="42.8032" lon="18.07367">
        <ele>300.028722</ele>
        <time>2022-06-10T11:24:42.709Z</time>
      </trkpt>
      <trkpt lat="42.80332" lon="18.07364">
        <ele>300.270959</ele>
        <time>2022-06-10T11:24:45.729Z</time>
      </trkpt>
      <trkpt lat="42.80343" lon="18.07359">
        <ele>300.509697</ele>
        <time>2022-06-10T11:24:48.736Z</time>
      </trkpt>
      <trkpt lat="42.80355" lon="18.07356">
        <ele>300.762962</ele>
        <time>2022-06-10T11:24:51.705Z</time>
      </trkpt>
      <trkpt lat="42.80367" lon="18.07353">
        <ele>301.024057</ele>
        <time>2022-06-10T11:24:54.709Z</time>
      </trkpt>
      <trkpt lat="42.80379" lon="18.07349">
        <ele>301.275602</ele>
        <time>2022-06-10T11:24:57.707Z</time>
      </trkpt>
      <trkpt lat="42.80392" lon="18.07347">
        <ele>301.534931</ele>
        <time>2022-06-10T11:25:00.722Z</time>
      </trkpt>
      <trkpt lat="42.80404" lon="18.07345">
        <ele>301.794822</ele>
        <time>2022-06-10T11:25:03.709Z</time>
      </trkpt>
      <trkpt lat="42.80413" lon="18.07344">
        <ele>301.981414</ele>
        <time>2022-06-10T11:25:05.766Z</time>
      </trkpt>
      <trkpt lat="42.80422" lon="18.07342">
        <ele>302.172889</ele>
        <time>2022-06-10T11:25:07.730Z</time>
      </trkpt>
      <trkpt lat="42.80435" lon="18.07342">
        <ele>302.43981</ele>
        <time>2022-06-10T11:25:10.711Z</time>
      </trkpt>
      <trkpt lat="42.80448" lon="18.07343">
        <ele>302.748881</ele>
        <time>2022-06-10T11:25:13.706Z</time>
      </trkpt>
      <trkpt lat="42.80459" lon="18.07344">
        <ele>303.1318</ele>
        <time>2022-06-10T11:25:16.785Z</time>
      </trkpt>
      <trkpt lat="42.80472" lon="18.07346">
        <ele>303.549127</ele>
        <time>2022-06-10T11:25:19.716Z</time>
      </trkpt>
      <trkpt lat="42.80485" lon="18.07348">
        <ele>303.987749</ele>
        <time>2022-06-10T11:25:22.706Z</time>
      </trkpt>
      <trkpt lat="42.80497" lon="18.07349">
        <ele>304.401514</ele>
        <time>2022-06-10T11:25:25.706Z</time>
      </trkpt>
      <trkpt lat="42.80509" lon="18.07351">
        <ele>304.811728</ele>
        <time>2022-06-10T11:25:28.723Z</time>
      </trkpt>
      <trkpt lat="42.80521" lon="18.07352">
        <ele>305.218819</ele>
        <time>2022-06-10T11:25:31.710Z</time>
      </trkpt>
      <trkpt lat="42.80533" lon="18.07354">
        <ele>305.604593</ele>
        <time>2022-06-10T11:25:34.700Z</time>
      </trkpt>
      <trkpt lat="42.80544" lon="18.07356">
        <ele>305.985243</ele>
        <time>2022-06-10T11:25:37.714Z</time>
      </trkpt>
      <trkpt lat="42.80556" lon="18.07356">
        <ele>306.3808</ele>
        <time>2022-06-10T11:25:40.725Z</time>
      </trkpt>
      <trkpt lat="42.80568" lon="18.07356">
        <ele>306.779706</ele>
        <time>2022-06-10T11:25:43.766Z</time>
      </trkpt>
      <trkpt lat="42.8058" lon="18.07356">
        <ele>307.191833</ele>
        <time>2022-06-10T11:25:46.721Z</time>
      </trkpt>
      <trkpt lat="42.80592" lon="18.07356">
        <ele>307.59725</ele>
        <time>2022-06-10T11:25:49.725Z</time>
      </trkpt>
      <trkpt lat="42.80605" lon="18.07354">
        <ele>308.01769</ele>
        <time>2022-06-10T11:25:52.700Z</time>
      </trkpt>
      <trkpt lat="42.80617" lon="18.07352">
        <ele>308.422752</ele>
        <time>2022-06-10T11:25:55.720Z</time>
      </trkpt>
      <trkpt lat="42.80628" lon="18.07351">
        <ele>308.572229</ele>
        <time>2022-06-10T11:25:58.730Z</time>
      </trkpt>
      <trkpt lat="42.80639" lon="18.0735">
        <ele>308.327691</ele>
        <time>2022-06-10T11:26:01.707Z</time>
      </trkpt>
      <trkpt lat="42.8065" lon="18.07348">
        <ele>308.076007</ele>
        <time>2022-06-10T11:26:04.697Z</time>
      </trkpt>
      <trkpt lat="42.80661" lon="18.07347">
        <ele>307.831193</ele>
        <time>2022-06-10T11:26:07.747Z</time>
      </trkpt>
      <trkpt lat="42.80673" lon="18.07344">
        <ele>307.567459</ele>
        <time>2022-06-10T11:26:10.706Z</time>
      </trkpt>
      <trkpt lat="42.80685" lon="18.07343">
        <ele>307.305147</ele>
        <time>2022-06-10T11:26:13.712Z</time>
      </trkpt>
      <trkpt lat="42.80697" lon="18.07341">
        <ele>307.040503</ele>
        <time>2022-06-10T11:26:16.711Z</time>
      </trkpt>
      <trkpt lat="42.80709" lon="18.07339">
        <ele>306.776548</ele>
        <time>2022-06-10T11:26:19.710Z</time>
      </trkpt>
      <trkpt lat="42.80721" lon="18.07337">
        <ele>306.507053</ele>
        <time>2022-06-10T11:26:22.738Z</time>
      </trkpt>
      <trkpt lat="42.80733" lon="18.07336">
        <ele>306.245112</ele>
        <time>2022-06-10T11:26:25.704Z</time>
      </trkpt>
      <trkpt lat="42.80745" lon="18.07334">
        <ele>305.982167</ele>
        <time>2022-06-10T11:26:28.710Z</time>
      </trkpt>
      <trkpt lat="42.80757" lon="18.07332">
        <ele>305.720822</ele>
        <time>2022-06-10T11:26:31.711Z</time>
      </trkpt>
      <trkpt lat="42.80769" lon="18.0733">
        <ele>305.452943</ele>
        <time>2022-06-10T11:26:34.725Z</time>
      </trkpt>
      <trkpt lat="42.8078" lon="18.07329">
        <ele>305.196722</ele>
        <time>2022-06-10T11:26:37.711Z</time>
      </trkpt>
      <trkpt lat="42.80792" lon="18.07328">
        <ele>304.941786</ele>
        <time>2022-06-10T11:26:40.714Z</time>
      </trkpt>
      <trkpt lat="42.80803" lon="18.07326">
        <ele>304.725267</ele>
        <time>2022-06-10T11:26:43.713Z</time>
      </trkpt>
      <trkpt lat="42.80815" lon="18.07327">
        <ele>305.115906</ele>
        <time>2022-06-10T11:26:46.711Z</time>
      </trkpt>
      <trkpt lat="42.80827" lon="18.07329">
        <ele>305.500481</ele>
        <time>2022-06-10T11:26:49.713Z</time>
      </trkpt>
      <trkpt lat="42.80839" lon="18.07333">
        <ele>305.899612</ele>
        <time>2022-06-10T11:26:52.703Z</time>
      </trkpt>
      <trkpt lat="42.80851" lon="18.07338">
        <ele>306.316144</ele>
        <time>2022-06-10T11:26:55.717Z</time>
      </trkpt>
      <trkpt lat="42.80863" lon="18.07345">
        <ele>306.731535</ele>
        <time>2022-06-10T11:26:58.696Z</time>
      </trkpt>
      <trkpt lat="42.80874" lon="18.07353">
        <ele>307.135179</ele>
        <time>2022-06-10T11:27:01.740Z</time>
      </trkpt>
      <trkpt lat="42.80885" lon="18.07361">
        <ele>307.547104</ele>
        <time>2022-06-10T11:27:04.713Z</time>
      </trkpt>
      <trkpt lat="42.80897" lon="18.07369">
        <ele>307.965464</ele>
        <time>2022-06-10T11:27:07.749Z</time>
      </trkpt>
      <trkpt lat="42.80908" lon="18.07378">
        <ele>308.378166</ele>
        <time>2022-06-10T11:27:10.716Z</time>
      </trkpt>
      <trkpt lat="42.80918" lon="18.07388">
        <ele>308.777121</ele>
        <time>2022-06-10T11:27:13.730Z</time>
      </trkpt>
      <trkpt lat="42.80928" lon="18.07398">
        <ele>309.182352</ele>
        <time>2022-06-10T11:27:16.721Z</time>
      </trkpt>
      <trkpt lat="42.80938" lon="18.07407">
        <ele>309.565302</ele>
        <time>2022-06-10T11:27:19.719Z</time>
      </trkpt>
      <trkpt lat="42.80948" lon="18.07416">
        <ele>309.946542</ele>
        <time>2022-06-10T11:27:22.702Z</time>
      </trkpt>
      <trkpt lat="42.80957" lon="18.07425">
        <ele>310.31587</ele>
        <time>2022-06-10T11:27:25.715Z</time>
      </trkpt>
      <trkpt lat="42.80967" lon="18.07434">
        <ele>310.508743</ele>
        <time>2022-06-10T11:27:28.703Z</time>
      </trkpt>
      <trkpt lat="42.80977" lon="18.07443">
        <ele>310.497154</ele>
        <time>2022-06-10T11:27:31.712Z</time>
      </trkpt>
      <trkpt lat="42.80988" lon="18.07451">
        <ele>310.485139</ele>
        <time>2022-06-10T11:27:34.705Z</time>
      </trkpt>
      <trkpt lat="42.80999" lon="18.0746">
        <ele>310.473027</ele>
        <time>2022-06-10T11:27:37.719Z</time>
      </trkpt>
      <trkpt lat="42.81011" lon="18.07467">
        <ele>310.460808</ele>
        <time>2022-06-10T11:27:40.709Z</time>
      </trkpt>
      <trkpt lat="42.81022" lon="18.07473">
        <ele>310.449337</ele>
        <time>2022-06-10T11:27:43.715Z</time>
      </trkpt>
      <trkpt lat="42.81033" lon="18.07478">
        <ele>310.4378</ele>
        <time>2022-06-10T11:27:46.701Z</time>
      </trkpt>
      <trkpt lat="42.81044" lon="18.07483">
        <ele>310.426691</ele>
        <time>2022-06-10T11:27:49.709Z</time>
      </trkpt>
      <trkpt lat="42.81056" lon="18.07487">
        <ele>310.41557</ele>
        <time>2022-06-10T11:27:52.767Z</time>
      </trkpt>
      <trkpt lat="42.81067" lon="18.07489">
        <ele>310.404406</ele>
        <time>2022-06-10T11:27:55.701Z</time>
      </trkpt>
      <trkpt lat="42.81079" lon="18.07492">
        <ele>310.393024</ele>
        <time>2022-06-10T11:27:58.740Z</time>
      </trkpt>
      <trkpt lat="42.81091" lon="18.07494">
        <ele>310.381671</ele>
        <time>2022-06-10T11:28:01.729Z</time>
      </trkpt>
      <trkpt lat="42.81103" lon="18.07494">
        <ele>310.370498</ele>
        <time>2022-06-10T11:28:04.714Z</time>
      </trkpt>
      <trkpt lat="42.81115" lon="18.07494">
        <ele>310.358667</ele>
        <time>2022-06-10T11:28:07.723Z</time>
      </trkpt>
      <trkpt lat="42.81128" lon="18.07494">
        <ele>310.34645</ele>
        <time>2022-06-10T11:28:10.725Z</time>
      </trkpt>
      <trkpt lat="42.8114" lon="18.07493">
        <ele>310.211289</ele>
        <time>2022-06-10T11:28:13.728Z</time>
      </trkpt>
      <trkpt lat="42.81152" lon="18.0749">
        <ele>310.008461</ele>
        <time>2022-06-10T11:28:16.731Z</time>
      </trkpt>
      <trkpt lat="42.81164" lon="18.07487">
        <ele>309.801346</ele>
        <time>2022-06-10T11:28:19.722Z</time>
      </trkpt>
      <trkpt lat="42.81176" lon="18.07485">
        <ele>309.595894</ele>
        <time>2022-06-10T11:28:22.720Z</time>
      </trkpt>
      <trkpt lat="42.81188" lon="18.07483">
        <ele>309.391879</ele>
        <time>2022-06-10T11:28:25.712Z</time>
      </trkpt>
      <trkpt lat="42.812" lon="18.07482">
        <ele>309.178955</ele>
        <time>2022-06-10T11:28:28.715Z</time>
      </trkpt>
      <trkpt lat="42.81213" lon="18.07482">
        <ele>308.97307</ele>
        <time>2022-06-10T11:28:31.711Z</time>
      </trkpt>
      <trkpt lat="42.81225" lon="18.07484">
        <ele>308.76988</ele>
        <time>2022-06-10T11:28:34.724Z</time>
      </trkpt>
      <trkpt lat="42.81237" lon="18.07487">
        <ele>308.558564</ele>
        <time>2022-06-10T11:28:37.749Z</time>
      </trkpt>
      <trkpt lat="42.81249" lon="18.07492">
        <ele>308.346578</ele>
        <time>2022-06-10T11:28:40.719Z</time>
      </trkpt>
      <trkpt lat="42.81261" lon="18.07497">
        <ele>308.129976</ele>
        <time>2022-06-10T11:28:43.802Z</time>
      </trkpt>
      <trkpt lat="42.81274" lon="18.07501">
        <ele>307.907506</ele>
        <time>2022-06-10T11:28:46.711Z</time>
      </trkpt>
      <trkpt lat="42.81287" lon="18.07504">
        <ele>307.690964</ele>
        <time>2022-06-10T11:28:49.705Z</time>
      </trkpt>
      <trkpt lat="42.81299" lon="18.07506">
        <ele>307.479054</ele>
        <time>2022-06-10T11:28:52.710Z</time>
      </trkpt>
      <trkpt lat="42.81312" lon="18.0751">
        <ele>307.323037</ele>
        <time>2022-06-10T11:28:55.718Z</time>
      </trkpt>
      <trkpt lat="42.81324" lon="18.07513">
        <ele>307.397116</ele>
        <time>2022-06-10T11:28:58.711Z</time>
      </trkpt>
      <trkpt lat="42.81337" lon="18.07518">
        <ele>307.47384</ele>
        <time>2022-06-10T11:29:01.708Z</time>
      </trkpt>
      <trkpt lat="42.81349" lon="18.07526">
        <ele>307.548112</ele>
        <time>2022-06-10T11:29:04.709Z</time>
      </trkpt>
      <trkpt lat="42.81357" lon="18.07532">
        <ele>307.601067</ele>
        <time>2022-06-10T11:29:06.728Z</time>
      </trkpt>
      <trkpt lat="42.81365" lon="18.07538">
        <ele>307.654952</ele>
        <time>2022-06-10T11:29:08.711Z</time>
      </trkpt>
      <trkpt lat="42.81376" lon="18.07548">
        <ele>307.732441</ele>
        <time>2022-06-10T11:29:11.711Z</time>
      </trkpt>
      <trkpt lat="42.81387" lon="18.07558">
        <ele>307.80997</ele>
        <time>2022-06-10T11:29:14.703Z</time>
      </trkpt>
      <trkpt lat="42.81396" lon="18.07564">
        <ele>307.86342</ele>
        <time>2022-06-10T11:29:16.740Z</time>
      </trkpt>
      <trkpt lat="42.81408" lon="18.07569">
        <ele>307.936684</ele>
        <time>2022-06-10T11:29:19.715Z</time>
      </trkpt>
      <trkpt lat="42.8142" lon="18.07574">
        <ele>308.00981</ele>
        <time>2022-06-10T11:29:22.731Z</time>
      </trkpt>
      <trkpt lat="42.81433" lon="18.07578">
        <ele>308.087871</ele>
        <time>2022-06-10T11:29:25.706Z</time>
      </trkpt>
      <trkpt lat="42.81442" lon="18.0758">
        <ele>308.141842</ele>
        <time>2022-06-10T11:29:27.755Z</time>
      </trkpt>
      <trkpt lat="42.81451" lon="18.0758">
        <ele>308.195652</ele>
        <time>2022-06-10T11:29:29.722Z</time>
      </trkpt>
      <trkpt lat="42.8146" lon="18.07581">
        <ele>308.24732</ele>
        <time>2022-06-10T11:29:31.713Z</time>
      </trkpt>
      <trkpt lat="42.8147" lon="18.07583">
        <ele>308.302241</ele>
        <time>2022-06-10T11:29:33.686Z</time>
      </trkpt>
      <trkpt lat="42.81479" lon="18.07585">
        <ele>308.303007</ele>
        <time>2022-06-10T11:29:35.683Z</time>
      </trkpt>
      <trkpt lat="42.81492" lon="18.07588">
        <ele>307.808585</ele>
        <time>2022-06-10T11:29:38.678Z</time>
      </trkpt>
      <trkpt lat="42.81501" lon="18.07589">
        <ele>307.451563</ele>
        <time>2022-06-10T11:29:40.694Z</time>
      </trkpt>
      <trkpt lat="42.8151" lon="18.07591">
        <ele>307.109842</ele>
        <time>2022-06-10T11:29:42.687Z</time>
      </trkpt>
      <trkpt lat="42.81523" lon="18.07592">
        <ele>306.61877</ele>
        <time>2022-06-10T11:29:45.685Z</time>
      </trkpt>
      <trkpt lat="42.81535" lon="18.07594">
        <ele>306.1606</ele>
        <time>2022-06-10T11:29:48.691Z</time>
      </trkpt>
      <trkpt lat="42.81546" lon="18.07596">
        <ele>305.730781</ele>
        <time>2022-06-10T11:29:51.681Z</time>
      </trkpt>
      <trkpt lat="42.81557" lon="18.07597">
        <ele>305.325389</ele>
        <time>2022-06-10T11:29:54.681Z</time>
      </trkpt>
      <trkpt lat="42.81567" lon="18.07599">
        <ele>304.947783</ele>
        <time>2022-06-10T11:29:57.683Z</time>
      </trkpt>
      <trkpt lat="42.81577" lon="18.07601">
        <ele>304.564878</ele>
        <time>2022-06-10T11:30:00.684Z</time>
      </trkpt>
      <trkpt lat="42.81587" lon="18.07601">
        <ele>304.187831</ele>
        <time>2022-06-10T11:30:03.682Z</time>
      </trkpt>
      <trkpt lat="42.81597" lon="18.07601">
        <ele>303.80325</ele>
        <time>2022-06-10T11:30:06.719Z</time>
      </trkpt>
      <trkpt lat="42.81607" lon="18.07603">
        <ele>303.429369</ele>
        <time>2022-06-10T11:30:09.683Z</time>
      </trkpt>
      <trkpt lat="42.81618" lon="18.07605">
        <ele>303.007018</ele>
        <time>2022-06-10T11:30:12.690Z</time>
      </trkpt>
      <trkpt lat="42.8163" lon="18.07603">
        <ele>302.560365</ele>
        <time>2022-06-10T11:30:15.714Z</time>
      </trkpt>
      <trkpt lat="42.81642" lon="18.07601">
        <ele>302.104393</ele>
        <time>2022-06-10T11:30:18.698Z</time>
      </trkpt>
      <trkpt lat="42.81655" lon="18.07599">
        <ele>301.62564</ele>
        <time>2022-06-10T11:30:21.690Z</time>
      </trkpt>
      <trkpt lat="42.81667" lon="18.07596">
        <ele>301.195768</ele>
        <time>2022-06-10T11:30:24.702Z</time>
      </trkpt>
      <trkpt lat="42.8168" lon="18.07591">
        <ele>300.761984</ele>
        <time>2022-06-10T11:30:27.699Z</time>
      </trkpt>
      <trkpt lat="42.81692" lon="18.07585">
        <ele>300.335717</ele>
        <time>2022-06-10T11:30:30.688Z</time>
      </trkpt>
      <trkpt lat="42.81703" lon="18.07577">
        <ele>299.906646</ele>
        <time>2022-06-10T11:30:33.679Z</time>
      </trkpt>
      <trkpt lat="42.81714" lon="18.07569">
        <ele>299.498375</ele>
        <time>2022-06-10T11:30:36.703Z</time>
      </trkpt>
      <trkpt lat="42.81726" lon="18.07562">
        <ele>299.070164</ele>
        <time>2022-06-10T11:30:39.691Z</time>
      </trkpt>
      <trkpt lat="42.81738" lon="18.07554">
        <ele>298.635107</ele>
        <time>2022-06-10T11:30:42.683Z</time>
      </trkpt>
      <trkpt lat="42.81749" lon="18.07547">
        <ele>298.217158</ele>
        <time>2022-06-10T11:30:45.681Z</time>
      </trkpt>
      <trkpt lat="42.81761" lon="18.07539">
        <ele>297.801073</ele>
        <time>2022-06-10T11:30:48.696Z</time>
      </trkpt>
      <trkpt lat="42.81772" lon="18.07531">
        <ele>297.381334</ele>
        <time>2022-06-10T11:30:51.683Z</time>
      </trkpt>
      <trkpt lat="42.81784" lon="18.07523">
        <ele>296.946482</ele>
        <time>2022-06-10T11:30:54.690Z</time>
      </trkpt>
      <trkpt lat="42.81795" lon="18.07515">
        <ele>296.51245</ele>
        <time>2022-06-10T11:30:57.691Z</time>
      </trkpt>
      <trkpt lat="42.81807" lon="18.07508">
        <ele>296.104442</ele>
        <time>2022-06-10T11:31:00.706Z</time>
      </trkpt>
      <trkpt lat="42.81818" lon="18.075">
        <ele>295.692121</ele>
        <time>2022-06-10T11:31:03.684Z</time>
      </trkpt>
      <trkpt lat="42.81828" lon="18.07493">
        <ele>295.620423</ele>
        <time>2022-06-10T11:31:06.699Z</time>
      </trkpt>
      <trkpt lat="42.8184" lon="18.07485">
        <ele>295.628409</ele>
        <time>2022-06-10T11:31:09.681Z</time>
      </trkpt>
      <trkpt lat="42.81851" lon="18.07478">
        <ele>295.636371</ele>
        <time>2022-06-10T11:31:12.691Z</time>
      </trkpt>
      <trkpt lat="42.81863" lon="18.0747">
        <ele>295.644834</ele>
        <time>2022-06-10T11:31:15.678Z</time>
      </trkpt>
      <trkpt lat="42.81874" lon="18.07462">
        <ele>295.652841</ele>
        <time>2022-06-10T11:31:18.690Z</time>
      </trkpt>
      <trkpt lat="42.81885" lon="18.07455">
        <ele>295.660792</ele>
        <time>2022-06-10T11:31:21.682Z</time>
      </trkpt>
      <trkpt lat="42.81897" lon="18.07446">
        <ele>295.669225</ele>
        <time>2022-06-10T11:31:24.684Z</time>
      </trkpt>
      <trkpt lat="42.81909" lon="18.07439">
        <ele>295.677555</ele>
        <time>2022-06-10T11:31:27.689Z</time>
      </trkpt>
      <trkpt lat="42.8192" lon="18.07431">
        <ele>295.685754</ele>
        <time>2022-06-10T11:31:30.685Z</time>
      </trkpt>
      <trkpt lat="42.81931" lon="18.07423">
        <ele>295.693507</ele>
        <time>2022-06-10T11:31:33.704Z</time>
      </trkpt>
      <trkpt lat="42.81942" lon="18.07416">
        <ele>295.701313</ele>
        <time>2022-06-10T11:31:36.698Z</time>
      </trkpt>
      <trkpt lat="42.81953" lon="18.07408">
        <ele>295.709095</ele>
        <time>2022-06-10T11:31:39.703Z</time>
      </trkpt>
      <trkpt lat="42.81964" lon="18.074">
        <ele>295.717027</ele>
        <time>2022-06-10T11:31:42.732Z</time>
      </trkpt>
      <trkpt lat="42.81973" lon="18.07391">
        <ele>295.724162</ele>
        <time>2022-06-10T11:31:45.698Z</time>
      </trkpt>
      <trkpt lat="42.81982" lon="18.07382">
        <ele>295.796301</ele>
        <time>2022-06-10T11:31:48.702Z</time>
      </trkpt>
      <trkpt lat="42.81991" lon="18.07375">
        <ele>295.978826</ele>
        <time>2022-06-10T11:31:51.710Z</time>
      </trkpt>
      <trkpt lat="42.82" lon="18.07366">
        <ele>296.176192</ele>
        <time>2022-06-10T11:31:54.717Z</time>
      </trkpt>
      <trkpt lat="42.82009" lon="18.07358">
        <ele>296.357927</ele>
        <time>2022-06-10T11:31:57.703Z</time>
      </trkpt>
      <trkpt lat="42.82018" lon="18.07348">
        <ele>296.553833</ele>
        <time>2022-06-10T11:32:00.711Z</time>
      </trkpt>
      <trkpt lat="42.82027" lon="18.0734">
        <ele>296.73837</ele>
        <time>2022-06-10T11:32:03.710Z</time>
      </trkpt>
      <trkpt lat="42.82035" lon="18.07332">
        <ele>296.915025</ele>
        <time>2022-06-10T11:32:06.731Z</time>
      </trkpt>
      <trkpt lat="42.82044" lon="18.07325">
        <ele>297.087557</ele>
        <time>2022-06-10T11:32:09.734Z</time>
      </trkpt>
      <trkpt lat="42.82052" lon="18.07316">
        <ele>297.260749</ele>
        <time>2022-06-10T11:32:12.745Z</time>
      </trkpt>
      <trkpt lat="42.8206" lon="18.07308">
        <ele>297.440965</ele>
        <time>2022-06-10T11:32:15.707Z</time>
      </trkpt>
      <trkpt lat="42.8207" lon="18.07301">
        <ele>297.625132</ele>
        <time>2022-06-10T11:32:18.752Z</time>
      </trkpt>
      <trkpt lat="42.82078" lon="18.07293">
        <ele>297.806059</ele>
        <time>2022-06-10T11:32:21.720Z</time>
      </trkpt>
      <trkpt lat="42.82087" lon="18.07285">
        <ele>297.994107</ele>
        <time>2022-06-10T11:32:24.729Z</time>
      </trkpt>
      <trkpt lat="42.82096" lon="18.07276">
        <ele>298.185155</ele>
        <time>2022-06-10T11:32:27.720Z</time>
      </trkpt>
      <trkpt lat="42.82106" lon="18.07267">
        <ele>298.381056</ele>
        <time>2022-06-10T11:32:30.716Z</time>
      </trkpt>
      <trkpt lat="42.82114" lon="18.07258">
        <ele>298.56483</ele>
        <time>2022-06-10T11:32:33.708Z</time>
      </trkpt>
      <trkpt lat="42.82123" lon="18.0725">
        <ele>298.75578</ele>
        <time>2022-06-10T11:32:36.717Z</time>
      </trkpt>
      <trkpt lat="42.82132" lon="18.07242">
        <ele>298.906768</ele>
        <time>2022-06-10T11:32:39.704Z</time>
      </trkpt>
      <trkpt lat="42.82142" lon="18.07235">
        <ele>299.037902</ele>
        <time>2022-06-10T11:32:42.714Z</time>
      </trkpt>
      <trkpt lat="42.8215" lon="18.07226">
        <ele>299.169815</ele>
        <time>2022-06-10T11:32:45.730Z</time>
      </trkpt>
      <trkpt lat="42.8216" lon="18.07219">
        <ele>299.302923</ele>
        <time>2022-06-10T11:32:48.722Z</time>
      </trkpt>
      <trkpt lat="42.8217" lon="18.07211">
        <ele>299.439769</ele>
        <time>2022-06-10T11:32:51.737Z</time>
      </trkpt>
      <trkpt lat="42.8218" lon="18.07204">
        <ele>299.584646</ele>
        <time>2022-06-10T11:32:54.695Z</time>
      </trkpt>
      <trkpt lat="42.82191" lon="18.07196">
        <ele>299.731619</ele>
        <time>2022-06-10T11:32:57.744Z</time>
      </trkpt>
      <trkpt lat="42.822" lon="18.07187">
        <ele>299.873654</ele>
        <time>2022-06-10T11:33:00.714Z</time>
      </trkpt>
      <trkpt lat="42.82211" lon="18.0718">
        <ele>300.01774</ele>
        <time>2022-06-10T11:33:03.701Z</time>
      </trkpt>
      <trkpt lat="42.82223" lon="18.07173">
        <ele>300.175528</ele>
        <time>2022-06-10T11:33:06.712Z</time>
      </trkpt>
      <trkpt lat="42.82233" lon="18.07166">
        <ele>300.32033</ele>
        <time>2022-06-10T11:33:09.710Z</time>
      </trkpt>
      <trkpt lat="42.82244" lon="18.0716">
        <ele>300.45666</ele>
        <time>2022-06-10T11:33:12.716Z</time>
      </trkpt>
      <trkpt lat="42.82254" lon="18.07155">
        <ele>300.591026</ele>
        <time>2022-06-10T11:33:15.729Z</time>
      </trkpt>
      <trkpt lat="42.82265" lon="18.07148">
        <ele>300.741416</ele>
        <time>2022-06-10T11:33:18.722Z</time>
      </trkpt>
      <trkpt lat="42.82277" lon="18.07142">
        <ele>300.895974</ele>
        <time>2022-06-10T11:33:21.707Z</time>
      </trkpt>
      <trkpt lat="42.82289" lon="18.07135">
        <ele>300.982587</ele>
        <time>2022-06-10T11:33:24.723Z</time>
      </trkpt>
      <trkpt lat="42.82297" lon="18.0713">
        <ele>300.756861</ele>
        <time>2022-06-10T11:33:26.712Z</time>
      </trkpt>
      <trkpt lat="42.82306" lon="18.07125">
        <ele>300.528956</ele>
        <time>2022-06-10T11:33:28.717Z</time>
      </trkpt>
      <trkpt lat="42.82317" lon="18.07118">
        <ele>300.218914</ele>
        <time>2022-06-10T11:33:31.695Z</time>
      </trkpt>
      <trkpt lat="42.8233" lon="18.07111">
        <ele>299.89953</ele>
        <time>2022-06-10T11:33:34.716Z</time>
      </trkpt>
      <trkpt lat="42.82341" lon="18.07105">
        <ele>299.600582</ele>
        <time>2022-06-10T11:33:37.719Z</time>
      </trkpt>
      <trkpt lat="42.82352" lon="18.07098">
        <ele>299.300123</ele>
        <time>2022-06-10T11:33:40.727Z</time>
      </trkpt>
      <trkpt lat="42.82363" lon="18.07092">
        <ele>299.003116</ele>
        <time>2022-06-10T11:33:43.713Z</time>
      </trkpt>
      <trkpt lat="42.82375" lon="18.07086">
        <ele>298.707427</ele>
        <time>2022-06-10T11:33:46.694Z</time>
      </trkpt>
      <trkpt lat="42.82386" lon="18.0708">
        <ele>298.421742</ele>
        <time>2022-06-10T11:33:49.701Z</time>
      </trkpt>
      <trkpt lat="42.82396" lon="18.07074">
        <ele>298.141297</ele>
        <time>2022-06-10T11:33:52.705Z</time>
      </trkpt>
      <trkpt lat="42.82406" lon="18.07068">
        <ele>297.874172</ele>
        <time>2022-06-10T11:33:55.710Z</time>
      </trkpt>
      <trkpt lat="42.82417" lon="18.07062">
        <ele>297.598816</ele>
        <time>2022-06-10T11:33:58.710Z</time>
      </trkpt>
      <trkpt lat="42.82427" lon="18.07056">
        <ele>297.318963</ele>
        <time>2022-06-10T11:34:01.716Z</time>
      </trkpt>
      <trkpt lat="42.82438" lon="18.0705">
        <ele>297.041123</ele>
        <time>2022-06-10T11:34:04.759Z</time>
      </trkpt>
      <trkpt lat="42.82448" lon="18.07044">
        <ele>296.765551</ele>
        <time>2022-06-10T11:34:07.700Z</time>
      </trkpt>
      <trkpt lat="42.82459" lon="18.07039">
        <ele>296.679382</ele>
        <time>2022-06-10T11:34:10.725Z</time>
      </trkpt>
      <trkpt lat="42.8247" lon="18.07034">
        <ele>296.743305</ele>
        <time>2022-06-10T11:34:13.728Z</time>
      </trkpt>
      <trkpt lat="42.82481" lon="18.07029">
        <ele>296.805672</ele>
        <time>2022-06-10T11:34:16.715Z</time>
      </trkpt>
      <trkpt lat="42.82492" lon="18.07024">
        <ele>296.868417</ele>
        <time>2022-06-10T11:34:19.705Z</time>
      </trkpt>
      <trkpt lat="42.82502" lon="18.07018">
        <ele>296.927245</ele>
        <time>2022-06-10T11:34:22.704Z</time>
      </trkpt>
      <trkpt lat="42.82512" lon="18.07013">
        <ele>296.984648</ele>
        <time>2022-06-10T11:34:25.705Z</time>
      </trkpt>
      <trkpt lat="42.82521" lon="18.07007">
        <ele>297.041345</ele>
        <time>2022-06-10T11:34:28.703Z</time>
      </trkpt>
      <trkpt lat="42.82531" lon="18.07002">
        <ele>297.096729</ele>
        <time>2022-06-10T11:34:31.715Z</time>
      </trkpt>
      <trkpt lat="42.82541" lon="18.06996">
        <ele>297.155556</ele>
        <time>2022-06-10T11:34:34.716Z</time>
      </trkpt>
      <trkpt lat="42.82551" lon="18.06991">
        <ele>297.214308</ele>
        <time>2022-06-10T11:34:37.757Z</time>
      </trkpt>
      <trkpt lat="42.82561" lon="18.06986">
        <ele>297.275044</ele>
        <time>2022-06-10T11:34:40.700Z</time>
      </trkpt>
      <trkpt lat="42.8257" lon="18.06979">
        <ele>297.328777</ele>
        <time>2022-06-10T11:34:43.706Z</time>
      </trkpt>
      <trkpt lat="42.82578" lon="18.06973">
        <ele>297.379078</ele>
        <time>2022-06-10T11:34:46.720Z</time>
      </trkpt>
      <trkpt lat="42.82586" lon="18.06966">
        <ele>297.433093</ele>
        <time>2022-06-10T11:34:49.715Z</time>
      </trkpt>
      <trkpt lat="42.82595" lon="18.0696">
        <ele>297.487023</ele>
        <time>2022-06-10T11:34:52.707Z</time>
      </trkpt>
      <trkpt lat="42.82603" lon="18.06951">
        <ele>297.543107</ele>
        <time>2022-06-10T11:34:55.705Z</time>
      </trkpt>
      <trkpt lat="42.82611" lon="18.06942">
        <ele>297.597812</ele>
        <time>2022-06-10T11:34:58.696Z</time>
      </trkpt>
      <trkpt lat="42.82619" lon="18.06933">
        <ele>297.875049</ele>
        <time>2022-06-10T11:35:01.715Z</time>
      </trkpt>
      <trkpt lat="42.82626" lon="18.06924">
        <ele>298.315861</ele>
        <time>2022-06-10T11:35:04.745Z</time>
      </trkpt>
      <trkpt lat="42.82634" lon="18.06914">
        <ele>298.771396</ele>
        <time>2022-06-10T11:35:07.720Z</time>
      </trkpt>
      <trkpt lat="42.82641" lon="18.06903">
        <ele>299.230827</ele>
        <time>2022-06-10T11:35:10.744Z</time>
      </trkpt>
      <trkpt lat="42.82648" lon="18.06892">
        <ele>299.701553</ele>
        <time>2022-06-10T11:35:13.709Z</time>
      </trkpt>
      <trkpt lat="42.82655" lon="18.06881">
        <ele>300.178602</ele>
        <time>2022-06-10T11:35:16.722Z</time>
      </trkpt>
      <trkpt lat="42.82661" lon="18.06869">
        <ele>300.637882</ele>
        <time>2022-06-10T11:35:19.703Z</time>
      </trkpt>
      <trkpt lat="42.82666" lon="18.06856">
        <ele>301.10669</ele>
        <time>2022-06-10T11:35:22.713Z</time>
      </trkpt>
      <trkpt lat="42.82671" lon="18.06843">
        <ele>301.601428</ele>
        <time>2022-06-10T11:35:25.711Z</time>
      </trkpt>
      <trkpt lat="42.82676" lon="18.06828">
        <ele>302.111295</ele>
        <time>2022-06-10T11:35:28.727Z</time>
      </trkpt>
      <trkpt lat="42.82681" lon="18.06814">
        <ele>302.617308</ele>
        <time>2022-06-10T11:35:31.717Z</time>
      </trkpt>
      <trkpt lat="42.82687" lon="18.068">
        <ele>303.13005</ele>
        <time>2022-06-10T11:35:34.707Z</time>
      </trkpt>
      <trkpt lat="42.82692" lon="18.06786">
        <ele>303.637974</ele>
        <time>2022-06-10T11:35:37.718Z</time>
      </trkpt>
      <trkpt lat="42.82697" lon="18.06772">
        <ele>304.148963</ele>
        <time>2022-06-10T11:35:40.720Z</time>
      </trkpt>
      <trkpt lat="42.82702" lon="18.06758">
        <ele>304.644706</ele>
        <time>2022-06-10T11:35:43.756Z</time>
      </trkpt>
      <trkpt lat="42.82707" lon="18.06743">
        <ele>305.144073</ele>
        <time>2022-06-10T11:35:46.707Z</time>
      </trkpt>
      <trkpt lat="42.82711" lon="18.06728">
        <ele>305.509423</ele>
        <time>2022-06-10T11:35:49.726Z</time>
      </trkpt>
      <trkpt lat="42.82716" lon="18.06713">
        <ele>305.533547</ele>
        <time>2022-06-10T11:35:52.702Z</time>
      </trkpt>
      <trkpt lat="42.8272" lon="18.06697">
        <ele>305.558624</ele>
        <time>2022-06-10T11:35:55.708Z</time>
      </trkpt>
      <trkpt lat="42.82724" lon="18.06681">
        <ele>305.583218</ele>
        <time>2022-06-10T11:35:58.714Z</time>
      </trkpt>
      <trkpt lat="42.82728" lon="18.06665">
        <ele>305.607608</ele>
        <time>2022-06-10T11:36:01.708Z</time>
      </trkpt>
      <trkpt lat="42.82732" lon="18.0665">
        <ele>305.631329</ele>
        <time>2022-06-10T11:36:04.711Z</time>
      </trkpt>
      <trkpt lat="42.82735" lon="18.06634">
        <ele>305.654342</ele>
        <time>2022-06-10T11:36:07.737Z</time>
      </trkpt>
      <trkpt lat="42.82739" lon="18.06619">
        <ele>305.677387</ele>
        <time>2022-06-10T11:36:10.726Z</time>
      </trkpt>
      <trkpt lat="42.82743" lon="18.06604">
        <ele>305.701162</ele>
        <time>2022-06-10T11:36:13.695Z</time>
      </trkpt>
      <trkpt lat="42.82746" lon="18.06589">
        <ele>305.723812</ele>
        <time>2022-06-10T11:36:16.704Z</time>
      </trkpt>
      <trkpt lat="42.8275" lon="18.06574">
        <ele>305.746356</ele>
        <time>2022-06-10T11:36:19.720Z</time>
      </trkpt>
      <trkpt lat="42.82753" lon="18.0656">
        <ele>305.769125</ele>
        <time>2022-06-10T11:36:22.740Z</time>
      </trkpt>
      <trkpt lat="42.82757" lon="18.06544">
        <ele>305.793226</ele>
        <time>2022-06-10T11:36:25.715Z</time>
      </trkpt>
      <trkpt lat="42.8276" lon="18.06528">
        <ele>305.816505</ele>
        <time>2022-06-10T11:36:28.714Z</time>
      </trkpt>
      <trkpt lat="42.82762" lon="18.06514">
        <ele>305.838236</ele>
        <time>2022-06-10T11:36:31.714Z</time>
      </trkpt>
      <trkpt lat="42.82764" lon="18.06497">
        <ele>305.875525</ele>
        <time>2022-06-10T11:36:34.726Z</time>
      </trkpt>
      <trkpt lat="42.82767" lon="18.06482">
        <ele>305.983987</ele>
        <time>2022-06-10T11:36:37.705Z</time>
      </trkpt>
      <trkpt lat="42.8277" lon="18.06467">
        <ele>306.091599</ele>
        <time>2022-06-10T11:36:40.702Z</time>
      </trkpt>
      <trkpt lat="42.82774" lon="18.06453">
        <ele>306.196024</ele>
        <time>2022-06-10T11:36:43.707Z</time>
      </trkpt>
      <trkpt lat="42.82777" lon="18.06437">
        <ele>306.30562</ele>
        <time>2022-06-10T11:36:46.711Z</time>
      </trkpt>
      <trkpt lat="42.82779" lon="18.06422">
        <ele>306.413031</ele>
        <time>2022-06-10T11:36:49.770Z</time>
      </trkpt>
      <trkpt lat="42.82781" lon="18.06406">
        <ele>306.520647</ele>
        <time>2022-06-10T11:36:52.715Z</time>
      </trkpt>
      <trkpt lat="42.82783" lon="18.06391">
        <ele>306.627396</ele>
        <time>2022-06-10T11:36:55.703Z</time>
      </trkpt>
      <trkpt lat="42.82786" lon="18.06376">
        <ele>306.731453</ele>
        <time>2022-06-10T11:36:58.702Z</time>
      </trkpt>
      <trkpt lat="42.82788" lon="18.06361">
        <ele>306.837255</ele>
        <time>2022-06-10T11:37:01.710Z</time>
      </trkpt>
      <trkpt lat="42.8279" lon="18.06347">
        <ele>306.938736</ele>
        <time>2022-06-10T11:37:04.689Z</time>
      </trkpt>
      <trkpt lat="42.82793" lon="18.06332">
        <ele>307.042967</ele>
        <time>2022-06-10T11:37:07.719Z</time>
      </trkpt>
      <trkpt lat="42.82795" lon="18.06317">
        <ele>307.15011</ele>
        <time>2022-06-10T11:37:10.708Z</time>
      </trkpt>
      <trkpt lat="42.82798" lon="18.06301">
        <ele>307.261469</ele>
        <time>2022-06-10T11:37:13.707Z</time>
      </trkpt>
      <trkpt lat="42.828" lon="18.06286">
        <ele>307.368728</ele>
        <time>2022-06-10T11:37:16.807Z</time>
      </trkpt>
      <trkpt lat="42.82802" lon="18.06271">
        <ele>307.474484</ele>
        <time>2022-06-10T11:37:19.735Z</time>
      </trkpt>
      <trkpt lat="42.82802" lon="18.06255">
        <ele>307.571713</ele>
        <time>2022-06-10T11:37:22.719Z</time>
      </trkpt>
      <trkpt lat="42.82803" lon="18.0624">
        <ele>307.65031</ele>
        <time>2022-06-10T11:37:25.733Z</time>
      </trkpt>
      <trkpt lat="42.82804" lon="18.06225">
        <ele>307.726422</ele>
        <time>2022-06-10T11:37:28.741Z</time>
      </trkpt>
      <trkpt lat="42.82804" lon="18.06209">
        <ele>307.802932</ele>
        <time>2022-06-10T11:37:31.725Z</time>
      </trkpt>
      <trkpt lat="42.82805" lon="18.06194">
        <ele>307.87949</ele>
        <time>2022-06-10T11:37:34.723Z</time>
      </trkpt>
      <trkpt lat="42.82805" lon="18.06179">
        <ele>307.955071</ele>
        <time>2022-06-10T11:37:37.700Z</time>
      </trkpt>
      <trkpt lat="42.82806" lon="18.06164">
        <ele>308.029646</ele>
        <time>2022-06-10T11:37:40.726Z</time>
      </trkpt>
      <trkpt lat="42.82805" lon="18.06149">
        <ele>308.106232</ele>
        <time>2022-06-10T11:37:43.715Z</time>
      </trkpt>
      <trkpt lat="42.82805" lon="18.06134">
        <ele>308.184264</ele>
        <time>2022-06-10T11:37:46.700Z</time>
      </trkpt>
      <trkpt lat="42.82806" lon="18.06118">
        <ele>308.261792</ele>
        <time>2022-06-10T11:37:49.713Z</time>
      </trkpt>
      <trkpt lat="42.82806" lon="18.06103">
        <ele>308.339824</ele>
        <time>2022-06-10T11:37:52.703Z</time>
      </trkpt>
      <trkpt lat="42.82806" lon="18.06087">
        <ele>308.419365</ele>
        <time>2022-06-10T11:37:55.709Z</time>
      </trkpt>
      <trkpt lat="42.82806" lon="18.06072">
        <ele>308.497384</ele>
        <time>2022-06-10T11:37:58.727Z</time>
      </trkpt>
      <trkpt lat="42.82806" lon="18.06057">
        <ele>308.571406</ele>
        <time>2022-06-10T11:38:01.707Z</time>
      </trkpt>
      <trkpt lat="42.82806" lon="18.06042">
        <ele>308.644898</ele>
        <time>2022-06-10T11:38:04.707Z</time>
      </trkpt>
      <trkpt lat="42.82807" lon="18.06027">
        <ele>308.719596</ele>
        <time>2022-06-10T11:38:07.759Z</time>
      </trkpt>
      <trkpt lat="42.82807" lon="18.06013">
        <ele>308.794815</ele>
        <time>2022-06-10T11:38:10.716Z</time>
      </trkpt>
      <trkpt lat="42.82807" lon="18.05998">
        <ele>308.873332</ele>
        <time>2022-06-10T11:38:13.743Z</time>
      </trkpt>
      <trkpt lat="42.82808" lon="18.05984">
        <ele>308.954082</ele>
        <time>2022-06-10T11:38:16.733Z</time>
      </trkpt>
      <trkpt lat="42.82809" lon="18.05969">
        <ele>309.032826</ele>
        <time>2022-06-10T11:38:19.736Z</time>
      </trkpt>
      <trkpt lat="42.8281" lon="18.05956">
        <ele>309.109095</ele>
        <time>2022-06-10T11:38:22.708Z</time>
      </trkpt>
      <trkpt lat="42.82813" lon="18.05943">
        <ele>309.181695</ele>
        <time>2022-06-10T11:38:25.745Z</time>
      </trkpt>
      <trkpt lat="42.82815" lon="18.0593">
        <ele>309.255737</ele>
        <time>2022-06-10T11:38:28.732Z</time>
      </trkpt>
      <trkpt lat="42.82818" lon="18.05917">
        <ele>309.330222</ele>
        <time>2022-06-10T11:38:31.742Z</time>
      </trkpt>
      <trkpt lat="42.82821" lon="18.05903">
        <ele>309.407164</ele>
        <time>2022-06-10T11:38:34.722Z</time>
      </trkpt>
      <trkpt lat="42.82824" lon="18.0589">
        <ele>309.481436</ele>
        <time>2022-06-10T11:38:37.739Z</time>
      </trkpt>
      <trkpt lat="42.82827" lon="18.05877">
        <ele>309.558458</ele>
        <time>2022-06-10T11:38:40.710Z</time>
      </trkpt>
      <trkpt lat="42.82831" lon="18.05864">
        <ele>309.634118</ele>
        <time>2022-06-10T11:38:43.736Z</time>
      </trkpt>
      <trkpt lat="42.82834" lon="18.05851">
        <ele>309.708767</ele>
        <time>2022-06-10T11:38:46.705Z</time>
      </trkpt>
      <trkpt lat="42.82837" lon="18.05838">
        <ele>309.785975</ele>
        <time>2022-06-10T11:38:49.709Z</time>
      </trkpt>
      <trkpt lat="42.82841" lon="18.05824">
        <ele>309.866266</ele>
        <time>2022-06-10T11:38:52.724Z</time>
      </trkpt>
      <trkpt lat="42.82845" lon="18.05811">
        <ele>309.94247</ele>
        <time>2022-06-10T11:38:55.704Z</time>
      </trkpt>
      <trkpt lat="42.82847" lon="18.05799">
        <ele>310.013591</ele>
        <time>2022-06-10T11:38:58.716Z</time>
      </trkpt>
      <trkpt lat="42.82851" lon="18.05787">
        <ele>310.084621</ele>
        <time>2022-06-10T11:39:01.704Z</time>
      </trkpt>
      <trkpt lat="42.82853" lon="18.05774">
        <ele>310.149736</ele>
        <time>2022-06-10T11:39:04.708Z</time>
      </trkpt>
      <trkpt lat="42.82856" lon="18.05761">
        <ele>310.212303</ele>
        <time>2022-06-10T11:39:07.704Z</time>
      </trkpt>
      <trkpt lat="42.82858" lon="18.05747">
        <ele>310.275961</ele>
        <time>2022-06-10T11:39:10.726Z</time>
      </trkpt>
      <trkpt lat="42.82859" lon="18.05734">
        <ele>310.338663</ele>
        <time>2022-06-10T11:39:13.713Z</time>
      </trkpt>
      <trkpt lat="42.82861" lon="18.05721">
        <ele>310.399297</ele>
        <time>2022-06-10T11:39:16.736Z</time>
      </trkpt>
      <trkpt lat="42.82862" lon="18.05707">
        <ele>310.461313</ele>
        <time>2022-06-10T11:39:19.717Z</time>
      </trkpt>
      <trkpt lat="42.82863" lon="18.05694">
        <ele>310.520153</ele>
        <time>2022-06-10T11:39:22.710Z</time>
      </trkpt>
      <trkpt lat="42.82864" lon="18.05682">
        <ele>310.57648</ele>
        <time>2022-06-10T11:39:25.721Z</time>
      </trkpt>
      <trkpt lat="42.82865" lon="18.05666">
        <ele>310.649396</ele>
        <time>2022-06-10T11:39:29.722Z</time>
      </trkpt>
      <trkpt lat="42.82866" lon="18.0565">
        <ele>310.722057</ele>
        <time>2022-06-10T11:39:33.708Z</time>
      </trkpt>
      <trkpt lat="42.82867" lon="18.05635">
        <ele>310.79458</ele>
        <time>2022-06-10T11:39:37.722Z</time>
      </trkpt>
      <trkpt lat="42.82868" lon="18.05622">
        <ele>310.854198</ele>
        <time>2022-06-10T11:39:40.708Z</time>
      </trkpt>
      <trkpt lat="42.82868" lon="18.05609">
        <ele>310.911728</ele>
        <time>2022-06-10T11:39:43.703Z</time>
      </trkpt>
      <trkpt lat="42.82868" lon="18.05596">
        <ele>310.969726</ele>
        <time>2022-06-10T11:39:46.734Z</time>
      </trkpt>
      <trkpt lat="42.82868" lon="18.05584">
        <ele>311.02771</ele>
        <time>2022-06-10T11:39:49.708Z</time>
      </trkpt>
      <trkpt lat="42.82867" lon="18.05571">
        <ele>311.086817</ele>
        <time>2022-06-10T11:39:52.702Z</time>
      </trkpt>
      <trkpt lat="42.82866" lon="18.05558">
        <ele>311.145875</ele>
        <time>2022-06-10T11:39:55.712Z</time>
      </trkpt>
      <trkpt lat="42.82865" lon="18.05545">
        <ele>311.205715</ele>
        <time>2022-06-10T11:39:58.711Z</time>
      </trkpt>
      <trkpt lat="42.82862" lon="18.05533">
        <ele>311.303693</ele>
        <time>2022-06-10T11:40:01.753Z</time>
      </trkpt>
      <trkpt lat="42.82859" lon="18.05521">
        <ele>311.478917</ele>
        <time>2022-06-10T11:40:04.719Z</time>
      </trkpt>
      <trkpt lat="42.82855" lon="18.05505">
        <ele>311.704932</ele>
        <time>2022-06-10T11:40:08.718Z</time>
      </trkpt>
      <trkpt lat="42.82849" lon="18.05494">
        <ele>311.896589</ele>
        <time>2022-06-10T11:40:11.707Z</time>
      </trkpt>
      <trkpt lat="42.82845" lon="18.05483">
        <ele>312.070443</ele>
        <time>2022-06-10T11:40:14.714Z</time>
      </trkpt>
      <trkpt lat="42.8284" lon="18.05472">
        <ele>312.247081</ele>
        <time>2022-06-10T11:40:17.720Z</time>
      </trkpt>
      <trkpt lat="42.82835" lon="18.05462">
        <ele>312.424026</ele>
        <time>2022-06-10T11:40:20.724Z</time>
      </trkpt>
      <trkpt lat="42.82829" lon="18.05451">
        <ele>312.605323</ele>
        <time>2022-06-10T11:40:23.706Z</time>
      </trkpt>
      <trkpt lat="42.82825" lon="18.0544">
        <ele>312.781097</ele>
        <time>2022-06-10T11:40:26.715Z</time>
      </trkpt>
      <trkpt lat="42.8282" lon="18.05429">
        <ele>312.959482</ele>
        <time>2022-06-10T11:40:29.746Z</time>
      </trkpt>
      <trkpt lat="42.82815" lon="18.05418">
        <ele>313.13307</ele>
        <time>2022-06-10T11:40:32.714Z</time>
      </trkpt>
      <trkpt lat="42.82809" lon="18.05405">
        <ele>313.35112</ele>
        <time>2022-06-10T11:40:36.695Z</time>
      </trkpt>
      <trkpt lat="42.82804" lon="18.05393">
        <ele>313.530752</ele>
        <time>2022-06-10T11:40:39.711Z</time>
      </trkpt>
      <trkpt lat="42.828" lon="18.05383">
        <ele>313.706961</ele>
        <time>2022-06-10T11:40:42.696Z</time>
      </trkpt>
      <trkpt lat="42.82795" lon="18.05371">
        <ele>313.887912</ele>
        <time>2022-06-10T11:40:45.723Z</time>
      </trkpt>
      <trkpt lat="42.8279" lon="18.05357">
        <ele>314.110693</ele>
        <time>2022-06-10T11:40:49.733Z</time>
      </trkpt>
      <trkpt lat="42.82785" lon="18.05346">
        <ele>314.288083</ele>
        <time>2022-06-10T11:40:52.736Z</time>
      </trkpt>
      <trkpt lat="42.8278" lon="18.05333">
        <ele>314.487482</ele>
        <time>2022-06-10T11:40:55.728Z</time>
      </trkpt>
      <trkpt lat="42.82775" lon="18.0532">
        <ele>314.658425</ele>
        <time>2022-06-10T11:40:58.702Z</time>
      </trkpt>
      <trkpt lat="42.82772" lon="18.05307">
        <ele>314.714219</ele>
        <time>2022-06-10T11:41:01.715Z</time>
      </trkpt>
      <trkpt lat="42.82769" lon="18.05293">
        <ele>314.768998</ele>
        <time>2022-06-10T11:41:04.714Z</time>
      </trkpt>
      <trkpt lat="42.82766" lon="18.0528">
        <ele>314.821852</ele>
        <time>2022-06-10T11:41:07.713Z</time>
      </trkpt>
      <trkpt lat="42.82763" lon="18.05267">
        <ele>314.875075</ele>
        <time>2022-06-10T11:41:10.704Z</time>
      </trkpt>
      <trkpt lat="42.82761" lon="18.05254">
        <ele>314.925398</ele>
        <time>2022-06-10T11:41:13.712Z</time>
      </trkpt>
      <trkpt lat="42.8276" lon="18.0524">
        <ele>314.977388</ele>
        <time>2022-06-10T11:41:16.792Z</time>
      </trkpt>
      <trkpt lat="42.82759" lon="18.05227">
        <ele>315.027723</ele>
        <time>2022-06-10T11:41:19.720Z</time>
      </trkpt>
      <trkpt lat="42.82758" lon="18.05214">
        <ele>315.079745</ele>
        <time>2022-06-10T11:41:22.725Z</time>
      </trkpt>
      <trkpt lat="42.82759" lon="18.052">
        <ele>315.131353</ele>
        <time>2022-06-10T11:41:25.717Z</time>
      </trkpt>
      <trkpt lat="42.8276" lon="18.05188">
        <ele>315.180371</ele>
        <time>2022-06-10T11:41:28.733Z</time>
      </trkpt>
      <trkpt lat="42.82762" lon="18.05174">
        <ele>315.232969</ele>
        <time>2022-06-10T11:41:31.736Z</time>
      </trkpt>
      <trkpt lat="42.82765" lon="18.05161">
        <ele>315.286898</ele>
        <time>2022-06-10T11:41:34.799Z</time>
      </trkpt>
      <trkpt lat="42.82767" lon="18.05147">
        <ele>315.34204</ele>
        <time>2022-06-10T11:41:37.735Z</time>
      </trkpt>
      <trkpt lat="42.82769" lon="18.05134">
        <ele>315.3905</ele>
        <time>2022-06-10T11:41:40.707Z</time>
      </trkpt>
      <trkpt lat="42.82771" lon="18.05122">
        <ele>315.441317</ele>
        <time>2022-06-10T11:41:43.746Z</time>
      </trkpt>
      <trkpt lat="42.82773" lon="18.05108">
        <ele>315.493436</ele>
        <time>2022-06-10T11:41:46.709Z</time>
      </trkpt>
      <trkpt lat="42.82774" lon="18.05095">
        <ele>315.54333</ele>
        <time>2022-06-10T11:41:49.724Z</time>
      </trkpt>
      <trkpt lat="42.82775" lon="18.05081">
        <ele>315.590333</ele>
        <time>2022-06-10T11:41:52.732Z</time>
      </trkpt>
      <trkpt lat="42.82777" lon="18.05066">
        <ele>315.589675</ele>
        <time>2022-06-10T11:41:55.740Z</time>
      </trkpt>
      <trkpt lat="42.82779" lon="18.05052">
        <ele>315.58904</ele>
        <time>2022-06-10T11:41:58.698Z</time>
      </trkpt>
      <trkpt lat="42.82781" lon="18.05038">
        <ele>315.588396</ele>
        <time>2022-06-10T11:42:01.713Z</time>
      </trkpt>
      <trkpt lat="42.82785" lon="18.05024">
        <ele>315.587727</ele>
        <time>2022-06-10T11:42:04.708Z</time>
      </trkpt>
      <trkpt lat="42.82787" lon="18.0501">
        <ele>315.58707</ele>
        <time>2022-06-10T11:42:07.744Z</time>
      </trkpt>
      <trkpt lat="42.82788" lon="18.04997">
        <ele>315.586486</ele>
        <time>2022-06-10T11:42:10.723Z</time>
      </trkpt>
      <trkpt lat="42.8279" lon="18.04984">
        <ele>315.585893</ele>
        <time>2022-06-10T11:42:13.756Z</time>
      </trkpt>
      <trkpt lat="42.82791" lon="18.04971">
        <ele>315.585299</ele>
        <time>2022-06-10T11:42:16.756Z</time>
      </trkpt>
      <trkpt lat="42.82794" lon="18.04955">
        <ele>315.584575</ele>
        <time>2022-06-10T11:42:20.725Z</time>
      </trkpt>
      <trkpt lat="42.82797" lon="18.04942">
        <ele>315.583982</ele>
        <time>2022-06-10T11:42:23.710Z</time>
      </trkpt>
      <trkpt lat="42.82799" lon="18.04928">
        <ele>315.583354</ele>
        <time>2022-06-10T11:42:26.697Z</time>
      </trkpt>
      <trkpt lat="42.82802" lon="18.04915">
        <ele>315.582725</ele>
        <time>2022-06-10T11:42:29.701Z</time>
      </trkpt>
      <trkpt lat="42.82805" lon="18.04901">
        <ele>315.582094</ele>
        <time>2022-06-10T11:42:32.706Z</time>
      </trkpt>
      <trkpt lat="42.82809" lon="18.04888">
        <ele>315.581446</ele>
        <time>2022-06-10T11:42:35.713Z</time>
      </trkpt>
      <trkpt lat="42.82814" lon="18.04875">
        <ele>315.580791</ele>
        <time>2022-06-10T11:42:38.716Z</time>
      </trkpt>
      <trkpt lat="42.82819" lon="18.0486">
        <ele>315.580071</ele>
        <time>2022-06-10T11:42:41.747Z</time>
      </trkpt>
      <trkpt lat="42.82824" lon="18.04846">
        <ele>315.535539</ele>
        <time>2022-06-10T11:42:44.715Z</time>
      </trkpt>
      <trkpt lat="42.8283" lon="18.04831">
        <ele>315.329276</ele>
        <time>2022-06-10T11:42:47.719Z</time>
      </trkpt>
      <trkpt lat="42.82836" lon="18.04819">
        <ele>315.134968</ele>
        <time>2022-06-10T11:42:50.707Z</time>
      </trkpt>
      <trkpt lat="42.82841" lon="18.04806">
        <ele>314.954054</ele>
        <time>2022-06-10T11:42:53.714Z</time>
      </trkpt>
      <trkpt lat="42.82846" lon="18.04793">
        <ele>314.765077</ele>
        <time>2022-06-10T11:42:56.736Z</time>
      </trkpt>
      <trkpt lat="42.82852" lon="18.0478">
        <ele>314.578632</ele>
        <time>2022-06-10T11:42:59.720Z</time>
      </trkpt>
      <trkpt lat="42.82857" lon="18.04767">
        <ele>314.387064</ele>
        <time>2022-06-10T11:43:02.715Z</time>
      </trkpt>
      <trkpt lat="42.82862" lon="18.04753">
        <ele>314.189176</ele>
        <time>2022-06-10T11:43:05.702Z</time>
      </trkpt>
      <trkpt lat="42.82867" lon="18.04739">
        <ele>313.996742</ele>
        <time>2022-06-10T11:43:08.709Z</time>
      </trkpt>
      <trkpt lat="42.82872" lon="18.04726">
        <ele>313.796046</ele>
        <time>2022-06-10T11:43:11.720Z</time>
      </trkpt>
      <trkpt lat="42.82879" lon="18.04712">
        <ele>313.580903</ele>
        <time>2022-06-10T11:43:14.700Z</time>
      </trkpt>
      <trkpt lat="42.82885" lon="18.04698">
        <ele>313.377585</ele>
        <time>2022-06-10T11:43:17.715Z</time>
      </trkpt>
      <trkpt lat="42.8289" lon="18.04685">
        <ele>313.185543</ele>
        <time>2022-06-10T11:43:20.804Z</time>
      </trkpt>
      <trkpt lat="42.82896" lon="18.04672">
        <ele>312.993648</ele>
        <time>2022-06-10T11:43:23.700Z</time>
      </trkpt>
      <trkpt lat="42.82901" lon="18.04659">
        <ele>312.805495</ele>
        <time>2022-06-10T11:43:26.701Z</time>
      </trkpt>
      <trkpt lat="42.82907" lon="18.04646">
        <ele>312.612294</ele>
        <time>2022-06-10T11:43:29.719Z</time>
      </trkpt>
      <trkpt lat="42.82912" lon="18.04632">
        <ele>312.448184</ele>
        <time>2022-06-10T11:43:32.752Z</time>
      </trkpt>
      <trkpt lat="42.82918" lon="18.0462">
        <ele>312.417392</ele>
        <time>2022-06-10T11:43:35.718Z</time>
      </trkpt>
      <trkpt lat="42.82923" lon="18.04607">
        <ele>312.38601</ele>
        <time>2022-06-10T11:43:38.699Z</time>
      </trkpt>
      <trkpt lat="42.82928" lon="18.04593">
        <ele>312.353348</ele>
        <time>2022-06-10T11:43:41.707Z</time>
      </trkpt>
      <trkpt lat="42.82933" lon="18.04578">
        <ele>312.320361</ele>
        <time>2022-06-10T11:43:44.717Z</time>
      </trkpt>
      <trkpt lat="42.82937" lon="18.04565">
        <ele>312.289518</ele>
        <time>2022-06-10T11:43:47.723Z</time>
      </trkpt>
      <trkpt lat="42.82941" lon="18.04551">
        <ele>312.258106</ele>
        <time>2022-06-10T11:43:50.738Z</time>
      </trkpt>
      <trkpt lat="42.82945" lon="18.04536">
        <ele>312.224232</ele>
        <time>2022-06-10T11:43:53.705Z</time>
      </trkpt>
      <trkpt lat="42.8295" lon="18.04521">
        <ele>312.190403</ele>
        <time>2022-06-10T11:43:56.731Z</time>
      </trkpt>
      <trkpt lat="42.82954" lon="18.04506">
        <ele>312.157458</ele>
        <time>2022-06-10T11:43:59.719Z</time>
      </trkpt>
      <trkpt lat="42.82959" lon="18.04491">
        <ele>312.123881</ele>
        <time>2022-06-10T11:44:02.699Z</time>
      </trkpt>
      <trkpt lat="42.82962" lon="18.04477">
        <ele>312.092763</ele>
        <time>2022-06-10T11:44:05.732Z</time>
      </trkpt>
      <trkpt lat="42.82967" lon="18.04463">
        <ele>312.060157</ele>
        <time>2022-06-10T11:44:08.706Z</time>
      </trkpt>
      <trkpt lat="42.82972" lon="18.04448">
        <ele>312.025668</ele>
        <time>2022-06-10T11:44:11.708Z</time>
      </trkpt>
      <trkpt lat="42.82977" lon="18.04434">
        <ele>311.991679</ele>
        <time>2022-06-10T11:44:14.712Z</time>
      </trkpt>
      <trkpt lat="42.82982" lon="18.04419">
        <ele>311.957635</ele>
        <time>2022-06-10T11:44:17.696Z</time>
      </trkpt>
      <trkpt lat="42.82987" lon="18.04406">
        <ele>311.827386</ele>
        <time>2022-06-10T11:44:20.709Z</time>
      </trkpt>
      <trkpt lat="42.82993" lon="18.04393">
        <ele>311.579874</ele>
        <time>2022-06-10T11:44:23.704Z</time>
      </trkpt>
      <trkpt lat="42.82999" lon="18.04381">
        <ele>311.32198</ele>
        <time>2022-06-10T11:44:26.695Z</time>
      </trkpt>
      <trkpt lat="42.83006" lon="18.04368">
        <ele>311.060199</ele>
        <time>2022-06-10T11:44:29.708Z</time>
      </trkpt>
      <trkpt lat="42.83012" lon="18.04357">
        <ele>310.816227</ele>
        <time>2022-06-10T11:44:32.707Z</time>
      </trkpt>
      <trkpt lat="42.83019" lon="18.04345">
        <ele>310.556806</ele>
        <time>2022-06-10T11:44:35.720Z</time>
      </trkpt>
      <trkpt lat="42.83027" lon="18.04332">
        <ele>310.272999</ele>
        <time>2022-06-10T11:44:38.751Z</time>
      </trkpt>
      <trkpt lat="42.83035" lon="18.04318">
        <ele>309.979163</ele>
        <time>2022-06-10T11:44:41.720Z</time>
      </trkpt>
      <trkpt lat="42.83043" lon="18.04306">
        <ele>309.690294</ele>
        <time>2022-06-10T11:44:44.713Z</time>
      </trkpt>
      <trkpt lat="42.83051" lon="18.04292">
        <ele>309.395149</ele>
        <time>2022-06-10T11:44:47.693Z</time>
      </trkpt>
      <trkpt lat="42.83059" lon="18.0428">
        <ele>309.109085</ele>
        <time>2022-06-10T11:44:50.715Z</time>
      </trkpt>
      <trkpt lat="42.83067" lon="18.04267">
        <ele>308.818935</ele>
        <time>2022-06-10T11:44:53.716Z</time>
      </trkpt>
      <trkpt lat="42.83073" lon="18.04257">
        <ele>308.609684</ele>
        <time>2022-06-10T11:44:55.734Z</time>
      </trkpt>
      <trkpt lat="42.83081" lon="18.04245">
        <ele>308.319534</ele>
        <time>2022-06-10T11:44:58.707Z</time>
      </trkpt>
      <trkpt lat="42.8309" lon="18.04231">
        <ele>308.02121</ele>
        <time>2022-06-10T11:45:01.742Z</time>
      </trkpt>
      <trkpt lat="42.83098" lon="18.04218">
        <ele>307.845422</ele>
        <time>2022-06-10T11:45:04.711Z</time>
      </trkpt>
      <trkpt lat="42.83106" lon="18.04203">
        <ele>308.293726</ele>
        <time>2022-06-10T11:45:07.732Z</time>
      </trkpt>
      <trkpt lat="42.83113" lon="18.04189">
        <ele>308.730784</ele>
        <time>2022-06-10T11:45:10.706Z</time>
      </trkpt>
      <trkpt lat="42.8312" lon="18.04173">
        <ele>309.17879</ele>
        <time>2022-06-10T11:45:13.703Z</time>
      </trkpt>
      <trkpt lat="42.83126" lon="18.04158">
        <ele>309.621137</ele>
        <time>2022-06-10T11:45:16.733Z</time>
      </trkpt>
      <trkpt lat="42.83132" lon="18.04142">
        <ele>310.065095</ele>
        <time>2022-06-10T11:45:19.728Z</time>
      </trkpt>
      <trkpt lat="42.83137" lon="18.04126">
        <ele>310.518472</ele>
        <time>2022-06-10T11:45:22.741Z</time>
      </trkpt>
      <trkpt lat="42.83143" lon="18.04109">
        <ele>310.975206</ele>
        <time>2022-06-10T11:45:25.713Z</time>
      </trkpt>
      <trkpt lat="42.83148" lon="18.04093">
        <ele>311.42907</ele>
        <time>2022-06-10T11:45:28.715Z</time>
      </trkpt>
      <trkpt lat="42.83155" lon="18.04077">
        <ele>311.869264</ele>
        <time>2022-06-10T11:45:31.705Z</time>
      </trkpt>
      <trkpt lat="42.83162" lon="18.04063">
        <ele>312.291856</ele>
        <time>2022-06-10T11:45:34.693Z</time>
      </trkpt>
      <trkpt lat="42.83169" lon="18.0405">
        <ele>312.708039</ele>
        <time>2022-06-10T11:45:37.713Z</time>
      </trkpt>
      <trkpt lat="42.83176" lon="18.04036">
        <ele>313.130283</ele>
        <time>2022-06-10T11:45:40.739Z</time>
      </trkpt>
      <trkpt lat="42.83183" lon="18.04022">
        <ele>313.550316</ele>
        <time>2022-06-10T11:45:43.706Z</time>
      </trkpt>
      <trkpt lat="42.8319" lon="18.04009">
        <ele>313.895218</ele>
        <time>2022-06-10T11:45:46.788Z</time>
      </trkpt>
      <trkpt lat="42.83198" lon="18.03995">
        <ele>313.761397</ele>
        <time>2022-06-10T11:45:49.717Z</time>
      </trkpt>
      <trkpt lat="42.83205" lon="18.0398">
        <ele>313.624821</ele>
        <time>2022-06-10T11:45:52.726Z</time>
      </trkpt>
      <trkpt lat="42.83212" lon="18.03966">
        <ele>313.494078</ele>
        <time>2022-06-10T11:45:55.723Z</time>
      </trkpt>
      <trkpt lat="42.83219" lon="18.03953">
        <ele>313.367703</ele>
        <time>2022-06-10T11:45:58.703Z</time>
      </trkpt>
      <trkpt lat="42.83227" lon="18.0394">
        <ele>313.242379</ele>
        <time>2022-06-10T11:46:01.718Z</time>
      </trkpt>
      <trkpt lat="42.83235" lon="18.03928">
        <ele>313.11223</ele>
        <time>2022-06-10T11:46:04.780Z</time>
      </trkpt>
      <trkpt lat="42.83244" lon="18.03915">
        <ele>312.974043</ele>
        <time>2022-06-10T11:46:07.731Z</time>
      </trkpt>
      <trkpt lat="42.83254" lon="18.03904">
        <ele>312.836666</ele>
        <time>2022-06-10T11:46:10.701Z</time>
      </trkpt>
      <trkpt lat="42.83265" lon="18.03895">
        <ele>312.705946</ele>
        <time>2022-06-10T11:46:13.699Z</time>
      </trkpt>
      <trkpt lat="42.83276" lon="18.03888">
        <ele>312.576509</ele>
        <time>2022-06-10T11:46:16.708Z</time>
      </trkpt>
      <trkpt lat="42.83287" lon="18.03881">
        <ele>312.445239</ele>
        <time>2022-06-10T11:46:19.708Z</time>
      </trkpt>
      <trkpt lat="42.83299" lon="18.03873">
        <ele>312.31288</ele>
        <time>2022-06-10T11:46:22.707Z</time>
      </trkpt>
      <trkpt lat="42.83309" lon="18.03864">
        <ele>312.181639</ele>
        <time>2022-06-10T11:46:25.724Z</time>
      </trkpt>
      <trkpt lat="42.83319" lon="18.03855">
        <ele>312.056346</ele>
        <time>2022-06-10T11:46:28.710Z</time>
      </trkpt>
      <trkpt lat="42.83328" lon="18.03844">
        <ele>312.058557</ele>
        <time>2022-06-10T11:46:31.716Z</time>
      </trkpt>
      <trkpt lat="42.83335" lon="18.03832">
        <ele>312.114941</ele>
        <time>2022-06-10T11:46:34.746Z</time>
      </trkpt>
      <trkpt lat="42.83343" lon="18.03818">
        <ele>312.174069</ele>
        <time>2022-06-10T11:46:37.723Z</time>
      </trkpt>
      <trkpt lat="42.83351" lon="18.03805">
        <ele>312.232809</ele>
        <time>2022-06-10T11:46:40.736Z</time>
      </trkpt>
      <trkpt lat="42.83357" lon="18.03789">
        <ele>312.293162</ele>
        <time>2022-06-10T11:46:43.705Z</time>
      </trkpt>
      <trkpt lat="42.83362" lon="18.03773">
        <ele>312.353012</ele>
        <time>2022-06-10T11:46:46.707Z</time>
      </trkpt>
      <trkpt lat="42.83366" lon="18.03757">
        <ele>312.412845</ele>
        <time>2022-06-10T11:46:49.696Z</time>
      </trkpt>
      <trkpt lat="42.8337" lon="18.03742">
        <ele>312.467362</ele>
        <time>2022-06-10T11:46:52.698Z</time>
      </trkpt>
      <trkpt lat="42.83375" lon="18.03726">
        <ele>312.528517</ele>
        <time>2022-06-10T11:46:55.719Z</time>
      </trkpt>
      <trkpt lat="42.83379" lon="18.03714">
        <ele>312.57094</ele>
        <time>2022-06-10T11:46:57.747Z</time>
      </trkpt>
      <trkpt lat="42.83382" lon="18.03697">
        <ele>312.631994</ele>
        <time>2022-06-10T11:47:00.714Z</time>
      </trkpt>
      <trkpt lat="42.83384" lon="18.03685">
        <ele>312.674168</ele>
        <time>2022-06-10T11:47:02.717Z</time>
      </trkpt>
      <trkpt lat="42.83387" lon="18.03667">
        <ele>312.736473</ele>
        <time>2022-06-10T11:47:05.715Z</time>
      </trkpt>
      <trkpt lat="42.83389" lon="18.0365">
        <ele>312.795438</ele>
        <time>2022-06-10T11:47:08.686Z</time>
      </trkpt>
      <trkpt lat="42.83392" lon="18.03634">
        <ele>312.853837</ele>
        <time>2022-06-10T11:47:11.711Z</time>
      </trkpt>
      <trkpt lat="42.83395" lon="18.03618">
        <ele>312.98406</ele>
        <time>2022-06-10T11:47:14.740Z</time>
      </trkpt>
      <trkpt lat="42.83397" lon="18.03602">
        <ele>313.134714</ele>
        <time>2022-06-10T11:47:17.712Z</time>
      </trkpt>
      <trkpt lat="42.834" lon="18.03586">
        <ele>313.287412</ele>
        <time>2022-06-10T11:47:20.699Z</time>
      </trkpt>
      <trkpt lat="42.83401" lon="18.0357">
        <ele>313.438095</ele>
        <time>2022-06-10T11:47:23.719Z</time>
      </trkpt>
      <trkpt lat="42.83404" lon="18.03554">
        <ele>313.58386</ele>
        <time>2022-06-10T11:47:26.713Z</time>
      </trkpt>
      <trkpt lat="42.83407" lon="18.03538">
        <ele>313.737743</ele>
        <time>2022-06-10T11:47:29.722Z</time>
      </trkpt>
      <trkpt lat="42.83411" lon="18.03523">
        <ele>313.884371</ele>
        <time>2022-06-10T11:47:32.732Z</time>
      </trkpt>
      <trkpt lat="42.83415" lon="18.03508">
        <ele>314.034006</ele>
        <time>2022-06-10T11:47:35.703Z</time>
      </trkpt>
      <trkpt lat="42.83421" lon="18.03493">
        <ele>314.183633</ele>
        <time>2022-06-10T11:47:38.727Z</time>
      </trkpt>
      <trkpt lat="42.83427" lon="18.03479">
        <ele>314.332119</ele>
        <time>2022-06-10T11:47:41.715Z</time>
      </trkpt>
      <trkpt lat="42.83433" lon="18.03466">
        <ele>314.478421</ele>
        <time>2022-06-10T11:47:44.724Z</time>
      </trkpt>
      <trkpt lat="42.83439" lon="18.03451">
        <ele>314.632946</ele>
        <time>2022-06-10T11:47:47.759Z</time>
      </trkpt>
      <trkpt lat="42.83446" lon="18.03436">
        <ele>314.793928</ele>
        <time>2022-06-10T11:47:50.702Z</time>
      </trkpt>
      <trkpt lat="42.83452" lon="18.03422">
        <ele>314.949059</ele>
        <time>2022-06-10T11:47:53.737Z</time>
      </trkpt>
      <trkpt lat="42.83458" lon="18.03406">
        <ele>315.112837</ele>
        <time>2022-06-10T11:47:56.707Z</time>
      </trkpt>
      <trkpt lat="42.83463" lon="18.0339">
        <ele>314.973055</ele>
        <time>2022-06-10T11:47:59.730Z</time>
      </trkpt>
      <trkpt lat="42.83466" lon="18.03374">
        <ele>314.831316</ele>
        <time>2022-06-10T11:48:02.712Z</time>
      </trkpt>
      <trkpt lat="42.83469" lon="18.03358">
        <ele>314.688241</ele>
        <time>2022-06-10T11:48:05.746Z</time>
      </trkpt>
      <trkpt lat="42.83471" lon="18.0334">
        <ele>314.536562</ele>
        <time>2022-06-10T11:48:08.728Z</time>
      </trkpt>
      <trkpt lat="42.83473" lon="18.03322">
        <ele>314.383553</ele>
        <time>2022-06-10T11:48:11.719Z</time>
      </trkpt>
      <trkpt lat="42.83475" lon="18.03305">
        <ele>314.234078</ele>
        <time>2022-06-10T11:48:14.712Z</time>
      </trkpt>
      <trkpt lat="42.83477" lon="18.03288">
        <ele>314.088865</ele>
        <time>2022-06-10T11:48:17.708Z</time>
      </trkpt>
      <trkpt lat="42.83479" lon="18.03271">
        <ele>313.940706</ele>
        <time>2022-06-10T11:48:20.711Z</time>
      </trkpt>
      <trkpt lat="42.83482" lon="18.03254">
        <ele>313.796263</ele>
        <time>2022-06-10T11:48:23.727Z</time>
      </trkpt>
      <trkpt lat="42.83484" lon="18.03238">
        <ele>313.651667</ele>
        <time>2022-06-10T11:48:26.705Z</time>
      </trkpt>
      <trkpt lat="42.83486" lon="18.03221">
        <ele>313.504989</ele>
        <time>2022-06-10T11:48:29.720Z</time>
      </trkpt>
      <trkpt lat="42.83489" lon="18.03204">
        <ele>313.356419</ele>
        <time>2022-06-10T11:48:32.704Z</time>
      </trkpt>
      <trkpt lat="42.83493" lon="18.03187">
        <ele>313.210372</ele>
        <time>2022-06-10T11:48:35.728Z</time>
      </trkpt>
      <trkpt lat="42.83498" lon="18.03172">
        <ele>313.069869</ele>
        <time>2022-06-10T11:48:38.751Z</time>
      </trkpt>
      <trkpt lat="42.83503" lon="18.03158">
        <ele>313.036151</ele>
        <time>2022-06-10T11:48:41.723Z</time>
      </trkpt>
      <trkpt lat="42.8351" lon="18.03144">
        <ele>313.042387</ele>
        <time>2022-06-10T11:48:44.699Z</time>
      </trkpt>
      <trkpt lat="42.83517" lon="18.03131">
        <ele>313.048445</ele>
        <time>2022-06-10T11:48:47.711Z</time>
      </trkpt>
      <trkpt lat="42.83523" lon="18.0312">
        <ele>313.053989</ele>
        <time>2022-06-10T11:48:50.706Z</time>
      </trkpt>
      <trkpt lat="42.83532" lon="18.03109">
        <ele>313.060119</ele>
        <time>2022-06-10T11:48:53.723Z</time>
      </trkpt>
      <trkpt lat="42.83541" lon="18.03096">
        <ele>313.06699</ele>
        <time>2022-06-10T11:48:56.726Z</time>
      </trkpt>
      <trkpt lat="42.83551" lon="18.03086">
        <ele>313.073261</ele>
        <time>2022-06-10T11:48:59.708Z</time>
      </trkpt>
      <trkpt lat="42.83561" lon="18.03077">
        <ele>313.079937</ele>
        <time>2022-06-10T11:49:02.706Z</time>
      </trkpt>
      <trkpt lat="42.83571" lon="18.03067">
        <ele>313.086098</ele>
        <time>2022-06-10T11:49:05.726Z</time>
      </trkpt>
      <trkpt lat="42.83579" lon="18.03058">
        <ele>313.091608</ele>
        <time>2022-06-10T11:49:08.716Z</time>
      </trkpt>
      <trkpt lat="42.83587" lon="18.0305">
        <ele>313.096835</ele>
        <time>2022-06-10T11:49:11.708Z</time>
      </trkpt>
      <trkpt lat="42.83596" lon="18.03039">
        <ele>313.10318</ele>
        <time>2022-06-10T11:49:14.725Z</time>
      </trkpt>
      <trkpt lat="42.83606" lon="18.03028">
        <ele>313.109873</ele>
        <time>2022-06-10T11:49:17.742Z</time>
      </trkpt>
      <trkpt lat="42.83614" lon="18.03016">
        <ele>313.115885</ele>
        <time>2022-06-10T11:49:20.711Z</time>
      </trkpt>
      <trkpt lat="42.83623" lon="18.03004">
        <ele>313.122472</ele>
        <time>2022-06-10T11:49:23.739Z</time>
      </trkpt>
      <trkpt lat="42.83629" lon="18.02995">
        <ele>313.113305</ele>
        <time>2022-06-10T11:49:25.694Z</time>
      </trkpt>
      <trkpt lat="42.83636" lon="18.02986">
        <ele>313.076437</ele>
        <time>2022-06-10T11:49:27.715Z</time>
      </trkpt>
      <trkpt lat="42.83644" lon="18.02974">
        <ele>313.028778</ele>
        <time>2022-06-10T11:49:30.716Z</time>
      </trkpt>
      <trkpt lat="42.83652" lon="18.0296">
        <ele>312.975983</ele>
        <time>2022-06-10T11:49:33.703Z</time>
      </trkpt>
      <trkpt lat="42.83659" lon="18.02952">
        <ele>312.939019</ele>
        <time>2022-06-10T11:49:35.710Z</time>
      </trkpt>
      <trkpt lat="42.8367" lon="18.0294">
        <ele>312.885971</ele>
        <time>2022-06-10T11:49:38.711Z</time>
      </trkpt>
      <trkpt lat="42.83678" lon="18.02927">
        <ele>312.83404</ele>
        <time>2022-06-10T11:49:41.702Z</time>
      </trkpt>
      <trkpt lat="42.83686" lon="18.02912">
        <ele>312.78084</ele>
        <time>2022-06-10T11:49:44.700Z</time>
      </trkpt>
      <trkpt lat="42.83695" lon="18.029">
        <ele>312.730117</ele>
        <time>2022-06-10T11:49:47.703Z</time>
      </trkpt>
      <trkpt lat="42.83705" lon="18.02887">
        <ele>312.677107</ele>
        <time>2022-06-10T11:49:50.726Z</time>
      </trkpt>
      <trkpt lat="42.83714" lon="18.02876">
        <ele>312.626332</ele>
        <time>2022-06-10T11:49:53.699Z</time>
      </trkpt>
      <trkpt lat="42.83724" lon="18.02867">
        <ele>312.580926</ele>
        <time>2022-06-10T11:49:56.711Z</time>
      </trkpt>
      <trkpt lat="42.83733" lon="18.02857">
        <ele>312.532237</ele>
        <time>2022-06-10T11:49:59.729Z</time>
      </trkpt>
      <trkpt lat="42.83743" lon="18.02849">
        <ele>312.487076</ele>
        <time>2022-06-10T11:50:02.717Z</time>
      </trkpt>
      <trkpt lat="42.83754" lon="18.02842">
        <ele>312.439764</ele>
        <time>2022-06-10T11:50:05.723Z</time>
      </trkpt>
      <trkpt lat="42.83764" lon="18.02835">
        <ele>312.505322</ele>
        <time>2022-06-10T11:50:08.710Z</time>
      </trkpt>
      <trkpt lat="42.83776" lon="18.02829">
        <ele>312.792203</ele>
        <time>2022-06-10T11:50:11.707Z</time>
      </trkpt>
      <trkpt lat="42.83788" lon="18.02824">
        <ele>313.075811</ele>
        <time>2022-06-10T11:50:14.764Z</time>
      </trkpt>
      <trkpt lat="42.83799" lon="18.0282">
        <ele>313.342287</ele>
        <time>2022-06-10T11:50:17.719Z</time>
      </trkpt>
      <trkpt lat="42.83811" lon="18.02815">
        <ele>313.641707</ele>
        <time>2022-06-10T11:50:20.711Z</time>
      </trkpt>
      <trkpt lat="42.83822" lon="18.0281">
        <ele>313.915458</ele>
        <time>2022-06-10T11:50:23.710Z</time>
      </trkpt>
      <trkpt lat="42.83834" lon="18.02804">
        <ele>314.210469</ele>
        <time>2022-06-10T11:50:26.730Z</time>
      </trkpt>
      <trkpt lat="42.83843" lon="18.02799">
        <ele>314.421417</ele>
        <time>2022-06-10T11:50:28.716Z</time>
      </trkpt>
      <trkpt lat="42.83851" lon="18.02793">
        <ele>314.63501</ele>
        <time>2022-06-10T11:50:30.706Z</time>
      </trkpt>
      <trkpt lat="42.83859" lon="18.02787">
        <ele>314.844954</ele>
        <time>2022-06-10T11:50:32.703Z</time>
      </trkpt>
      <trkpt lat="42.83867" lon="18.02781">
        <ele>315.064473</ele>
        <time>2022-06-10T11:50:34.715Z</time>
      </trkpt>
      <trkpt lat="42.83874" lon="18.02774">
        <ele>315.273158</ele>
        <time>2022-06-10T11:50:36.741Z</time>
      </trkpt>
      <trkpt lat="42.83882" lon="18.02765">
        <ele>315.494482</ele>
        <time>2022-06-10T11:50:38.697Z</time>
      </trkpt>
      <trkpt lat="42.83888" lon="18.02757">
        <ele>315.709379</ele>
        <time>2022-06-10T11:50:40.703Z</time>
      </trkpt>
      <trkpt lat="42.83897" lon="18.02743">
        <ele>316.01564</ele>
        <time>2022-06-10T11:50:43.710Z</time>
      </trkpt>
      <trkpt lat="42.83904" lon="18.02734">
        <ele>316.232021</ele>
        <time>2022-06-10T11:50:45.718Z</time>
      </trkpt>
      <trkpt lat="42.8391" lon="18.02724">
        <ele>316.446158</ele>
        <time>2022-06-10T11:50:47.755Z</time>
      </trkpt>
      <trkpt lat="42.83917" lon="18.02712">
        <ele>316.564865</ele>
        <time>2022-06-10T11:50:50.722Z</time>
      </trkpt>
      <trkpt lat="42.83925" lon="18.02698">
        <ele>316.538167</ele>
        <time>2022-06-10T11:50:53.712Z</time>
      </trkpt>
      <trkpt lat="42.83933" lon="18.02686">
        <ele>316.513646</ele>
        <time>2022-06-10T11:50:56.703Z</time>
      </trkpt>
      <trkpt lat="42.83941" lon="18.02676">
        <ele>316.490425</ele>
        <time>2022-06-10T11:50:59.707Z</time>
      </trkpt>
      <trkpt lat="42.83949" lon="18.02665">
        <ele>316.466277</ele>
        <time>2022-06-10T11:51:02.708Z</time>
      </trkpt>
      <trkpt lat="42.83958" lon="18.02656">
        <ele>316.442592</ele>
        <time>2022-06-10T11:51:05.716Z</time>
      </trkpt>
      <trkpt lat="42.83968" lon="18.02646">
        <ele>316.418061</ele>
        <time>2022-06-10T11:51:09.737Z</time>
      </trkpt>
      <trkpt lat="42.83977" lon="18.02639">
        <ele>316.396281</ele>
        <time>2022-06-10T11:51:12.710Z</time>
      </trkpt>
      <trkpt lat="42.83988" lon="18.0263">
        <ele>316.370073</ele>
        <time>2022-06-10T11:51:15.742Z</time>
      </trkpt>
      <trkpt lat="42.83999" lon="18.02623">
        <ele>316.344293</ele>
        <time>2022-06-10T11:51:18.717Z</time>
      </trkpt>
      <trkpt lat="42.84011" lon="18.02619">
        <ele>316.317864</ele>
        <time>2022-06-10T11:51:21.739Z</time>
      </trkpt>
      <trkpt lat="42.84024" lon="18.02616">
        <ele>316.291317</ele>
        <time>2022-06-10T11:51:24.708Z</time>
      </trkpt>
      <trkpt lat="42.84036" lon="18.02615">
        <ele>316.264564</ele>
        <time>2022-06-10T11:51:27.743Z</time>
      </trkpt>
      <trkpt lat="42.84046" lon="18.02614">
        <ele>316.245508</ele>
        <time>2022-06-10T11:51:29.711Z</time>
      </trkpt>
      <trkpt lat="42.84059" lon="18.02613">
        <ele>316.217705</ele>
        <time>2022-06-10T11:51:32.724Z</time>
      </trkpt>
      <trkpt lat="42.84072" lon="18.02613">
        <ele>315.959411</ele>
        <time>2022-06-10T11:51:35.711Z</time>
      </trkpt>
      <trkpt lat="42.84084" lon="18.02612">
        <ele>315.388457</ele>
        <time>2022-06-10T11:51:38.707Z</time>
      </trkpt>
      <trkpt lat="42.84097" lon="18.02612">
        <ele>314.818246</ele>
        <time>2022-06-10T11:51:41.704Z</time>
      </trkpt>
      <trkpt lat="42.8411" lon="18.02611">
        <ele>314.242772</ele>
        <time>2022-06-10T11:51:44.711Z</time>
      </trkpt>
      <trkpt lat="42.84122" lon="18.02609">
        <ele>313.686726</ele>
        <time>2022-06-10T11:51:47.721Z</time>
      </trkpt>
      <trkpt lat="42.84134" lon="18.02604">
        <ele>313.092105</ele>
        <time>2022-06-10T11:51:50.746Z</time>
      </trkpt>
      <trkpt lat="42.84146" lon="18.02597">
        <ele>312.519493</ele>
        <time>2022-06-10T11:51:53.715Z</time>
      </trkpt>
      <trkpt lat="42.84157" lon="18.02587">
        <ele>311.945523</ele>
        <time>2022-06-10T11:51:56.748Z</time>
      </trkpt>
      <trkpt lat="42.84166" lon="18.02575">
        <ele>311.356242</ele>
        <time>2022-06-10T11:51:59.718Z</time>
      </trkpt>
      <trkpt lat="42.84175" lon="18.02562">
        <ele>310.755078</ele>
        <time>2022-06-10T11:52:02.717Z</time>
      </trkpt>
      <trkpt lat="42.84182" lon="18.02553">
        <ele>310.340624</ele>
        <time>2022-06-10T11:52:04.707Z</time>
      </trkpt>
      <trkpt lat="42.84188" lon="18.02544">
        <ele>309.919843</ele>
        <time>2022-06-10T11:52:06.740Z</time>
      </trkpt>
      <trkpt lat="42.84197" lon="18.02531">
        <ele>309.32396</ele>
        <time>2022-06-10T11:52:09.720Z</time>
      </trkpt>
      <trkpt lat="42.84203" lon="18.02522">
        <ele>308.911106</ele>
        <time>2022-06-10T11:52:11.714Z</time>
      </trkpt>
      <trkpt lat="42.8421" lon="18.02513">
        <ele>308.483217</ele>
        <time>2022-06-10T11:52:13.736Z</time>
      </trkpt>
      <trkpt lat="42.84217" lon="18.02504">
        <ele>308.062393</ele>
        <time>2022-06-10T11:52:15.715Z</time>
      </trkpt>
      <trkpt lat="42.84227" lon="18.02492">
        <ele>308.003829</ele>
        <time>2022-06-10T11:52:18.728Z</time>
      </trkpt>
      <trkpt lat="42.84235" lon="18.02485">
        <ele>307.964202</ele>
        <time>2022-06-10T11:52:20.728Z</time>
      </trkpt>
      <trkpt lat="42.84244" lon="18.02479">
        <ele>307.922615</ele>
        <time>2022-06-10T11:52:22.703Z</time>
      </trkpt>
      <trkpt lat="42.84252" lon="18.02474">
        <ele>307.88074</ele>
        <time>2022-06-10T11:52:24.717Z</time>
      </trkpt>
      <trkpt lat="42.84261" lon="18.02468">
        <ele>307.839779</ele>
        <time>2022-06-10T11:52:26.703Z</time>
      </trkpt>
      <trkpt lat="42.8427" lon="18.02464">
        <ele>307.799315</ele>
        <time>2022-06-10T11:52:28.738Z</time>
      </trkpt>
      <trkpt lat="42.84278" lon="18.02459">
        <ele>307.759886</ele>
        <time>2022-06-10T11:52:30.707Z</time>
      </trkpt>
      <trkpt lat="42.84287" lon="18.02454">
        <ele>307.719446</ele>
        <time>2022-06-10T11:52:32.710Z</time>
      </trkpt>
      <trkpt lat="42.84295" lon="18.02449">
        <ele>307.680362</ele>
        <time>2022-06-10T11:52:34.729Z</time>
      </trkpt>
      <trkpt lat="42.84305" lon="18.02445">
        <ele>307.638532</ele>
        <time>2022-06-10T11:52:36.717Z</time>
      </trkpt>
      <trkpt lat="42.84313" lon="18.0244">
        <ele>307.598188</ele>
        <time>2022-06-10T11:52:38.699Z</time>
      </trkpt>
      <trkpt lat="42.84322" lon="18.02435">
        <ele>307.558408</ele>
        <time>2022-06-10T11:52:40.708Z</time>
      </trkpt>
      <trkpt lat="42.84331" lon="18.02432">
        <ele>307.518344</ele>
        <time>2022-06-10T11:52:42.704Z</time>
      </trkpt>
      <trkpt lat="42.8434" lon="18.02428">
        <ele>307.476834</ele>
        <time>2022-06-10T11:52:44.710Z</time>
      </trkpt>
      <trkpt lat="42.84349" lon="18.02423">
        <ele>307.435692</ele>
        <time>2022-06-10T11:52:46.757Z</time>
      </trkpt>
      <trkpt lat="42.84357" lon="18.02418">
        <ele>307.396165</ele>
        <time>2022-06-10T11:52:48.709Z</time>
      </trkpt>
      <trkpt lat="42.84369" lon="18.0241">
        <ele>307.338879</ele>
        <time>2022-06-10T11:52:51.717Z</time>
      </trkpt>
      <trkpt lat="42.84377" lon="18.02403">
        <ele>307.299977</ele>
        <time>2022-06-10T11:52:53.716Z</time>
      </trkpt>
      <trkpt lat="42.84387" lon="18.02392">
        <ele>307.173862</ele>
        <time>2022-06-10T11:52:56.771Z</time>
      </trkpt>
      <trkpt lat="42.84397" lon="18.0238">
        <ele>307.028274</ele>
        <time>2022-06-10T11:52:59.717Z</time>
      </trkpt>
      <trkpt lat="42.84404" lon="18.02371">
        <ele>306.926834</ele>
        <time>2022-06-10T11:53:01.711Z</time>
      </trkpt>
      <trkpt lat="42.8441" lon="18.02361">
        <ele>306.827086</ele>
        <time>2022-06-10T11:53:03.755Z</time>
      </trkpt>
      <trkpt lat="42.84415" lon="18.02351">
        <ele>306.726034</ele>
        <time>2022-06-10T11:53:05.707Z</time>
      </trkpt>
      <trkpt lat="42.84422" lon="18.02342">
        <ele>306.624083</ele>
        <time>2022-06-10T11:53:07.729Z</time>
      </trkpt>
      <trkpt lat="42.84427" lon="18.02332">
        <ele>306.52564</ele>
        <time>2022-06-10T11:53:09.732Z</time>
      </trkpt>
      <trkpt lat="42.84433" lon="18.02323">
        <ele>306.427735</ele>
        <time>2022-06-10T11:53:11.712Z</time>
      </trkpt>
      <trkpt lat="42.84439" lon="18.02313">
        <ele>306.328519</ele>
        <time>2022-06-10T11:53:13.720Z</time>
      </trkpt>
      <trkpt lat="42.84448" lon="18.02299">
        <ele>306.183665</ele>
        <time>2022-06-10T11:53:16.711Z</time>
      </trkpt>
      <trkpt lat="42.84456" lon="18.02286">
        <ele>306.044573</ele>
        <time>2022-06-10T11:53:19.723Z</time>
      </trkpt>
      <trkpt lat="42.84461" lon="18.02276">
        <ele>305.94681</ele>
        <time>2022-06-10T11:53:21.764Z</time>
      </trkpt>
      <trkpt lat="42.84467" lon="18.02267">
        <ele>305.846985</ele>
        <time>2022-06-10T11:53:23.709Z</time>
      </trkpt>
      <trkpt lat="42.84475" lon="18.02252">
        <ele>305.703023</ele>
        <time>2022-06-10T11:53:26.735Z</time>
      </trkpt>
      <trkpt lat="42.84484" lon="18.02239">
        <ele>305.557753</ele>
        <time>2022-06-10T11:53:29.732Z</time>
      </trkpt>
      <trkpt lat="42.84492" lon="18.02225">
        <ele>305.414957</ele>
        <time>2022-06-10T11:53:32.704Z</time>
      </trkpt>
      <trkpt lat="42.845" lon="18.02212">
        <ele>305.411739</ele>
        <time>2022-06-10T11:53:35.709Z</time>
      </trkpt>
      <trkpt lat="42.84508" lon="18.02198">
        <ele>305.599023</ele>
        <time>2022-06-10T11:53:38.719Z</time>
      </trkpt>
      <trkpt lat="42.84516" lon="18.02186">
        <ele>305.781951</ele>
        <time>2022-06-10T11:53:41.706Z</time>
      </trkpt>
      <trkpt lat="42.84526" lon="18.02174">
        <ele>305.970942</ele>
        <time>2022-06-10T11:53:44.711Z</time>
      </trkpt>
      <trkpt lat="42.84536" lon="18.02163">
        <ele>306.168416</ele>
        <time>2022-06-10T11:53:47.732Z</time>
      </trkpt>
      <trkpt lat="42.84546" lon="18.02152">
        <ele>306.364905</ele>
        <time>2022-06-10T11:53:50.728Z</time>
      </trkpt>
      <trkpt lat="42.84558" lon="18.02144">
        <ele>306.559429</ele>
        <time>2022-06-10T11:53:53.719Z</time>
      </trkpt>
      <trkpt lat="42.84569" lon="18.02136">
        <ele>306.750521</ele>
        <time>2022-06-10T11:53:56.712Z</time>
      </trkpt>
      <trkpt lat="42.84581" lon="18.02129">
        <ele>306.939757</ele>
        <time>2022-06-10T11:53:59.722Z</time>
      </trkpt>
      <trkpt lat="42.84593" lon="18.02123">
        <ele>307.137368</ele>
        <time>2022-06-10T11:54:02.713Z</time>
      </trkpt>
      <trkpt lat="42.84605" lon="18.02118">
        <ele>307.32423</ele>
        <time>2022-06-10T11:54:05.749Z</time>
      </trkpt>
      <trkpt lat="42.84618" lon="18.02116">
        <ele>307.513784</ele>
        <time>2022-06-10T11:54:08.707Z</time>
      </trkpt>
      <trkpt lat="42.84627" lon="18.02113">
        <ele>307.65463</ele>
        <time>2022-06-10T11:54:10.733Z</time>
      </trkpt>
      <trkpt lat="42.84636" lon="18.0211">
        <ele>307.791805</ele>
        <time>2022-06-10T11:54:12.723Z</time>
      </trkpt>
      <trkpt lat="42.84644" lon="18.02107">
        <ele>307.928621</ele>
        <time>2022-06-10T11:54:14.732Z</time>
      </trkpt>
      <trkpt lat="42.84653" lon="18.02102">
        <ele>307.986688</ele>
        <time>2022-06-10T11:54:16.712Z</time>
      </trkpt>
      <trkpt lat="42.84661" lon="18.02097">
        <ele>307.816665</ele>
        <time>2022-06-10T11:54:18.717Z</time>
      </trkpt>
      <trkpt lat="42.84669" lon="18.02091">
        <ele>307.649592</ele>
        <time>2022-06-10T11:54:20.724Z</time>
      </trkpt>
      <trkpt lat="42.84677" lon="18.02084">
        <ele>307.484079</ele>
        <time>2022-06-10T11:54:22.704Z</time>
      </trkpt>
      <trkpt lat="42.84687" lon="18.02074">
        <ele>307.255144</ele>
        <time>2022-06-10T11:54:25.707Z</time>
      </trkpt>
      <trkpt lat="42.84695" lon="18.02062">
        <ele>307.034692</ele>
        <time>2022-06-10T11:54:28.717Z</time>
      </trkpt>
      <trkpt lat="42.84703" lon="18.02049">
        <ele>306.805068</ele>
        <time>2022-06-10T11:54:31.719Z</time>
      </trkpt>
      <trkpt lat="42.84713" lon="18.02037">
        <ele>306.569466</ele>
        <time>2022-06-10T11:54:34.710Z</time>
      </trkpt>
      <trkpt lat="42.84721" lon="18.02025">
        <ele>306.343554</ele>
        <time>2022-06-10T11:54:37.722Z</time>
      </trkpt>
      <trkpt lat="42.8473" lon="18.02013">
        <ele>306.115607</ele>
        <time>2022-06-10T11:54:40.711Z</time>
      </trkpt>
      <trkpt lat="42.84738" lon="18.02001">
        <ele>305.898871</ele>
        <time>2022-06-10T11:54:43.713Z</time>
      </trkpt>
      <trkpt lat="42.84745" lon="18.01988">
        <ele>305.67493</ele>
        <time>2022-06-10T11:54:46.731Z</time>
      </trkpt>
      <trkpt lat="42.84753" lon="18.01974">
        <ele>305.437025</ele>
        <time>2022-06-10T11:54:49.712Z</time>
      </trkpt>
      <trkpt lat="42.8476" lon="18.0196">
        <ele>305.20996</ele>
        <time>2022-06-10T11:54:52.707Z</time>
      </trkpt>
      <trkpt lat="42.84767" lon="18.01946">
        <ele>304.984985</ele>
        <time>2022-06-10T11:54:55.744Z</time>
      </trkpt>
      <trkpt lat="42.84773" lon="18.01931">
        <ele>304.750713</ele>
        <time>2022-06-10T11:54:58.754Z</time>
      </trkpt>
      <trkpt lat="42.84779" lon="18.01916">
        <ele>304.943529</ele>
        <time>2022-06-10T11:55:01.714Z</time>
      </trkpt>
      <trkpt lat="42.84787" lon="18.01901">
        <ele>305.198421</ele>
        <time>2022-06-10T11:55:04.703Z</time>
      </trkpt>
      <trkpt lat="42.84794" lon="18.01888">
        <ele>305.435713</ele>
        <time>2022-06-10T11:55:07.737Z</time>
      </trkpt>
      <trkpt lat="42.84803" lon="18.01876">
        <ele>305.683009</ele>
        <time>2022-06-10T11:55:10.724Z</time>
      </trkpt>
      <trkpt lat="42.84813" lon="18.01865">
        <ele>305.930215</ele>
        <time>2022-06-10T11:55:13.762Z</time>
      </trkpt>
      <trkpt lat="42.84824" lon="18.01856">
        <ele>306.171639</ele>
        <time>2022-06-10T11:55:16.717Z</time>
      </trkpt>
      <trkpt lat="42.84835" lon="18.01846">
        <ele>306.427043</ele>
        <time>2022-06-10T11:55:19.707Z</time>
      </trkpt>
      <trkpt lat="42.84845" lon="18.01835">
        <ele>306.683637</ele>
        <time>2022-06-10T11:55:22.747Z</time>
      </trkpt>
      <trkpt lat="42.84855" lon="18.01825">
        <ele>306.929601</ele>
        <time>2022-06-10T11:55:25.711Z</time>
      </trkpt>
      <trkpt lat="42.84866" lon="18.01814">
        <ele>307.184474</ele>
        <time>2022-06-10T11:55:28.720Z</time>
      </trkpt>
      <trkpt lat="42.84876" lon="18.01804">
        <ele>307.429594</ele>
        <time>2022-06-10T11:55:31.748Z</time>
      </trkpt>
      <trkpt lat="42.84887" lon="18.01793">
        <ele>307.685325</ele>
        <time>2022-06-10T11:55:34.715Z</time>
      </trkpt>
      <trkpt lat="42.84897" lon="18.01783">
        <ele>307.928885</ele>
        <time>2022-06-10T11:55:37.719Z</time>
      </trkpt>
      <trkpt lat="42.84907" lon="18.01772">
        <ele>308.177896</ele>
        <time>2022-06-10T11:55:40.703Z</time>
      </trkpt>
      <trkpt lat="42.84917" lon="18.01761">
        <ele>308.265465</ele>
        <time>2022-06-10T11:55:43.712Z</time>
      </trkpt>
      <trkpt lat="42.84927" lon="18.0175">
        <ele>308.326632</ele>
        <time>2022-06-10T11:55:46.736Z</time>
      </trkpt>
      <trkpt lat="42.84936" lon="18.01738">
        <ele>308.3859</ele>
        <time>2022-06-10T11:55:49.724Z</time>
      </trkpt>
      <trkpt lat="42.84945" lon="18.01725">
        <ele>308.446138</ele>
        <time>2022-06-10T11:55:52.716Z</time>
      </trkpt>
      <trkpt lat="42.84953" lon="18.01711">
        <ele>308.50875</ele>
        <time>2022-06-10T11:55:55.713Z</time>
      </trkpt>
      <trkpt lat="42.84961" lon="18.01696">
        <ele>308.568851</ele>
        <time>2022-06-10T11:55:58.712Z</time>
      </trkpt>
      <trkpt lat="42.84967" lon="18.01681">
        <ele>308.627898</ele>
        <time>2022-06-10T11:56:01.773Z</time>
      </trkpt>
      <trkpt lat="42.84973" lon="18.01666">
        <ele>308.687637</ele>
        <time>2022-06-10T11:56:04.722Z</time>
      </trkpt>
      <trkpt lat="42.84978" lon="18.0165">
        <ele>308.748301</ele>
        <time>2022-06-10T11:56:07.714Z</time>
      </trkpt>
      <trkpt lat="42.84984" lon="18.01634">
        <ele>308.808382</ele>
        <time>2022-06-10T11:56:10.725Z</time>
      </trkpt>
      <trkpt lat="42.84989" lon="18.01618">
        <ele>308.868525</ele>
        <time>2022-06-10T11:56:13.724Z</time>
      </trkpt>
      <trkpt lat="42.84994" lon="18.01608">
        <ele>308.910712</ele>
        <time>2022-06-10T11:56:15.707Z</time>
      </trkpt>
      <trkpt lat="42.85001" lon="18.01595">
        <ele>308.967483</ele>
        <time>2022-06-10T11:56:18.719Z</time>
      </trkpt>
      <trkpt lat="42.8501" lon="18.01582">
        <ele>309.028043</ele>
        <time>2022-06-10T11:56:21.708Z</time>
      </trkpt>
      <trkpt lat="42.85019" lon="18.01569">
        <ele>308.903507</ele>
        <time>2022-06-10T11:56:24.700Z</time>
      </trkpt>
      <trkpt lat="42.85028" lon="18.01557">
        <ele>308.614936</ele>
        <time>2022-06-10T11:56:27.730Z</time>
      </trkpt>
      <trkpt lat="42.85035" lon="18.01548">
        <ele>308.41443</ele>
        <time>2022-06-10T11:56:29.705Z</time>
      </trkpt>
      <trkpt lat="42.85044" lon="18.01535">
        <ele>308.119699</ele>
        <time>2022-06-10T11:56:32.726Z</time>
      </trkpt>
      <trkpt lat="42.85049" lon="18.01525">
        <ele>307.916775</ele>
        <time>2022-06-10T11:56:34.741Z</time>
      </trkpt>
      <trkpt lat="42.85056" lon="18.0151">
        <ele>307.62085</ele>
        <time>2022-06-10T11:56:37.715Z</time>
      </trkpt>
      <trkpt lat="42.85063" lon="18.01494">
        <ele>307.317813</ele>
        <time>2022-06-10T11:56:40.708Z</time>
      </trkpt>
      <trkpt lat="42.85069" lon="18.01477">
        <ele>307.023379</ele>
        <time>2022-06-10T11:56:43.705Z</time>
      </trkpt>
      <trkpt lat="42.85074" lon="18.01461">
        <ele>306.733823</ele>
        <time>2022-06-10T11:56:46.722Z</time>
      </trkpt>
      <trkpt lat="42.8508" lon="18.01445">
        <ele>306.444675</ele>
        <time>2022-06-10T11:56:49.705Z</time>
      </trkpt>
      <trkpt lat="42.85085" lon="18.01429">
        <ele>306.152683</ele>
        <time>2022-06-10T11:56:52.709Z</time>
      </trkpt>
      <trkpt lat="42.85092" lon="18.01414">
        <ele>305.857116</ele>
        <time>2022-06-10T11:56:55.716Z</time>
      </trkpt>
      <trkpt lat="42.85099" lon="18.01398">
        <ele>305.559803</ele>
        <time>2022-06-10T11:56:58.708Z</time>
      </trkpt>
      <trkpt lat="42.85107" lon="18.01384">
        <ele>305.264765</ele>
        <time>2022-06-10T11:57:01.713Z</time>
      </trkpt>
      <trkpt lat="42.85112" lon="18.01374">
        <ele>305.063243</ele>
        <time>2022-06-10T11:57:03.735Z</time>
      </trkpt>
      <trkpt lat="42.8512" lon="18.0136">
        <ele>304.935275</ele>
        <time>2022-06-10T11:57:06.702Z</time>
      </trkpt>
      <trkpt lat="42.85129" lon="18.01347">
        <ele>304.81719</ele>
        <time>2022-06-10T11:57:09.718Z</time>
      </trkpt>
      <trkpt lat="42.85139" lon="18.01334">
        <ele>304.697726</ele>
        <time>2022-06-10T11:57:12.736Z</time>
      </trkpt>
      <trkpt lat="42.85145" lon="18.01324">
        <ele>304.614351</ele>
        <time>2022-06-10T11:57:14.720Z</time>
      </trkpt>
      <trkpt lat="42.85151" lon="18.01316">
        <ele>304.532555</ele>
        <time>2022-06-10T11:57:16.717Z</time>
      </trkpt>
      <trkpt lat="42.85161" lon="18.01302">
        <ele>304.411989</ele>
        <time>2022-06-10T11:57:19.706Z</time>
      </trkpt>
      <trkpt lat="42.8517" lon="18.0129">
        <ele>304.295679</ele>
        <time>2022-06-10T11:57:22.715Z</time>
      </trkpt>
      <trkpt lat="42.85179" lon="18.01277">
        <ele>304.178394</ele>
        <time>2022-06-10T11:57:25.703Z</time>
      </trkpt>
      <trkpt lat="42.85188" lon="18.01265">
        <ele>304.06161</ele>
        <time>2022-06-10T11:57:28.752Z</time>
      </trkpt>
      <trkpt lat="42.85197" lon="18.01253">
        <ele>303.945893</ele>
        <time>2022-06-10T11:57:31.721Z</time>
      </trkpt>
      <trkpt lat="42.85204" lon="18.01244">
        <ele>303.862834</ele>
        <time>2022-06-10T11:57:33.709Z</time>
      </trkpt>
      <trkpt lat="42.8521" lon="18.01235">
        <ele>303.781168</ele>
        <time>2022-06-10T11:57:35.767Z</time>
      </trkpt>
      <trkpt lat="42.85216" lon="18.01226">
        <ele>303.698663</ele>
        <time>2022-06-10T11:57:37.717Z</time>
      </trkpt>
      <trkpt lat="42.85222" lon="18.01216">
        <ele>303.617349</ele>
        <time>2022-06-10T11:57:39.702Z</time>
      </trkpt>
      <trkpt lat="42.85228" lon="18.01208">
        <ele>303.535553</ele>
        <time>2022-06-10T11:57:41.714Z</time>
      </trkpt>
      <trkpt lat="42.85237" lon="18.01194">
        <ele>303.462728</ele>
        <time>2022-06-10T11:57:44.724Z</time>
      </trkpt>
      <trkpt lat="42.85242" lon="18.01183">
        <ele>303.711865</ele>
        <time>2022-06-10T11:57:46.753Z</time>
      </trkpt>
      <trkpt lat="42.85249" lon="18.01168">
        <ele>304.066939</ele>
        <time>2022-06-10T11:57:49.737Z</time>
      </trkpt>
      <trkpt lat="42.85254" lon="18.01152">
        <ele>304.415053</ele>
        <time>2022-06-10T11:57:52.747Z</time>
      </trkpt>
      <trkpt lat="42.85259" lon="18.01136">
        <ele>304.76905</ele>
        <time>2022-06-10T11:57:55.725Z</time>
      </trkpt>
      <trkpt lat="42.85263" lon="18.0112">
        <ele>305.108591</ele>
        <time>2022-06-10T11:57:58.712Z</time>
      </trkpt>
      <trkpt lat="42.85264" lon="18.01104">
        <ele>305.437465</ele>
        <time>2022-06-10T11:58:01.698Z</time>
      </trkpt>
      <trkpt lat="42.85266" lon="18.01087">
        <ele>305.779261</ele>
        <time>2022-06-10T11:58:04.706Z</time>
      </trkpt>
      <trkpt lat="42.85267" lon="18.0107">
        <ele>306.121824</ele>
        <time>2022-06-10T11:58:07.710Z</time>
      </trkpt>
      <trkpt lat="42.85268" lon="18.01054">
        <ele>306.441496</ele>
        <time>2022-06-10T11:58:10.709Z</time>
      </trkpt>
      <trkpt lat="42.85269" lon="18.01038">
        <ele>306.753597</ele>
        <time>2022-06-10T11:58:13.723Z</time>
      </trkpt>
      <trkpt lat="42.8527" lon="18.01022">
        <ele>307.077468</ele>
        <time>2022-06-10T11:58:16.712Z</time>
      </trkpt>
      <trkpt lat="42.85271" lon="18.01007">
        <ele>307.38641</ele>
        <time>2022-06-10T11:58:19.708Z</time>
      </trkpt>
      <trkpt lat="42.85274" lon="18.00991">
        <ele>307.720896</ele>
        <time>2022-06-10T11:58:22.710Z</time>
      </trkpt>
      <trkpt lat="42.85277" lon="18.00976">
        <ele>308.035021</ele>
        <time>2022-06-10T11:58:25.747Z</time>
      </trkpt>
      <trkpt lat="42.85281" lon="18.00962">
        <ele>308.333193</ele>
        <time>2022-06-10T11:58:28.708Z</time>
      </trkpt>
      <trkpt lat="42.85286" lon="18.00949">
        <ele>308.363547</ele>
        <time>2022-06-10T11:58:31.722Z</time>
      </trkpt>
      <trkpt lat="42.8529" lon="18.00935">
        <ele>308.380752</ele>
        <time>2022-06-10T11:58:34.712Z</time>
      </trkpt>
      <trkpt lat="42.85295" lon="18.00922">
        <ele>308.397749</ele>
        <time>2022-06-10T11:58:37.749Z</time>
      </trkpt>
      <trkpt lat="42.85299" lon="18.00908">
        <ele>308.414763</ele>
        <time>2022-06-10T11:58:40.707Z</time>
      </trkpt>
      <trkpt lat="42.85303" lon="18.00894">
        <ele>308.432024</ele>
        <time>2022-06-10T11:58:43.721Z</time>
      </trkpt>
      <trkpt lat="42.85308" lon="18.00879">
        <ele>308.450535</ele>
        <time>2022-06-10T11:58:46.707Z</time>
      </trkpt>
      <trkpt lat="42.85313" lon="18.00865">
        <ele>308.468356</ele>
        <time>2022-06-10T11:58:49.760Z</time>
      </trkpt>
      <trkpt lat="42.85318" lon="18.00852">
        <ele>308.485042</ele>
        <time>2022-06-10T11:58:52.723Z</time>
      </trkpt>
      <trkpt lat="42.85323" lon="18.00839">
        <ele>308.502809</ele>
        <time>2022-06-10T11:58:55.711Z</time>
      </trkpt>
      <trkpt lat="42.85328" lon="18.00824">
        <ele>308.520897</ele>
        <time>2022-06-10T11:58:58.731Z</time>
      </trkpt>
      <trkpt lat="42.85332" lon="18.00809">
        <ele>308.539612</ele>
        <time>2022-06-10T11:59:01.718Z</time>
      </trkpt>
      <trkpt lat="42.85335" lon="18.00792">
        <ele>308.55937</ele>
        <time>2022-06-10T11:59:04.704Z</time>
      </trkpt>
      <trkpt lat="42.85338" lon="18.00776">
        <ele>308.578837</ele>
        <time>2022-06-10T11:59:07.701Z</time>
      </trkpt>
      <trkpt lat="42.8534" lon="18.0076">
        <ele>308.597735</ele>
        <time>2022-06-10T11:59:10.742Z</time>
      </trkpt>
      <trkpt lat="42.85342" lon="18.00745">
        <ele>308.61491</ele>
        <time>2022-06-10T11:59:13.712Z</time>
      </trkpt>
      <trkpt lat="42.85344" lon="18.00728">
        <ele>308.650209</ele>
        <time>2022-06-10T11:59:16.708Z</time>
      </trkpt>
      <trkpt lat="42.85345" lon="18.00711">
        <ele>308.739046</ele>
        <time>2022-06-10T11:59:19.719Z</time>
      </trkpt>
      <trkpt lat="42.85346" lon="18.00694">
        <ele>308.828464</ele>
        <time>2022-06-10T11:59:22.722Z</time>
      </trkpt>
      <trkpt lat="42.85347" lon="18.00677">
        <ele>308.915431</ele>
        <time>2022-06-10T11:59:25.734Z</time>
      </trkpt>
      <trkpt lat="42.85347" lon="18.0066">
        <ele>309.001883</ele>
        <time>2022-06-10T11:59:28.715Z</time>
      </trkpt>
      <trkpt lat="42.85347" lon="18.00643">
        <ele>309.08879</ele>
        <time>2022-06-10T11:59:31.702Z</time>
      </trkpt>
      <trkpt lat="42.85346" lon="18.00626">
        <ele>309.17853</ele>
        <time>2022-06-10T11:59:34.712Z</time>
      </trkpt>
      <trkpt lat="42.85343" lon="18.00609">
        <ele>309.26869</ele>
        <time>2022-06-10T11:59:37.723Z</time>
      </trkpt>
      <trkpt lat="42.85339" lon="18.00592">
        <ele>309.358983</ele>
        <time>2022-06-10T11:59:40.717Z</time>
      </trkpt>
      <trkpt lat="42.85334" lon="18.00576">
        <ele>309.447941</ele>
        <time>2022-06-10T11:59:43.708Z</time>
      </trkpt>
      <trkpt lat="42.85328" lon="18.0056">
        <ele>309.540872</ele>
        <time>2022-06-10T11:59:46.723Z</time>
      </trkpt>
      <trkpt lat="42.85321" lon="18.00546">
        <ele>309.63068</ele>
        <time>2022-06-10T11:59:49.739Z</time>
      </trkpt>
      <trkpt lat="42.85315" lon="18.00531">
        <ele>309.717435</ele>
        <time>2022-06-10T11:59:52.723Z</time>
      </trkpt>
      <trkpt lat="42.85309" lon="18.00516">
        <ele>309.806534</ele>
        <time>2022-06-10T11:59:55.741Z</time>
      </trkpt>
      <trkpt lat="42.85303" lon="18.00501">
        <ele>309.885217</ele>
        <time>2022-06-10T11:59:58.716Z</time>
      </trkpt>
      <trkpt lat="42.85298" lon="18.00485">
        <ele>309.732576</ele>
        <time>2022-06-10T12:00:01.740Z</time>
      </trkpt>
      <trkpt lat="42.85294" lon="18.0047">
        <ele>309.581209</ele>
        <time>2022-06-10T12:00:04.730Z</time>
      </trkpt>
      <trkpt lat="42.8529" lon="18.00453">
        <ele>309.421259</ele>
        <time>2022-06-10T12:00:07.743Z</time>
      </trkpt>
      <trkpt lat="42.85286" lon="18.00436">
        <ele>309.258358</ele>
        <time>2022-06-10T12:00:10.724Z</time>
      </trkpt>
      <trkpt lat="42.85281" lon="18.0042">
        <ele>309.094484</ele>
        <time>2022-06-10T12:00:13.755Z</time>
      </trkpt>
      <trkpt lat="42.85277" lon="18.00404">
        <ele>308.939257</ele>
        <time>2022-06-10T12:00:16.730Z</time>
      </trkpt>
      <trkpt lat="42.85274" lon="18.00386">
        <ele>308.778639</ele>
        <time>2022-06-10T12:00:19.753Z</time>
      </trkpt>
      <trkpt lat="42.85272" lon="18.00369">
        <ele>308.615107</ele>
        <time>2022-06-10T12:00:22.709Z</time>
      </trkpt>
      <trkpt lat="42.85271" lon="18.00351">
        <ele>308.452398</ele>
        <time>2022-06-10T12:00:25.733Z</time>
      </trkpt>
      <trkpt lat="42.85273" lon="18.00334">
        <ele>308.293919</ele>
        <time>2022-06-10T12:00:28.697Z</time>
      </trkpt>
      <trkpt lat="42.85275" lon="18.00317">
        <ele>308.139787</ele>
        <time>2022-06-10T12:00:31.737Z</time>
      </trkpt>
      <trkpt lat="42.85276" lon="18.003">
        <ele>307.985093</ele>
        <time>2022-06-10T12:00:34.730Z</time>
      </trkpt>
      <trkpt lat="42.85278" lon="18.00283">
        <ele>307.827519</ele>
        <time>2022-06-10T12:00:37.745Z</time>
      </trkpt>
      <trkpt lat="42.85278" lon="18.00266">
        <ele>307.670382</ele>
        <time>2022-06-10T12:00:40.741Z</time>
      </trkpt>
      <trkpt lat="42.85277" lon="18.00248">
        <ele>307.651563</ele>
        <time>2022-06-10T12:00:43.727Z</time>
      </trkpt>
      <trkpt lat="42.85274" lon="18.00231">
        <ele>307.652847</ele>
        <time>2022-06-10T12:00:46.712Z</time>
      </trkpt>
      <trkpt lat="42.85271" lon="18.00214">
        <ele>307.654123</ele>
        <time>2022-06-10T12:00:49.746Z</time>
      </trkpt>
      <trkpt lat="42.85266" lon="18.00198">
        <ele>307.655386</ele>
        <time>2022-06-10T12:00:52.704Z</time>
      </trkpt>
      <trkpt lat="42.85261" lon="18.00181">
        <ele>307.656715</ele>
        <time>2022-06-10T12:00:55.742Z</time>
      </trkpt>
      <trkpt lat="42.85257" lon="18.0017">
        <ele>307.657617</ele>
        <time>2022-06-10T12:00:57.719Z</time>
      </trkpt>
      <trkpt lat="42.85254" lon="18.00158">
        <ele>307.658519</ele>
        <time>2022-06-10T12:00:59.712Z</time>
      </trkpt>
      <trkpt lat="42.85249" lon="18.00141">
        <ele>307.65984</ele>
        <time>2022-06-10T12:01:02.701Z</time>
      </trkpt>
      <trkpt lat="42.85244" lon="18.00125">
        <ele>307.661127</ele>
        <time>2022-06-10T12:01:05.750Z</time>
      </trkpt>
      <trkpt lat="42.85241" lon="18.00113">
        <ele>307.66203</ele>
        <time>2022-06-10T12:01:07.708Z</time>
      </trkpt>
      <trkpt lat="42.85237" lon="18.00102">
        <ele>307.662928</ele>
        <time>2022-06-10T12:01:09.711Z</time>
      </trkpt>
      <trkpt lat="42.85233" lon="18.00086">
        <ele>307.664175</ele>
        <time>2022-06-10T12:01:12.708Z</time>
      </trkpt>
      <trkpt lat="42.85228" lon="18.0007">
        <ele>307.665422</ele>
        <time>2022-06-10T12:01:15.737Z</time>
      </trkpt>
      <trkpt lat="42.85223" lon="18.00055">
        <ele>307.666652</ele>
        <time>2022-06-10T12:01:18.734Z</time>
      </trkpt>
      <trkpt lat="42.85218" lon="18.00039">
        <ele>307.667899</ele>
        <time>2022-06-10T12:01:21.727Z</time>
      </trkpt>
      <trkpt lat="42.85214" lon="18.00023">
        <ele>307.712138</ele>
        <time>2022-06-10T12:01:24.727Z</time>
      </trkpt>
      <trkpt lat="42.8521" lon="18.00008">
        <ele>307.77071</ele>
        <time>2022-06-10T12:01:27.713Z</time>
      </trkpt>
      <trkpt lat="42.85206" lon="17.99994">
        <ele>307.82801</ele>
        <time>2022-06-10T12:01:30.743Z</time>
      </trkpt>
      <trkpt lat="42.85201" lon="17.99979">
        <ele>307.888513</ele>
        <time>2022-06-10T12:01:33.737Z</time>
      </trkpt>
      <trkpt lat="42.85194" lon="17.99965">
        <ele>307.950084</ele>
        <time>2022-06-10T12:01:36.722Z</time>
      </trkpt>
      <trkpt lat="42.85187" lon="17.99951">
        <ele>308.014762</ele>
        <time>2022-06-10T12:01:39.741Z</time>
      </trkpt>
      <trkpt lat="42.8518" lon="17.99936">
        <ele>308.0804</ele>
        <time>2022-06-10T12:01:42.699Z</time>
      </trkpt>
      <trkpt lat="42.85172" lon="17.99924">
        <ele>308.140835</ele>
        <time>2022-06-10T12:01:45.758Z</time>
      </trkpt>
      <trkpt lat="42.85163" lon="17.99914">
        <ele>308.19643</ele>
        <time>2022-06-10T12:01:48.698Z</time>
      </trkpt>
      <trkpt lat="42.85153" lon="17.99904">
        <ele>308.262754</ele>
        <time>2022-06-10T12:01:51.714Z</time>
      </trkpt>
      <trkpt lat="42.85142" lon="17.99893">
        <ele>308.329302</ele>
        <time>2022-06-10T12:01:54.717Z</time>
      </trkpt>
      <trkpt lat="42.85131" lon="17.99882">
        <ele>308.39751</ele>
        <time>2022-06-10T12:01:57.705Z</time>
      </trkpt>
      <trkpt lat="42.85122" lon="17.99872">
        <ele>308.45927</ele>
        <time>2022-06-10T12:02:00.709Z</time>
      </trkpt>
      <trkpt lat="42.85114" lon="17.99861">
        <ele>308.515652</ele>
        <time>2022-06-10T12:02:03.711Z</time>
      </trkpt>
      <trkpt lat="42.85108" lon="17.9985">
        <ele>308.568652</ele>
        <time>2022-06-10T12:02:06.737Z</time>
      </trkpt>
      <trkpt lat="42.85102" lon="17.99838">
        <ele>308.616669</ele>
        <time>2022-06-10T12:02:09.715Z</time>
      </trkpt>
      <trkpt lat="42.85096" lon="17.99829">
        <ele>308.659687</ele>
        <time>2022-06-10T12:02:12.727Z</time>
      </trkpt>
      <trkpt lat="42.8509" lon="17.99816">
        <ele>308.709589</ele>
        <time>2022-06-10T12:02:16.734Z</time>
      </trkpt>
      <trkpt lat="42.85086" lon="17.99804">
        <ele>308.755764</ele>
        <time>2022-06-10T12:02:19.727Z</time>
      </trkpt>
      <trkpt lat="42.85082" lon="17.99793">
        <ele>308.798576</ele>
        <time>2022-06-10T12:02:22.731Z</time>
      </trkpt>
      <trkpt lat="42.8508" lon="17.99781">
        <ele>308.841166</ele>
        <time>2022-06-10T12:02:25.727Z</time>
      </trkpt>
      <trkpt lat="42.85076" lon="17.99765">
        <ele>308.898242</ele>
        <time>2022-06-10T12:02:29.707Z</time>
      </trkpt>
      <trkpt lat="42.85075" lon="17.99752">
        <ele>308.942416</ele>
        <time>2022-06-10T12:02:32.709Z</time>
      </trkpt>
      <trkpt lat="42.85073" lon="17.99739">
        <ele>308.988556</ele>
        <time>2022-06-10T12:02:35.747Z</time>
      </trkpt>
      <trkpt lat="42.85071" lon="17.99727">
        <ele>309.033305</ele>
        <time>2022-06-10T12:02:38.713Z</time>
      </trkpt>
      <trkpt lat="42.85069" lon="17.99714">
        <ele>309.078682</ele>
        <time>2022-06-10T12:02:41.716Z</time>
      </trkpt>
      <trkpt lat="42.85066" lon="17.99701">
        <ele>309.122641</ele>
        <time>2022-06-10T12:02:44.699Z</time>
      </trkpt>
      <trkpt lat="42.85062" lon="17.99689">
        <ele>309.169607</ele>
        <time>2022-06-10T12:02:47.727Z</time>
      </trkpt>
      <trkpt lat="42.85058" lon="17.99676">
        <ele>309.218867</ele>
        <time>2022-06-10T12:02:50.711Z</time>
      </trkpt>
      <trkpt lat="42.85052" lon="17.99664">
        <ele>309.26561</ele>
        <time>2022-06-10T12:02:53.727Z</time>
      </trkpt>
      <trkpt lat="42.85047" lon="17.99653">
        <ele>309.312139</ele>
        <time>2022-06-10T12:02:56.729Z</time>
      </trkpt>
      <trkpt lat="42.85039" lon="17.99643">
        <ele>309.363312</ele>
        <time>2022-06-10T12:02:59.714Z</time>
      </trkpt>
      <trkpt lat="42.8503" lon="17.99632">
        <ele>309.418484</ele>
        <time>2022-06-10T12:03:02.729Z</time>
      </trkpt>
      <trkpt lat="42.85021" lon="17.99621">
        <ele>309.607054</ele>
        <time>2022-06-10T12:03:05.704Z</time>
      </trkpt>
      <trkpt lat="42.85011" lon="17.99612">
        <ele>309.805877</ele>
        <time>2022-06-10T12:03:08.709Z</time>
      </trkpt>
      <trkpt lat="42.85001" lon="17.99603">
        <ele>310.001289</ele>
        <time>2022-06-10T12:03:11.715Z</time>
      </trkpt>
      <trkpt lat="42.84992" lon="17.99594">
        <ele>310.195288</ele>
        <time>2022-06-10T12:03:14.709Z</time>
      </trkpt>
      <trkpt lat="42.84982" lon="17.99584">
        <ele>310.383932</ele>
        <time>2022-06-10T12:03:17.707Z</time>
      </trkpt>
      <trkpt lat="42.84973" lon="17.99575">
        <ele>310.568029</ele>
        <time>2022-06-10T12:03:20.710Z</time>
      </trkpt>
      <trkpt lat="42.84966" lon="17.99565">
        <ele>310.743365</ele>
        <time>2022-06-10T12:03:23.700Z</time>
      </trkpt>
      <trkpt lat="42.84959" lon="17.99553">
        <ele>310.92161</ele>
        <time>2022-06-10T12:03:26.740Z</time>
      </trkpt>
      <trkpt lat="42.84951" lon="17.99541">
        <ele>311.112359</ele>
        <time>2022-06-10T12:03:29.714Z</time>
      </trkpt>
      <trkpt lat="42.84944" lon="17.99529">
        <ele>311.30082</ele>
        <time>2022-06-10T12:03:32.699Z</time>
      </trkpt>
      <trkpt lat="42.84937" lon="17.99517">
        <ele>311.489737</ele>
        <time>2022-06-10T12:03:35.723Z</time>
      </trkpt>
      <trkpt lat="42.84931" lon="17.99505">
        <ele>311.666591</ele>
        <time>2022-06-10T12:03:38.713Z</time>
      </trkpt>
      <trkpt lat="42.84924" lon="17.99493">
        <ele>311.848147</ele>
        <time>2022-06-10T12:03:41.710Z</time>
      </trkpt>
      <trkpt lat="42.84917" lon="17.99482">
        <ele>312.021224</ele>
        <time>2022-06-10T12:03:44.711Z</time>
      </trkpt>
      <trkpt lat="42.84908" lon="17.9947">
        <ele>312.228415</ele>
        <time>2022-06-10T12:03:47.731Z</time>
      </trkpt>
      <trkpt lat="42.84901" lon="17.99456">
        <ele>312.341799</ele>
        <time>2022-06-10T12:03:50.719Z</time>
      </trkpt>
      <trkpt lat="42.84893" lon="17.99444">
        <ele>312.2206</ele>
        <time>2022-06-10T12:03:53.723Z</time>
      </trkpt>
      <trkpt lat="42.84887" lon="17.9943">
        <ele>312.098879</ele>
        <time>2022-06-10T12:03:56.747Z</time>
      </trkpt>
      <trkpt lat="42.8488" lon="17.99416">
        <ele>311.975074</ele>
        <time>2022-06-10T12:03:59.705Z</time>
      </trkpt>
      <trkpt lat="42.84874" lon="17.99403">
        <ele>311.86049</ele>
        <time>2022-06-10T12:04:02.722Z</time>
      </trkpt>
      <trkpt lat="42.84869" lon="17.9939">
        <ele>311.750015</ele>
        <time>2022-06-10T12:04:05.713Z</time>
      </trkpt>
      <trkpt lat="42.84863" lon="17.99377">
        <ele>311.636831</ele>
        <time>2022-06-10T12:04:08.720Z</time>
      </trkpt>
      <trkpt lat="42.84857" lon="17.99364">
        <ele>311.530011</ele>
        <time>2022-06-10T12:04:11.719Z</time>
      </trkpt>
      <trkpt lat="42.84852" lon="17.99351">
        <ele>311.418771</ele>
        <time>2022-06-10T12:04:14.711Z</time>
      </trkpt>
      <trkpt lat="42.84846" lon="17.99338">
        <ele>311.308217</ele>
        <time>2022-06-10T12:04:17.724Z</time>
      </trkpt>
      <trkpt lat="42.84841" lon="17.99325">
        <ele>311.196051</ele>
        <time>2022-06-10T12:04:20.810Z</time>
      </trkpt>
      <trkpt lat="42.84836" lon="17.99311">
        <ele>311.078033</ele>
        <time>2022-06-10T12:04:23.704Z</time>
      </trkpt>
      <trkpt lat="42.84829" lon="17.99297">
        <ele>310.95558</ele>
        <time>2022-06-10T12:04:26.768Z</time>
      </trkpt>
      <trkpt lat="42.84823" lon="17.99283">
        <ele>310.833945</ele>
        <time>2022-06-10T12:04:29.738Z</time>
      </trkpt>
      <trkpt lat="42.84816" lon="17.99269">
        <ele>310.715403</ele>
        <time>2022-06-10T12:04:32.716Z</time>
      </trkpt>
      <trkpt lat="42.8481" lon="17.99256">
        <ele>310.602151</ele>
        <time>2022-06-10T12:04:35.732Z</time>
      </trkpt>
      <trkpt lat="42.84804" lon="17.99242">
        <ele>310.529642</ele>
        <time>2022-06-10T12:04:38.719Z</time>
      </trkpt>
      <trkpt lat="42.84798" lon="17.99228">
        <ele>310.480069</ele>
        <time>2022-06-10T12:04:41.740Z</time>
      </trkpt>
      <trkpt lat="42.84792" lon="17.99214">
        <ele>310.429258</ele>
        <time>2022-06-10T12:04:44.714Z</time>
      </trkpt>
      <trkpt lat="42.84786" lon="17.99201">
        <ele>310.377851</ele>
        <time>2022-06-10T12:04:47.747Z</time>
      </trkpt>
      <trkpt lat="42.84779" lon="17.99187">
        <ele>310.326506</ele>
        <time>2022-06-10T12:04:50.707Z</time>
      </trkpt>
      <trkpt lat="42.84773" lon="17.99177">
        <ele>310.286489</ele>
        <time>2022-06-10T12:04:52.703Z</time>
      </trkpt>
      <trkpt lat="42.84768" lon="17.99166">
        <ele>310.245916</ele>
        <time>2022-06-10T12:04:54.708Z</time>
      </trkpt>
      <trkpt lat="42.84764" lon="17.99155">
        <ele>310.206614</ele>
        <time>2022-06-10T12:04:56.769Z</time>
      </trkpt>
      <trkpt lat="42.84761" lon="17.99143">
        <ele>310.167806</ele>
        <time>2022-06-10T12:04:58.758Z</time>
      </trkpt>
      <trkpt lat="42.84761" lon="17.99127">
        <ele>310.118196</ele>
        <time>2022-06-10T12:05:01.689Z</time>
      </trkpt>
      <trkpt lat="42.8476" lon="17.99111">
        <ele>310.067921</ele>
        <time>2022-06-10T12:05:05.702Z</time>
      </trkpt>
      <trkpt lat="42.84757" lon="17.99097">
        <ele>310.023873</ele>
        <time>2022-06-10T12:05:08.703Z</time>
      </trkpt>
      <trkpt lat="42.84755" lon="17.99082">
        <ele>309.976487</ele>
        <time>2022-06-10T12:05:11.714Z</time>
      </trkpt>
      <trkpt lat="42.84752" lon="17.99066">
        <ele>309.924921</ele>
        <time>2022-06-10T12:05:14.717Z</time>
      </trkpt>
      <trkpt lat="42.8475" lon="17.9905">
        <ele>309.87208</ele>
        <time>2022-06-10T12:05:17.720Z</time>
      </trkpt>
      <trkpt lat="42.84747" lon="17.99034">
        <ele>309.822666</ele>
        <time>2022-06-10T12:05:20.733Z</time>
      </trkpt>
      <trkpt lat="42.84744" lon="17.99019">
        <ele>309.826063</ele>
        <time>2022-06-10T12:05:23.716Z</time>
      </trkpt>
      <trkpt lat="42.8474" lon="17.99004">
        <ele>309.879173</ele>
        <time>2022-06-10T12:05:26.764Z</time>
      </trkpt>
      <trkpt lat="42.84734" lon="17.98989">
        <ele>309.935523</ele>
        <time>2022-06-10T12:05:29.710Z</time>
      </trkpt>
      <trkpt lat="42.84727" lon="17.98974">
        <ele>309.99345</ele>
        <time>2022-06-10T12:05:32.723Z</time>
      </trkpt>
      <trkpt lat="42.8472" lon="17.98959">
        <ele>310.051806</ele>
        <time>2022-06-10T12:05:35.701Z</time>
      </trkpt>
      <trkpt lat="42.84711" lon="17.98946">
        <ele>310.110123</ele>
        <time>2022-06-10T12:05:38.710Z</time>
      </trkpt>
      <trkpt lat="42.84702" lon="17.98933">
        <ele>310.168521</ele>
        <time>2022-06-10T12:05:41.712Z</time>
      </trkpt>
      <trkpt lat="42.84693" lon="17.98921">
        <ele>310.227467</ele>
        <time>2022-06-10T12:05:44.727Z</time>
      </trkpt>
      <trkpt lat="42.84686" lon="17.98912">
        <ele>310.269392</ele>
        <time>2022-06-10T12:05:46.735Z</time>
      </trkpt>
      <trkpt lat="42.84679" lon="17.98903">
        <ele>310.311437</ele>
        <time>2022-06-10T12:05:48.703Z</time>
      </trkpt>
      <trkpt lat="42.84671" lon="17.9889">
        <ele>310.369865</ele>
        <time>2022-06-10T12:05:51.716Z</time>
      </trkpt>
      <trkpt lat="42.84662" lon="17.98877">
        <ele>310.427096</ele>
        <time>2022-06-10T12:05:54.734Z</time>
      </trkpt>
      <trkpt lat="42.84655" lon="17.98862">
        <ele>310.484497</ele>
        <time>2022-06-10T12:05:57.708Z</time>
      </trkpt>
      <trkpt lat="42.84649" lon="17.98846">
        <ele>310.543688</ele>
        <time>2022-06-10T12:06:00.737Z</time>
      </trkpt>
      <trkpt lat="42.84645" lon="17.98829">
        <ele>310.602663</ele>
        <time>2022-06-10T12:06:03.720Z</time>
      </trkpt>
      <trkpt lat="42.84642" lon="17.98817">
        <ele>310.526928</ele>
        <time>2022-06-10T12:06:05.734Z</time>
      </trkpt>
      <trkpt lat="42.84638" lon="17.98805">
        <ele>310.441819</ele>
        <time>2022-06-10T12:06:07.710Z</time>
      </trkpt>
      <trkpt lat="42.84634" lon="17.98789">
        <ele>310.321239</ele>
        <time>2022-06-10T12:06:10.699Z</time>
      </trkpt>
      <trkpt lat="42.8463" lon="17.98772">
        <ele>310.20166</ele>
        <time>2022-06-10T12:06:13.705Z</time>
      </trkpt>
      <trkpt lat="42.84627" lon="17.98755">
        <ele>310.083803</ele>
        <time>2022-06-10T12:06:16.707Z</time>
      </trkpt>
      <trkpt lat="42.84624" lon="17.98738">
        <ele>309.963004</ele>
        <time>2022-06-10T12:06:19.715Z</time>
      </trkpt>
      <trkpt lat="42.8462" lon="17.98721">
        <ele>309.842331</ele>
        <time>2022-06-10T12:06:22.718Z</time>
      </trkpt>
      <trkpt lat="42.84617" lon="17.98705">
        <ele>309.72932</ele>
        <time>2022-06-10T12:06:25.762Z</time>
      </trkpt>
      <trkpt lat="42.84615" lon="17.98687">
        <ele>309.608245</ele>
        <time>2022-06-10T12:06:28.710Z</time>
      </trkpt>
      <trkpt lat="42.84614" lon="17.9867">
        <ele>309.490932</ele>
        <time>2022-06-10T12:06:31.720Z</time>
      </trkpt>
      <trkpt lat="42.84613" lon="17.98653">
        <ele>309.378185</ele>
        <time>2022-06-10T12:06:34.686Z</time>
      </trkpt>
      <trkpt lat="42.84613" lon="17.98636">
        <ele>309.260588</ele>
        <time>2022-06-10T12:06:37.686Z</time>
      </trkpt>
      <trkpt lat="42.84613" lon="17.98618">
        <ele>309.141054</ele>
        <time>2022-06-10T12:06:40.718Z</time>
      </trkpt>
      <trkpt lat="42.84613" lon="17.98601">
        <ele>309.023497</ele>
        <time>2022-06-10T12:06:43.717Z</time>
      </trkpt>
      <trkpt lat="42.84612" lon="17.98584">
        <ele>308.940986</ele>
        <time>2022-06-10T12:06:46.702Z</time>
      </trkpt>
      <trkpt lat="42.84612" lon="17.98566">
        <ele>308.941786</ele>
        <time>2022-06-10T12:06:49.722Z</time>
      </trkpt>
      <trkpt lat="42.84611" lon="17.98554">
        <ele>308.942349</ele>
        <time>2022-06-10T12:06:51.720Z</time>
      </trkpt>
      <trkpt lat="42.84611" lon="17.98536">
        <ele>308.943148</ele>
        <time>2022-06-10T12:06:54.706Z</time>
      </trkpt>
      <trkpt lat="42.8461" lon="17.98518">
        <ele>308.943956</ele>
        <time>2022-06-10T12:06:57.679Z</time>
      </trkpt>
      <trkpt lat="42.8461" lon="17.985">
        <ele>308.944768</ele>
        <time>2022-06-10T12:07:00.684Z</time>
      </trkpt>
      <trkpt lat="42.84609" lon="17.98482">
        <ele>308.945591</ele>
        <time>2022-06-10T12:07:03.683Z</time>
      </trkpt>
      <trkpt lat="42.84608" lon="17.98464">
        <ele>308.946403</ele>
        <time>2022-06-10T12:07:06.711Z</time>
      </trkpt>
      <trkpt lat="42.84608" lon="17.98446">
        <ele>308.94721</ele>
        <time>2022-06-10T12:07:09.682Z</time>
      </trkpt>
      <trkpt lat="42.84608" lon="17.98428">
        <ele>308.948027</ele>
        <time>2022-06-10T12:07:12.687Z</time>
      </trkpt>
      <trkpt lat="42.84607" lon="17.9841">
        <ele>308.94882</ele>
        <time>2022-06-10T12:07:15.683Z</time>
      </trkpt>
      <trkpt lat="42.84607" lon="17.98392">
        <ele>308.949632</ele>
        <time>2022-06-10T12:07:18.684Z</time>
      </trkpt>
      <trkpt lat="42.84608" lon="17.98374">
        <ele>308.950431</ele>
        <time>2022-06-10T12:07:21.687Z</time>
      </trkpt>
      <trkpt lat="42.8461" lon="17.98357">
        <ele>308.951207</ele>
        <time>2022-06-10T12:07:24.698Z</time>
      </trkpt>
      <trkpt lat="42.84613" lon="17.98341">
        <ele>308.975033</ele>
        <time>2022-06-10T12:07:27.683Z</time>
      </trkpt>
      <trkpt lat="42.84616" lon="17.98329">
        <ele>309.058332</ele>
        <time>2022-06-10T12:07:29.742Z</time>
      </trkpt>
      <trkpt lat="42.84621" lon="17.98316">
        <ele>309.162014</ele>
        <time>2022-06-10T12:07:32.692Z</time>
      </trkpt>
      <trkpt lat="42.84624" lon="17.98303">
        <ele>309.250144</ele>
        <time>2022-06-10T12:07:35.678Z</time>
      </trkpt>
      <trkpt lat="42.84628" lon="17.98287">
        <ele>309.366027</ele>
        <time>2022-06-10T12:07:38.690Z</time>
      </trkpt>
      <trkpt lat="42.84633" lon="17.9827">
        <ele>309.483818</ele>
        <time>2022-06-10T12:07:41.702Z</time>
      </trkpt>
      <trkpt lat="42.84637" lon="17.98258">
        <ele>309.57278</ele>
        <time>2022-06-10T12:07:43.689Z</time>
      </trkpt>
      <trkpt lat="42.84641" lon="17.98245">
        <ele>309.663939</ele>
        <time>2022-06-10T12:07:45.690Z</time>
      </trkpt>
      <trkpt lat="42.84643" lon="17.98233">
        <ele>309.748307</ele>
        <time>2022-06-10T12:07:47.723Z</time>
      </trkpt>
      <trkpt lat="42.84647" lon="17.98221">
        <ele>309.836316</ele>
        <time>2022-06-10T12:07:49.692Z</time>
      </trkpt>
      <trkpt lat="42.8465" lon="17.98209">
        <ele>309.921311</ele>
        <time>2022-06-10T12:07:51.685Z</time>
      </trkpt>
      <trkpt lat="42.84654" lon="17.98197">
        <ele>310.009241</ele>
        <time>2022-06-10T12:07:53.682Z</time>
      </trkpt>
      <trkpt lat="42.84658" lon="17.98183">
        <ele>310.110394</ele>
        <time>2022-06-10T12:07:55.679Z</time>
      </trkpt>
      <trkpt lat="42.84662" lon="17.9817">
        <ele>310.199427</ele>
        <time>2022-06-10T12:07:57.683Z</time>
      </trkpt>
      <trkpt lat="42.84666" lon="17.98159">
        <ele>310.283342</ele>
        <time>2022-06-10T12:07:59.686Z</time>
      </trkpt>
      <trkpt lat="42.84671" lon="17.98142">
        <ele>310.406748</ele>
        <time>2022-06-10T12:08:02.702Z</time>
      </trkpt>
      <trkpt lat="42.84674" lon="17.98125">
        <ele>310.525567</ele>
        <time>2022-06-10T12:08:05.693Z</time>
      </trkpt>
      <trkpt lat="42.8468" lon="17.98108">
        <ele>310.588221</ele>
        <time>2022-06-10T12:08:08.682Z</time>
      </trkpt>
      <trkpt lat="42.84684" lon="17.98092">
        <ele>310.588221</ele>
        <time>2022-06-10T12:08:11.685Z</time>
      </trkpt>
      <trkpt lat="42.8469" lon="17.98076">
        <ele>310.588221</ele>
        <time>2022-06-10T12:08:14.699Z</time>
      </trkpt>
      <trkpt lat="42.84696" lon="17.98061">
        <ele>310.588221</ele>
        <time>2022-06-10T12:08:17.691Z</time>
      </trkpt>
      <trkpt lat="42.84703" lon="17.98047">
        <ele>310.588221</ele>
        <time>2022-06-10T12:08:20.686Z</time>
      </trkpt>
      <trkpt lat="42.8471" lon="17.98035">
        <ele>310.588221</ele>
        <time>2022-06-10T12:08:23.684Z</time>
      </trkpt>
      <trkpt lat="42.84717" lon="17.98024">
        <ele>310.588221</ele>
        <time>2022-06-10T12:08:26.684Z</time>
      </trkpt>
      <trkpt lat="42.84724" lon="17.98015">
        <ele>310.588221</ele>
        <time>2022-06-10T12:08:29.689Z</time>
      </trkpt>
      <trkpt lat="42.8473" lon="17.98006">
        <ele>310.588221</ele>
        <time>2022-06-10T12:08:32.682Z</time>
      </trkpt>
      <trkpt lat="42.84734" lon="17.97994">
        <ele>310.588221</ele>
        <time>2022-06-10T12:08:38.678Z</time>
      </trkpt>
      <trkpt lat="42.84727" lon="17.97996">
        <ele>310.588221</ele>
        <time>2022-06-10T12:09:36.983Z</time>
      </trkpt>
    </trkseg>
  </trk>
</gpx>